<?xml version="1.0" encoding="UTF-8" standalone="no" ?>
<gpx xmlns="http://www.topografix.com/GPX/1/1" xmlns:xsi="http://www.w3.org/2001/XMLSchema-instance" xsi:schemaLocation="http://www.topografix.com/GPX/1/1 http://www.topografix.com/GPX/1/1/gpx.xsd" version="1.1" creator="VisuGPX - https://www.visugpx.com">
  <metadata>
    <name>Entre la Montagnette et le pic de Ballonque (65 au pied du Pic du Midi de Bigorre)</name>
    <desc><![CDATA[Très belle journée. Ski-herbe au démarrage. Déjeuner au son des avalanches qui descendaient du Pic du Midi. Bonne neige peu transformée au début de la descente, plus lourde ensuite. Le printemps est là.]]></desc>
  </metadata>
  <trk>
    <name><![CDATA[Entre la Montagnette et le pic de Ballonque (65 au pied du Pic du Midi de Bigorre)_1]]></name>
    <trkseg>
      <trkpt lat="42.92706" lon="0.19841">
        <ele>1273</ele>
        <time>2013-03-24T08:06:55Z</time>
      </trkpt>
      <trkpt lat="42.92727" lon="0.19816">
        <ele>1293</ele>
        <time>2013-03-24T08:09:04Z</time>
      </trkpt>
      <trkpt lat="42.92727" lon="0.19814">
        <ele>1293</ele>
        <time>2013-03-24T08:09:07Z</time>
      </trkpt>
      <trkpt lat="42.92729" lon="0.19812">
        <ele>1293</ele>
        <time>2013-03-24T08:09:09Z</time>
      </trkpt>
      <trkpt lat="42.92728" lon="0.19811">
        <ele>1293</ele>
        <time>2013-03-24T08:09:15Z</time>
      </trkpt>
      <trkpt lat="42.92726" lon="0.19809">
        <ele>1295</ele>
        <time>2013-03-24T08:09:17Z</time>
      </trkpt>
      <trkpt lat="42.92725" lon="0.19808">
        <ele>1295</ele>
        <time>2013-03-24T08:09:19Z</time>
      </trkpt>
      <trkpt lat="42.92724" lon="0.19806">
        <ele>1296</ele>
        <time>2013-03-24T08:09:21Z</time>
      </trkpt>
      <trkpt lat="42.92722" lon="0.19805">
        <ele>1298</ele>
        <time>2013-03-24T08:09:23Z</time>
      </trkpt>
      <trkpt lat="42.92721" lon="0.19807">
        <ele>1299</ele>
        <time>2013-03-24T08:09:25Z</time>
      </trkpt>
      <trkpt lat="42.9272" lon="0.19807">
        <ele>1301</ele>
        <time>2013-03-24T08:09:27Z</time>
      </trkpt>
      <trkpt lat="42.92718" lon="0.19809">
        <ele>1303</ele>
        <time>2013-03-24T08:09:29Z</time>
      </trkpt>
      <trkpt lat="42.92717" lon="0.19812">
        <ele>1305</ele>
        <time>2013-03-24T08:09:31Z</time>
      </trkpt>
      <trkpt lat="42.92716" lon="0.19814">
        <ele>1307</ele>
        <time>2013-03-24T08:09:33Z</time>
      </trkpt>
      <trkpt lat="42.92716" lon="0.19812">
        <ele>1309</ele>
        <time>2013-03-24T08:09:35Z</time>
      </trkpt>
      <trkpt lat="42.92717" lon="0.19809">
        <ele>1311</ele>
        <time>2013-03-24T08:09:37Z</time>
      </trkpt>
      <trkpt lat="42.92718" lon="0.19807">
        <ele>1312</ele>
        <time>2013-03-24T08:09:40Z</time>
      </trkpt>
      <trkpt lat="42.92719" lon="0.19806">
        <ele>1312</ele>
        <time>2013-03-24T08:09:41Z</time>
      </trkpt>
      <trkpt lat="42.9272" lon="0.19805">
        <ele>1312</ele>
        <time>2013-03-24T08:09:47Z</time>
      </trkpt>
      <trkpt lat="42.92719" lon="0.19806">
        <ele>1310</ele>
        <time>2013-03-24T08:09:50Z</time>
      </trkpt>
      <trkpt lat="42.92717" lon="0.19807">
        <ele>1310</ele>
        <time>2013-03-24T08:09:51Z</time>
      </trkpt>
      <trkpt lat="42.92716" lon="0.19807">
        <ele>1310</ele>
        <time>2013-03-24T08:09:53Z</time>
      </trkpt>
      <trkpt lat="42.92716" lon="0.19806">
        <ele>1309</ele>
        <time>2013-03-24T08:09:59Z</time>
      </trkpt>
      <trkpt lat="42.92716" lon="0.19804">
        <ele>1307</ele>
        <time>2013-03-24T08:10:02Z</time>
      </trkpt>
      <trkpt lat="42.92717" lon="0.19803">
        <ele>1307</ele>
        <time>2013-03-24T08:10:03Z</time>
      </trkpt>
      <trkpt lat="42.92716" lon="0.19805">
        <ele>1307</ele>
        <time>2013-03-24T08:10:10Z</time>
      </trkpt>
      <trkpt lat="42.92715" lon="0.19807">
        <ele>1307</ele>
        <time>2013-03-24T08:10:11Z</time>
      </trkpt>
      <trkpt lat="42.92715" lon="0.19805">
        <ele>1307</ele>
        <time>2013-03-24T08:10:14Z</time>
      </trkpt>
      <trkpt lat="42.92716" lon="0.19805">
        <ele>1307</ele>
        <time>2013-03-24T08:10:16Z</time>
      </trkpt>
      <trkpt lat="42.92717" lon="0.19806">
        <ele>1305</ele>
        <time>2013-03-24T08:10:19Z</time>
      </trkpt>
      <trkpt lat="42.92717" lon="0.19808">
        <ele>1305</ele>
        <time>2013-03-24T08:10:20Z</time>
      </trkpt>
      <trkpt lat="42.92717" lon="0.1981">
        <ele>1305</ele>
        <time>2013-03-24T08:10:21Z</time>
      </trkpt>
      <trkpt lat="42.92717" lon="0.19811">
        <ele>1305</ele>
        <time>2013-03-24T08:10:25Z</time>
      </trkpt>
      <trkpt lat="42.92717" lon="0.19814">
        <ele>1305</ele>
        <time>2013-03-24T08:10:28Z</time>
      </trkpt>
      <trkpt lat="42.92717" lon="0.19812">
        <ele>1305</ele>
        <time>2013-03-24T08:10:30Z</time>
      </trkpt>
      <trkpt lat="42.92717" lon="0.19814">
        <ele>1305</ele>
        <time>2013-03-24T08:10:33Z</time>
      </trkpt>
      <trkpt lat="42.92717" lon="0.19812">
        <ele>1305</ele>
        <time>2013-03-24T08:10:38Z</time>
      </trkpt>
      <trkpt lat="42.92718" lon="0.19811">
        <ele>1304</ele>
        <time>2013-03-24T08:10:42Z</time>
      </trkpt>
      <trkpt lat="42.92719" lon="0.19809">
        <ele>1302</ele>
        <time>2013-03-24T08:10:45Z</time>
      </trkpt>
      <trkpt lat="42.92718" lon="0.19811">
        <ele>1301</ele>
        <time>2013-03-24T08:10:48Z</time>
      </trkpt>
      <trkpt lat="42.92718" lon="0.19809">
        <ele>1301</ele>
        <time>2013-03-24T08:10:53Z</time>
      </trkpt>
      <trkpt lat="42.92717" lon="0.1981">
        <ele>1301</ele>
        <time>2013-03-24T08:10:55Z</time>
      </trkpt>
      <trkpt lat="42.92716" lon="0.19812">
        <ele>1303</ele>
        <time>2013-03-24T08:10:57Z</time>
      </trkpt>
      <trkpt lat="42.92716" lon="0.19811">
        <ele>1306</ele>
        <time>2013-03-24T08:11:01Z</time>
      </trkpt>
      <trkpt lat="42.92717" lon="0.19811">
        <ele>1306</ele>
        <time>2013-03-24T08:11:04Z</time>
      </trkpt>
      <trkpt lat="42.92719" lon="0.19811">
        <ele>1306</ele>
        <time>2013-03-24T08:11:07Z</time>
      </trkpt>
      <trkpt lat="42.92719" lon="0.19812">
        <ele>1306</ele>
        <time>2013-03-24T08:11:08Z</time>
      </trkpt>
      <trkpt lat="42.92717" lon="0.19814">
        <ele>1306</ele>
        <time>2013-03-24T08:11:09Z</time>
      </trkpt>
      <trkpt lat="42.92716" lon="0.19815">
        <ele>1306</ele>
        <time>2013-03-24T08:11:10Z</time>
      </trkpt>
      <trkpt lat="42.92715" lon="0.19816">
        <ele>1306</ele>
        <time>2013-03-24T08:11:12Z</time>
      </trkpt>
      <trkpt lat="42.92713" lon="0.19816">
        <ele>1306</ele>
        <time>2013-03-24T08:11:13Z</time>
      </trkpt>
      <trkpt lat="42.92712" lon="0.19815">
        <ele>1306</ele>
        <time>2013-03-24T08:11:14Z</time>
      </trkpt>
      <trkpt lat="42.92711" lon="0.19817">
        <ele>1312</ele>
        <time>2013-03-24T08:11:20Z</time>
      </trkpt>
      <trkpt lat="42.92713" lon="0.19816">
        <ele>1313</ele>
        <time>2013-03-24T08:11:22Z</time>
      </trkpt>
      <trkpt lat="42.92714" lon="0.19817">
        <ele>1314</ele>
        <time>2013-03-24T08:11:24Z</time>
      </trkpt>
      <trkpt lat="42.92714" lon="0.19815">
        <ele>1314</ele>
        <time>2013-03-24T08:11:28Z</time>
      </trkpt>
      <trkpt lat="42.92716" lon="0.19814">
        <ele>1314</ele>
        <time>2013-03-24T08:11:30Z</time>
      </trkpt>
      <trkpt lat="42.92715" lon="0.19815">
        <ele>1314</ele>
        <time>2013-03-24T08:11:31Z</time>
      </trkpt>
      <trkpt lat="42.92714" lon="0.19815">
        <ele>1314</ele>
        <time>2013-03-24T08:11:36Z</time>
      </trkpt>
      <trkpt lat="42.92712" lon="0.19814">
        <ele>1314</ele>
        <time>2013-03-24T08:11:39Z</time>
      </trkpt>
      <trkpt lat="42.92712" lon="0.19811">
        <ele>1314</ele>
        <time>2013-03-24T08:11:40Z</time>
      </trkpt>
      <trkpt lat="42.92714" lon="0.19807">
        <ele>1313</ele>
        <time>2013-03-24T08:11:41Z</time>
      </trkpt>
      <trkpt lat="42.92715" lon="0.19805">
        <ele>1312</ele>
        <time>2013-03-24T08:11:42Z</time>
      </trkpt>
      <trkpt lat="42.92717" lon="0.19804">
        <ele>1310</ele>
        <time>2013-03-24T08:11:44Z</time>
      </trkpt>
      <trkpt lat="42.92715" lon="0.19803">
        <ele>1308</ele>
        <time>2013-03-24T08:11:46Z</time>
      </trkpt>
      <trkpt lat="42.92716" lon="0.19805">
        <ele>1306</ele>
        <time>2013-03-24T08:11:48Z</time>
      </trkpt>
      <trkpt lat="42.92717" lon="0.19804">
        <ele>1303</ele>
        <time>2013-03-24T08:11:51Z</time>
      </trkpt>
      <trkpt lat="42.92717" lon="0.19806">
        <ele>1302</ele>
        <time>2013-03-24T08:11:52Z</time>
      </trkpt>
      <trkpt lat="42.92717" lon="0.19807">
        <ele>1301</ele>
        <time>2013-03-24T08:11:54Z</time>
      </trkpt>
      <trkpt lat="42.92717" lon="0.19806">
        <ele>1299</ele>
        <time>2013-03-24T08:11:56Z</time>
      </trkpt>
      <trkpt lat="42.92717" lon="0.19804">
        <ele>1298</ele>
        <time>2013-03-24T08:11:57Z</time>
      </trkpt>
      <trkpt lat="42.92716" lon="0.19806">
        <ele>1293</ele>
        <time>2013-03-24T08:12:02Z</time>
      </trkpt>
      <trkpt lat="42.92717" lon="0.19804">
        <ele>1291</ele>
        <time>2013-03-24T08:12:04Z</time>
      </trkpt>
      <trkpt lat="42.92719" lon="0.19802">
        <ele>1290</ele>
        <time>2013-03-24T08:12:06Z</time>
      </trkpt>
      <trkpt lat="42.9272" lon="0.19802">
        <ele>1290</ele>
        <time>2013-03-24T08:12:08Z</time>
      </trkpt>
      <trkpt lat="42.92722" lon="0.19802">
        <ele>1290</ele>
        <time>2013-03-24T08:12:14Z</time>
      </trkpt>
      <trkpt lat="42.92721" lon="0.19804">
        <ele>1290</ele>
        <time>2013-03-24T08:12:15Z</time>
      </trkpt>
      <trkpt lat="42.9272" lon="0.19807">
        <ele>1292</ele>
        <time>2013-03-24T08:12:17Z</time>
      </trkpt>
      <trkpt lat="42.92719" lon="0.19809">
        <ele>1294</ele>
        <time>2013-03-24T08:12:19Z</time>
      </trkpt>
      <trkpt lat="42.92718" lon="0.19811">
        <ele>1295</ele>
        <time>2013-03-24T08:12:20Z</time>
      </trkpt>
      <trkpt lat="42.92716" lon="0.19811">
        <ele>1296</ele>
        <time>2013-03-24T08:12:21Z</time>
      </trkpt>
      <trkpt lat="42.92715" lon="0.19813">
        <ele>1300</ele>
        <time>2013-03-24T08:12:25Z</time>
      </trkpt>
      <trkpt lat="42.92713" lon="0.19817">
        <ele>1302</ele>
        <time>2013-03-24T08:12:28Z</time>
      </trkpt>
      <trkpt lat="42.92712" lon="0.19818">
        <ele>1305</ele>
        <time>2013-03-24T08:12:32Z</time>
      </trkpt>
      <trkpt lat="42.92711" lon="0.19821">
        <ele>1305</ele>
        <time>2013-03-24T08:12:35Z</time>
      </trkpt>
      <trkpt lat="42.9271" lon="0.19821">
        <ele>1304</ele>
        <time>2013-03-24T08:12:36Z</time>
      </trkpt>
      <trkpt lat="42.9271" lon="0.19823">
        <ele>1303</ele>
        <time>2013-03-24T08:12:37Z</time>
      </trkpt>
      <trkpt lat="42.92711" lon="0.19821">
        <ele>1302</ele>
        <time>2013-03-24T08:12:38Z</time>
      </trkpt>
      <trkpt lat="42.92712" lon="0.1982">
        <ele>1300</ele>
        <time>2013-03-24T08:12:40Z</time>
      </trkpt>
      <trkpt lat="42.92714" lon="0.19819">
        <ele>1297</ele>
        <time>2013-03-24T08:12:42Z</time>
      </trkpt>
      <trkpt lat="42.92715" lon="0.19817">
        <ele>1296</ele>
        <time>2013-03-24T08:12:43Z</time>
      </trkpt>
      <trkpt lat="42.92716" lon="0.19815">
        <ele>1294</ele>
        <time>2013-03-24T08:12:45Z</time>
      </trkpt>
      <trkpt lat="42.92714" lon="0.19815">
        <ele>1292</ele>
        <time>2013-03-24T08:12:47Z</time>
      </trkpt>
      <trkpt lat="42.92714" lon="0.19817">
        <ele>1292</ele>
        <time>2013-03-24T08:12:49Z</time>
      </trkpt>
      <trkpt lat="42.92714" lon="0.19815">
        <ele>1294</ele>
        <time>2013-03-24T08:12:53Z</time>
      </trkpt>
      <trkpt lat="42.92714" lon="0.19814">
        <ele>1295</ele>
        <time>2013-03-24T08:12:55Z</time>
      </trkpt>
      <trkpt lat="42.92716" lon="0.19812">
        <ele>1295</ele>
        <time>2013-03-24T08:12:57Z</time>
      </trkpt>
      <trkpt lat="42.92717" lon="0.19808">
        <ele>1295</ele>
        <time>2013-03-24T08:12:59Z</time>
      </trkpt>
      <trkpt lat="42.92718" lon="0.19806">
        <ele>1295</ele>
        <time>2013-03-24T08:13:00Z</time>
      </trkpt>
      <trkpt lat="42.9272" lon="0.19805">
        <ele>1295</ele>
        <time>2013-03-24T08:13:02Z</time>
      </trkpt>
      <trkpt lat="42.92721" lon="0.19805">
        <ele>1293</ele>
        <time>2013-03-24T08:13:05Z</time>
      </trkpt>
      <trkpt lat="42.9272" lon="0.19807">
        <ele>1293</ele>
        <time>2013-03-24T08:13:08Z</time>
      </trkpt>
      <trkpt lat="42.92721" lon="0.19806">
        <ele>1293</ele>
        <time>2013-03-24T08:13:09Z</time>
      </trkpt>
      <trkpt lat="42.92722" lon="0.19805">
        <ele>1293</ele>
        <time>2013-03-24T08:13:11Z</time>
      </trkpt>
      <trkpt lat="42.92723" lon="0.19804">
        <ele>1293</ele>
        <time>2013-03-24T08:13:12Z</time>
      </trkpt>
      <trkpt lat="42.92722" lon="0.19803">
        <ele>1293</ele>
        <time>2013-03-24T08:13:15Z</time>
      </trkpt>
      <trkpt lat="42.9272" lon="0.19805">
        <ele>1293</ele>
        <time>2013-03-24T08:13:16Z</time>
      </trkpt>
      <trkpt lat="42.9272" lon="0.19806">
        <ele>1293</ele>
        <time>2013-03-24T08:13:17Z</time>
      </trkpt>
      <trkpt lat="42.92719" lon="0.1981">
        <ele>1293</ele>
        <time>2013-03-24T08:13:23Z</time>
      </trkpt>
      <trkpt lat="42.92718" lon="0.19808">
        <ele>1295</ele>
        <time>2013-03-24T08:13:27Z</time>
      </trkpt>
      <trkpt lat="42.92717" lon="0.19808">
        <ele>1298</ele>
        <time>2013-03-24T08:13:36Z</time>
      </trkpt>
      <trkpt lat="42.92718" lon="0.19806">
        <ele>1298</ele>
        <time>2013-03-24T08:13:38Z</time>
      </trkpt>
      <trkpt lat="42.92719" lon="0.19805">
        <ele>1298</ele>
        <time>2013-03-24T08:13:39Z</time>
      </trkpt>
      <trkpt lat="42.9272" lon="0.19803">
        <ele>1298</ele>
        <time>2013-03-24T08:13:40Z</time>
      </trkpt>
      <trkpt lat="42.92722" lon="0.19802">
        <ele>1298</ele>
        <time>2013-03-24T08:13:41Z</time>
      </trkpt>
      <trkpt lat="42.92723" lon="0.19799">
        <ele>1298</ele>
        <time>2013-03-24T08:13:43Z</time>
      </trkpt>
      <trkpt lat="42.92722" lon="0.198">
        <ele>1296</ele>
        <time>2013-03-24T08:13:51Z</time>
      </trkpt>
      <trkpt lat="42.9272" lon="0.198">
        <ele>1295</ele>
        <time>2013-03-24T08:13:53Z</time>
      </trkpt>
      <trkpt lat="42.92718" lon="0.19799">
        <ele>1295</ele>
        <time>2013-03-24T08:13:55Z</time>
      </trkpt>
      <trkpt lat="42.92716" lon="0.198">
        <ele>1295</ele>
        <time>2013-03-24T08:13:57Z</time>
      </trkpt>
      <trkpt lat="42.92715" lon="0.19801">
        <ele>1295</ele>
        <time>2013-03-24T08:13:59Z</time>
      </trkpt>
      <trkpt lat="42.92713" lon="0.19801">
        <ele>1295</ele>
        <time>2013-03-24T08:14:01Z</time>
      </trkpt>
      <trkpt lat="42.92712" lon="0.198">
        <ele>1295</ele>
        <time>2013-03-24T08:14:03Z</time>
      </trkpt>
      <trkpt lat="42.9271" lon="0.19799">
        <ele>1295</ele>
        <time>2013-03-24T08:14:05Z</time>
      </trkpt>
      <trkpt lat="42.92709" lon="0.19798">
        <ele>1295</ele>
        <time>2013-03-24T08:14:07Z</time>
      </trkpt>
      <trkpt lat="42.92708" lon="0.19797">
        <ele>1295</ele>
        <time>2013-03-24T08:14:09Z</time>
      </trkpt>
      <trkpt lat="42.92706" lon="0.19796">
        <ele>1294</ele>
        <time>2013-03-24T08:14:11Z</time>
      </trkpt>
      <trkpt lat="42.92705" lon="0.19794">
        <ele>1293</ele>
        <time>2013-03-24T08:14:13Z</time>
      </trkpt>
      <trkpt lat="42.92704" lon="0.19794">
        <ele>1292</ele>
        <time>2013-03-24T08:14:14Z</time>
      </trkpt>
      <trkpt lat="42.92702" lon="0.19793">
        <ele>1292</ele>
        <time>2013-03-24T08:14:16Z</time>
      </trkpt>
      <trkpt lat="42.92701" lon="0.19793">
        <ele>1292</ele>
        <time>2013-03-24T08:14:18Z</time>
      </trkpt>
      <trkpt lat="42.92699" lon="0.19791">
        <ele>1292</ele>
        <time>2013-03-24T08:14:20Z</time>
      </trkpt>
      <trkpt lat="42.92698" lon="0.19789">
        <ele>1292</ele>
        <time>2013-03-24T08:14:22Z</time>
      </trkpt>
      <trkpt lat="42.92696" lon="0.19787">
        <ele>1292</ele>
        <time>2013-03-24T08:14:24Z</time>
      </trkpt>
      <trkpt lat="42.92695" lon="0.19785">
        <ele>1292</ele>
        <time>2013-03-24T08:14:26Z</time>
      </trkpt>
      <trkpt lat="42.92694" lon="0.19783">
        <ele>1292</ele>
        <time>2013-03-24T08:14:28Z</time>
      </trkpt>
      <trkpt lat="42.92694" lon="0.19782">
        <ele>1292</ele>
        <time>2013-03-24T08:14:30Z</time>
      </trkpt>
      <trkpt lat="42.92694" lon="0.1978">
        <ele>1292</ele>
        <time>2013-03-24T08:14:32Z</time>
      </trkpt>
      <trkpt lat="42.92694" lon="0.19778">
        <ele>1292</ele>
        <time>2013-03-24T08:14:34Z</time>
      </trkpt>
      <trkpt lat="42.92693" lon="0.19775">
        <ele>1292</ele>
        <time>2013-03-24T08:14:36Z</time>
      </trkpt>
      <trkpt lat="42.92693" lon="0.19774">
        <ele>1292</ele>
        <time>2013-03-24T08:14:39Z</time>
      </trkpt>
      <trkpt lat="42.92693" lon="0.19772">
        <ele>1292</ele>
        <time>2013-03-24T08:14:43Z</time>
      </trkpt>
      <trkpt lat="42.92693" lon="0.1977">
        <ele>1292</ele>
        <time>2013-03-24T08:14:45Z</time>
      </trkpt>
      <trkpt lat="42.92693" lon="0.19768">
        <ele>1292</ele>
        <time>2013-03-24T08:14:47Z</time>
      </trkpt>
      <trkpt lat="42.92694" lon="0.19765">
        <ele>1292</ele>
        <time>2013-03-24T08:14:49Z</time>
      </trkpt>
      <trkpt lat="42.92694" lon="0.19764">
        <ele>1292</ele>
        <time>2013-03-24T08:14:51Z</time>
      </trkpt>
      <trkpt lat="42.92694" lon="0.19762">
        <ele>1292</ele>
        <time>2013-03-24T08:14:53Z</time>
      </trkpt>
      <trkpt lat="42.92693" lon="0.1976">
        <ele>1292</ele>
        <time>2013-03-24T08:14:55Z</time>
      </trkpt>
      <trkpt lat="42.92693" lon="0.19757">
        <ele>1292</ele>
        <time>2013-03-24T08:14:57Z</time>
      </trkpt>
      <trkpt lat="42.92693" lon="0.19755">
        <ele>1293</ele>
        <time>2013-03-24T08:14:59Z</time>
      </trkpt>
      <trkpt lat="42.92693" lon="0.19754">
        <ele>1295</ele>
        <time>2013-03-24T08:15:01Z</time>
      </trkpt>
      <trkpt lat="42.92694" lon="0.19752">
        <ele>1296</ele>
        <time>2013-03-24T08:15:03Z</time>
      </trkpt>
      <trkpt lat="42.92694" lon="0.1975">
        <ele>1297</ele>
        <time>2013-03-24T08:15:05Z</time>
      </trkpt>
      <trkpt lat="42.92695" lon="0.19748">
        <ele>1298</ele>
        <time>2013-03-24T08:15:07Z</time>
      </trkpt>
      <trkpt lat="42.92696" lon="0.19746">
        <ele>1299</ele>
        <time>2013-03-24T08:15:09Z</time>
      </trkpt>
      <trkpt lat="42.92697" lon="0.19745">
        <ele>1301</ele>
        <time>2013-03-24T08:15:13Z</time>
      </trkpt>
      <trkpt lat="42.92698" lon="0.19742">
        <ele>1302</ele>
        <time>2013-03-24T08:15:16Z</time>
      </trkpt>
      <trkpt lat="42.92699" lon="0.19741">
        <ele>1303</ele>
        <time>2013-03-24T08:15:18Z</time>
      </trkpt>
      <trkpt lat="42.92699" lon="0.19739">
        <ele>1303</ele>
        <time>2013-03-24T08:15:20Z</time>
      </trkpt>
      <trkpt lat="42.927" lon="0.19737">
        <ele>1303</ele>
        <time>2013-03-24T08:15:22Z</time>
      </trkpt>
      <trkpt lat="42.927" lon="0.19735">
        <ele>1303</ele>
        <time>2013-03-24T08:15:23Z</time>
      </trkpt>
      <trkpt lat="42.92699" lon="0.19733">
        <ele>1304</ele>
        <time>2013-03-24T08:15:26Z</time>
      </trkpt>
      <trkpt lat="42.927" lon="0.19731">
        <ele>1304</ele>
        <time>2013-03-24T08:15:29Z</time>
      </trkpt>
      <trkpt lat="42.92701" lon="0.19732">
        <ele>1304</ele>
        <time>2013-03-24T08:15:33Z</time>
      </trkpt>
      <trkpt lat="42.92701" lon="0.19734">
        <ele>1304</ele>
        <time>2013-03-24T08:15:36Z</time>
      </trkpt>
      <trkpt lat="42.927" lon="0.19734">
        <ele>1304</ele>
        <time>2013-03-24T08:15:49Z</time>
      </trkpt>
      <trkpt lat="42.92701" lon="0.19736">
        <ele>1304</ele>
        <time>2013-03-24T08:15:55Z</time>
      </trkpt>
      <trkpt lat="42.92703" lon="0.19737">
        <ele>1304</ele>
        <time>2013-03-24T08:15:57Z</time>
      </trkpt>
      <trkpt lat="42.92704" lon="0.19739">
        <ele>1305</ele>
        <time>2013-03-24T08:15:59Z</time>
      </trkpt>
      <trkpt lat="42.92706" lon="0.19741">
        <ele>1306</ele>
        <time>2013-03-24T08:16:01Z</time>
      </trkpt>
      <trkpt lat="42.92707" lon="0.19742">
        <ele>1308</ele>
        <time>2013-03-24T08:16:02Z</time>
      </trkpt>
      <trkpt lat="42.92709" lon="0.19744">
        <ele>1308</ele>
        <time>2013-03-24T08:16:05Z</time>
      </trkpt>
      <trkpt lat="42.9271" lon="0.19746">
        <ele>1309</ele>
        <time>2013-03-24T08:16:07Z</time>
      </trkpt>
      <trkpt lat="42.92712" lon="0.19747">
        <ele>1309</ele>
        <time>2013-03-24T08:16:08Z</time>
      </trkpt>
      <trkpt lat="42.92713" lon="0.19748">
        <ele>1309</ele>
        <time>2013-03-24T08:16:11Z</time>
      </trkpt>
      <trkpt lat="42.92715" lon="0.19749">
        <ele>1309</ele>
        <time>2013-03-24T08:16:13Z</time>
      </trkpt>
      <trkpt lat="42.92717" lon="0.19749">
        <ele>1309</ele>
        <time>2013-03-24T08:16:15Z</time>
      </trkpt>
      <trkpt lat="42.92718" lon="0.1975">
        <ele>1309</ele>
        <time>2013-03-24T08:16:17Z</time>
      </trkpt>
      <trkpt lat="42.9272" lon="0.1975">
        <ele>1309</ele>
        <time>2013-03-24T08:16:19Z</time>
      </trkpt>
      <trkpt lat="42.92721" lon="0.19749">
        <ele>1309</ele>
        <time>2013-03-24T08:16:20Z</time>
      </trkpt>
      <trkpt lat="42.92722" lon="0.19747">
        <ele>1309</ele>
        <time>2013-03-24T08:16:23Z</time>
      </trkpt>
      <trkpt lat="42.92723" lon="0.19744">
        <ele>1309</ele>
        <time>2013-03-24T08:16:25Z</time>
      </trkpt>
      <trkpt lat="42.92724" lon="0.19743">
        <ele>1309</ele>
        <time>2013-03-24T08:16:27Z</time>
      </trkpt>
      <trkpt lat="42.92724" lon="0.19741">
        <ele>1309</ele>
        <time>2013-03-24T08:16:30Z</time>
      </trkpt>
      <trkpt lat="42.92725" lon="0.19741">
        <ele>1309</ele>
        <time>2013-03-24T08:16:32Z</time>
      </trkpt>
      <trkpt lat="42.92725" lon="0.19739">
        <ele>1309</ele>
        <time>2013-03-24T08:16:40Z</time>
      </trkpt>
      <trkpt lat="42.92724" lon="0.19736">
        <ele>1309</ele>
        <time>2013-03-24T08:16:41Z</time>
      </trkpt>
      <trkpt lat="42.92724" lon="0.19734">
        <ele>1309</ele>
        <time>2013-03-24T08:16:44Z</time>
      </trkpt>
      <trkpt lat="42.92724" lon="0.19732">
        <ele>1310</ele>
        <time>2013-03-24T08:16:46Z</time>
      </trkpt>
      <trkpt lat="42.92724" lon="0.1973">
        <ele>1310</ele>
        <time>2013-03-24T08:16:49Z</time>
      </trkpt>
      <trkpt lat="42.92724" lon="0.19728">
        <ele>1310</ele>
        <time>2013-03-24T08:16:51Z</time>
      </trkpt>
      <trkpt lat="42.92724" lon="0.19726">
        <ele>1311</ele>
        <time>2013-03-24T08:16:53Z</time>
      </trkpt>
      <trkpt lat="42.92723" lon="0.19723">
        <ele>1312</ele>
        <time>2013-03-24T08:16:55Z</time>
      </trkpt>
      <trkpt lat="42.92723" lon="0.19722">
        <ele>1312</ele>
        <time>2013-03-24T08:16:57Z</time>
      </trkpt>
      <trkpt lat="42.92722" lon="0.1972">
        <ele>1313</ele>
        <time>2013-03-24T08:16:58Z</time>
      </trkpt>
      <trkpt lat="42.92721" lon="0.19718">
        <ele>1314</ele>
        <time>2013-03-24T08:17:01Z</time>
      </trkpt>
      <trkpt lat="42.9272" lon="0.19716">
        <ele>1314</ele>
        <time>2013-03-24T08:17:03Z</time>
      </trkpt>
      <trkpt lat="42.9272" lon="0.19715">
        <ele>1314</ele>
        <time>2013-03-24T08:17:04Z</time>
      </trkpt>
      <trkpt lat="42.92719" lon="0.19713">
        <ele>1315</ele>
        <time>2013-03-24T08:17:06Z</time>
      </trkpt>
      <trkpt lat="42.92719" lon="0.19711">
        <ele>1316</ele>
        <time>2013-03-24T08:17:07Z</time>
      </trkpt>
      <trkpt lat="42.92718" lon="0.19709">
        <ele>1317</ele>
        <time>2013-03-24T08:17:10Z</time>
      </trkpt>
      <trkpt lat="42.92718" lon="0.19708">
        <ele>1318</ele>
        <time>2013-03-24T08:17:11Z</time>
      </trkpt>
      <trkpt lat="42.92717" lon="0.19706">
        <ele>1318</ele>
        <time>2013-03-24T08:17:14Z</time>
      </trkpt>
      <trkpt lat="42.92716" lon="0.19704">
        <ele>1319</ele>
        <time>2013-03-24T08:17:17Z</time>
      </trkpt>
      <trkpt lat="42.92714" lon="0.19703">
        <ele>1320</ele>
        <time>2013-03-24T08:17:19Z</time>
      </trkpt>
      <trkpt lat="42.92714" lon="0.19702">
        <ele>1320</ele>
        <time>2013-03-24T08:17:21Z</time>
      </trkpt>
      <trkpt lat="42.92713" lon="0.19701">
        <ele>1323</ele>
        <time>2013-03-24T08:17:24Z</time>
      </trkpt>
      <trkpt lat="42.92711" lon="0.197">
        <ele>1324</ele>
        <time>2013-03-24T08:17:25Z</time>
      </trkpt>
      <trkpt lat="42.9271" lon="0.19699">
        <ele>1325</ele>
        <time>2013-03-24T08:17:27Z</time>
      </trkpt>
      <trkpt lat="42.92709" lon="0.19697">
        <ele>1326</ele>
        <time>2013-03-24T08:17:30Z</time>
      </trkpt>
      <trkpt lat="42.9271" lon="0.19695">
        <ele>1326</ele>
        <time>2013-03-24T08:17:31Z</time>
      </trkpt>
      <trkpt lat="42.92709" lon="0.19693">
        <ele>1326</ele>
        <time>2013-03-24T08:17:32Z</time>
      </trkpt>
      <trkpt lat="42.92708" lon="0.19692">
        <ele>1326</ele>
        <time>2013-03-24T08:17:34Z</time>
      </trkpt>
      <trkpt lat="42.92706" lon="0.1969">
        <ele>1326</ele>
        <time>2013-03-24T08:17:37Z</time>
      </trkpt>
      <trkpt lat="42.92705" lon="0.1969">
        <ele>1326</ele>
        <time>2013-03-24T08:17:38Z</time>
      </trkpt>
      <trkpt lat="42.92704" lon="0.19689">
        <ele>1326</ele>
        <time>2013-03-24T08:17:40Z</time>
      </trkpt>
      <trkpt lat="42.92704" lon="0.19686">
        <ele>1326</ele>
        <time>2013-03-24T08:17:43Z</time>
      </trkpt>
      <trkpt lat="42.92703" lon="0.19684">
        <ele>1326</ele>
        <time>2013-03-24T08:17:44Z</time>
      </trkpt>
      <trkpt lat="42.92704" lon="0.19682">
        <ele>1326</ele>
        <time>2013-03-24T08:17:46Z</time>
      </trkpt>
      <trkpt lat="42.92704" lon="0.1968">
        <ele>1326</ele>
        <time>2013-03-24T08:17:49Z</time>
      </trkpt>
      <trkpt lat="42.92703" lon="0.19679">
        <ele>1326</ele>
        <time>2013-03-24T08:17:50Z</time>
      </trkpt>
      <trkpt lat="42.92703" lon="0.19676">
        <ele>1326</ele>
        <time>2013-03-24T08:17:52Z</time>
      </trkpt>
      <trkpt lat="42.92702" lon="0.19675">
        <ele>1326</ele>
        <time>2013-03-24T08:17:55Z</time>
      </trkpt>
      <trkpt lat="42.92701" lon="0.19673">
        <ele>1326</ele>
        <time>2013-03-24T08:17:56Z</time>
      </trkpt>
      <trkpt lat="42.927" lon="0.19671">
        <ele>1326</ele>
        <time>2013-03-24T08:17:58Z</time>
      </trkpt>
      <trkpt lat="42.92699" lon="0.19669">
        <ele>1326</ele>
        <time>2013-03-24T08:18:01Z</time>
      </trkpt>
      <trkpt lat="42.927" lon="0.19667">
        <ele>1327</ele>
        <time>2013-03-24T08:18:03Z</time>
      </trkpt>
      <trkpt lat="42.92699" lon="0.19665">
        <ele>1328</ele>
        <time>2013-03-24T08:18:04Z</time>
      </trkpt>
      <trkpt lat="42.92699" lon="0.19663">
        <ele>1330</ele>
        <time>2013-03-24T08:18:07Z</time>
      </trkpt>
      <trkpt lat="42.92698" lon="0.19661">
        <ele>1330</ele>
        <time>2013-03-24T08:18:08Z</time>
      </trkpt>
      <trkpt lat="42.92698" lon="0.19659">
        <ele>1331</ele>
        <time>2013-03-24T08:18:11Z</time>
      </trkpt>
      <trkpt lat="42.92697" lon="0.19657">
        <ele>1331</ele>
        <time>2013-03-24T08:18:13Z</time>
      </trkpt>
      <trkpt lat="42.92698" lon="0.19656">
        <ele>1332</ele>
        <time>2013-03-24T08:18:15Z</time>
      </trkpt>
      <trkpt lat="42.92698" lon="0.19654">
        <ele>1332</ele>
        <time>2013-03-24T08:18:17Z</time>
      </trkpt>
      <trkpt lat="42.92699" lon="0.19652">
        <ele>1332</ele>
        <time>2013-03-24T08:18:20Z</time>
      </trkpt>
      <trkpt lat="42.927" lon="0.1965">
        <ele>1333</ele>
        <time>2013-03-24T08:18:21Z</time>
      </trkpt>
      <trkpt lat="42.927" lon="0.19648">
        <ele>1333</ele>
        <time>2013-03-24T08:18:23Z</time>
      </trkpt>
      <trkpt lat="42.927" lon="0.19646">
        <ele>1333</ele>
        <time>2013-03-24T08:18:26Z</time>
      </trkpt>
      <trkpt lat="42.927" lon="0.19645">
        <ele>1333</ele>
        <time>2013-03-24T08:18:27Z</time>
      </trkpt>
      <trkpt lat="42.927" lon="0.19643">
        <ele>1333</ele>
        <time>2013-03-24T08:18:29Z</time>
      </trkpt>
      <trkpt lat="42.927" lon="0.19641">
        <ele>1333</ele>
        <time>2013-03-24T08:18:32Z</time>
      </trkpt>
      <trkpt lat="42.927" lon="0.19639">
        <ele>1333</ele>
        <time>2013-03-24T08:18:33Z</time>
      </trkpt>
      <trkpt lat="42.927" lon="0.19637">
        <ele>1333</ele>
        <time>2013-03-24T08:18:35Z</time>
      </trkpt>
      <trkpt lat="42.927" lon="0.19635">
        <ele>1334</ele>
        <time>2013-03-24T08:18:38Z</time>
      </trkpt>
      <trkpt lat="42.92699" lon="0.19634">
        <ele>1334</ele>
        <time>2013-03-24T08:18:38Z</time>
      </trkpt>
      <trkpt lat="42.92697" lon="0.19634">
        <ele>1334</ele>
        <time>2013-03-24T08:18:41Z</time>
      </trkpt>
      <trkpt lat="42.92696" lon="0.19635">
        <ele>1334</ele>
        <time>2013-03-24T08:18:44Z</time>
      </trkpt>
      <trkpt lat="42.92696" lon="0.19633">
        <ele>1334</ele>
        <time>2013-03-24T08:18:49Z</time>
      </trkpt>
      <trkpt lat="42.92698" lon="0.19632">
        <ele>1336</ele>
        <time>2013-03-24T08:18:51Z</time>
      </trkpt>
      <trkpt lat="42.92699" lon="0.19632">
        <ele>1339</ele>
        <time>2013-03-24T08:19:00Z</time>
      </trkpt>
      <trkpt lat="42.92698" lon="0.19633">
        <ele>1339</ele>
        <time>2013-03-24T08:19:06Z</time>
      </trkpt>
      <trkpt lat="42.92696" lon="0.19633">
        <ele>1339</ele>
        <time>2013-03-24T08:19:14Z</time>
      </trkpt>
      <trkpt lat="42.92696" lon="0.19631">
        <ele>1337</ele>
        <time>2013-03-24T08:19:19Z</time>
      </trkpt>
      <trkpt lat="42.92697" lon="0.19629">
        <ele>1335</ele>
        <time>2013-03-24T08:19:20Z</time>
      </trkpt>
      <trkpt lat="42.92698" lon="0.19629">
        <ele>1334</ele>
        <time>2013-03-24T08:19:22Z</time>
      </trkpt>
      <trkpt lat="42.92698" lon="0.19628">
        <ele>1334</ele>
        <time>2013-03-24T08:19:28Z</time>
      </trkpt>
      <trkpt lat="42.92698" lon="0.19626">
        <ele>1334</ele>
        <time>2013-03-24T08:19:30Z</time>
      </trkpt>
      <trkpt lat="42.92698" lon="0.19624">
        <ele>1334</ele>
        <time>2013-03-24T08:19:31Z</time>
      </trkpt>
      <trkpt lat="42.92696" lon="0.19623">
        <ele>1335</ele>
        <time>2013-03-24T08:19:34Z</time>
      </trkpt>
      <trkpt lat="42.92696" lon="0.19621">
        <ele>1335</ele>
        <time>2013-03-24T08:19:35Z</time>
      </trkpt>
      <trkpt lat="42.92696" lon="0.19619">
        <ele>1336</ele>
        <time>2013-03-24T08:19:38Z</time>
      </trkpt>
      <trkpt lat="42.92697" lon="0.19617">
        <ele>1336</ele>
        <time>2013-03-24T08:19:40Z</time>
      </trkpt>
      <trkpt lat="42.92695" lon="0.19616">
        <ele>1337</ele>
        <time>2013-03-24T08:19:41Z</time>
      </trkpt>
      <trkpt lat="42.92693" lon="0.19617">
        <ele>1337</ele>
        <time>2013-03-24T08:19:42Z</time>
      </trkpt>
      <trkpt lat="42.92692" lon="0.19617">
        <ele>1337</ele>
        <time>2013-03-24T08:19:43Z</time>
      </trkpt>
      <trkpt lat="42.92691" lon="0.19617">
        <ele>1338</ele>
        <time>2013-03-24T08:19:45Z</time>
      </trkpt>
      <trkpt lat="42.92689" lon="0.19619">
        <ele>1338</ele>
        <time>2013-03-24T08:19:45Z</time>
      </trkpt>
      <trkpt lat="42.92688" lon="0.19621">
        <ele>1338</ele>
        <time>2013-03-24T08:19:46Z</time>
      </trkpt>
      <trkpt lat="42.92687" lon="0.19622">
        <ele>1339</ele>
        <time>2013-03-24T08:19:47Z</time>
      </trkpt>
      <trkpt lat="42.92686" lon="0.19623">
        <ele>1340</ele>
        <time>2013-03-24T08:19:50Z</time>
      </trkpt>
      <trkpt lat="42.92685" lon="0.19624">
        <ele>1341</ele>
        <time>2013-03-24T08:19:51Z</time>
      </trkpt>
      <trkpt lat="42.92683" lon="0.19625">
        <ele>1342</ele>
        <time>2013-03-24T08:19:52Z</time>
      </trkpt>
      <trkpt lat="42.92682" lon="0.19627">
        <ele>1343</ele>
        <time>2013-03-24T08:19:58Z</time>
      </trkpt>
      <trkpt lat="42.92681" lon="0.19628">
        <ele>1345</ele>
        <time>2013-03-24T08:20:06Z</time>
      </trkpt>
      <trkpt lat="42.9268" lon="0.1963">
        <ele>1345</ele>
        <time>2013-03-24T08:20:07Z</time>
      </trkpt>
      <trkpt lat="42.92679" lon="0.19631">
        <ele>1346</ele>
        <time>2013-03-24T08:20:15Z</time>
      </trkpt>
      <trkpt lat="42.92678" lon="0.19633">
        <ele>1349</ele>
        <time>2013-03-24T08:20:18Z</time>
      </trkpt>
      <trkpt lat="42.92678" lon="0.19634">
        <ele>1351</ele>
        <time>2013-03-24T08:20:23Z</time>
      </trkpt>
      <trkpt lat="42.92678" lon="0.19633">
        <ele>1351</ele>
        <time>2013-03-24T08:20:24Z</time>
      </trkpt>
      <trkpt lat="42.92679" lon="0.19631">
        <ele>1351</ele>
        <time>2013-03-24T08:20:30Z</time>
      </trkpt>
      <trkpt lat="42.92678" lon="0.19632">
        <ele>1351</ele>
        <time>2013-03-24T08:20:33Z</time>
      </trkpt>
      <trkpt lat="42.92677" lon="0.19631">
        <ele>1351</ele>
        <time>2013-03-24T08:20:36Z</time>
      </trkpt>
      <trkpt lat="42.92675" lon="0.19629">
        <ele>1350</ele>
        <time>2013-03-24T08:20:38Z</time>
      </trkpt>
      <trkpt lat="42.92674" lon="0.19628">
        <ele>1350</ele>
        <time>2013-03-24T08:20:41Z</time>
      </trkpt>
      <trkpt lat="42.92674" lon="0.19626">
        <ele>1349</ele>
        <time>2013-03-24T08:20:42Z</time>
      </trkpt>
      <trkpt lat="42.92674" lon="0.19624">
        <ele>1349</ele>
        <time>2013-03-24T08:20:43Z</time>
      </trkpt>
      <trkpt lat="42.92673" lon="0.19624">
        <ele>1349</ele>
        <time>2013-03-24T08:20:46Z</time>
      </trkpt>
      <trkpt lat="42.92672" lon="0.19621">
        <ele>1349</ele>
        <time>2013-03-24T08:20:47Z</time>
      </trkpt>
      <trkpt lat="42.92672" lon="0.1962">
        <ele>1349</ele>
        <time>2013-03-24T08:20:49Z</time>
      </trkpt>
      <trkpt lat="42.92671" lon="0.19618">
        <ele>1348</ele>
        <time>2013-03-24T08:20:51Z</time>
      </trkpt>
      <trkpt lat="42.92669" lon="0.19617">
        <ele>1347</ele>
        <time>2013-03-24T08:20:52Z</time>
      </trkpt>
      <trkpt lat="42.92669" lon="0.19615">
        <ele>1347</ele>
        <time>2013-03-24T08:20:53Z</time>
      </trkpt>
      <trkpt lat="42.92669" lon="0.19613">
        <ele>1347</ele>
        <time>2013-03-24T08:20:56Z</time>
      </trkpt>
      <trkpt lat="42.9267" lon="0.19611">
        <ele>1346</ele>
        <time>2013-03-24T08:20:56Z</time>
      </trkpt>
      <trkpt lat="42.9267" lon="0.19608">
        <ele>1346</ele>
        <time>2013-03-24T08:20:58Z</time>
      </trkpt>
      <trkpt lat="42.92669" lon="0.19606">
        <ele>1346</ele>
        <time>2013-03-24T08:21:01Z</time>
      </trkpt>
      <trkpt lat="42.92668" lon="0.19605">
        <ele>1346</ele>
        <time>2013-03-24T08:21:02Z</time>
      </trkpt>
      <trkpt lat="42.92667" lon="0.19603">
        <ele>1346</ele>
        <time>2013-03-24T08:21:04Z</time>
      </trkpt>
      <trkpt lat="42.92665" lon="0.19602">
        <ele>1346</ele>
        <time>2013-03-24T08:21:07Z</time>
      </trkpt>
      <trkpt lat="42.92664" lon="0.19603">
        <ele>1346</ele>
        <time>2013-03-24T08:21:08Z</time>
      </trkpt>
      <trkpt lat="42.92662" lon="0.19603">
        <ele>1346</ele>
        <time>2013-03-24T08:21:13Z</time>
      </trkpt>
      <trkpt lat="42.92662" lon="0.19601">
        <ele>1346</ele>
        <time>2013-03-24T08:21:14Z</time>
      </trkpt>
      <trkpt lat="42.92661" lon="0.19599">
        <ele>1346</ele>
        <time>2013-03-24T08:21:16Z</time>
      </trkpt>
      <trkpt lat="42.9266" lon="0.19597">
        <ele>1346</ele>
        <time>2013-03-24T08:21:19Z</time>
      </trkpt>
      <trkpt lat="42.9266" lon="0.19595">
        <ele>1346</ele>
        <time>2013-03-24T08:21:20Z</time>
      </trkpt>
      <trkpt lat="42.92659" lon="0.19594">
        <ele>1346</ele>
        <time>2013-03-24T08:21:21Z</time>
      </trkpt>
      <trkpt lat="42.92659" lon="0.19591">
        <ele>1346</ele>
        <time>2013-03-24T08:21:24Z</time>
      </trkpt>
      <trkpt lat="42.92658" lon="0.19589">
        <ele>1346</ele>
        <time>2013-03-24T08:21:25Z</time>
      </trkpt>
      <trkpt lat="42.92656" lon="0.19589">
        <ele>1346</ele>
        <time>2013-03-24T08:21:27Z</time>
      </trkpt>
      <trkpt lat="42.92655" lon="0.19589">
        <ele>1346</ele>
        <time>2013-03-24T08:21:30Z</time>
      </trkpt>
      <trkpt lat="42.92654" lon="0.19588">
        <ele>1346</ele>
        <time>2013-03-24T08:21:31Z</time>
      </trkpt>
      <trkpt lat="42.92651" lon="0.1959">
        <ele>1346</ele>
        <time>2013-03-24T08:21:33Z</time>
      </trkpt>
      <trkpt lat="42.92649" lon="0.19591">
        <ele>1346</ele>
        <time>2013-03-24T08:21:36Z</time>
      </trkpt>
      <trkpt lat="42.92647" lon="0.19591">
        <ele>1346</ele>
        <time>2013-03-24T08:21:37Z</time>
      </trkpt>
      <trkpt lat="42.92646" lon="0.1959">
        <ele>1346</ele>
        <time>2013-03-24T08:21:40Z</time>
      </trkpt>
      <trkpt lat="42.92645" lon="0.19588">
        <ele>1346</ele>
        <time>2013-03-24T08:21:43Z</time>
      </trkpt>
      <trkpt lat="42.92643" lon="0.19587">
        <ele>1346</ele>
        <time>2013-03-24T08:21:44Z</time>
      </trkpt>
      <trkpt lat="42.92643" lon="0.19585">
        <ele>1346</ele>
        <time>2013-03-24T08:21:47Z</time>
      </trkpt>
      <trkpt lat="42.92642" lon="0.19584">
        <ele>1346</ele>
        <time>2013-03-24T08:21:49Z</time>
      </trkpt>
      <trkpt lat="42.9264" lon="0.19583">
        <ele>1346</ele>
        <time>2013-03-24T08:21:51Z</time>
      </trkpt>
      <trkpt lat="42.92639" lon="0.19584">
        <ele>1346</ele>
        <time>2013-03-24T08:21:53Z</time>
      </trkpt>
      <trkpt lat="42.92638" lon="0.19583">
        <ele>1346</ele>
        <time>2013-03-24T08:21:55Z</time>
      </trkpt>
      <trkpt lat="42.92636" lon="0.19582">
        <ele>1346</ele>
        <time>2013-03-24T08:21:59Z</time>
      </trkpt>
      <trkpt lat="42.92635" lon="0.19581">
        <ele>1346</ele>
        <time>2013-03-24T08:22:02Z</time>
      </trkpt>
      <trkpt lat="42.92633" lon="0.1958">
        <ele>1346</ele>
        <time>2013-03-24T08:22:06Z</time>
      </trkpt>
      <trkpt lat="42.92632" lon="0.1958">
        <ele>1348</ele>
        <time>2013-03-24T08:22:11Z</time>
      </trkpt>
      <trkpt lat="42.92631" lon="0.19579">
        <ele>1349</ele>
        <time>2013-03-24T08:22:22Z</time>
      </trkpt>
      <trkpt lat="42.92631" lon="0.19577">
        <ele>1349</ele>
        <time>2013-03-24T08:22:23Z</time>
      </trkpt>
      <trkpt lat="42.9263" lon="0.19576">
        <ele>1350</ele>
        <time>2013-03-24T08:22:25Z</time>
      </trkpt>
      <trkpt lat="42.9263" lon="0.19573">
        <ele>1350</ele>
        <time>2013-03-24T08:22:28Z</time>
      </trkpt>
      <trkpt lat="42.92631" lon="0.19571">
        <ele>1351</ele>
        <time>2013-03-24T08:22:29Z</time>
      </trkpt>
      <trkpt lat="42.92631" lon="0.19569">
        <ele>1352</ele>
        <time>2013-03-24T08:22:30Z</time>
      </trkpt>
      <trkpt lat="42.92631" lon="0.19568">
        <ele>1353</ele>
        <time>2013-03-24T08:22:33Z</time>
      </trkpt>
      <trkpt lat="42.9263" lon="0.19565">
        <ele>1355</ele>
        <time>2013-03-24T08:22:35Z</time>
      </trkpt>
      <trkpt lat="42.92628" lon="0.19564">
        <ele>1355</ele>
        <time>2013-03-24T08:22:38Z</time>
      </trkpt>
      <trkpt lat="42.92628" lon="0.19562">
        <ele>1355</ele>
        <time>2013-03-24T08:22:39Z</time>
      </trkpt>
      <trkpt lat="42.92627" lon="0.19561">
        <ele>1355</ele>
        <time>2013-03-24T08:22:41Z</time>
      </trkpt>
      <trkpt lat="42.92626" lon="0.19559">
        <ele>1355</ele>
        <time>2013-03-24T08:22:44Z</time>
      </trkpt>
      <trkpt lat="42.92626" lon="0.19557">
        <ele>1355</ele>
        <time>2013-03-24T08:22:45Z</time>
      </trkpt>
      <trkpt lat="42.92626" lon="0.19556">
        <ele>1355</ele>
        <time>2013-03-24T08:22:47Z</time>
      </trkpt>
      <trkpt lat="42.92627" lon="0.19554">
        <ele>1357</ele>
        <time>2013-03-24T08:23:06Z</time>
      </trkpt>
      <trkpt lat="42.92628" lon="0.19553">
        <ele>1357</ele>
        <time>2013-03-24T08:23:08Z</time>
      </trkpt>
      <trkpt lat="42.92629" lon="0.19552">
        <ele>1357</ele>
        <time>2013-03-24T08:23:11Z</time>
      </trkpt>
      <trkpt lat="42.9263" lon="0.19552">
        <ele>1357</ele>
        <time>2013-03-24T08:23:13Z</time>
      </trkpt>
      <trkpt lat="42.92632" lon="0.19551">
        <ele>1357</ele>
        <time>2013-03-24T08:23:17Z</time>
      </trkpt>
      <trkpt lat="42.92632" lon="0.19549">
        <ele>1357</ele>
        <time>2013-03-24T08:23:19Z</time>
      </trkpt>
      <trkpt lat="42.92633" lon="0.19548">
        <ele>1357</ele>
        <time>2013-03-24T08:23:22Z</time>
      </trkpt>
      <trkpt lat="42.92635" lon="0.19547">
        <ele>1358</ele>
        <time>2013-03-24T08:23:23Z</time>
      </trkpt>
      <trkpt lat="42.92636" lon="0.19548">
        <ele>1360</ele>
        <time>2013-03-24T08:23:29Z</time>
      </trkpt>
      <trkpt lat="42.92637" lon="0.19548">
        <ele>1361</ele>
        <time>2013-03-24T08:23:32Z</time>
      </trkpt>
      <trkpt lat="42.92638" lon="0.19546">
        <ele>1361</ele>
        <time>2013-03-24T08:23:36Z</time>
      </trkpt>
      <trkpt lat="42.92638" lon="0.19545">
        <ele>1361</ele>
        <time>2013-03-24T08:23:37Z</time>
      </trkpt>
      <trkpt lat="42.92637" lon="0.19544">
        <ele>1361</ele>
        <time>2013-03-24T08:23:55Z</time>
      </trkpt>
      <trkpt lat="42.92637" lon="0.19542">
        <ele>1361</ele>
        <time>2013-03-24T08:24:09Z</time>
      </trkpt>
      <trkpt lat="42.92638" lon="0.19541">
        <ele>1361</ele>
        <time>2013-03-24T08:24:11Z</time>
      </trkpt>
      <trkpt lat="42.92638" lon="0.19538">
        <ele>1362</ele>
        <time>2013-03-24T08:24:16Z</time>
      </trkpt>
      <trkpt lat="42.92638" lon="0.19537">
        <ele>1362</ele>
        <time>2013-03-24T08:24:17Z</time>
      </trkpt>
      <trkpt lat="42.92638" lon="0.19535">
        <ele>1363</ele>
        <time>2013-03-24T08:24:21Z</time>
      </trkpt>
      <trkpt lat="42.9264" lon="0.19534">
        <ele>1363</ele>
        <time>2013-03-24T08:24:23Z</time>
      </trkpt>
      <trkpt lat="42.9264" lon="0.19532">
        <ele>1364</ele>
        <time>2013-03-24T08:24:26Z</time>
      </trkpt>
      <trkpt lat="42.92641" lon="0.1953">
        <ele>1364</ele>
        <time>2013-03-24T08:24:27Z</time>
      </trkpt>
      <trkpt lat="42.92641" lon="0.19528">
        <ele>1365</ele>
        <time>2013-03-24T08:24:31Z</time>
      </trkpt>
      <trkpt lat="42.92642" lon="0.19527">
        <ele>1365</ele>
        <time>2013-03-24T08:24:34Z</time>
      </trkpt>
      <trkpt lat="42.92643" lon="0.19525">
        <ele>1365</ele>
        <time>2013-03-24T08:24:40Z</time>
      </trkpt>
      <trkpt lat="42.92643" lon="0.19523">
        <ele>1365</ele>
        <time>2013-03-24T08:24:41Z</time>
      </trkpt>
      <trkpt lat="42.92643" lon="0.19522">
        <ele>1365</ele>
        <time>2013-03-24T08:24:43Z</time>
      </trkpt>
      <trkpt lat="42.92644" lon="0.1952">
        <ele>1365</ele>
        <time>2013-03-24T08:24:47Z</time>
      </trkpt>
      <trkpt lat="42.92645" lon="0.19518">
        <ele>1365</ele>
        <time>2013-03-24T08:24:49Z</time>
      </trkpt>
      <trkpt lat="42.92645" lon="0.19516">
        <ele>1366</ele>
        <time>2013-03-24T08:24:52Z</time>
      </trkpt>
      <trkpt lat="42.92645" lon="0.19514">
        <ele>1366</ele>
        <time>2013-03-24T08:24:53Z</time>
      </trkpt>
      <trkpt lat="42.92644" lon="0.19513">
        <ele>1367</ele>
        <time>2013-03-24T08:24:55Z</time>
      </trkpt>
      <trkpt lat="42.92643" lon="0.19511">
        <ele>1367</ele>
        <time>2013-03-24T08:24:58Z</time>
      </trkpt>
      <trkpt lat="42.92642" lon="0.19509">
        <ele>1367</ele>
        <time>2013-03-24T08:25:00Z</time>
      </trkpt>
      <trkpt lat="42.92642" lon="0.19508">
        <ele>1368</ele>
        <time>2013-03-24T08:25:03Z</time>
      </trkpt>
      <trkpt lat="42.92642" lon="0.19506">
        <ele>1369</ele>
        <time>2013-03-24T08:25:04Z</time>
      </trkpt>
      <trkpt lat="42.92644" lon="0.19504">
        <ele>1369</ele>
        <time>2013-03-24T08:25:06Z</time>
      </trkpt>
      <trkpt lat="42.92644" lon="0.19502">
        <ele>1370</ele>
        <time>2013-03-24T08:25:08Z</time>
      </trkpt>
      <trkpt lat="42.92644" lon="0.195">
        <ele>1371</ele>
        <time>2013-03-24T08:25:10Z</time>
      </trkpt>
      <trkpt lat="42.92643" lon="0.19498">
        <ele>1371</ele>
        <time>2013-03-24T08:25:13Z</time>
      </trkpt>
      <trkpt lat="42.92643" lon="0.19496">
        <ele>1371</ele>
        <time>2013-03-24T08:25:15Z</time>
      </trkpt>
      <trkpt lat="42.92643" lon="0.19494">
        <ele>1371</ele>
        <time>2013-03-24T08:25:17Z</time>
      </trkpt>
      <trkpt lat="42.92643" lon="0.19493">
        <ele>1371</ele>
        <time>2013-03-24T08:25:19Z</time>
      </trkpt>
      <trkpt lat="42.92643" lon="0.19491">
        <ele>1371</ele>
        <time>2013-03-24T08:25:21Z</time>
      </trkpt>
      <trkpt lat="42.92644" lon="0.19489">
        <ele>1371</ele>
        <time>2013-03-24T08:25:25Z</time>
      </trkpt>
      <trkpt lat="42.92646" lon="0.19489">
        <ele>1371</ele>
        <time>2013-03-24T08:25:28Z</time>
      </trkpt>
      <trkpt lat="42.92648" lon="0.19489">
        <ele>1371</ele>
        <time>2013-03-24T08:25:31Z</time>
      </trkpt>
      <trkpt lat="42.92649" lon="0.19488">
        <ele>1372</ele>
        <time>2013-03-24T08:25:32Z</time>
      </trkpt>
      <trkpt lat="42.9265" lon="0.19486">
        <ele>1373</ele>
        <time>2013-03-24T08:25:34Z</time>
      </trkpt>
      <trkpt lat="42.9265" lon="0.19484">
        <ele>1374</ele>
        <time>2013-03-24T08:25:38Z</time>
      </trkpt>
      <trkpt lat="42.9265" lon="0.19482">
        <ele>1374</ele>
        <time>2013-03-24T08:25:47Z</time>
      </trkpt>
      <trkpt lat="42.92651" lon="0.19481">
        <ele>1377</ele>
        <time>2013-03-24T08:25:54Z</time>
      </trkpt>
      <trkpt lat="42.92649" lon="0.19481">
        <ele>1377</ele>
        <time>2013-03-24T08:25:59Z</time>
      </trkpt>
      <trkpt lat="42.92648" lon="0.19481">
        <ele>1377</ele>
        <time>2013-03-24T08:26:07Z</time>
      </trkpt>
      <trkpt lat="42.92649" lon="0.19482">
        <ele>1377</ele>
        <time>2013-03-24T08:26:21Z</time>
      </trkpt>
      <trkpt lat="42.92651" lon="0.19484">
        <ele>1377</ele>
        <time>2013-03-24T08:26:29Z</time>
      </trkpt>
      <trkpt lat="42.92651" lon="0.19482">
        <ele>1377</ele>
        <time>2013-03-24T08:26:37Z</time>
      </trkpt>
      <trkpt lat="42.92649" lon="0.19482">
        <ele>1377</ele>
        <time>2013-03-24T08:26:39Z</time>
      </trkpt>
      <trkpt lat="42.9265" lon="0.19481">
        <ele>1377</ele>
        <time>2013-03-24T08:26:50Z</time>
      </trkpt>
      <trkpt lat="42.92651" lon="0.19479">
        <ele>1378</ele>
        <time>2013-03-24T08:26:55Z</time>
      </trkpt>
      <trkpt lat="42.92651" lon="0.19478">
        <ele>1383</ele>
        <time>2013-03-24T08:27:07Z</time>
      </trkpt>
      <trkpt lat="42.92651" lon="0.19476">
        <ele>1383</ele>
        <time>2013-03-24T08:27:08Z</time>
      </trkpt>
      <trkpt lat="42.9265" lon="0.19474">
        <ele>1383</ele>
        <time>2013-03-24T08:27:10Z</time>
      </trkpt>
      <trkpt lat="42.9265" lon="0.19473">
        <ele>1383</ele>
        <time>2013-03-24T08:27:13Z</time>
      </trkpt>
      <trkpt lat="42.92649" lon="0.19471">
        <ele>1383</ele>
        <time>2013-03-24T08:27:14Z</time>
      </trkpt>
      <trkpt lat="42.92649" lon="0.19469">
        <ele>1383</ele>
        <time>2013-03-24T08:27:16Z</time>
      </trkpt>
      <trkpt lat="42.92648" lon="0.19467">
        <ele>1383</ele>
        <time>2013-03-24T08:27:18Z</time>
      </trkpt>
      <trkpt lat="42.92648" lon="0.19465">
        <ele>1383</ele>
        <time>2013-03-24T08:27:20Z</time>
      </trkpt>
      <trkpt lat="42.92648" lon="0.19463">
        <ele>1383</ele>
        <time>2013-03-24T08:27:22Z</time>
      </trkpt>
      <trkpt lat="42.92648" lon="0.19462">
        <ele>1383</ele>
        <time>2013-03-24T08:27:25Z</time>
      </trkpt>
      <trkpt lat="42.92648" lon="0.1946">
        <ele>1383</ele>
        <time>2013-03-24T08:27:26Z</time>
      </trkpt>
      <trkpt lat="42.92648" lon="0.19457">
        <ele>1383</ele>
        <time>2013-03-24T08:27:28Z</time>
      </trkpt>
      <trkpt lat="42.92647" lon="0.19456">
        <ele>1383</ele>
        <time>2013-03-24T08:27:31Z</time>
      </trkpt>
      <trkpt lat="42.92646" lon="0.19454">
        <ele>1383</ele>
        <time>2013-03-24T08:27:32Z</time>
      </trkpt>
      <trkpt lat="42.92646" lon="0.19452">
        <ele>1383</ele>
        <time>2013-03-24T08:27:34Z</time>
      </trkpt>
      <trkpt lat="42.92646" lon="0.1945">
        <ele>1383</ele>
        <time>2013-03-24T08:27:37Z</time>
      </trkpt>
      <trkpt lat="42.92646" lon="0.19448">
        <ele>1383</ele>
        <time>2013-03-24T08:27:38Z</time>
      </trkpt>
      <trkpt lat="42.92646" lon="0.19446">
        <ele>1383</ele>
        <time>2013-03-24T08:27:40Z</time>
      </trkpt>
      <trkpt lat="42.92646" lon="0.19444">
        <ele>1383</ele>
        <time>2013-03-24T08:27:43Z</time>
      </trkpt>
      <trkpt lat="42.92646" lon="0.19443">
        <ele>1383</ele>
        <time>2013-03-24T08:27:44Z</time>
      </trkpt>
      <trkpt lat="42.92648" lon="0.1944">
        <ele>1383</ele>
        <time>2013-03-24T08:27:46Z</time>
      </trkpt>
      <trkpt lat="42.92648" lon="0.19438">
        <ele>1383</ele>
        <time>2013-03-24T08:27:48Z</time>
      </trkpt>
      <trkpt lat="42.92649" lon="0.19435">
        <ele>1383</ele>
        <time>2013-03-24T08:27:50Z</time>
      </trkpt>
      <trkpt lat="42.92649" lon="0.19433">
        <ele>1383</ele>
        <time>2013-03-24T08:27:52Z</time>
      </trkpt>
      <trkpt lat="42.92649" lon="0.19431">
        <ele>1384</ele>
        <time>2013-03-24T08:27:54Z</time>
      </trkpt>
      <trkpt lat="42.9265" lon="0.1943">
        <ele>1385</ele>
        <time>2013-03-24T08:27:56Z</time>
      </trkpt>
      <trkpt lat="42.9265" lon="0.19428">
        <ele>1385</ele>
        <time>2013-03-24T08:27:58Z</time>
      </trkpt>
      <trkpt lat="42.92651" lon="0.19426">
        <ele>1386</ele>
        <time>2013-03-24T08:28:00Z</time>
      </trkpt>
      <trkpt lat="42.92652" lon="0.19425">
        <ele>1386</ele>
        <time>2013-03-24T08:28:03Z</time>
      </trkpt>
      <trkpt lat="42.92654" lon="0.19424">
        <ele>1387</ele>
        <time>2013-03-24T08:28:06Z</time>
      </trkpt>
      <trkpt lat="42.92655" lon="0.19423">
        <ele>1387</ele>
        <time>2013-03-24T08:28:08Z</time>
      </trkpt>
      <trkpt lat="42.92656" lon="0.19423">
        <ele>1388</ele>
        <time>2013-03-24T08:28:10Z</time>
      </trkpt>
      <trkpt lat="42.92657" lon="0.19423">
        <ele>1388</ele>
        <time>2013-03-24T08:28:13Z</time>
      </trkpt>
      <trkpt lat="42.92658" lon="0.19421">
        <ele>1389</ele>
        <time>2013-03-24T08:28:16Z</time>
      </trkpt>
      <trkpt lat="42.92659" lon="0.1942">
        <ele>1389</ele>
        <time>2013-03-24T08:28:19Z</time>
      </trkpt>
      <trkpt lat="42.9266" lon="0.19418">
        <ele>1390</ele>
        <time>2013-03-24T08:28:23Z</time>
      </trkpt>
      <trkpt lat="42.9266" lon="0.19416">
        <ele>1390</ele>
        <time>2013-03-24T08:28:25Z</time>
      </trkpt>
      <trkpt lat="42.92662" lon="0.19414">
        <ele>1392</ele>
        <time>2013-03-24T08:28:38Z</time>
      </trkpt>
      <trkpt lat="42.92663" lon="0.19413">
        <ele>1394</ele>
        <time>2013-03-24T08:28:47Z</time>
      </trkpt>
      <trkpt lat="42.92663" lon="0.19415">
        <ele>1396</ele>
        <time>2013-03-24T08:29:08Z</time>
      </trkpt>
      <trkpt lat="42.92662" lon="0.19413">
        <ele>1396</ele>
        <time>2013-03-24T08:29:16Z</time>
      </trkpt>
      <trkpt lat="42.92662" lon="0.1941">
        <ele>1396</ele>
        <time>2013-03-24T08:29:18Z</time>
      </trkpt>
      <trkpt lat="42.92662" lon="0.19408">
        <ele>1396</ele>
        <time>2013-03-24T08:29:20Z</time>
      </trkpt>
      <trkpt lat="42.92662" lon="0.19406">
        <ele>1396</ele>
        <time>2013-03-24T08:29:22Z</time>
      </trkpt>
      <trkpt lat="42.92662" lon="0.19404">
        <ele>1396</ele>
        <time>2013-03-24T08:29:24Z</time>
      </trkpt>
      <trkpt lat="42.92662" lon="0.19401">
        <ele>1396</ele>
        <time>2013-03-24T08:29:26Z</time>
      </trkpt>
      <trkpt lat="42.92661" lon="0.19399">
        <ele>1396</ele>
        <time>2013-03-24T08:29:27Z</time>
      </trkpt>
      <trkpt lat="42.92661" lon="0.19397">
        <ele>1396</ele>
        <time>2013-03-24T08:29:29Z</time>
      </trkpt>
      <trkpt lat="42.92661" lon="0.19396">
        <ele>1396</ele>
        <time>2013-03-24T08:29:30Z</time>
      </trkpt>
      <trkpt lat="42.9266" lon="0.19394">
        <ele>1396</ele>
        <time>2013-03-24T08:29:32Z</time>
      </trkpt>
      <trkpt lat="42.92659" lon="0.19392">
        <ele>1396</ele>
        <time>2013-03-24T08:29:33Z</time>
      </trkpt>
      <trkpt lat="42.92658" lon="0.1939">
        <ele>1396</ele>
        <time>2013-03-24T08:29:35Z</time>
      </trkpt>
      <trkpt lat="42.92657" lon="0.19388">
        <ele>1396</ele>
        <time>2013-03-24T08:29:37Z</time>
      </trkpt>
      <trkpt lat="42.92655" lon="0.19386">
        <ele>1396</ele>
        <time>2013-03-24T08:29:39Z</time>
      </trkpt>
      <trkpt lat="42.92654" lon="0.19384">
        <ele>1396</ele>
        <time>2013-03-24T08:29:41Z</time>
      </trkpt>
      <trkpt lat="42.92653" lon="0.19382">
        <ele>1396</ele>
        <time>2013-03-24T08:29:43Z</time>
      </trkpt>
      <trkpt lat="42.92652" lon="0.1938">
        <ele>1396</ele>
        <time>2013-03-24T08:29:45Z</time>
      </trkpt>
      <trkpt lat="42.92651" lon="0.19378">
        <ele>1396</ele>
        <time>2013-03-24T08:29:47Z</time>
      </trkpt>
      <trkpt lat="42.9265" lon="0.19377">
        <ele>1396</ele>
        <time>2013-03-24T08:29:50Z</time>
      </trkpt>
      <trkpt lat="42.92649" lon="0.19374">
        <ele>1396</ele>
        <time>2013-03-24T08:29:51Z</time>
      </trkpt>
      <trkpt lat="42.92648" lon="0.19373">
        <ele>1396</ele>
        <time>2013-03-24T08:29:53Z</time>
      </trkpt>
      <trkpt lat="42.92648" lon="0.19371">
        <ele>1396</ele>
        <time>2013-03-24T08:29:55Z</time>
      </trkpt>
      <trkpt lat="42.92646" lon="0.19369">
        <ele>1396</ele>
        <time>2013-03-24T08:29:57Z</time>
      </trkpt>
      <trkpt lat="42.92645" lon="0.19367">
        <ele>1396</ele>
        <time>2013-03-24T08:29:59Z</time>
      </trkpt>
      <trkpt lat="42.92645" lon="0.19365">
        <ele>1396</ele>
        <time>2013-03-24T08:30:01Z</time>
      </trkpt>
      <trkpt lat="42.92643" lon="0.19363">
        <ele>1396</ele>
        <time>2013-03-24T08:30:03Z</time>
      </trkpt>
      <trkpt lat="42.92642" lon="0.19362">
        <ele>1396</ele>
        <time>2013-03-24T08:30:05Z</time>
      </trkpt>
      <trkpt lat="42.92641" lon="0.1936">
        <ele>1396</ele>
        <time>2013-03-24T08:30:07Z</time>
      </trkpt>
      <trkpt lat="42.9264" lon="0.19358">
        <ele>1396</ele>
        <time>2013-03-24T08:30:09Z</time>
      </trkpt>
      <trkpt lat="42.9264" lon="0.19355">
        <ele>1396</ele>
        <time>2013-03-24T08:30:11Z</time>
      </trkpt>
      <trkpt lat="42.9264" lon="0.19354">
        <ele>1396</ele>
        <time>2013-03-24T08:30:12Z</time>
      </trkpt>
      <trkpt lat="42.92639" lon="0.19351">
        <ele>1396</ele>
        <time>2013-03-24T08:30:14Z</time>
      </trkpt>
      <trkpt lat="42.92638" lon="0.1935">
        <ele>1397</ele>
        <time>2013-03-24T08:30:16Z</time>
      </trkpt>
      <trkpt lat="42.92638" lon="0.19348">
        <ele>1398</ele>
        <time>2013-03-24T08:30:18Z</time>
      </trkpt>
      <trkpt lat="42.92637" lon="0.19345">
        <ele>1399</ele>
        <time>2013-03-24T08:30:20Z</time>
      </trkpt>
      <trkpt lat="42.92636" lon="0.19343">
        <ele>1401</ele>
        <time>2013-03-24T08:30:22Z</time>
      </trkpt>
      <trkpt lat="42.92635" lon="0.19342">
        <ele>1401</ele>
        <time>2013-03-24T08:30:24Z</time>
      </trkpt>
      <trkpt lat="42.92635" lon="0.1934">
        <ele>1402</ele>
        <time>2013-03-24T08:30:26Z</time>
      </trkpt>
      <trkpt lat="42.92635" lon="0.19338">
        <ele>1402</ele>
        <time>2013-03-24T08:30:28Z</time>
      </trkpt>
      <trkpt lat="42.92633" lon="0.19337">
        <ele>1402</ele>
        <time>2013-03-24T08:30:30Z</time>
      </trkpt>
      <trkpt lat="42.92632" lon="0.19336">
        <ele>1402</ele>
        <time>2013-03-24T08:30:32Z</time>
      </trkpt>
      <trkpt lat="42.9263" lon="0.19335">
        <ele>1402</ele>
        <time>2013-03-24T08:30:34Z</time>
      </trkpt>
      <trkpt lat="42.92628" lon="0.19335">
        <ele>1403</ele>
        <time>2013-03-24T08:30:36Z</time>
      </trkpt>
      <trkpt lat="42.92627" lon="0.19335">
        <ele>1404</ele>
        <time>2013-03-24T08:30:37Z</time>
      </trkpt>
      <trkpt lat="42.92626" lon="0.19335">
        <ele>1404</ele>
        <time>2013-03-24T08:30:38Z</time>
      </trkpt>
      <trkpt lat="42.92624" lon="0.19335">
        <ele>1405</ele>
        <time>2013-03-24T08:30:39Z</time>
      </trkpt>
      <trkpt lat="42.92623" lon="0.19335">
        <ele>1406</ele>
        <time>2013-03-24T08:30:40Z</time>
      </trkpt>
      <trkpt lat="42.92622" lon="0.19335">
        <ele>1407</ele>
        <time>2013-03-24T08:30:41Z</time>
      </trkpt>
      <trkpt lat="42.9262" lon="0.19335">
        <ele>1408</ele>
        <time>2013-03-24T08:30:42Z</time>
      </trkpt>
      <trkpt lat="42.92619" lon="0.19335">
        <ele>1409</ele>
        <time>2013-03-24T08:30:43Z</time>
      </trkpt>
      <trkpt lat="42.92618" lon="0.19335">
        <ele>1410</ele>
        <time>2013-03-24T08:30:44Z</time>
      </trkpt>
      <trkpt lat="42.92616" lon="0.19334">
        <ele>1411</ele>
        <time>2013-03-24T08:30:46Z</time>
      </trkpt>
      <trkpt lat="42.92614" lon="0.19333">
        <ele>1412</ele>
        <time>2013-03-24T08:30:48Z</time>
      </trkpt>
      <trkpt lat="42.92612" lon="0.19334">
        <ele>1412</ele>
        <time>2013-03-24T08:30:50Z</time>
      </trkpt>
      <trkpt lat="42.9261" lon="0.19332">
        <ele>1413</ele>
        <time>2013-03-24T08:30:53Z</time>
      </trkpt>
      <trkpt lat="42.92608" lon="0.19333">
        <ele>1413</ele>
        <time>2013-03-24T08:30:54Z</time>
      </trkpt>
      <trkpt lat="42.92607" lon="0.19333">
        <ele>1415</ele>
        <time>2013-03-24T08:30:57Z</time>
      </trkpt>
      <trkpt lat="42.92606" lon="0.19335">
        <ele>1415</ele>
        <time>2013-03-24T08:30:58Z</time>
      </trkpt>
      <trkpt lat="42.92605" lon="0.19337">
        <ele>1416</ele>
        <time>2013-03-24T08:31:00Z</time>
      </trkpt>
      <trkpt lat="42.92604" lon="0.19337">
        <ele>1418</ele>
        <time>2013-03-24T08:31:02Z</time>
      </trkpt>
      <trkpt lat="42.92602" lon="0.19337">
        <ele>1419</ele>
        <time>2013-03-24T08:31:03Z</time>
      </trkpt>
      <trkpt lat="42.926" lon="0.19335">
        <ele>1420</ele>
        <time>2013-03-24T08:31:05Z</time>
      </trkpt>
      <trkpt lat="42.926" lon="0.19333">
        <ele>1420</ele>
        <time>2013-03-24T08:31:09Z</time>
      </trkpt>
      <trkpt lat="42.92601" lon="0.19333">
        <ele>1420</ele>
        <time>2013-03-24T08:31:12Z</time>
      </trkpt>
      <trkpt lat="42.926" lon="0.19331">
        <ele>1420</ele>
        <time>2013-03-24T08:31:18Z</time>
      </trkpt>
      <trkpt lat="42.92598" lon="0.1933">
        <ele>1420</ele>
        <time>2013-03-24T08:31:20Z</time>
      </trkpt>
      <trkpt lat="42.92597" lon="0.19329">
        <ele>1420</ele>
        <time>2013-03-24T08:31:22Z</time>
      </trkpt>
      <trkpt lat="42.92595" lon="0.19329">
        <ele>1420</ele>
        <time>2013-03-24T08:31:24Z</time>
      </trkpt>
      <trkpt lat="42.92593" lon="0.19328">
        <ele>1419</ele>
        <time>2013-03-24T08:31:26Z</time>
      </trkpt>
      <trkpt lat="42.92592" lon="0.19326">
        <ele>1419</ele>
        <time>2013-03-24T08:31:28Z</time>
      </trkpt>
      <trkpt lat="42.9259" lon="0.19324">
        <ele>1417</ele>
        <time>2013-03-24T08:31:31Z</time>
      </trkpt>
      <trkpt lat="42.92589" lon="0.19324">
        <ele>1416</ele>
        <time>2013-03-24T08:31:32Z</time>
      </trkpt>
      <trkpt lat="42.92588" lon="0.19324">
        <ele>1415</ele>
        <time>2013-03-24T08:31:33Z</time>
      </trkpt>
      <trkpt lat="42.92587" lon="0.19323">
        <ele>1413</ele>
        <time>2013-03-24T08:31:35Z</time>
      </trkpt>
      <trkpt lat="42.92585" lon="0.19322">
        <ele>1412</ele>
        <time>2013-03-24T08:31:37Z</time>
      </trkpt>
      <trkpt lat="42.92583" lon="0.19321">
        <ele>1412</ele>
        <time>2013-03-24T08:31:39Z</time>
      </trkpt>
      <trkpt lat="42.92582" lon="0.19319">
        <ele>1411</ele>
        <time>2013-03-24T08:31:41Z</time>
      </trkpt>
      <trkpt lat="42.9258" lon="0.19319">
        <ele>1410</ele>
        <time>2013-03-24T08:31:43Z</time>
      </trkpt>
      <trkpt lat="42.92578" lon="0.19318">
        <ele>1410</ele>
        <time>2013-03-24T08:31:45Z</time>
      </trkpt>
      <trkpt lat="42.92576" lon="0.19317">
        <ele>1410</ele>
        <time>2013-03-24T08:31:47Z</time>
      </trkpt>
      <trkpt lat="42.92574" lon="0.19317">
        <ele>1410</ele>
        <time>2013-03-24T08:31:49Z</time>
      </trkpt>
      <trkpt lat="42.92573" lon="0.19316">
        <ele>1410</ele>
        <time>2013-03-24T08:31:50Z</time>
      </trkpt>
      <trkpt lat="42.92571" lon="0.19315">
        <ele>1410</ele>
        <time>2013-03-24T08:31:52Z</time>
      </trkpt>
      <trkpt lat="42.9257" lon="0.19315">
        <ele>1410</ele>
        <time>2013-03-24T08:31:54Z</time>
      </trkpt>
      <trkpt lat="42.92568" lon="0.19314">
        <ele>1410</ele>
        <time>2013-03-24T08:31:56Z</time>
      </trkpt>
      <trkpt lat="42.92567" lon="0.19313">
        <ele>1410</ele>
        <time>2013-03-24T08:31:58Z</time>
      </trkpt>
      <trkpt lat="42.92566" lon="0.19311">
        <ele>1410</ele>
        <time>2013-03-24T08:32:00Z</time>
      </trkpt>
      <trkpt lat="42.92565" lon="0.1931">
        <ele>1410</ele>
        <time>2013-03-24T08:32:01Z</time>
      </trkpt>
      <trkpt lat="42.92563" lon="0.19309">
        <ele>1410</ele>
        <time>2013-03-24T08:32:03Z</time>
      </trkpt>
      <trkpt lat="42.92561" lon="0.19308">
        <ele>1410</ele>
        <time>2013-03-24T08:32:04Z</time>
      </trkpt>
      <trkpt lat="42.92559" lon="0.19307">
        <ele>1410</ele>
        <time>2013-03-24T08:32:06Z</time>
      </trkpt>
      <trkpt lat="42.92558" lon="0.19307">
        <ele>1410</ele>
        <time>2013-03-24T08:32:07Z</time>
      </trkpt>
      <trkpt lat="42.92557" lon="0.19306">
        <ele>1410</ele>
        <time>2013-03-24T08:32:09Z</time>
      </trkpt>
      <trkpt lat="42.92554" lon="0.19305">
        <ele>1410</ele>
        <time>2013-03-24T08:32:11Z</time>
      </trkpt>
      <trkpt lat="42.92553" lon="0.19303">
        <ele>1410</ele>
        <time>2013-03-24T08:32:12Z</time>
      </trkpt>
      <trkpt lat="42.92551" lon="0.19301">
        <ele>1410</ele>
        <time>2013-03-24T08:32:15Z</time>
      </trkpt>
      <trkpt lat="42.9255" lon="0.193">
        <ele>1410</ele>
        <time>2013-03-24T08:32:16Z</time>
      </trkpt>
      <trkpt lat="42.92548" lon="0.19299">
        <ele>1410</ele>
        <time>2013-03-24T08:32:18Z</time>
      </trkpt>
      <trkpt lat="42.92546" lon="0.19297">
        <ele>1410</ele>
        <time>2013-03-24T08:32:20Z</time>
      </trkpt>
      <trkpt lat="42.92545" lon="0.19296">
        <ele>1410</ele>
        <time>2013-03-24T08:32:22Z</time>
      </trkpt>
      <trkpt lat="42.92543" lon="0.19294">
        <ele>1410</ele>
        <time>2013-03-24T08:32:25Z</time>
      </trkpt>
      <trkpt lat="42.92541" lon="0.19292">
        <ele>1410</ele>
        <time>2013-03-24T08:32:28Z</time>
      </trkpt>
      <trkpt lat="42.9254" lon="0.1929">
        <ele>1410</ele>
        <time>2013-03-24T08:32:31Z</time>
      </trkpt>
      <trkpt lat="42.92539" lon="0.19289">
        <ele>1410</ele>
        <time>2013-03-24T08:32:32Z</time>
      </trkpt>
      <trkpt lat="42.92538" lon="0.19287">
        <ele>1410</ele>
        <time>2013-03-24T08:32:34Z</time>
      </trkpt>
      <trkpt lat="42.92537" lon="0.19285">
        <ele>1410</ele>
        <time>2013-03-24T08:32:36Z</time>
      </trkpt>
      <trkpt lat="42.92536" lon="0.19283">
        <ele>1410</ele>
        <time>2013-03-24T08:32:38Z</time>
      </trkpt>
      <trkpt lat="42.92536" lon="0.19282">
        <ele>1410</ele>
        <time>2013-03-24T08:32:39Z</time>
      </trkpt>
      <trkpt lat="42.92535" lon="0.1928">
        <ele>1410</ele>
        <time>2013-03-24T08:32:41Z</time>
      </trkpt>
      <trkpt lat="42.92535" lon="0.19278">
        <ele>1410</ele>
        <time>2013-03-24T08:32:42Z</time>
      </trkpt>
      <trkpt lat="42.92534" lon="0.19276">
        <ele>1410</ele>
        <time>2013-03-24T08:32:44Z</time>
      </trkpt>
      <trkpt lat="42.92535" lon="0.19278">
        <ele>1410</ele>
        <time>2013-03-24T08:32:53Z</time>
      </trkpt>
      <trkpt lat="42.92536" lon="0.19275">
        <ele>1410</ele>
        <time>2013-03-24T08:33:11Z</time>
      </trkpt>
      <trkpt lat="42.92536" lon="0.19273">
        <ele>1410</ele>
        <time>2013-03-24T08:33:12Z</time>
      </trkpt>
      <trkpt lat="42.92536" lon="0.19271">
        <ele>1410</ele>
        <time>2013-03-24T08:33:14Z</time>
      </trkpt>
      <trkpt lat="42.92537" lon="0.19269">
        <ele>1410</ele>
        <time>2013-03-24T08:33:16Z</time>
      </trkpt>
      <trkpt lat="42.92538" lon="0.19267">
        <ele>1410</ele>
        <time>2013-03-24T08:33:18Z</time>
      </trkpt>
      <trkpt lat="42.92538" lon="0.19265">
        <ele>1410</ele>
        <time>2013-03-24T08:33:20Z</time>
      </trkpt>
      <trkpt lat="42.92539" lon="0.19263">
        <ele>1410</ele>
        <time>2013-03-24T08:33:23Z</time>
      </trkpt>
      <trkpt lat="42.9254" lon="0.19261">
        <ele>1410</ele>
        <time>2013-03-24T08:33:24Z</time>
      </trkpt>
      <trkpt lat="42.92541" lon="0.19261">
        <ele>1412</ele>
        <time>2013-03-24T08:33:48Z</time>
      </trkpt>
      <trkpt lat="42.92542" lon="0.19259">
        <ele>1413</ele>
        <time>2013-03-24T08:34:01Z</time>
      </trkpt>
      <trkpt lat="42.92542" lon="0.19258">
        <ele>1413</ele>
        <time>2013-03-24T08:34:02Z</time>
      </trkpt>
      <trkpt lat="42.92542" lon="0.19255">
        <ele>1413</ele>
        <time>2013-03-24T08:34:05Z</time>
      </trkpt>
      <trkpt lat="42.92541" lon="0.19254">
        <ele>1414</ele>
        <time>2013-03-24T08:34:05Z</time>
      </trkpt>
      <trkpt lat="42.92541" lon="0.19252">
        <ele>1414</ele>
        <time>2013-03-24T08:34:07Z</time>
      </trkpt>
      <trkpt lat="42.92542" lon="0.1925">
        <ele>1414</ele>
        <time>2013-03-24T08:34:08Z</time>
      </trkpt>
      <trkpt lat="42.92542" lon="0.19248">
        <ele>1415</ele>
        <time>2013-03-24T08:34:09Z</time>
      </trkpt>
      <trkpt lat="42.92542" lon="0.19247">
        <ele>1415</ele>
        <time>2013-03-24T08:34:10Z</time>
      </trkpt>
      <trkpt lat="42.92543" lon="0.19245">
        <ele>1416</ele>
        <time>2013-03-24T08:34:12Z</time>
      </trkpt>
      <trkpt lat="42.92543" lon="0.19243">
        <ele>1416</ele>
        <time>2013-03-24T08:34:13Z</time>
      </trkpt>
      <trkpt lat="42.92543" lon="0.19241">
        <ele>1417</ele>
        <time>2013-03-24T08:34:15Z</time>
      </trkpt>
      <trkpt lat="42.92543" lon="0.19238">
        <ele>1417</ele>
        <time>2013-03-24T08:34:17Z</time>
      </trkpt>
      <trkpt lat="42.92543" lon="0.19236">
        <ele>1418</ele>
        <time>2013-03-24T08:34:19Z</time>
      </trkpt>
      <trkpt lat="42.92543" lon="0.19233">
        <ele>1418</ele>
        <time>2013-03-24T08:34:21Z</time>
      </trkpt>
      <trkpt lat="42.92544" lon="0.19231">
        <ele>1418</ele>
        <time>2013-03-24T08:34:23Z</time>
      </trkpt>
      <trkpt lat="42.92545" lon="0.19229">
        <ele>1418</ele>
        <time>2013-03-24T08:34:25Z</time>
      </trkpt>
      <trkpt lat="42.92545" lon="0.19226">
        <ele>1418</ele>
        <time>2013-03-24T08:34:27Z</time>
      </trkpt>
      <trkpt lat="42.92546" lon="0.19223">
        <ele>1418</ele>
        <time>2013-03-24T08:34:29Z</time>
      </trkpt>
      <trkpt lat="42.92546" lon="0.19222">
        <ele>1419</ele>
        <time>2013-03-24T08:34:30Z</time>
      </trkpt>
      <trkpt lat="42.92546" lon="0.1922">
        <ele>1419</ele>
        <time>2013-03-24T08:34:31Z</time>
      </trkpt>
      <trkpt lat="42.92547" lon="0.19218">
        <ele>1419</ele>
        <time>2013-03-24T08:34:33Z</time>
      </trkpt>
      <trkpt lat="42.92547" lon="0.19215">
        <ele>1419</ele>
        <time>2013-03-24T08:34:35Z</time>
      </trkpt>
      <trkpt lat="42.92548" lon="0.19213">
        <ele>1419</ele>
        <time>2013-03-24T08:34:37Z</time>
      </trkpt>
      <trkpt lat="42.92548" lon="0.1921">
        <ele>1420</ele>
        <time>2013-03-24T08:34:39Z</time>
      </trkpt>
      <trkpt lat="42.92548" lon="0.19208">
        <ele>1420</ele>
        <time>2013-03-24T08:34:41Z</time>
      </trkpt>
      <trkpt lat="42.92548" lon="0.19206">
        <ele>1420</ele>
        <time>2013-03-24T08:34:42Z</time>
      </trkpt>
      <trkpt lat="42.92549" lon="0.19204">
        <ele>1420</ele>
        <time>2013-03-24T08:34:44Z</time>
      </trkpt>
      <trkpt lat="42.9255" lon="0.19201">
        <ele>1420</ele>
        <time>2013-03-24T08:34:46Z</time>
      </trkpt>
      <trkpt lat="42.9255" lon="0.19199">
        <ele>1420</ele>
        <time>2013-03-24T08:34:48Z</time>
      </trkpt>
      <trkpt lat="42.92551" lon="0.19197">
        <ele>1420</ele>
        <time>2013-03-24T08:34:50Z</time>
      </trkpt>
      <trkpt lat="42.92551" lon="0.19194">
        <ele>1420</ele>
        <time>2013-03-24T08:34:52Z</time>
      </trkpt>
      <trkpt lat="42.92552" lon="0.19192">
        <ele>1420</ele>
        <time>2013-03-24T08:34:54Z</time>
      </trkpt>
      <trkpt lat="42.92552" lon="0.19189">
        <ele>1421</ele>
        <time>2013-03-24T08:34:56Z</time>
      </trkpt>
      <trkpt lat="42.92553" lon="0.19187">
        <ele>1421</ele>
        <time>2013-03-24T08:34:58Z</time>
      </trkpt>
      <trkpt lat="42.92553" lon="0.19185">
        <ele>1421</ele>
        <time>2013-03-24T08:35:01Z</time>
      </trkpt>
      <trkpt lat="42.92552" lon="0.19186">
        <ele>1421</ele>
        <time>2013-03-24T08:35:04Z</time>
      </trkpt>
      <trkpt lat="42.92551" lon="0.19184">
        <ele>1421</ele>
        <time>2013-03-24T08:35:16Z</time>
      </trkpt>
      <trkpt lat="42.92552" lon="0.19186">
        <ele>1421</ele>
        <time>2013-03-24T08:35:21Z</time>
      </trkpt>
      <trkpt lat="42.92554" lon="0.19184">
        <ele>1421</ele>
        <time>2013-03-24T08:35:26Z</time>
      </trkpt>
      <trkpt lat="42.92554" lon="0.19181">
        <ele>1421</ele>
        <time>2013-03-24T08:35:30Z</time>
      </trkpt>
      <trkpt lat="42.92556" lon="0.19177">
        <ele>1421</ele>
        <time>2013-03-24T08:35:33Z</time>
      </trkpt>
      <trkpt lat="42.92556" lon="0.19175">
        <ele>1421</ele>
        <time>2013-03-24T08:35:35Z</time>
      </trkpt>
      <trkpt lat="42.92557" lon="0.19172">
        <ele>1421</ele>
        <time>2013-03-24T08:35:36Z</time>
      </trkpt>
      <trkpt lat="42.92558" lon="0.1917">
        <ele>1421</ele>
        <time>2013-03-24T08:35:38Z</time>
      </trkpt>
      <trkpt lat="42.92559" lon="0.19168">
        <ele>1422</ele>
        <time>2013-03-24T08:35:40Z</time>
      </trkpt>
      <trkpt lat="42.92559" lon="0.19165">
        <ele>1422</ele>
        <time>2013-03-24T08:35:43Z</time>
      </trkpt>
      <trkpt lat="42.9256" lon="0.19163">
        <ele>1423</ele>
        <time>2013-03-24T08:35:45Z</time>
      </trkpt>
      <trkpt lat="42.9256" lon="0.19161">
        <ele>1423</ele>
        <time>2013-03-24T08:35:47Z</time>
      </trkpt>
      <trkpt lat="42.92561" lon="0.19158">
        <ele>1424</ele>
        <time>2013-03-24T08:35:48Z</time>
      </trkpt>
      <trkpt lat="42.92563" lon="0.19154">
        <ele>1424</ele>
        <time>2013-03-24T08:35:52Z</time>
      </trkpt>
      <trkpt lat="42.92563" lon="0.19152">
        <ele>1424</ele>
        <time>2013-03-24T08:35:54Z</time>
      </trkpt>
      <trkpt lat="42.92564" lon="0.19149">
        <ele>1424</ele>
        <time>2013-03-24T08:35:55Z</time>
      </trkpt>
      <trkpt lat="42.92564" lon="0.19146">
        <ele>1425</ele>
        <time>2013-03-24T08:35:59Z</time>
      </trkpt>
      <trkpt lat="42.92565" lon="0.19143">
        <ele>1425</ele>
        <time>2013-03-24T08:36:01Z</time>
      </trkpt>
      <trkpt lat="42.92566" lon="0.1914">
        <ele>1425</ele>
        <time>2013-03-24T08:36:03Z</time>
      </trkpt>
      <trkpt lat="42.92566" lon="0.19138">
        <ele>1425</ele>
        <time>2013-03-24T08:36:05Z</time>
      </trkpt>
      <trkpt lat="42.92567" lon="0.19135">
        <ele>1425</ele>
        <time>2013-03-24T08:36:08Z</time>
      </trkpt>
      <trkpt lat="42.92567" lon="0.19133">
        <ele>1426</ele>
        <time>2013-03-24T08:36:10Z</time>
      </trkpt>
      <trkpt lat="42.92568" lon="0.1913">
        <ele>1426</ele>
        <time>2013-03-24T08:36:12Z</time>
      </trkpt>
      <trkpt lat="42.92569" lon="0.19128">
        <ele>1426</ele>
        <time>2013-03-24T08:36:14Z</time>
      </trkpt>
      <trkpt lat="42.9257" lon="0.19127">
        <ele>1427</ele>
        <time>2013-03-24T08:36:16Z</time>
      </trkpt>
      <trkpt lat="42.92572" lon="0.19126">
        <ele>1427</ele>
        <time>2013-03-24T08:36:18Z</time>
      </trkpt>
      <trkpt lat="42.92573" lon="0.19125">
        <ele>1427</ele>
        <time>2013-03-24T08:36:20Z</time>
      </trkpt>
      <trkpt lat="42.92575" lon="0.19124">
        <ele>1428</ele>
        <time>2013-03-24T08:36:22Z</time>
      </trkpt>
      <trkpt lat="42.92577" lon="0.19124">
        <ele>1428</ele>
        <time>2013-03-24T08:36:24Z</time>
      </trkpt>
      <trkpt lat="42.92578" lon="0.19123">
        <ele>1429</ele>
        <time>2013-03-24T08:36:26Z</time>
      </trkpt>
      <trkpt lat="42.9258" lon="0.19122">
        <ele>1429</ele>
        <time>2013-03-24T08:36:28Z</time>
      </trkpt>
      <trkpt lat="42.92582" lon="0.1912">
        <ele>1430</ele>
        <time>2013-03-24T08:36:31Z</time>
      </trkpt>
      <trkpt lat="42.92583" lon="0.19118">
        <ele>1430</ele>
        <time>2013-03-24T08:36:32Z</time>
      </trkpt>
      <trkpt lat="42.92583" lon="0.19116">
        <ele>1431</ele>
        <time>2013-03-24T08:36:34Z</time>
      </trkpt>
      <trkpt lat="42.92584" lon="0.19114">
        <ele>1431</ele>
        <time>2013-03-24T08:36:37Z</time>
      </trkpt>
      <trkpt lat="42.92584" lon="0.19112">
        <ele>1431</ele>
        <time>2013-03-24T08:36:38Z</time>
      </trkpt>
      <trkpt lat="42.92584" lon="0.1911">
        <ele>1431</ele>
        <time>2013-03-24T08:36:41Z</time>
      </trkpt>
      <trkpt lat="42.92585" lon="0.19107">
        <ele>1432</ele>
        <time>2013-03-24T08:36:44Z</time>
      </trkpt>
      <trkpt lat="42.92586" lon="0.19105">
        <ele>1432</ele>
        <time>2013-03-24T08:36:46Z</time>
      </trkpt>
      <trkpt lat="42.92586" lon="0.19102">
        <ele>1432</ele>
        <time>2013-03-24T08:36:48Z</time>
      </trkpt>
      <trkpt lat="42.92587" lon="0.19101">
        <ele>1432</ele>
        <time>2013-03-24T08:36:51Z</time>
      </trkpt>
      <trkpt lat="42.92588" lon="0.19098">
        <ele>1432</ele>
        <time>2013-03-24T08:36:54Z</time>
      </trkpt>
      <trkpt lat="42.92589" lon="0.19097">
        <ele>1433</ele>
        <time>2013-03-24T08:36:57Z</time>
      </trkpt>
      <trkpt lat="42.9259" lon="0.19095">
        <ele>1433</ele>
        <time>2013-03-24T08:37:00Z</time>
      </trkpt>
      <trkpt lat="42.92591" lon="0.19094">
        <ele>1434</ele>
        <time>2013-03-24T08:37:02Z</time>
      </trkpt>
      <trkpt lat="42.92591" lon="0.1909">
        <ele>1436</ele>
        <time>2013-03-24T08:37:19Z</time>
      </trkpt>
      <trkpt lat="42.92592" lon="0.19088">
        <ele>1436</ele>
        <time>2013-03-24T08:37:21Z</time>
      </trkpt>
      <trkpt lat="42.92592" lon="0.19086">
        <ele>1436</ele>
        <time>2013-03-24T08:37:23Z</time>
      </trkpt>
      <trkpt lat="42.92593" lon="0.19084">
        <ele>1436</ele>
        <time>2013-03-24T08:37:24Z</time>
      </trkpt>
      <trkpt lat="42.92593" lon="0.19082">
        <ele>1436</ele>
        <time>2013-03-24T08:37:26Z</time>
      </trkpt>
      <trkpt lat="42.92593" lon="0.1908">
        <ele>1436</ele>
        <time>2013-03-24T08:37:27Z</time>
      </trkpt>
      <trkpt lat="42.92593" lon="0.19078">
        <ele>1436</ele>
        <time>2013-03-24T08:37:29Z</time>
      </trkpt>
      <trkpt lat="42.92594" lon="0.19075">
        <ele>1437</ele>
        <time>2013-03-24T08:37:32Z</time>
      </trkpt>
      <trkpt lat="42.92594" lon="0.19073">
        <ele>1437</ele>
        <time>2013-03-24T08:37:34Z</time>
      </trkpt>
      <trkpt lat="42.92595" lon="0.19071">
        <ele>1437</ele>
        <time>2013-03-24T08:37:35Z</time>
      </trkpt>
      <trkpt lat="42.92595" lon="0.19069">
        <ele>1437</ele>
        <time>2013-03-24T08:37:37Z</time>
      </trkpt>
      <trkpt lat="42.92595" lon="0.19067">
        <ele>1437</ele>
        <time>2013-03-24T08:37:39Z</time>
      </trkpt>
      <trkpt lat="42.92596" lon="0.19064">
        <ele>1437</ele>
        <time>2013-03-24T08:37:41Z</time>
      </trkpt>
      <trkpt lat="42.92596" lon="0.19062">
        <ele>1437</ele>
        <time>2013-03-24T08:37:44Z</time>
      </trkpt>
      <trkpt lat="42.92596" lon="0.19061">
        <ele>1438</ele>
        <time>2013-03-24T08:37:46Z</time>
      </trkpt>
      <trkpt lat="42.92597" lon="0.19059">
        <ele>1438</ele>
        <time>2013-03-24T08:37:47Z</time>
      </trkpt>
      <trkpt lat="42.92598" lon="0.19057">
        <ele>1438</ele>
        <time>2013-03-24T08:37:51Z</time>
      </trkpt>
      <trkpt lat="42.92598" lon="0.19055">
        <ele>1438</ele>
        <time>2013-03-24T08:37:52Z</time>
      </trkpt>
      <trkpt lat="42.92598" lon="0.19053">
        <ele>1438</ele>
        <time>2013-03-24T08:37:54Z</time>
      </trkpt>
      <trkpt lat="42.92599" lon="0.19051">
        <ele>1438</ele>
        <time>2013-03-24T08:37:56Z</time>
      </trkpt>
      <trkpt lat="42.92599" lon="0.19049">
        <ele>1438</ele>
        <time>2013-03-24T08:37:58Z</time>
      </trkpt>
      <trkpt lat="42.92599" lon="0.19047">
        <ele>1438</ele>
        <time>2013-03-24T08:38:01Z</time>
      </trkpt>
      <trkpt lat="42.92599" lon="0.19046">
        <ele>1438</ele>
        <time>2013-03-24T08:38:03Z</time>
      </trkpt>
      <trkpt lat="42.92599" lon="0.19044">
        <ele>1438</ele>
        <time>2013-03-24T08:38:05Z</time>
      </trkpt>
      <trkpt lat="42.92599" lon="0.19041">
        <ele>1438</ele>
        <time>2013-03-24T08:38:07Z</time>
      </trkpt>
      <trkpt lat="42.92599" lon="0.19039">
        <ele>1438</ele>
        <time>2013-03-24T08:38:08Z</time>
      </trkpt>
      <trkpt lat="42.92599" lon="0.19037">
        <ele>1438</ele>
        <time>2013-03-24T08:38:10Z</time>
      </trkpt>
      <trkpt lat="42.92599" lon="0.19035">
        <ele>1438</ele>
        <time>2013-03-24T08:38:13Z</time>
      </trkpt>
      <trkpt lat="42.92599" lon="0.19032">
        <ele>1438</ele>
        <time>2013-03-24T08:38:14Z</time>
      </trkpt>
      <trkpt lat="42.926" lon="0.1903">
        <ele>1439</ele>
        <time>2013-03-24T08:38:17Z</time>
      </trkpt>
      <trkpt lat="42.926" lon="0.19028">
        <ele>1439</ele>
        <time>2013-03-24T08:38:18Z</time>
      </trkpt>
      <trkpt lat="42.92601" lon="0.19025">
        <ele>1439</ele>
        <time>2013-03-24T08:38:20Z</time>
      </trkpt>
      <trkpt lat="42.926" lon="0.19024">
        <ele>1440</ele>
        <time>2013-03-24T08:39:31Z</time>
      </trkpt>
      <trkpt lat="42.926" lon="0.19022">
        <ele>1440</ele>
        <time>2013-03-24T08:39:40Z</time>
      </trkpt>
      <trkpt lat="42.92601" lon="0.19019">
        <ele>1440</ele>
        <time>2013-03-24T08:39:43Z</time>
      </trkpt>
      <trkpt lat="42.92601" lon="0.19016">
        <ele>1440</ele>
        <time>2013-03-24T08:39:46Z</time>
      </trkpt>
      <trkpt lat="42.92601" lon="0.19014">
        <ele>1440</ele>
        <time>2013-03-24T08:39:47Z</time>
      </trkpt>
      <trkpt lat="42.92601" lon="0.19012">
        <ele>1440</ele>
        <time>2013-03-24T08:39:48Z</time>
      </trkpt>
      <trkpt lat="42.92601" lon="0.19011">
        <ele>1440</ele>
        <time>2013-03-24T08:40:01Z</time>
      </trkpt>
      <trkpt lat="42.92601" lon="0.19009">
        <ele>1440</ele>
        <time>2013-03-24T08:40:03Z</time>
      </trkpt>
      <trkpt lat="42.92601" lon="0.19006">
        <ele>1440</ele>
        <time>2013-03-24T08:40:05Z</time>
      </trkpt>
      <trkpt lat="42.92602" lon="0.19004">
        <ele>1440</ele>
        <time>2013-03-24T08:40:06Z</time>
      </trkpt>
      <trkpt lat="42.92602" lon="0.19001">
        <ele>1440</ele>
        <time>2013-03-24T08:40:08Z</time>
      </trkpt>
      <trkpt lat="42.92603" lon="0.18999">
        <ele>1440</ele>
        <time>2013-03-24T08:40:11Z</time>
      </trkpt>
      <trkpt lat="42.92603" lon="0.18995">
        <ele>1440</ele>
        <time>2013-03-24T08:40:14Z</time>
      </trkpt>
      <trkpt lat="42.92603" lon="0.18993">
        <ele>1441</ele>
        <time>2013-03-24T08:40:16Z</time>
      </trkpt>
      <trkpt lat="42.92603" lon="0.1899">
        <ele>1441</ele>
        <time>2013-03-24T08:40:18Z</time>
      </trkpt>
      <trkpt lat="42.92603" lon="0.18988">
        <ele>1442</ele>
        <time>2013-03-24T08:40:20Z</time>
      </trkpt>
      <trkpt lat="42.92604" lon="0.18986">
        <ele>1442</ele>
        <time>2013-03-24T08:40:22Z</time>
      </trkpt>
      <trkpt lat="42.92604" lon="0.18982">
        <ele>1442</ele>
        <time>2013-03-24T08:40:25Z</time>
      </trkpt>
      <trkpt lat="42.92604" lon="0.1898">
        <ele>1442</ele>
        <time>2013-03-24T08:40:27Z</time>
      </trkpt>
      <trkpt lat="42.92604" lon="0.18978">
        <ele>1443</ele>
        <time>2013-03-24T08:40:29Z</time>
      </trkpt>
      <trkpt lat="42.92604" lon="0.18975">
        <ele>1443</ele>
        <time>2013-03-24T08:40:31Z</time>
      </trkpt>
      <trkpt lat="42.92604" lon="0.18973">
        <ele>1443</ele>
        <time>2013-03-24T08:40:33Z</time>
      </trkpt>
      <trkpt lat="42.92604" lon="0.18971">
        <ele>1444</ele>
        <time>2013-03-24T08:40:35Z</time>
      </trkpt>
      <trkpt lat="42.92604" lon="0.18969">
        <ele>1444</ele>
        <time>2013-03-24T08:40:37Z</time>
      </trkpt>
      <trkpt lat="42.92605" lon="0.18967">
        <ele>1444</ele>
        <time>2013-03-24T08:40:38Z</time>
      </trkpt>
      <trkpt lat="42.92605" lon="0.18965">
        <ele>1445</ele>
        <time>2013-03-24T08:40:40Z</time>
      </trkpt>
      <trkpt lat="42.92605" lon="0.18962">
        <ele>1445</ele>
        <time>2013-03-24T08:40:42Z</time>
      </trkpt>
      <trkpt lat="42.92605" lon="0.1896">
        <ele>1446</ele>
        <time>2013-03-24T08:40:44Z</time>
      </trkpt>
      <trkpt lat="42.92606" lon="0.18958">
        <ele>1446</ele>
        <time>2013-03-24T08:40:45Z</time>
      </trkpt>
      <trkpt lat="42.92606" lon="0.18956">
        <ele>1447</ele>
        <time>2013-03-24T08:40:48Z</time>
      </trkpt>
      <trkpt lat="42.92606" lon="0.18952">
        <ele>1447</ele>
        <time>2013-03-24T08:40:51Z</time>
      </trkpt>
      <trkpt lat="42.92607" lon="0.18949">
        <ele>1448</ele>
        <time>2013-03-24T08:40:52Z</time>
      </trkpt>
      <trkpt lat="42.92607" lon="0.18947">
        <ele>1448</ele>
        <time>2013-03-24T08:40:54Z</time>
      </trkpt>
      <trkpt lat="42.92607" lon="0.18945">
        <ele>1449</ele>
        <time>2013-03-24T08:40:56Z</time>
      </trkpt>
      <trkpt lat="42.92607" lon="0.18943">
        <ele>1449</ele>
        <time>2013-03-24T08:40:59Z</time>
      </trkpt>
      <trkpt lat="42.92608" lon="0.1894">
        <ele>1449</ele>
        <time>2013-03-24T08:41:00Z</time>
      </trkpt>
      <trkpt lat="42.92608" lon="0.18938">
        <ele>1449</ele>
        <time>2013-03-24T08:41:02Z</time>
      </trkpt>
      <trkpt lat="42.92608" lon="0.18936">
        <ele>1450</ele>
        <time>2013-03-24T08:41:05Z</time>
      </trkpt>
      <trkpt lat="42.92609" lon="0.18937">
        <ele>1450</ele>
        <time>2013-03-24T08:41:16Z</time>
      </trkpt>
      <trkpt lat="42.92611" lon="0.18937">
        <ele>1450</ele>
        <time>2013-03-24T08:41:41Z</time>
      </trkpt>
      <trkpt lat="42.92612" lon="0.18938">
        <ele>1450</ele>
        <time>2013-03-24T08:41:44Z</time>
      </trkpt>
      <trkpt lat="42.92611" lon="0.18936">
        <ele>1453</ele>
        <time>2013-03-24T08:42:00Z</time>
      </trkpt>
      <trkpt lat="42.9261" lon="0.18935">
        <ele>1453</ele>
        <time>2013-03-24T08:42:05Z</time>
      </trkpt>
      <trkpt lat="42.92609" lon="0.18936">
        <ele>1453</ele>
        <time>2013-03-24T08:42:33Z</time>
      </trkpt>
      <trkpt lat="42.92609" lon="0.18934">
        <ele>1453</ele>
        <time>2013-03-24T08:42:49Z</time>
      </trkpt>
      <trkpt lat="42.92609" lon="0.18932">
        <ele>1453</ele>
        <time>2013-03-24T08:43:24Z</time>
      </trkpt>
      <trkpt lat="42.92609" lon="0.18928">
        <ele>1453</ele>
        <time>2013-03-24T08:43:27Z</time>
      </trkpt>
      <trkpt lat="42.92609" lon="0.18926">
        <ele>1453</ele>
        <time>2013-03-24T08:43:29Z</time>
      </trkpt>
      <trkpt lat="42.92609" lon="0.18922">
        <ele>1453</ele>
        <time>2013-03-24T08:43:32Z</time>
      </trkpt>
      <trkpt lat="42.9261" lon="0.18919">
        <ele>1453</ele>
        <time>2013-03-24T08:43:34Z</time>
      </trkpt>
      <trkpt lat="42.92609" lon="0.18916">
        <ele>1453</ele>
        <time>2013-03-24T08:43:36Z</time>
      </trkpt>
      <trkpt lat="42.92609" lon="0.18914">
        <ele>1453</ele>
        <time>2013-03-24T08:43:38Z</time>
      </trkpt>
      <trkpt lat="42.92609" lon="0.18911">
        <ele>1453</ele>
        <time>2013-03-24T08:43:39Z</time>
      </trkpt>
      <trkpt lat="42.92609" lon="0.18909">
        <ele>1453</ele>
        <time>2013-03-24T08:43:41Z</time>
      </trkpt>
      <trkpt lat="42.92608" lon="0.18906">
        <ele>1453</ele>
        <time>2013-03-24T08:43:44Z</time>
      </trkpt>
      <trkpt lat="42.92608" lon="0.18904">
        <ele>1453</ele>
        <time>2013-03-24T08:43:46Z</time>
      </trkpt>
      <trkpt lat="42.92608" lon="0.18903">
        <ele>1453</ele>
        <time>2013-03-24T08:43:47Z</time>
      </trkpt>
      <trkpt lat="42.92607" lon="0.18901">
        <ele>1453</ele>
        <time>2013-03-24T08:43:48Z</time>
      </trkpt>
      <trkpt lat="42.92606" lon="0.18898">
        <ele>1453</ele>
        <time>2013-03-24T08:43:50Z</time>
      </trkpt>
      <trkpt lat="42.92606" lon="0.18896">
        <ele>1453</ele>
        <time>2013-03-24T08:43:53Z</time>
      </trkpt>
      <trkpt lat="42.92605" lon="0.18893">
        <ele>1453</ele>
        <time>2013-03-24T08:43:55Z</time>
      </trkpt>
      <trkpt lat="42.92604" lon="0.18891">
        <ele>1453</ele>
        <time>2013-03-24T08:43:56Z</time>
      </trkpt>
      <trkpt lat="42.92604" lon="0.18889">
        <ele>1453</ele>
        <time>2013-03-24T08:43:58Z</time>
      </trkpt>
      <trkpt lat="42.92603" lon="0.18888">
        <ele>1453</ele>
        <time>2013-03-24T08:44:01Z</time>
      </trkpt>
      <trkpt lat="42.92603" lon="0.18886">
        <ele>1453</ele>
        <time>2013-03-24T08:44:09Z</time>
      </trkpt>
      <trkpt lat="42.92602" lon="0.18883">
        <ele>1454</ele>
        <time>2013-03-24T08:44:11Z</time>
      </trkpt>
      <trkpt lat="42.92601" lon="0.18881">
        <ele>1454</ele>
        <time>2013-03-24T08:44:13Z</time>
      </trkpt>
      <trkpt lat="42.926" lon="0.18879">
        <ele>1454</ele>
        <time>2013-03-24T08:44:15Z</time>
      </trkpt>
      <trkpt lat="42.92599" lon="0.18877">
        <ele>1455</ele>
        <time>2013-03-24T08:44:16Z</time>
      </trkpt>
      <trkpt lat="42.92599" lon="0.18874">
        <ele>1455</ele>
        <time>2013-03-24T08:44:19Z</time>
      </trkpt>
      <trkpt lat="42.92598" lon="0.18872">
        <ele>1456</ele>
        <time>2013-03-24T08:44:20Z</time>
      </trkpt>
      <trkpt lat="42.92598" lon="0.1887">
        <ele>1456</ele>
        <time>2013-03-24T08:44:23Z</time>
      </trkpt>
      <trkpt lat="42.92597" lon="0.18868">
        <ele>1457</ele>
        <time>2013-03-24T08:44:25Z</time>
      </trkpt>
      <trkpt lat="42.92596" lon="0.18866">
        <ele>1457</ele>
        <time>2013-03-24T08:44:27Z</time>
      </trkpt>
      <trkpt lat="42.92595" lon="0.18864">
        <ele>1457</ele>
        <time>2013-03-24T08:44:29Z</time>
      </trkpt>
      <trkpt lat="42.92594" lon="0.18862">
        <ele>1457</ele>
        <time>2013-03-24T08:44:29Z</time>
      </trkpt>
      <trkpt lat="42.92593" lon="0.1886">
        <ele>1457</ele>
        <time>2013-03-24T08:44:31Z</time>
      </trkpt>
      <trkpt lat="42.92592" lon="0.18858">
        <ele>1457</ele>
        <time>2013-03-24T08:44:34Z</time>
      </trkpt>
      <trkpt lat="42.92591" lon="0.18856">
        <ele>1457</ele>
        <time>2013-03-24T08:44:36Z</time>
      </trkpt>
      <trkpt lat="42.92591" lon="0.18854">
        <ele>1458</ele>
        <time>2013-03-24T08:44:38Z</time>
      </trkpt>
      <trkpt lat="42.9259" lon="0.18852">
        <ele>1458</ele>
        <time>2013-03-24T08:44:40Z</time>
      </trkpt>
      <trkpt lat="42.9259" lon="0.1885">
        <ele>1459</ele>
        <time>2013-03-24T08:44:43Z</time>
      </trkpt>
      <trkpt lat="42.92589" lon="0.18848">
        <ele>1459</ele>
        <time>2013-03-24T08:44:45Z</time>
      </trkpt>
      <trkpt lat="42.92589" lon="0.18846">
        <ele>1459</ele>
        <time>2013-03-24T08:44:46Z</time>
      </trkpt>
      <trkpt lat="42.92589" lon="0.18844">
        <ele>1459</ele>
        <time>2013-03-24T08:44:49Z</time>
      </trkpt>
      <trkpt lat="42.92588" lon="0.18842">
        <ele>1459</ele>
        <time>2013-03-24T08:44:50Z</time>
      </trkpt>
      <trkpt lat="42.92588" lon="0.1884">
        <ele>1459</ele>
        <time>2013-03-24T08:44:53Z</time>
      </trkpt>
      <trkpt lat="42.92588" lon="0.18837">
        <ele>1460</ele>
        <time>2013-03-24T08:44:56Z</time>
      </trkpt>
      <trkpt lat="42.92588" lon="0.18835">
        <ele>1460</ele>
        <time>2013-03-24T08:44:58Z</time>
      </trkpt>
      <trkpt lat="42.92589" lon="0.18833">
        <ele>1461</ele>
        <time>2013-03-24T08:45:00Z</time>
      </trkpt>
      <trkpt lat="42.92589" lon="0.18831">
        <ele>1461</ele>
        <time>2013-03-24T08:45:01Z</time>
      </trkpt>
      <trkpt lat="42.92588" lon="0.18829">
        <ele>1461</ele>
        <time>2013-03-24T08:45:03Z</time>
      </trkpt>
      <trkpt lat="42.92589" lon="0.18827">
        <ele>1462</ele>
        <time>2013-03-24T08:45:05Z</time>
      </trkpt>
      <trkpt lat="42.92588" lon="0.18825">
        <ele>1462</ele>
        <time>2013-03-24T08:45:08Z</time>
      </trkpt>
      <trkpt lat="42.92588" lon="0.18823">
        <ele>1462</ele>
        <time>2013-03-24T08:45:09Z</time>
      </trkpt>
      <trkpt lat="42.92588" lon="0.18821">
        <ele>1462</ele>
        <time>2013-03-24T08:45:12Z</time>
      </trkpt>
      <trkpt lat="42.92588" lon="0.18819">
        <ele>1463</ele>
        <time>2013-03-24T08:45:14Z</time>
      </trkpt>
      <trkpt lat="42.92588" lon="0.18816">
        <ele>1463</ele>
        <time>2013-03-24T08:45:15Z</time>
      </trkpt>
      <trkpt lat="42.92588" lon="0.18815">
        <ele>1463</ele>
        <time>2013-03-24T08:45:18Z</time>
      </trkpt>
      <trkpt lat="42.92588" lon="0.18813">
        <ele>1463</ele>
        <time>2013-03-24T08:45:20Z</time>
      </trkpt>
      <trkpt lat="42.92589" lon="0.18811">
        <ele>1464</ele>
        <time>2013-03-24T08:45:23Z</time>
      </trkpt>
      <trkpt lat="42.9259" lon="0.18809">
        <ele>1464</ele>
        <time>2013-03-24T08:45:25Z</time>
      </trkpt>
      <trkpt lat="42.9259" lon="0.18806">
        <ele>1464</ele>
        <time>2013-03-24T08:45:28Z</time>
      </trkpt>
      <trkpt lat="42.9259" lon="0.18804">
        <ele>1464</ele>
        <time>2013-03-24T08:45:30Z</time>
      </trkpt>
      <trkpt lat="42.92591" lon="0.18802">
        <ele>1465</ele>
        <time>2013-03-24T08:45:32Z</time>
      </trkpt>
      <trkpt lat="42.92592" lon="0.188">
        <ele>1466</ele>
        <time>2013-03-24T08:45:35Z</time>
      </trkpt>
      <trkpt lat="42.92593" lon="0.18798">
        <ele>1467</ele>
        <time>2013-03-24T08:45:37Z</time>
      </trkpt>
      <trkpt lat="42.92593" lon="0.18797">
        <ele>1467</ele>
        <time>2013-03-24T08:45:40Z</time>
      </trkpt>
      <trkpt lat="42.92593" lon="0.18795">
        <ele>1467</ele>
        <time>2013-03-24T08:45:42Z</time>
      </trkpt>
      <trkpt lat="42.92594" lon="0.18793">
        <ele>1467</ele>
        <time>2013-03-24T08:45:44Z</time>
      </trkpt>
      <trkpt lat="42.92595" lon="0.18792">
        <ele>1467</ele>
        <time>2013-03-24T08:45:46Z</time>
      </trkpt>
      <trkpt lat="42.92595" lon="0.1879">
        <ele>1468</ele>
        <time>2013-03-24T08:45:47Z</time>
      </trkpt>
      <trkpt lat="42.92593" lon="0.18789">
        <ele>1468</ele>
        <time>2013-03-24T08:45:50Z</time>
      </trkpt>
      <trkpt lat="42.92594" lon="0.18787">
        <ele>1468</ele>
        <time>2013-03-24T08:45:51Z</time>
      </trkpt>
      <trkpt lat="42.92594" lon="0.18785">
        <ele>1468</ele>
        <time>2013-03-24T08:45:54Z</time>
      </trkpt>
      <trkpt lat="42.92594" lon="0.18783">
        <ele>1468</ele>
        <time>2013-03-24T08:45:56Z</time>
      </trkpt>
      <trkpt lat="42.92595" lon="0.18782">
        <ele>1468</ele>
        <time>2013-03-24T08:45:57Z</time>
      </trkpt>
      <trkpt lat="42.92596" lon="0.1878">
        <ele>1469</ele>
        <time>2013-03-24T08:45:58Z</time>
      </trkpt>
      <trkpt lat="42.92597" lon="0.18778">
        <ele>1469</ele>
        <time>2013-03-24T08:46:01Z</time>
      </trkpt>
      <trkpt lat="42.92598" lon="0.18777">
        <ele>1470</ele>
        <time>2013-03-24T08:46:03Z</time>
      </trkpt>
      <trkpt lat="42.926" lon="0.18776">
        <ele>1471</ele>
        <time>2013-03-24T08:46:06Z</time>
      </trkpt>
      <trkpt lat="42.92601" lon="0.18776">
        <ele>1473</ele>
        <time>2013-03-24T08:46:11Z</time>
      </trkpt>
      <trkpt lat="42.92602" lon="0.18777">
        <ele>1474</ele>
        <time>2013-03-24T08:46:21Z</time>
      </trkpt>
      <trkpt lat="42.92603" lon="0.18775">
        <ele>1474</ele>
        <time>2013-03-24T08:46:25Z</time>
      </trkpt>
      <trkpt lat="42.92603" lon="0.18773">
        <ele>1474</ele>
        <time>2013-03-24T08:46:27Z</time>
      </trkpt>
      <trkpt lat="42.92604" lon="0.18771">
        <ele>1475</ele>
        <time>2013-03-24T08:46:29Z</time>
      </trkpt>
      <trkpt lat="42.92604" lon="0.18768">
        <ele>1475</ele>
        <time>2013-03-24T08:46:31Z</time>
      </trkpt>
      <trkpt lat="42.92605" lon="0.18767">
        <ele>1475</ele>
        <time>2013-03-24T08:46:33Z</time>
      </trkpt>
      <trkpt lat="42.92605" lon="0.18764">
        <ele>1475</ele>
        <time>2013-03-24T08:46:35Z</time>
      </trkpt>
      <trkpt lat="42.92605" lon="0.18762">
        <ele>1475</ele>
        <time>2013-03-24T08:46:36Z</time>
      </trkpt>
      <trkpt lat="42.92605" lon="0.1876">
        <ele>1476</ele>
        <time>2013-03-24T08:46:38Z</time>
      </trkpt>
      <trkpt lat="42.92605" lon="0.18758">
        <ele>1477</ele>
        <time>2013-03-24T08:46:40Z</time>
      </trkpt>
      <trkpt lat="42.92605" lon="0.18756">
        <ele>1477</ele>
        <time>2013-03-24T08:46:42Z</time>
      </trkpt>
      <trkpt lat="42.92605" lon="0.18755">
        <ele>1477</ele>
        <time>2013-03-24T08:46:44Z</time>
      </trkpt>
      <trkpt lat="42.92606" lon="0.18752">
        <ele>1478</ele>
        <time>2013-03-24T08:46:45Z</time>
      </trkpt>
      <trkpt lat="42.92606" lon="0.18751">
        <ele>1478</ele>
        <time>2013-03-24T08:46:47Z</time>
      </trkpt>
      <trkpt lat="42.92608" lon="0.18747">
        <ele>1479</ele>
        <time>2013-03-24T08:46:49Z</time>
      </trkpt>
      <trkpt lat="42.92608" lon="0.18745">
        <ele>1479</ele>
        <time>2013-03-24T08:46:52Z</time>
      </trkpt>
      <trkpt lat="42.92609" lon="0.18742">
        <ele>1480</ele>
        <time>2013-03-24T08:46:55Z</time>
      </trkpt>
      <trkpt lat="42.92609" lon="0.1874">
        <ele>1480</ele>
        <time>2013-03-24T08:46:57Z</time>
      </trkpt>
      <trkpt lat="42.92609" lon="0.18738">
        <ele>1481</ele>
        <time>2013-03-24T08:47:02Z</time>
      </trkpt>
      <trkpt lat="42.92609" lon="0.18736">
        <ele>1481</ele>
        <time>2013-03-24T08:47:05Z</time>
      </trkpt>
      <trkpt lat="42.92609" lon="0.18733">
        <ele>1481</ele>
        <time>2013-03-24T08:47:07Z</time>
      </trkpt>
      <trkpt lat="42.92609" lon="0.1873">
        <ele>1481</ele>
        <time>2013-03-24T08:47:09Z</time>
      </trkpt>
      <trkpt lat="42.92608" lon="0.18728">
        <ele>1481</ele>
        <time>2013-03-24T08:47:12Z</time>
      </trkpt>
      <trkpt lat="42.92608" lon="0.18727">
        <ele>1481</ele>
        <time>2013-03-24T08:47:13Z</time>
      </trkpt>
      <trkpt lat="42.92608" lon="0.18725">
        <ele>1481</ele>
        <time>2013-03-24T08:47:16Z</time>
      </trkpt>
      <trkpt lat="42.92608" lon="0.18723">
        <ele>1481</ele>
        <time>2013-03-24T08:47:17Z</time>
      </trkpt>
      <trkpt lat="42.92609" lon="0.18721">
        <ele>1481</ele>
        <time>2013-03-24T08:47:19Z</time>
      </trkpt>
      <trkpt lat="42.92609" lon="0.18719">
        <ele>1481</ele>
        <time>2013-03-24T08:47:21Z</time>
      </trkpt>
      <trkpt lat="42.9261" lon="0.18716">
        <ele>1481</ele>
        <time>2013-03-24T08:47:22Z</time>
      </trkpt>
      <trkpt lat="42.9261" lon="0.18714">
        <ele>1481</ele>
        <time>2013-03-24T08:47:24Z</time>
      </trkpt>
      <trkpt lat="42.9261" lon="0.18713">
        <ele>1481</ele>
        <time>2013-03-24T08:47:25Z</time>
      </trkpt>
      <trkpt lat="42.92609" lon="0.1871">
        <ele>1482</ele>
        <time>2013-03-24T08:47:28Z</time>
      </trkpt>
      <trkpt lat="42.92609" lon="0.18707">
        <ele>1482</ele>
        <time>2013-03-24T08:47:30Z</time>
      </trkpt>
      <trkpt lat="42.92609" lon="0.18704">
        <ele>1482</ele>
        <time>2013-03-24T08:47:32Z</time>
      </trkpt>
      <trkpt lat="42.92609" lon="0.18702">
        <ele>1483</ele>
        <time>2013-03-24T08:47:34Z</time>
      </trkpt>
      <trkpt lat="42.92609" lon="0.187">
        <ele>1483</ele>
        <time>2013-03-24T08:47:36Z</time>
      </trkpt>
      <trkpt lat="42.92609" lon="0.18699">
        <ele>1483</ele>
        <time>2013-03-24T08:47:37Z</time>
      </trkpt>
      <trkpt lat="42.92609" lon="0.18697">
        <ele>1483</ele>
        <time>2013-03-24T08:47:38Z</time>
      </trkpt>
      <trkpt lat="42.9261" lon="0.18695">
        <ele>1483</ele>
        <time>2013-03-24T08:47:40Z</time>
      </trkpt>
      <trkpt lat="42.9261" lon="0.18693">
        <ele>1483</ele>
        <time>2013-03-24T08:47:46Z</time>
      </trkpt>
      <trkpt lat="42.9261" lon="0.18692">
        <ele>1483</ele>
        <time>2013-03-24T08:47:48Z</time>
      </trkpt>
      <trkpt lat="42.92611" lon="0.18689">
        <ele>1483</ele>
        <time>2013-03-24T08:47:49Z</time>
      </trkpt>
      <trkpt lat="42.92612" lon="0.18687">
        <ele>1483</ele>
        <time>2013-03-24T08:47:51Z</time>
      </trkpt>
      <trkpt lat="42.92614" lon="0.18685">
        <ele>1483</ele>
        <time>2013-03-24T08:47:53Z</time>
      </trkpt>
      <trkpt lat="42.92614" lon="0.18683">
        <ele>1484</ele>
        <time>2013-03-24T08:47:56Z</time>
      </trkpt>
      <trkpt lat="42.92615" lon="0.18681">
        <ele>1484</ele>
        <time>2013-03-24T08:47:59Z</time>
      </trkpt>
      <trkpt lat="42.92615" lon="0.18679">
        <ele>1485</ele>
        <time>2013-03-24T08:48:00Z</time>
      </trkpt>
      <trkpt lat="42.92616" lon="0.18677">
        <ele>1486</ele>
        <time>2013-03-24T08:48:03Z</time>
      </trkpt>
      <trkpt lat="42.92616" lon="0.18676">
        <ele>1486</ele>
        <time>2013-03-24T08:48:04Z</time>
      </trkpt>
      <trkpt lat="42.92617" lon="0.18674">
        <ele>1487</ele>
        <time>2013-03-24T08:48:07Z</time>
      </trkpt>
      <trkpt lat="42.92617" lon="0.18672">
        <ele>1488</ele>
        <time>2013-03-24T08:48:09Z</time>
      </trkpt>
      <trkpt lat="42.92617" lon="0.1867">
        <ele>1489</ele>
        <time>2013-03-24T08:48:10Z</time>
      </trkpt>
      <trkpt lat="42.92617" lon="0.18668">
        <ele>1489</ele>
        <time>2013-03-24T08:48:12Z</time>
      </trkpt>
      <trkpt lat="42.92618" lon="0.18667">
        <ele>1490</ele>
        <time>2013-03-24T08:48:15Z</time>
      </trkpt>
      <trkpt lat="42.92618" lon="0.18665">
        <ele>1490</ele>
        <time>2013-03-24T08:48:17Z</time>
      </trkpt>
      <trkpt lat="42.92619" lon="0.18664">
        <ele>1491</ele>
        <time>2013-03-24T08:48:18Z</time>
      </trkpt>
      <trkpt lat="42.92619" lon="0.18662">
        <ele>1491</ele>
        <time>2013-03-24T08:48:21Z</time>
      </trkpt>
      <trkpt lat="42.92619" lon="0.1866">
        <ele>1491</ele>
        <time>2013-03-24T08:48:23Z</time>
      </trkpt>
      <trkpt lat="42.92619" lon="0.18658">
        <ele>1492</ele>
        <time>2013-03-24T08:48:25Z</time>
      </trkpt>
      <trkpt lat="42.9262" lon="0.18656">
        <ele>1492</ele>
        <time>2013-03-24T08:48:28Z</time>
      </trkpt>
      <trkpt lat="42.9262" lon="0.18654">
        <ele>1493</ele>
        <time>2013-03-24T08:48:31Z</time>
      </trkpt>
      <trkpt lat="42.9262" lon="0.18653">
        <ele>1493</ele>
        <time>2013-03-24T08:48:33Z</time>
      </trkpt>
      <trkpt lat="42.92621" lon="0.18651">
        <ele>1494</ele>
        <time>2013-03-24T08:48:34Z</time>
      </trkpt>
      <trkpt lat="42.92621" lon="0.18649">
        <ele>1494</ele>
        <time>2013-03-24T08:48:37Z</time>
      </trkpt>
      <trkpt lat="42.92621" lon="0.18647">
        <ele>1494</ele>
        <time>2013-03-24T08:48:39Z</time>
      </trkpt>
      <trkpt lat="42.92621" lon="0.18646">
        <ele>1494</ele>
        <time>2013-03-24T08:48:40Z</time>
      </trkpt>
      <trkpt lat="42.92622" lon="0.18644">
        <ele>1494</ele>
        <time>2013-03-24T08:48:42Z</time>
      </trkpt>
      <trkpt lat="42.92622" lon="0.18642">
        <ele>1495</ele>
        <time>2013-03-24T08:48:43Z</time>
      </trkpt>
      <trkpt lat="42.92622" lon="0.1864">
        <ele>1495</ele>
        <time>2013-03-24T08:48:46Z</time>
      </trkpt>
      <trkpt lat="42.92623" lon="0.18638">
        <ele>1495</ele>
        <time>2013-03-24T08:48:47Z</time>
      </trkpt>
      <trkpt lat="42.92624" lon="0.18636">
        <ele>1496</ele>
        <time>2013-03-24T08:48:49Z</time>
      </trkpt>
      <trkpt lat="42.92624" lon="0.18634">
        <ele>1497</ele>
        <time>2013-03-24T08:48:52Z</time>
      </trkpt>
      <trkpt lat="42.92625" lon="0.18633">
        <ele>1497</ele>
        <time>2013-03-24T08:48:54Z</time>
      </trkpt>
      <trkpt lat="42.92625" lon="0.18631">
        <ele>1498</ele>
        <time>2013-03-24T08:48:55Z</time>
      </trkpt>
      <trkpt lat="42.92626" lon="0.18629">
        <ele>1499</ele>
        <time>2013-03-24T08:48:57Z</time>
      </trkpt>
      <trkpt lat="42.92626" lon="0.18627">
        <ele>1499</ele>
        <time>2013-03-24T08:49:00Z</time>
      </trkpt>
      <trkpt lat="42.92626" lon="0.18625">
        <ele>1499</ele>
        <time>2013-03-24T08:49:02Z</time>
      </trkpt>
      <trkpt lat="42.92627" lon="0.18623">
        <ele>1500</ele>
        <time>2013-03-24T08:49:04Z</time>
      </trkpt>
      <trkpt lat="42.92627" lon="0.1862">
        <ele>1500</ele>
        <time>2013-03-24T08:49:07Z</time>
      </trkpt>
      <trkpt lat="42.92628" lon="0.18618">
        <ele>1501</ele>
        <time>2013-03-24T08:49:09Z</time>
      </trkpt>
      <trkpt lat="42.92628" lon="0.18616">
        <ele>1502</ele>
        <time>2013-03-24T08:49:32Z</time>
      </trkpt>
      <trkpt lat="42.9263" lon="0.18614">
        <ele>1502</ele>
        <time>2013-03-24T08:49:35Z</time>
      </trkpt>
      <trkpt lat="42.92629" lon="0.18612">
        <ele>1503</ele>
        <time>2013-03-24T08:49:48Z</time>
      </trkpt>
      <trkpt lat="42.9263" lon="0.1861">
        <ele>1503</ele>
        <time>2013-03-24T08:49:51Z</time>
      </trkpt>
      <trkpt lat="42.9263" lon="0.18608">
        <ele>1503</ele>
        <time>2013-03-24T08:49:53Z</time>
      </trkpt>
      <trkpt lat="42.92631" lon="0.18606">
        <ele>1503</ele>
        <time>2013-03-24T08:49:55Z</time>
      </trkpt>
      <trkpt lat="42.92633" lon="0.18604">
        <ele>1504</ele>
        <time>2013-03-24T08:49:57Z</time>
      </trkpt>
      <trkpt lat="42.92634" lon="0.18602">
        <ele>1504</ele>
        <time>2013-03-24T08:50:00Z</time>
      </trkpt>
      <trkpt lat="42.92635" lon="0.186">
        <ele>1505</ele>
        <time>2013-03-24T08:50:02Z</time>
      </trkpt>
      <trkpt lat="42.92636" lon="0.18598">
        <ele>1505</ele>
        <time>2013-03-24T08:50:04Z</time>
      </trkpt>
      <trkpt lat="42.92637" lon="0.18597">
        <ele>1505</ele>
        <time>2013-03-24T08:50:06Z</time>
      </trkpt>
      <trkpt lat="42.92639" lon="0.18595">
        <ele>1506</ele>
        <time>2013-03-24T08:50:08Z</time>
      </trkpt>
      <trkpt lat="42.9264" lon="0.18593">
        <ele>1506</ele>
        <time>2013-03-24T08:50:09Z</time>
      </trkpt>
      <trkpt lat="42.92641" lon="0.18591">
        <ele>1507</ele>
        <time>2013-03-24T08:50:11Z</time>
      </trkpt>
      <trkpt lat="42.92643" lon="0.18589">
        <ele>1507</ele>
        <time>2013-03-24T08:50:14Z</time>
      </trkpt>
      <trkpt lat="42.92643" lon="0.18588">
        <ele>1508</ele>
        <time>2013-03-24T08:50:16Z</time>
      </trkpt>
      <trkpt lat="42.92645" lon="0.18585">
        <ele>1508</ele>
        <time>2013-03-24T08:50:19Z</time>
      </trkpt>
      <trkpt lat="42.92645" lon="0.18584">
        <ele>1509</ele>
        <time>2013-03-24T08:50:21Z</time>
      </trkpt>
      <trkpt lat="42.92646" lon="0.18582">
        <ele>1509</ele>
        <time>2013-03-24T08:50:22Z</time>
      </trkpt>
      <trkpt lat="42.92647" lon="0.1858">
        <ele>1509</ele>
        <time>2013-03-24T08:50:25Z</time>
      </trkpt>
      <trkpt lat="42.92648" lon="0.18578">
        <ele>1509</ele>
        <time>2013-03-24T08:50:28Z</time>
      </trkpt>
      <trkpt lat="42.92649" lon="0.18576">
        <ele>1509</ele>
        <time>2013-03-24T08:50:30Z</time>
      </trkpt>
      <trkpt lat="42.9265" lon="0.18574">
        <ele>1509</ele>
        <time>2013-03-24T08:50:31Z</time>
      </trkpt>
      <trkpt lat="42.9265" lon="0.18572">
        <ele>1510</ele>
        <time>2013-03-24T08:50:34Z</time>
      </trkpt>
      <trkpt lat="42.92651" lon="0.18571">
        <ele>1510</ele>
        <time>2013-03-24T08:50:36Z</time>
      </trkpt>
      <trkpt lat="42.92652" lon="0.18569">
        <ele>1511</ele>
        <time>2013-03-24T08:50:40Z</time>
      </trkpt>
      <trkpt lat="42.92653" lon="0.18567">
        <ele>1512</ele>
        <time>2013-03-24T08:50:58Z</time>
      </trkpt>
      <trkpt lat="42.92654" lon="0.18564">
        <ele>1512</ele>
        <time>2013-03-24T08:51:02Z</time>
      </trkpt>
      <trkpt lat="42.92655" lon="0.18563">
        <ele>1512</ele>
        <time>2013-03-24T08:51:04Z</time>
      </trkpt>
      <trkpt lat="42.92656" lon="0.18561">
        <ele>1512</ele>
        <time>2013-03-24T08:51:06Z</time>
      </trkpt>
      <trkpt lat="42.92656" lon="0.18559">
        <ele>1512</ele>
        <time>2013-03-24T08:51:07Z</time>
      </trkpt>
      <trkpt lat="42.92657" lon="0.18557">
        <ele>1512</ele>
        <time>2013-03-24T08:51:09Z</time>
      </trkpt>
      <trkpt lat="42.92658" lon="0.18555">
        <ele>1512</ele>
        <time>2013-03-24T08:51:11Z</time>
      </trkpt>
      <trkpt lat="42.92659" lon="0.18553">
        <ele>1512</ele>
        <time>2013-03-24T08:51:14Z</time>
      </trkpt>
      <trkpt lat="42.9266" lon="0.18551">
        <ele>1513</ele>
        <time>2013-03-24T08:51:15Z</time>
      </trkpt>
      <trkpt lat="42.92661" lon="0.18549">
        <ele>1513</ele>
        <time>2013-03-24T08:51:17Z</time>
      </trkpt>
      <trkpt lat="42.92661" lon="0.18547">
        <ele>1513</ele>
        <time>2013-03-24T08:51:19Z</time>
      </trkpt>
      <trkpt lat="42.92662" lon="0.18546">
        <ele>1513</ele>
        <time>2013-03-24T08:51:22Z</time>
      </trkpt>
      <trkpt lat="42.92663" lon="0.18544">
        <ele>1513</ele>
        <time>2013-03-24T08:51:24Z</time>
      </trkpt>
      <trkpt lat="42.92663" lon="0.18542">
        <ele>1514</ele>
        <time>2013-03-24T08:51:25Z</time>
      </trkpt>
      <trkpt lat="42.92664" lon="0.1854">
        <ele>1514</ele>
        <time>2013-03-24T08:51:27Z</time>
      </trkpt>
      <trkpt lat="42.92665" lon="0.18538">
        <ele>1514</ele>
        <time>2013-03-24T08:51:29Z</time>
      </trkpt>
      <trkpt lat="42.92666" lon="0.18536">
        <ele>1514</ele>
        <time>2013-03-24T08:51:32Z</time>
      </trkpt>
      <trkpt lat="42.92667" lon="0.18533">
        <ele>1514</ele>
        <time>2013-03-24T08:51:35Z</time>
      </trkpt>
      <trkpt lat="42.92669" lon="0.18531">
        <ele>1514</ele>
        <time>2013-03-24T08:51:37Z</time>
      </trkpt>
      <trkpt lat="42.9267" lon="0.18529">
        <ele>1514</ele>
        <time>2013-03-24T08:51:40Z</time>
      </trkpt>
      <trkpt lat="42.92671" lon="0.18526">
        <ele>1515</ele>
        <time>2013-03-24T08:51:43Z</time>
      </trkpt>
      <trkpt lat="42.92672" lon="0.18525">
        <ele>1515</ele>
        <time>2013-03-24T08:51:44Z</time>
      </trkpt>
      <trkpt lat="42.92673" lon="0.18523">
        <ele>1515</ele>
        <time>2013-03-24T08:51:47Z</time>
      </trkpt>
      <trkpt lat="42.92674" lon="0.18521">
        <ele>1515</ele>
        <time>2013-03-24T08:51:49Z</time>
      </trkpt>
      <trkpt lat="42.92675" lon="0.1852">
        <ele>1515</ele>
        <time>2013-03-24T08:51:50Z</time>
      </trkpt>
      <trkpt lat="42.92676" lon="0.18518">
        <ele>1516</ele>
        <time>2013-03-24T08:51:53Z</time>
      </trkpt>
      <trkpt lat="42.92676" lon="0.18516">
        <ele>1516</ele>
        <time>2013-03-24T08:51:55Z</time>
      </trkpt>
      <trkpt lat="42.92677" lon="0.18514">
        <ele>1516</ele>
        <time>2013-03-24T08:51:57Z</time>
      </trkpt>
      <trkpt lat="42.92678" lon="0.18512">
        <ele>1517</ele>
        <time>2013-03-24T08:51:59Z</time>
      </trkpt>
      <trkpt lat="42.92679" lon="0.18511">
        <ele>1517</ele>
        <time>2013-03-24T08:52:00Z</time>
      </trkpt>
      <trkpt lat="42.9268" lon="0.18509">
        <ele>1517</ele>
        <time>2013-03-24T08:52:03Z</time>
      </trkpt>
      <trkpt lat="42.9268" lon="0.18507">
        <ele>1518</ele>
        <time>2013-03-24T08:52:05Z</time>
      </trkpt>
      <trkpt lat="42.92682" lon="0.18504">
        <ele>1518</ele>
        <time>2013-03-24T08:52:08Z</time>
      </trkpt>
      <trkpt lat="42.92683" lon="0.18502">
        <ele>1518</ele>
        <time>2013-03-24T08:52:09Z</time>
      </trkpt>
      <trkpt lat="42.92685" lon="0.18501">
        <ele>1520</ele>
        <time>2013-03-24T08:52:20Z</time>
      </trkpt>
      <trkpt lat="42.92685" lon="0.18499">
        <ele>1520</ele>
        <time>2013-03-24T08:52:25Z</time>
      </trkpt>
      <trkpt lat="42.92686" lon="0.18497">
        <ele>1520</ele>
        <time>2013-03-24T08:52:28Z</time>
      </trkpt>
      <trkpt lat="42.92688" lon="0.18495">
        <ele>1520</ele>
        <time>2013-03-24T08:52:31Z</time>
      </trkpt>
      <trkpt lat="42.9269" lon="0.18493">
        <ele>1520</ele>
        <time>2013-03-24T08:52:32Z</time>
      </trkpt>
      <trkpt lat="42.92691" lon="0.18492">
        <ele>1520</ele>
        <time>2013-03-24T08:52:34Z</time>
      </trkpt>
      <trkpt lat="42.92692" lon="0.1849">
        <ele>1520</ele>
        <time>2013-03-24T08:52:36Z</time>
      </trkpt>
      <trkpt lat="42.92693" lon="0.18489">
        <ele>1520</ele>
        <time>2013-03-24T08:52:38Z</time>
      </trkpt>
      <trkpt lat="42.92695" lon="0.18487">
        <ele>1520</ele>
        <time>2013-03-24T08:52:41Z</time>
      </trkpt>
      <trkpt lat="42.92696" lon="0.18485">
        <ele>1521</ele>
        <time>2013-03-24T08:52:43Z</time>
      </trkpt>
      <trkpt lat="42.92698" lon="0.18484">
        <ele>1521</ele>
        <time>2013-03-24T08:52:44Z</time>
      </trkpt>
      <trkpt lat="42.92699" lon="0.18483">
        <ele>1521</ele>
        <time>2013-03-24T08:52:47Z</time>
      </trkpt>
      <trkpt lat="42.927" lon="0.18481">
        <ele>1522</ele>
        <time>2013-03-24T08:52:49Z</time>
      </trkpt>
      <trkpt lat="42.92701" lon="0.1848">
        <ele>1522</ele>
        <time>2013-03-24T08:52:51Z</time>
      </trkpt>
      <trkpt lat="42.92703" lon="0.18478">
        <ele>1522</ele>
        <time>2013-03-24T08:52:53Z</time>
      </trkpt>
      <trkpt lat="42.92704" lon="0.18476">
        <ele>1523</ele>
        <time>2013-03-24T08:52:55Z</time>
      </trkpt>
      <trkpt lat="42.92706" lon="0.18475">
        <ele>1523</ele>
        <time>2013-03-24T08:52:57Z</time>
      </trkpt>
      <trkpt lat="42.92707" lon="0.18474">
        <ele>1524</ele>
        <time>2013-03-24T08:52:59Z</time>
      </trkpt>
      <trkpt lat="42.92709" lon="0.18472">
        <ele>1524</ele>
        <time>2013-03-24T08:53:00Z</time>
      </trkpt>
      <trkpt lat="42.9271" lon="0.18471">
        <ele>1524</ele>
        <time>2013-03-24T08:53:03Z</time>
      </trkpt>
      <trkpt lat="42.92712" lon="0.1847">
        <ele>1524</ele>
        <time>2013-03-24T08:53:05Z</time>
      </trkpt>
      <trkpt lat="42.92713" lon="0.18468">
        <ele>1525</ele>
        <time>2013-03-24T08:53:07Z</time>
      </trkpt>
      <trkpt lat="42.92715" lon="0.18467">
        <ele>1525</ele>
        <time>2013-03-24T08:53:08Z</time>
      </trkpt>
      <trkpt lat="42.92716" lon="0.18466">
        <ele>1525</ele>
        <time>2013-03-24T08:53:10Z</time>
      </trkpt>
      <trkpt lat="42.92718" lon="0.18464">
        <ele>1525</ele>
        <time>2013-03-24T08:53:13Z</time>
      </trkpt>
      <trkpt lat="42.92717" lon="0.18465">
        <ele>1526</ele>
        <time>2013-03-24T08:53:41Z</time>
      </trkpt>
      <trkpt lat="42.92718" lon="0.18463">
        <ele>1527</ele>
        <time>2013-03-24T08:53:53Z</time>
      </trkpt>
      <trkpt lat="42.9272" lon="0.18462">
        <ele>1528</ele>
        <time>2013-03-24T08:53:56Z</time>
      </trkpt>
      <trkpt lat="42.92722" lon="0.1846">
        <ele>1528</ele>
        <time>2013-03-24T08:53:58Z</time>
      </trkpt>
      <trkpt lat="42.92723" lon="0.18459">
        <ele>1528</ele>
        <time>2013-03-24T08:53:59Z</time>
      </trkpt>
      <trkpt lat="42.92725" lon="0.18457">
        <ele>1528</ele>
        <time>2013-03-24T08:54:01Z</time>
      </trkpt>
      <trkpt lat="42.92727" lon="0.18456">
        <ele>1528</ele>
        <time>2013-03-24T08:54:03Z</time>
      </trkpt>
      <trkpt lat="42.92728" lon="0.18455">
        <ele>1528</ele>
        <time>2013-03-24T08:54:04Z</time>
      </trkpt>
      <trkpt lat="42.9273" lon="0.18454">
        <ele>1528</ele>
        <time>2013-03-24T08:54:07Z</time>
      </trkpt>
      <trkpt lat="42.92732" lon="0.18453">
        <ele>1528</ele>
        <time>2013-03-24T08:54:09Z</time>
      </trkpt>
      <trkpt lat="42.92733" lon="0.18452">
        <ele>1528</ele>
        <time>2013-03-24T08:54:11Z</time>
      </trkpt>
      <trkpt lat="42.92735" lon="0.18452">
        <ele>1528</ele>
        <time>2013-03-24T08:54:12Z</time>
      </trkpt>
      <trkpt lat="42.92737" lon="0.18451">
        <ele>1528</ele>
        <time>2013-03-24T08:54:13Z</time>
      </trkpt>
      <trkpt lat="42.92738" lon="0.1845">
        <ele>1528</ele>
        <time>2013-03-24T08:54:15Z</time>
      </trkpt>
      <trkpt lat="42.9274" lon="0.18449">
        <ele>1528</ele>
        <time>2013-03-24T08:54:17Z</time>
      </trkpt>
      <trkpt lat="42.92742" lon="0.18448">
        <ele>1529</ele>
        <time>2013-03-24T08:54:20Z</time>
      </trkpt>
      <trkpt lat="42.92744" lon="0.18447">
        <ele>1529</ele>
        <time>2013-03-24T08:54:22Z</time>
      </trkpt>
      <trkpt lat="42.92745" lon="0.18446">
        <ele>1529</ele>
        <time>2013-03-24T08:54:24Z</time>
      </trkpt>
      <trkpt lat="42.92747" lon="0.18445">
        <ele>1529</ele>
        <time>2013-03-24T08:54:26Z</time>
      </trkpt>
      <trkpt lat="42.92749" lon="0.18444">
        <ele>1530</ele>
        <time>2013-03-24T08:54:27Z</time>
      </trkpt>
      <trkpt lat="42.92751" lon="0.18443">
        <ele>1530</ele>
        <time>2013-03-24T08:54:30Z</time>
      </trkpt>
      <trkpt lat="42.92752" lon="0.18442">
        <ele>1530</ele>
        <time>2013-03-24T08:54:32Z</time>
      </trkpt>
      <trkpt lat="42.92755" lon="0.18441">
        <ele>1530</ele>
        <time>2013-03-24T08:54:35Z</time>
      </trkpt>
      <trkpt lat="42.92756" lon="0.1844">
        <ele>1531</ele>
        <time>2013-03-24T08:54:37Z</time>
      </trkpt>
      <trkpt lat="42.92758" lon="0.1844">
        <ele>1531</ele>
        <time>2013-03-24T08:54:40Z</time>
      </trkpt>
      <trkpt lat="42.92759" lon="0.18439">
        <ele>1532</ele>
        <time>2013-03-24T08:54:42Z</time>
      </trkpt>
      <trkpt lat="42.92761" lon="0.18439">
        <ele>1532</ele>
        <time>2013-03-24T08:54:44Z</time>
      </trkpt>
      <trkpt lat="42.92762" lon="0.18437">
        <ele>1533</ele>
        <time>2013-03-24T08:54:47Z</time>
      </trkpt>
      <trkpt lat="42.92763" lon="0.18437">
        <ele>1533</ele>
        <time>2013-03-24T08:54:48Z</time>
      </trkpt>
      <trkpt lat="42.92765" lon="0.18434">
        <ele>1534</ele>
        <time>2013-03-24T08:54:52Z</time>
      </trkpt>
      <trkpt lat="42.92767" lon="0.18431">
        <ele>1535</ele>
        <time>2013-03-24T08:54:57Z</time>
      </trkpt>
      <trkpt lat="42.9277" lon="0.18429">
        <ele>1535</ele>
        <time>2013-03-24T08:55:00Z</time>
      </trkpt>
      <trkpt lat="42.92772" lon="0.18427">
        <ele>1536</ele>
        <time>2013-03-24T08:55:03Z</time>
      </trkpt>
      <trkpt lat="42.92773" lon="0.18424">
        <ele>1536</ele>
        <time>2013-03-24T08:55:06Z</time>
      </trkpt>
      <trkpt lat="42.92774" lon="0.18422">
        <ele>1537</ele>
        <time>2013-03-24T08:55:07Z</time>
      </trkpt>
      <trkpt lat="42.92775" lon="0.18421">
        <ele>1537</ele>
        <time>2013-03-24T08:55:09Z</time>
      </trkpt>
      <trkpt lat="42.92776" lon="0.18419">
        <ele>1537</ele>
        <time>2013-03-24T08:55:11Z</time>
      </trkpt>
      <trkpt lat="42.92778" lon="0.18417">
        <ele>1538</ele>
        <time>2013-03-24T08:55:14Z</time>
      </trkpt>
      <trkpt lat="42.92779" lon="0.18415">
        <ele>1538</ele>
        <time>2013-03-24T08:55:16Z</time>
      </trkpt>
      <trkpt lat="42.92781" lon="0.18414">
        <ele>1538</ele>
        <time>2013-03-24T08:55:17Z</time>
      </trkpt>
      <trkpt lat="42.92782" lon="0.18412">
        <ele>1538</ele>
        <time>2013-03-24T08:55:20Z</time>
      </trkpt>
      <trkpt lat="42.92783" lon="0.1841">
        <ele>1538</ele>
        <time>2013-03-24T08:55:22Z</time>
      </trkpt>
      <trkpt lat="42.92784" lon="0.18408">
        <ele>1538</ele>
        <time>2013-03-24T08:55:24Z</time>
      </trkpt>
      <trkpt lat="42.92785" lon="0.18406">
        <ele>1538</ele>
        <time>2013-03-24T08:55:26Z</time>
      </trkpt>
      <trkpt lat="42.92785" lon="0.18403">
        <ele>1538</ele>
        <time>2013-03-24T08:55:28Z</time>
      </trkpt>
      <trkpt lat="42.92786" lon="0.18401">
        <ele>1539</ele>
        <time>2013-03-24T08:55:30Z</time>
      </trkpt>
      <trkpt lat="42.92787" lon="0.18398">
        <ele>1539</ele>
        <time>2013-03-24T08:55:31Z</time>
      </trkpt>
      <trkpt lat="42.92788" lon="0.18396">
        <ele>1539</ele>
        <time>2013-03-24T08:55:34Z</time>
      </trkpt>
      <trkpt lat="42.92789" lon="0.18394">
        <ele>1539</ele>
        <time>2013-03-24T08:55:36Z</time>
      </trkpt>
      <trkpt lat="42.9279" lon="0.18391">
        <ele>1539</ele>
        <time>2013-03-24T08:55:37Z</time>
      </trkpt>
      <trkpt lat="42.9279" lon="0.18389">
        <ele>1539</ele>
        <time>2013-03-24T08:55:40Z</time>
      </trkpt>
      <trkpt lat="42.92791" lon="0.18385">
        <ele>1540</ele>
        <time>2013-03-24T08:55:43Z</time>
      </trkpt>
      <trkpt lat="42.92792" lon="0.18383">
        <ele>1540</ele>
        <time>2013-03-24T08:55:45Z</time>
      </trkpt>
      <trkpt lat="42.92793" lon="0.18381">
        <ele>1540</ele>
        <time>2013-03-24T08:55:47Z</time>
      </trkpt>
      <trkpt lat="42.92794" lon="0.18379">
        <ele>1540</ele>
        <time>2013-03-24T08:55:49Z</time>
      </trkpt>
      <trkpt lat="42.92794" lon="0.18377">
        <ele>1540</ele>
        <time>2013-03-24T08:55:51Z</time>
      </trkpt>
      <trkpt lat="42.92794" lon="0.18374">
        <ele>1540</ele>
        <time>2013-03-24T08:55:53Z</time>
      </trkpt>
      <trkpt lat="42.92795" lon="0.18372">
        <ele>1540</ele>
        <time>2013-03-24T08:55:55Z</time>
      </trkpt>
      <trkpt lat="42.92795" lon="0.1837">
        <ele>1541</ele>
        <time>2013-03-24T08:55:56Z</time>
      </trkpt>
      <trkpt lat="42.92796" lon="0.18366">
        <ele>1541</ele>
        <time>2013-03-24T08:56:00Z</time>
      </trkpt>
      <trkpt lat="42.92796" lon="0.18363">
        <ele>1542</ele>
        <time>2013-03-24T08:56:03Z</time>
      </trkpt>
      <trkpt lat="42.92797" lon="0.1836">
        <ele>1542</ele>
        <time>2013-03-24T08:56:06Z</time>
      </trkpt>
      <trkpt lat="42.92798" lon="0.18359">
        <ele>1542</ele>
        <time>2013-03-24T08:56:07Z</time>
      </trkpt>
      <trkpt lat="42.928" lon="0.18357">
        <ele>1543</ele>
        <time>2013-03-24T08:56:08Z</time>
      </trkpt>
      <trkpt lat="42.92801" lon="0.18354">
        <ele>1543</ele>
        <time>2013-03-24T08:56:12Z</time>
      </trkpt>
      <trkpt lat="42.92801" lon="0.1835">
        <ele>1544</ele>
        <time>2013-03-24T08:56:15Z</time>
      </trkpt>
      <trkpt lat="42.92801" lon="0.18348">
        <ele>1544</ele>
        <time>2013-03-24T08:56:17Z</time>
      </trkpt>
      <trkpt lat="42.92802" lon="0.18346">
        <ele>1544</ele>
        <time>2013-03-24T08:56:19Z</time>
      </trkpt>
      <trkpt lat="42.92802" lon="0.18343">
        <ele>1545</ele>
        <time>2013-03-24T08:56:22Z</time>
      </trkpt>
      <trkpt lat="42.92802" lon="0.18341">
        <ele>1545</ele>
        <time>2013-03-24T08:56:24Z</time>
      </trkpt>
      <trkpt lat="42.92803" lon="0.18339">
        <ele>1545</ele>
        <time>2013-03-24T08:56:26Z</time>
      </trkpt>
      <trkpt lat="42.92804" lon="0.18337">
        <ele>1546</ele>
        <time>2013-03-24T08:56:28Z</time>
      </trkpt>
      <trkpt lat="42.92804" lon="0.18334">
        <ele>1546</ele>
        <time>2013-03-24T08:56:30Z</time>
      </trkpt>
      <trkpt lat="42.92804" lon="0.18331">
        <ele>1546</ele>
        <time>2013-03-24T08:56:33Z</time>
      </trkpt>
      <trkpt lat="42.92804" lon="0.18329">
        <ele>1546</ele>
        <time>2013-03-24T08:56:35Z</time>
      </trkpt>
      <trkpt lat="42.92804" lon="0.18327">
        <ele>1547</ele>
        <time>2013-03-24T08:56:36Z</time>
      </trkpt>
      <trkpt lat="42.92804" lon="0.18324">
        <ele>1547</ele>
        <time>2013-03-24T08:56:40Z</time>
      </trkpt>
      <trkpt lat="42.92805" lon="0.18322">
        <ele>1547</ele>
        <time>2013-03-24T08:56:41Z</time>
      </trkpt>
      <trkpt lat="42.92805" lon="0.18319">
        <ele>1548</ele>
        <time>2013-03-24T08:56:43Z</time>
      </trkpt>
      <trkpt lat="42.92806" lon="0.18317">
        <ele>1548</ele>
        <time>2013-03-24T08:56:46Z</time>
      </trkpt>
      <trkpt lat="42.92807" lon="0.18315">
        <ele>1548</ele>
        <time>2013-03-24T08:56:47Z</time>
      </trkpt>
      <trkpt lat="42.92807" lon="0.18313">
        <ele>1549</ele>
        <time>2013-03-24T08:56:50Z</time>
      </trkpt>
      <trkpt lat="42.92809" lon="0.18309">
        <ele>1549</ele>
        <time>2013-03-24T08:56:53Z</time>
      </trkpt>
      <trkpt lat="42.92807" lon="0.18308">
        <ele>1550</ele>
        <time>2013-03-24T08:56:58Z</time>
      </trkpt>
      <trkpt lat="42.92807" lon="0.18305">
        <ele>1552</ele>
        <time>2013-03-24T08:57:23Z</time>
      </trkpt>
      <trkpt lat="42.92809" lon="0.18303">
        <ele>1552</ele>
        <time>2013-03-24T08:57:44Z</time>
      </trkpt>
      <trkpt lat="42.92809" lon="0.18301">
        <ele>1552</ele>
        <time>2013-03-24T08:57:45Z</time>
      </trkpt>
      <trkpt lat="42.9281" lon="0.18298">
        <ele>1552</ele>
        <time>2013-03-24T08:57:47Z</time>
      </trkpt>
      <trkpt lat="42.92811" lon="0.18296">
        <ele>1552</ele>
        <time>2013-03-24T08:57:50Z</time>
      </trkpt>
      <trkpt lat="42.92812" lon="0.18294">
        <ele>1552</ele>
        <time>2013-03-24T08:57:52Z</time>
      </trkpt>
      <trkpt lat="42.92812" lon="0.18291">
        <ele>1552</ele>
        <time>2013-03-24T08:57:54Z</time>
      </trkpt>
      <trkpt lat="42.92813" lon="0.18289">
        <ele>1553</ele>
        <time>2013-03-24T08:57:55Z</time>
      </trkpt>
      <trkpt lat="42.92815" lon="0.18286">
        <ele>1553</ele>
        <time>2013-03-24T08:57:59Z</time>
      </trkpt>
      <trkpt lat="42.92816" lon="0.18282">
        <ele>1553</ele>
        <time>2013-03-24T08:58:02Z</time>
      </trkpt>
      <trkpt lat="42.92816" lon="0.18279">
        <ele>1553</ele>
        <time>2013-03-24T08:58:04Z</time>
      </trkpt>
      <trkpt lat="42.92818" lon="0.18276">
        <ele>1553</ele>
        <time>2013-03-24T08:58:07Z</time>
      </trkpt>
      <trkpt lat="42.9282" lon="0.18273">
        <ele>1553</ele>
        <time>2013-03-24T08:58:10Z</time>
      </trkpt>
      <trkpt lat="42.92822" lon="0.18271">
        <ele>1553</ele>
        <time>2013-03-24T08:58:12Z</time>
      </trkpt>
      <trkpt lat="42.92823" lon="0.18269">
        <ele>1553</ele>
        <time>2013-03-24T08:58:14Z</time>
      </trkpt>
      <trkpt lat="42.92824" lon="0.18267">
        <ele>1554</ele>
        <time>2013-03-24T08:58:15Z</time>
      </trkpt>
      <trkpt lat="42.92825" lon="0.18265">
        <ele>1554</ele>
        <time>2013-03-24T08:58:18Z</time>
      </trkpt>
      <trkpt lat="42.92827" lon="0.18263">
        <ele>1554</ele>
        <time>2013-03-24T08:58:19Z</time>
      </trkpt>
      <trkpt lat="42.92828" lon="0.18261">
        <ele>1555</ele>
        <time>2013-03-24T08:58:22Z</time>
      </trkpt>
      <trkpt lat="42.92828" lon="0.18259">
        <ele>1555</ele>
        <time>2013-03-24T08:58:24Z</time>
      </trkpt>
      <trkpt lat="42.9283" lon="0.18257">
        <ele>1558</ele>
        <time>2013-03-24T08:58:57Z</time>
      </trkpt>
      <trkpt lat="42.92831" lon="0.18254">
        <ele>1558</ele>
        <time>2013-03-24T08:59:00Z</time>
      </trkpt>
      <trkpt lat="42.92832" lon="0.18251">
        <ele>1558</ele>
        <time>2013-03-24T08:59:01Z</time>
      </trkpt>
      <trkpt lat="42.92833" lon="0.18249">
        <ele>1558</ele>
        <time>2013-03-24T08:59:03Z</time>
      </trkpt>
      <trkpt lat="42.92833" lon="0.18247">
        <ele>1559</ele>
        <time>2013-03-24T08:59:05Z</time>
      </trkpt>
      <trkpt lat="42.92834" lon="0.18245">
        <ele>1559</ele>
        <time>2013-03-24T08:59:08Z</time>
      </trkpt>
      <trkpt lat="42.92835" lon="0.18243">
        <ele>1559</ele>
        <time>2013-03-24T08:59:10Z</time>
      </trkpt>
      <trkpt lat="42.92836" lon="0.18241">
        <ele>1559</ele>
        <time>2013-03-24T08:59:12Z</time>
      </trkpt>
      <trkpt lat="42.92837" lon="0.18239">
        <ele>1559</ele>
        <time>2013-03-24T08:59:13Z</time>
      </trkpt>
      <trkpt lat="42.92838" lon="0.18237">
        <ele>1559</ele>
        <time>2013-03-24T08:59:15Z</time>
      </trkpt>
      <trkpt lat="42.92839" lon="0.18235">
        <ele>1559</ele>
        <time>2013-03-24T08:59:17Z</time>
      </trkpt>
      <trkpt lat="42.9284" lon="0.18233">
        <ele>1559</ele>
        <time>2013-03-24T08:59:19Z</time>
      </trkpt>
      <trkpt lat="42.92841" lon="0.1823">
        <ele>1559</ele>
        <time>2013-03-24T08:59:21Z</time>
      </trkpt>
      <trkpt lat="42.92842" lon="0.18228">
        <ele>1559</ele>
        <time>2013-03-24T08:59:23Z</time>
      </trkpt>
      <trkpt lat="42.92842" lon="0.18226">
        <ele>1560</ele>
        <time>2013-03-24T08:59:26Z</time>
      </trkpt>
      <trkpt lat="42.92843" lon="0.18224">
        <ele>1560</ele>
        <time>2013-03-24T08:59:28Z</time>
      </trkpt>
      <trkpt lat="42.92844" lon="0.1822">
        <ele>1560</ele>
        <time>2013-03-24T08:59:31Z</time>
      </trkpt>
      <trkpt lat="42.92845" lon="0.18218">
        <ele>1560</ele>
        <time>2013-03-24T08:59:33Z</time>
      </trkpt>
      <trkpt lat="42.92846" lon="0.18216">
        <ele>1560</ele>
        <time>2013-03-24T08:59:34Z</time>
      </trkpt>
      <trkpt lat="42.92848" lon="0.18212">
        <ele>1560</ele>
        <time>2013-03-24T08:59:38Z</time>
      </trkpt>
      <trkpt lat="42.92849" lon="0.1821">
        <ele>1560</ele>
        <time>2013-03-24T08:59:39Z</time>
      </trkpt>
      <trkpt lat="42.9285" lon="0.18207">
        <ele>1561</ele>
        <time>2013-03-24T08:59:41Z</time>
      </trkpt>
      <trkpt lat="42.92851" lon="0.18205">
        <ele>1561</ele>
        <time>2013-03-24T08:59:43Z</time>
      </trkpt>
      <trkpt lat="42.92852" lon="0.18203">
        <ele>1561</ele>
        <time>2013-03-24T08:59:46Z</time>
      </trkpt>
      <trkpt lat="42.92854" lon="0.18202">
        <ele>1561</ele>
        <time>2013-03-24T08:59:51Z</time>
      </trkpt>
      <trkpt lat="42.92856" lon="0.182">
        <ele>1561</ele>
        <time>2013-03-24T08:59:53Z</time>
      </trkpt>
      <trkpt lat="42.92857" lon="0.18198">
        <ele>1562</ele>
        <time>2013-03-24T08:59:55Z</time>
      </trkpt>
      <trkpt lat="42.92858" lon="0.18197">
        <ele>1562</ele>
        <time>2013-03-24T08:59:57Z</time>
      </trkpt>
      <trkpt lat="42.9286" lon="0.18195">
        <ele>1562</ele>
        <time>2013-03-24T08:59:59Z</time>
      </trkpt>
      <trkpt lat="42.92861" lon="0.18193">
        <ele>1562</ele>
        <time>2013-03-24T09:00:01Z</time>
      </trkpt>
      <trkpt lat="42.92862" lon="0.18191">
        <ele>1562</ele>
        <time>2013-03-24T09:00:03Z</time>
      </trkpt>
      <trkpt lat="42.92863" lon="0.1819">
        <ele>1563</ele>
        <time>2013-03-24T09:00:06Z</time>
      </trkpt>
      <trkpt lat="42.92863" lon="0.18188">
        <ele>1563</ele>
        <time>2013-03-24T09:00:38Z</time>
      </trkpt>
      <trkpt lat="42.92865" lon="0.18184">
        <ele>1563</ele>
        <time>2013-03-24T09:00:41Z</time>
      </trkpt>
      <trkpt lat="42.92865" lon="0.18183">
        <ele>1563</ele>
        <time>2013-03-24T09:00:41Z</time>
      </trkpt>
      <trkpt lat="42.92867" lon="0.18179">
        <ele>1563</ele>
        <time>2013-03-24T09:00:45Z</time>
      </trkpt>
      <trkpt lat="42.92869" lon="0.18177">
        <ele>1563</ele>
        <time>2013-03-24T09:00:47Z</time>
      </trkpt>
      <trkpt lat="42.92871" lon="0.18175">
        <ele>1563</ele>
        <time>2013-03-24T09:00:49Z</time>
      </trkpt>
      <trkpt lat="42.92872" lon="0.18174">
        <ele>1563</ele>
        <time>2013-03-24T09:00:49Z</time>
      </trkpt>
      <trkpt lat="42.92874" lon="0.18172">
        <ele>1563</ele>
        <time>2013-03-24T09:00:51Z</time>
      </trkpt>
      <trkpt lat="42.92876" lon="0.1817">
        <ele>1563</ele>
        <time>2013-03-24T09:00:53Z</time>
      </trkpt>
      <trkpt lat="42.92877" lon="0.18169">
        <ele>1563</ele>
        <time>2013-03-24T09:00:54Z</time>
      </trkpt>
      <trkpt lat="42.92879" lon="0.18165">
        <ele>1563</ele>
        <time>2013-03-24T09:00:58Z</time>
      </trkpt>
      <trkpt lat="42.92881" lon="0.18163">
        <ele>1563</ele>
        <time>2013-03-24T09:01:00Z</time>
      </trkpt>
      <trkpt lat="42.92883" lon="0.18161">
        <ele>1563</ele>
        <time>2013-03-24T09:01:02Z</time>
      </trkpt>
      <trkpt lat="42.92885" lon="0.18159">
        <ele>1563</ele>
        <time>2013-03-24T09:01:03Z</time>
      </trkpt>
      <trkpt lat="42.92886" lon="0.18156">
        <ele>1563</ele>
        <time>2013-03-24T09:01:05Z</time>
      </trkpt>
      <trkpt lat="42.92887" lon="0.18155">
        <ele>1563</ele>
        <time>2013-03-24T09:01:06Z</time>
      </trkpt>
      <trkpt lat="42.92889" lon="0.18152">
        <ele>1563</ele>
        <time>2013-03-24T09:01:08Z</time>
      </trkpt>
      <trkpt lat="42.9289" lon="0.1815">
        <ele>1563</ele>
        <time>2013-03-24T09:01:10Z</time>
      </trkpt>
      <trkpt lat="42.92892" lon="0.18148">
        <ele>1563</ele>
        <time>2013-03-24T09:01:12Z</time>
      </trkpt>
      <trkpt lat="42.92893" lon="0.18146">
        <ele>1563</ele>
        <time>2013-03-24T09:01:14Z</time>
      </trkpt>
      <trkpt lat="42.92895" lon="0.18144">
        <ele>1563</ele>
        <time>2013-03-24T09:01:16Z</time>
      </trkpt>
      <trkpt lat="42.92897" lon="0.18142">
        <ele>1563</ele>
        <time>2013-03-24T09:01:18Z</time>
      </trkpt>
      <trkpt lat="42.92898" lon="0.18139">
        <ele>1563</ele>
        <time>2013-03-24T09:01:20Z</time>
      </trkpt>
      <trkpt lat="42.929" lon="0.18137">
        <ele>1563</ele>
        <time>2013-03-24T09:01:22Z</time>
      </trkpt>
      <trkpt lat="42.92902" lon="0.18135">
        <ele>1563</ele>
        <time>2013-03-24T09:01:24Z</time>
      </trkpt>
      <trkpt lat="42.92903" lon="0.18133">
        <ele>1562</ele>
        <time>2013-03-24T09:01:26Z</time>
      </trkpt>
      <trkpt lat="42.92904" lon="0.18131">
        <ele>1562</ele>
        <time>2013-03-24T09:01:29Z</time>
      </trkpt>
      <trkpt lat="42.92905" lon="0.18128">
        <ele>1562</ele>
        <time>2013-03-24T09:02:01Z</time>
      </trkpt>
      <trkpt lat="42.92906" lon="0.18126">
        <ele>1562</ele>
        <time>2013-03-24T09:02:29Z</time>
      </trkpt>
      <trkpt lat="42.92907" lon="0.18124">
        <ele>1562</ele>
        <time>2013-03-24T09:02:31Z</time>
      </trkpt>
      <trkpt lat="42.92908" lon="0.18122">
        <ele>1562</ele>
        <time>2013-03-24T09:02:32Z</time>
      </trkpt>
      <trkpt lat="42.9291" lon="0.18119">
        <ele>1562</ele>
        <time>2013-03-24T09:02:34Z</time>
      </trkpt>
      <trkpt lat="42.92911" lon="0.18117">
        <ele>1562</ele>
        <time>2013-03-24T09:02:36Z</time>
      </trkpt>
      <trkpt lat="42.92913" lon="0.18113">
        <ele>1562</ele>
        <time>2013-03-24T09:02:40Z</time>
      </trkpt>
      <trkpt lat="42.92915" lon="0.1811">
        <ele>1562</ele>
        <time>2013-03-24T09:02:43Z</time>
      </trkpt>
      <trkpt lat="42.92917" lon="0.18106">
        <ele>1562</ele>
        <time>2013-03-24T09:02:46Z</time>
      </trkpt>
      <trkpt lat="42.92918" lon="0.18103">
        <ele>1562</ele>
        <time>2013-03-24T09:02:48Z</time>
      </trkpt>
      <trkpt lat="42.92918" lon="0.18102">
        <ele>1562</ele>
        <time>2013-03-24T09:02:48Z</time>
      </trkpt>
      <trkpt lat="42.92919" lon="0.18099">
        <ele>1562</ele>
        <time>2013-03-24T09:02:51Z</time>
      </trkpt>
      <trkpt lat="42.9292" lon="0.18098">
        <ele>1562</ele>
        <time>2013-03-24T09:02:52Z</time>
      </trkpt>
      <trkpt lat="42.92922" lon="0.18094">
        <ele>1562</ele>
        <time>2013-03-24T09:02:54Z</time>
      </trkpt>
      <trkpt lat="42.92923" lon="0.18093">
        <ele>1562</ele>
        <time>2013-03-24T09:02:56Z</time>
      </trkpt>
      <trkpt lat="42.92924" lon="0.1809">
        <ele>1562</ele>
        <time>2013-03-24T09:02:58Z</time>
      </trkpt>
      <trkpt lat="42.92925" lon="0.18088">
        <ele>1562</ele>
        <time>2013-03-24T09:03:00Z</time>
      </trkpt>
      <trkpt lat="42.92926" lon="0.18085">
        <ele>1562</ele>
        <time>2013-03-24T09:03:02Z</time>
      </trkpt>
      <trkpt lat="42.92927" lon="0.18082">
        <ele>1562</ele>
        <time>2013-03-24T09:03:05Z</time>
      </trkpt>
      <trkpt lat="42.92929" lon="0.18078">
        <ele>1562</ele>
        <time>2013-03-24T09:03:08Z</time>
      </trkpt>
      <trkpt lat="42.92931" lon="0.18076">
        <ele>1562</ele>
        <time>2013-03-24T09:03:09Z</time>
      </trkpt>
      <trkpt lat="42.92931" lon="0.18074">
        <ele>1562</ele>
        <time>2013-03-24T09:03:11Z</time>
      </trkpt>
      <trkpt lat="42.92933" lon="0.18072">
        <ele>1562</ele>
        <time>2013-03-24T09:03:12Z</time>
      </trkpt>
      <trkpt lat="42.92934" lon="0.18069">
        <ele>1562</ele>
        <time>2013-03-24T09:03:15Z</time>
      </trkpt>
      <trkpt lat="42.92934" lon="0.18068">
        <ele>1562</ele>
        <time>2013-03-24T09:03:16Z</time>
      </trkpt>
      <trkpt lat="42.92935" lon="0.18066">
        <ele>1562</ele>
        <time>2013-03-24T09:03:17Z</time>
      </trkpt>
      <trkpt lat="42.92936" lon="0.18062">
        <ele>1562</ele>
        <time>2013-03-24T09:03:20Z</time>
      </trkpt>
      <trkpt lat="42.92936" lon="0.18061">
        <ele>1562</ele>
        <time>2013-03-24T09:03:20Z</time>
      </trkpt>
      <trkpt lat="42.92937" lon="0.18058">
        <ele>1562</ele>
        <time>2013-03-24T09:03:22Z</time>
      </trkpt>
      <trkpt lat="42.92937" lon="0.18057">
        <ele>1562</ele>
        <time>2013-03-24T09:03:23Z</time>
      </trkpt>
      <trkpt lat="42.92938" lon="0.18055">
        <ele>1562</ele>
        <time>2013-03-24T09:03:24Z</time>
      </trkpt>
      <trkpt lat="42.92938" lon="0.18053">
        <ele>1562</ele>
        <time>2013-03-24T09:03:26Z</time>
      </trkpt>
      <trkpt lat="42.92939" lon="0.18051">
        <ele>1562</ele>
        <time>2013-03-24T09:03:27Z</time>
      </trkpt>
      <trkpt lat="42.92939" lon="0.18049">
        <ele>1562</ele>
        <time>2013-03-24T09:03:28Z</time>
      </trkpt>
      <trkpt lat="42.9294" lon="0.18047">
        <ele>1562</ele>
        <time>2013-03-24T09:03:30Z</time>
      </trkpt>
      <trkpt lat="42.92941" lon="0.18044">
        <ele>1562</ele>
        <time>2013-03-24T09:03:33Z</time>
      </trkpt>
      <trkpt lat="42.92941" lon="0.18042">
        <ele>1562</ele>
        <time>2013-03-24T09:03:35Z</time>
      </trkpt>
      <trkpt lat="42.92942" lon="0.18039">
        <ele>1563</ele>
        <time>2013-03-24T09:03:36Z</time>
      </trkpt>
      <trkpt lat="42.92942" lon="0.18037">
        <ele>1563</ele>
        <time>2013-03-24T09:03:39Z</time>
      </trkpt>
      <trkpt lat="42.92943" lon="0.18034">
        <ele>1563</ele>
        <time>2013-03-24T09:03:41Z</time>
      </trkpt>
      <trkpt lat="42.92944" lon="0.18032">
        <ele>1563</ele>
        <time>2013-03-24T09:03:42Z</time>
      </trkpt>
      <trkpt lat="42.92944" lon="0.1803">
        <ele>1564</ele>
        <time>2013-03-24T09:03:44Z</time>
      </trkpt>
      <trkpt lat="42.92945" lon="0.18029">
        <ele>1564</ele>
        <time>2013-03-24T09:03:45Z</time>
      </trkpt>
      <trkpt lat="42.92945" lon="0.18026">
        <ele>1564</ele>
        <time>2013-03-24T09:03:47Z</time>
      </trkpt>
      <trkpt lat="42.92945" lon="0.18025">
        <ele>1564</ele>
        <time>2013-03-24T09:03:49Z</time>
      </trkpt>
      <trkpt lat="42.92946" lon="0.18023">
        <ele>1564</ele>
        <time>2013-03-24T09:03:51Z</time>
      </trkpt>
      <trkpt lat="42.92947" lon="0.18021">
        <ele>1565</ele>
        <time>2013-03-24T09:03:51Z</time>
      </trkpt>
      <trkpt lat="42.92947" lon="0.18019">
        <ele>1565</ele>
        <time>2013-03-24T09:03:53Z</time>
      </trkpt>
      <trkpt lat="42.92948" lon="0.18016">
        <ele>1565</ele>
        <time>2013-03-24T09:03:56Z</time>
      </trkpt>
      <trkpt lat="42.92948" lon="0.18014">
        <ele>1565</ele>
        <time>2013-03-24T09:03:57Z</time>
      </trkpt>
      <trkpt lat="42.92949" lon="0.18012">
        <ele>1565</ele>
        <time>2013-03-24T09:03:58Z</time>
      </trkpt>
      <trkpt lat="42.9295" lon="0.18008">
        <ele>1566</ele>
        <time>2013-03-24T09:04:02Z</time>
      </trkpt>
      <trkpt lat="42.9295" lon="0.18007">
        <ele>1566</ele>
        <time>2013-03-24T09:04:02Z</time>
      </trkpt>
      <trkpt lat="42.92951" lon="0.18004">
        <ele>1566</ele>
        <time>2013-03-24T09:04:04Z</time>
      </trkpt>
      <trkpt lat="42.92952" lon="0.18002">
        <ele>1566</ele>
        <time>2013-03-24T09:04:06Z</time>
      </trkpt>
      <trkpt lat="42.92952" lon="0.18">
        <ele>1566</ele>
        <time>2013-03-24T09:04:08Z</time>
      </trkpt>
      <trkpt lat="42.92952" lon="0.17999">
        <ele>1566</ele>
        <time>2013-03-24T09:04:09Z</time>
      </trkpt>
      <trkpt lat="42.92953" lon="0.17997">
        <ele>1566</ele>
        <time>2013-03-24T09:04:11Z</time>
      </trkpt>
      <trkpt lat="42.92954" lon="0.17994">
        <ele>1566</ele>
        <time>2013-03-24T09:04:12Z</time>
      </trkpt>
      <trkpt lat="42.92955" lon="0.1799">
        <ele>1566</ele>
        <time>2013-03-24T09:04:16Z</time>
      </trkpt>
      <trkpt lat="42.92957" lon="0.17988">
        <ele>1566</ele>
        <time>2013-03-24T09:04:18Z</time>
      </trkpt>
      <trkpt lat="42.92958" lon="0.17986">
        <ele>1566</ele>
        <time>2013-03-24T09:04:19Z</time>
      </trkpt>
      <trkpt lat="42.92958" lon="0.17984">
        <ele>1566</ele>
        <time>2013-03-24T09:04:20Z</time>
      </trkpt>
      <trkpt lat="42.92959" lon="0.17982">
        <ele>1566</ele>
        <time>2013-03-24T09:04:22Z</time>
      </trkpt>
      <trkpt lat="42.9296" lon="0.1798">
        <ele>1566</ele>
        <time>2013-03-24T09:04:23Z</time>
      </trkpt>
      <trkpt lat="42.9296" lon="0.17978">
        <ele>1566</ele>
        <time>2013-03-24T09:04:26Z</time>
      </trkpt>
      <trkpt lat="42.92961" lon="0.17976">
        <ele>1566</ele>
        <time>2013-03-24T09:04:28Z</time>
      </trkpt>
      <trkpt lat="42.92962" lon="0.17974">
        <ele>1566</ele>
        <time>2013-03-24T09:04:30Z</time>
      </trkpt>
      <trkpt lat="42.92963" lon="0.17972">
        <ele>1566</ele>
        <time>2013-03-24T09:04:32Z</time>
      </trkpt>
      <trkpt lat="42.92965" lon="0.1797">
        <ele>1566</ele>
        <time>2013-03-24T09:04:33Z</time>
      </trkpt>
      <trkpt lat="42.92966" lon="0.17968">
        <ele>1566</ele>
        <time>2013-03-24T09:04:36Z</time>
      </trkpt>
      <trkpt lat="42.92967" lon="0.17966">
        <ele>1566</ele>
        <time>2013-03-24T09:04:38Z</time>
      </trkpt>
      <trkpt lat="42.92968" lon="0.17963">
        <ele>1566</ele>
        <time>2013-03-24T09:04:39Z</time>
      </trkpt>
      <trkpt lat="42.92969" lon="0.17961">
        <ele>1567</ele>
        <time>2013-03-24T09:04:42Z</time>
      </trkpt>
      <trkpt lat="42.9297" lon="0.17959">
        <ele>1567</ele>
        <time>2013-03-24T09:04:44Z</time>
      </trkpt>
      <trkpt lat="42.92971" lon="0.17957">
        <ele>1567</ele>
        <time>2013-03-24T09:04:46Z</time>
      </trkpt>
      <trkpt lat="42.92972" lon="0.17955">
        <ele>1567</ele>
        <time>2013-03-24T09:04:47Z</time>
      </trkpt>
      <trkpt lat="42.92973" lon="0.17953">
        <ele>1567</ele>
        <time>2013-03-24T09:04:49Z</time>
      </trkpt>
      <trkpt lat="42.92974" lon="0.17951">
        <ele>1567</ele>
        <time>2013-03-24T09:04:52Z</time>
      </trkpt>
      <trkpt lat="42.92975" lon="0.17948">
        <ele>1568</ele>
        <time>2013-03-24T09:04:54Z</time>
      </trkpt>
      <trkpt lat="42.92976" lon="0.17946">
        <ele>1568</ele>
        <time>2013-03-24T09:04:55Z</time>
      </trkpt>
      <trkpt lat="42.92977" lon="0.17943">
        <ele>1568</ele>
        <time>2013-03-24T09:04:59Z</time>
      </trkpt>
      <trkpt lat="42.92978" lon="0.17941">
        <ele>1568</ele>
        <time>2013-03-24T09:05:01Z</time>
      </trkpt>
      <trkpt lat="42.92979" lon="0.17939">
        <ele>1569</ele>
        <time>2013-03-24T09:05:03Z</time>
      </trkpt>
      <trkpt lat="42.9298" lon="0.17936">
        <ele>1569</ele>
        <time>2013-03-24T09:05:06Z</time>
      </trkpt>
      <trkpt lat="42.92982" lon="0.17933">
        <ele>1569</ele>
        <time>2013-03-24T09:05:08Z</time>
      </trkpt>
      <trkpt lat="42.92984" lon="0.1793">
        <ele>1569</ele>
        <time>2013-03-24T09:05:12Z</time>
      </trkpt>
      <trkpt lat="42.92986" lon="0.17927">
        <ele>1569</ele>
        <time>2013-03-24T09:05:15Z</time>
      </trkpt>
      <trkpt lat="42.92987" lon="0.17924">
        <ele>1569</ele>
        <time>2013-03-24T09:05:18Z</time>
      </trkpt>
      <trkpt lat="42.92989" lon="0.17921">
        <ele>1570</ele>
        <time>2013-03-24T09:05:21Z</time>
      </trkpt>
      <trkpt lat="42.9299" lon="0.17919">
        <ele>1570</ele>
        <time>2013-03-24T09:05:22Z</time>
      </trkpt>
      <trkpt lat="42.92991" lon="0.17917">
        <ele>1570</ele>
        <time>2013-03-24T09:05:25Z</time>
      </trkpt>
      <trkpt lat="42.92992" lon="0.17915">
        <ele>1570</ele>
        <time>2013-03-24T09:05:27Z</time>
      </trkpt>
      <trkpt lat="42.92993" lon="0.17912">
        <ele>1570</ele>
        <time>2013-03-24T09:05:28Z</time>
      </trkpt>
      <trkpt lat="42.92994" lon="0.1791">
        <ele>1570</ele>
        <time>2013-03-24T09:05:31Z</time>
      </trkpt>
      <trkpt lat="42.92995" lon="0.17908">
        <ele>1570</ele>
        <time>2013-03-24T09:05:33Z</time>
      </trkpt>
      <trkpt lat="42.92995" lon="0.17906">
        <ele>1570</ele>
        <time>2013-03-24T09:05:35Z</time>
      </trkpt>
      <trkpt lat="42.92997" lon="0.17903">
        <ele>1571</ele>
        <time>2013-03-24T09:05:38Z</time>
      </trkpt>
      <trkpt lat="42.92997" lon="0.17901">
        <ele>1571</ele>
        <time>2013-03-24T09:05:39Z</time>
      </trkpt>
      <trkpt lat="42.92999" lon="0.17899">
        <ele>1572</ele>
        <time>2013-03-24T09:05:41Z</time>
      </trkpt>
      <trkpt lat="42.93" lon="0.17897">
        <ele>1572</ele>
        <time>2013-03-24T09:05:44Z</time>
      </trkpt>
      <trkpt lat="42.93" lon="0.17895">
        <ele>1572</ele>
        <time>2013-03-24T09:05:46Z</time>
      </trkpt>
      <trkpt lat="42.93001" lon="0.17892">
        <ele>1572</ele>
        <time>2013-03-24T09:05:47Z</time>
      </trkpt>
      <trkpt lat="42.93002" lon="0.17891">
        <ele>1572</ele>
        <time>2013-03-24T09:05:50Z</time>
      </trkpt>
      <trkpt lat="42.93003" lon="0.17889">
        <ele>1573</ele>
        <time>2013-03-24T09:05:52Z</time>
      </trkpt>
      <trkpt lat="42.93004" lon="0.17887">
        <ele>1573</ele>
        <time>2013-03-24T09:05:54Z</time>
      </trkpt>
      <trkpt lat="42.93006" lon="0.17883">
        <ele>1573</ele>
        <time>2013-03-24T09:05:57Z</time>
      </trkpt>
      <trkpt lat="42.93007" lon="0.17881">
        <ele>1573</ele>
        <time>2013-03-24T09:05:59Z</time>
      </trkpt>
      <trkpt lat="42.93008" lon="0.17879">
        <ele>1573</ele>
        <time>2013-03-24T09:06:01Z</time>
      </trkpt>
      <trkpt lat="42.93008" lon="0.17877">
        <ele>1574</ele>
        <time>2013-03-24T09:06:02Z</time>
      </trkpt>
      <trkpt lat="42.9301" lon="0.17874">
        <ele>1574</ele>
        <time>2013-03-24T09:06:06Z</time>
      </trkpt>
      <trkpt lat="42.93011" lon="0.17872">
        <ele>1574</ele>
        <time>2013-03-24T09:06:08Z</time>
      </trkpt>
      <trkpt lat="42.93012" lon="0.1787">
        <ele>1574</ele>
        <time>2013-03-24T09:06:09Z</time>
      </trkpt>
      <trkpt lat="42.93013" lon="0.17868">
        <ele>1574</ele>
        <time>2013-03-24T09:06:11Z</time>
      </trkpt>
      <trkpt lat="42.93013" lon="0.17866">
        <ele>1574</ele>
        <time>2013-03-24T09:06:13Z</time>
      </trkpt>
      <trkpt lat="42.93014" lon="0.17864">
        <ele>1575</ele>
        <time>2013-03-24T09:06:16Z</time>
      </trkpt>
      <trkpt lat="42.93015" lon="0.17862">
        <ele>1575</ele>
        <time>2013-03-24T09:06:18Z</time>
      </trkpt>
      <trkpt lat="42.93016" lon="0.1786">
        <ele>1575</ele>
        <time>2013-03-24T09:06:20Z</time>
      </trkpt>
      <trkpt lat="42.93017" lon="0.17857">
        <ele>1575</ele>
        <time>2013-03-24T09:06:22Z</time>
      </trkpt>
      <trkpt lat="42.93018" lon="0.17855">
        <ele>1576</ele>
        <time>2013-03-24T09:06:24Z</time>
      </trkpt>
      <trkpt lat="42.93019" lon="0.17854">
        <ele>1576</ele>
        <time>2013-03-24T09:06:26Z</time>
      </trkpt>
      <trkpt lat="42.93021" lon="0.17852">
        <ele>1576</ele>
        <time>2013-03-24T09:06:40Z</time>
      </trkpt>
      <trkpt lat="42.93023" lon="0.17849">
        <ele>1576</ele>
        <time>2013-03-24T09:06:43Z</time>
      </trkpt>
      <trkpt lat="42.93025" lon="0.17847">
        <ele>1576</ele>
        <time>2013-03-24T09:06:45Z</time>
      </trkpt>
      <trkpt lat="42.93026" lon="0.17844">
        <ele>1576</ele>
        <time>2013-03-24T09:06:47Z</time>
      </trkpt>
      <trkpt lat="42.93027" lon="0.17843">
        <ele>1576</ele>
        <time>2013-03-24T09:06:49Z</time>
      </trkpt>
      <trkpt lat="42.93029" lon="0.17841">
        <ele>1576</ele>
        <time>2013-03-24T09:06:50Z</time>
      </trkpt>
      <trkpt lat="42.9303" lon="0.17839">
        <ele>1576</ele>
        <time>2013-03-24T09:06:53Z</time>
      </trkpt>
      <trkpt lat="42.93031" lon="0.17837">
        <ele>1576</ele>
        <time>2013-03-24T09:06:55Z</time>
      </trkpt>
      <trkpt lat="42.93033" lon="0.17834">
        <ele>1576</ele>
        <time>2013-03-24T09:06:56Z</time>
      </trkpt>
      <trkpt lat="42.93034" lon="0.17832">
        <ele>1576</ele>
        <time>2013-03-24T09:06:58Z</time>
      </trkpt>
      <trkpt lat="42.93035" lon="0.1783">
        <ele>1576</ele>
        <time>2013-03-24T09:07:00Z</time>
      </trkpt>
      <trkpt lat="42.93036" lon="0.17828">
        <ele>1576</ele>
        <time>2013-03-24T09:07:03Z</time>
      </trkpt>
      <trkpt lat="42.93038" lon="0.17825">
        <ele>1577</ele>
        <time>2013-03-24T09:07:05Z</time>
      </trkpt>
      <trkpt lat="42.93039" lon="0.17823">
        <ele>1577</ele>
        <time>2013-03-24T09:07:08Z</time>
      </trkpt>
      <trkpt lat="42.9304" lon="0.17821">
        <ele>1577</ele>
        <time>2013-03-24T09:07:10Z</time>
      </trkpt>
      <trkpt lat="42.93041" lon="0.17819">
        <ele>1577</ele>
        <time>2013-03-24T09:07:12Z</time>
      </trkpt>
      <trkpt lat="42.93043" lon="0.17817">
        <ele>1577</ele>
        <time>2013-03-24T09:07:14Z</time>
      </trkpt>
      <trkpt lat="42.93044" lon="0.17815">
        <ele>1578</ele>
        <time>2013-03-24T09:07:16Z</time>
      </trkpt>
      <trkpt lat="42.93045" lon="0.17813">
        <ele>1578</ele>
        <time>2013-03-24T09:07:18Z</time>
      </trkpt>
      <trkpt lat="42.93046" lon="0.17811">
        <ele>1578</ele>
        <time>2013-03-24T09:07:20Z</time>
      </trkpt>
      <trkpt lat="42.93047" lon="0.17809">
        <ele>1579</ele>
        <time>2013-03-24T09:07:21Z</time>
      </trkpt>
      <trkpt lat="42.93048" lon="0.17807">
        <ele>1579</ele>
        <time>2013-03-24T09:07:23Z</time>
      </trkpt>
      <trkpt lat="42.93049" lon="0.17805">
        <ele>1579</ele>
        <time>2013-03-24T09:07:26Z</time>
      </trkpt>
      <trkpt lat="42.9305" lon="0.17803">
        <ele>1580</ele>
        <time>2013-03-24T09:07:27Z</time>
      </trkpt>
      <trkpt lat="42.93051" lon="0.17801">
        <ele>1580</ele>
        <time>2013-03-24T09:07:29Z</time>
      </trkpt>
      <trkpt lat="42.93053" lon="0.17798">
        <ele>1580</ele>
        <time>2013-03-24T09:07:33Z</time>
      </trkpt>
      <trkpt lat="42.93053" lon="0.17796">
        <ele>1581</ele>
        <time>2013-03-24T09:07:35Z</time>
      </trkpt>
      <trkpt lat="42.93055" lon="0.17794">
        <ele>1581</ele>
        <time>2013-03-24T09:07:37Z</time>
      </trkpt>
      <trkpt lat="42.93056" lon="0.17792">
        <ele>1582</ele>
        <time>2013-03-24T09:07:38Z</time>
      </trkpt>
      <trkpt lat="42.93057" lon="0.17789">
        <ele>1582</ele>
        <time>2013-03-24T09:07:40Z</time>
      </trkpt>
      <trkpt lat="42.93058" lon="0.17787">
        <ele>1583</ele>
        <time>2013-03-24T09:07:42Z</time>
      </trkpt>
      <trkpt lat="42.93059" lon="0.17785">
        <ele>1583</ele>
        <time>2013-03-24T09:07:45Z</time>
      </trkpt>
      <trkpt lat="42.93061" lon="0.17782">
        <ele>1583</ele>
        <time>2013-03-24T09:07:48Z</time>
      </trkpt>
      <trkpt lat="42.93062" lon="0.1778">
        <ele>1583</ele>
        <time>2013-03-24T09:07:49Z</time>
      </trkpt>
      <trkpt lat="42.93063" lon="0.17777">
        <ele>1584</ele>
        <time>2013-03-24T09:07:53Z</time>
      </trkpt>
      <trkpt lat="42.93064" lon="0.17775">
        <ele>1584</ele>
        <time>2013-03-24T09:07:55Z</time>
      </trkpt>
      <trkpt lat="42.93065" lon="0.17774">
        <ele>1584</ele>
        <time>2013-03-24T09:07:56Z</time>
      </trkpt>
      <trkpt lat="42.93066" lon="0.17772">
        <ele>1584</ele>
        <time>2013-03-24T09:07:58Z</time>
      </trkpt>
      <trkpt lat="42.93068" lon="0.1777">
        <ele>1585</ele>
        <time>2013-03-24T09:08:01Z</time>
      </trkpt>
      <trkpt lat="42.93069" lon="0.17767">
        <ele>1585</ele>
        <time>2013-03-24T09:08:03Z</time>
      </trkpt>
      <trkpt lat="42.93071" lon="0.17765">
        <ele>1585</ele>
        <time>2013-03-24T09:08:06Z</time>
      </trkpt>
      <trkpt lat="42.93072" lon="0.17762">
        <ele>1585</ele>
        <time>2013-03-24T09:08:09Z</time>
      </trkpt>
      <trkpt lat="42.93073" lon="0.1776">
        <ele>1585</ele>
        <time>2013-03-24T09:08:10Z</time>
      </trkpt>
      <trkpt lat="42.93074" lon="0.17756">
        <ele>1586</ele>
        <time>2013-03-24T09:08:14Z</time>
      </trkpt>
      <trkpt lat="42.93076" lon="0.17753">
        <ele>1586</ele>
        <time>2013-03-24T09:08:17Z</time>
      </trkpt>
      <trkpt lat="42.93077" lon="0.17751">
        <ele>1586</ele>
        <time>2013-03-24T09:08:18Z</time>
      </trkpt>
      <trkpt lat="42.93078" lon="0.1775">
        <ele>1587</ele>
        <time>2013-03-24T09:08:20Z</time>
      </trkpt>
      <trkpt lat="42.93079" lon="0.17747">
        <ele>1587</ele>
        <time>2013-03-24T09:08:22Z</time>
      </trkpt>
      <trkpt lat="42.9308" lon="0.17745">
        <ele>1587</ele>
        <time>2013-03-24T09:08:24Z</time>
      </trkpt>
      <trkpt lat="42.93081" lon="0.17743">
        <ele>1587</ele>
        <time>2013-03-24T09:08:26Z</time>
      </trkpt>
      <trkpt lat="42.93083" lon="0.17741">
        <ele>1588</ele>
        <time>2013-03-24T09:08:28Z</time>
      </trkpt>
      <trkpt lat="42.93084" lon="0.17739">
        <ele>1588</ele>
        <time>2013-03-24T09:08:30Z</time>
      </trkpt>
      <trkpt lat="42.93085" lon="0.17737">
        <ele>1588</ele>
        <time>2013-03-24T09:08:32Z</time>
      </trkpt>
      <trkpt lat="42.93087" lon="0.17734">
        <ele>1588</ele>
        <time>2013-03-24T09:08:36Z</time>
      </trkpt>
      <trkpt lat="42.93088" lon="0.17731">
        <ele>1588</ele>
        <time>2013-03-24T09:08:37Z</time>
      </trkpt>
      <trkpt lat="42.93089" lon="0.17729">
        <ele>1588</ele>
        <time>2013-03-24T09:08:40Z</time>
      </trkpt>
      <trkpt lat="42.9309" lon="0.17727">
        <ele>1588</ele>
        <time>2013-03-24T09:08:41Z</time>
      </trkpt>
      <trkpt lat="42.93091" lon="0.17725">
        <ele>1588</ele>
        <time>2013-03-24T09:08:44Z</time>
      </trkpt>
      <trkpt lat="42.93092" lon="0.17724">
        <ele>1588</ele>
        <time>2013-03-24T09:08:46Z</time>
      </trkpt>
      <trkpt lat="42.93093" lon="0.17723">
        <ele>1589</ele>
        <time>2013-03-24T09:08:59Z</time>
      </trkpt>
      <trkpt lat="42.93094" lon="0.17719">
        <ele>1589</ele>
        <time>2013-03-24T09:09:27Z</time>
      </trkpt>
      <trkpt lat="42.93097" lon="0.17715">
        <ele>1589</ele>
        <time>2013-03-24T09:09:29Z</time>
      </trkpt>
      <trkpt lat="42.93098" lon="0.17713">
        <ele>1589</ele>
        <time>2013-03-24T09:09:31Z</time>
      </trkpt>
      <trkpt lat="42.93099" lon="0.1771">
        <ele>1589</ele>
        <time>2013-03-24T09:09:33Z</time>
      </trkpt>
      <trkpt lat="42.931" lon="0.17708">
        <ele>1589</ele>
        <time>2013-03-24T09:09:35Z</time>
      </trkpt>
      <trkpt lat="42.93101" lon="0.17705">
        <ele>1589</ele>
        <time>2013-03-24T09:09:37Z</time>
      </trkpt>
      <trkpt lat="42.93102" lon="0.17703">
        <ele>1589</ele>
        <time>2013-03-24T09:09:39Z</time>
      </trkpt>
      <trkpt lat="42.93103" lon="0.177">
        <ele>1589</ele>
        <time>2013-03-24T09:09:42Z</time>
      </trkpt>
      <trkpt lat="42.93104" lon="0.17697">
        <ele>1589</ele>
        <time>2013-03-24T09:09:43Z</time>
      </trkpt>
      <trkpt lat="42.93105" lon="0.17695">
        <ele>1589</ele>
        <time>2013-03-24T09:09:45Z</time>
      </trkpt>
      <trkpt lat="42.93106" lon="0.17693">
        <ele>1589</ele>
        <time>2013-03-24T09:09:48Z</time>
      </trkpt>
      <trkpt lat="42.93107" lon="0.17691">
        <ele>1590</ele>
        <time>2013-03-24T09:09:49Z</time>
      </trkpt>
      <trkpt lat="42.93107" lon="0.17688">
        <ele>1590</ele>
        <time>2013-03-24T09:09:52Z</time>
      </trkpt>
      <trkpt lat="42.93108" lon="0.17686">
        <ele>1591</ele>
        <time>2013-03-24T09:09:53Z</time>
      </trkpt>
      <trkpt lat="42.93109" lon="0.17684">
        <ele>1591</ele>
        <time>2013-03-24T09:09:56Z</time>
      </trkpt>
      <trkpt lat="42.9311" lon="0.17682">
        <ele>1591</ele>
        <time>2013-03-24T09:09:58Z</time>
      </trkpt>
      <trkpt lat="42.93111" lon="0.17681">
        <ele>1591</ele>
        <time>2013-03-24T09:09:59Z</time>
      </trkpt>
      <trkpt lat="42.93112" lon="0.17679">
        <ele>1591</ele>
        <time>2013-03-24T09:10:01Z</time>
      </trkpt>
      <trkpt lat="42.93113" lon="0.17676">
        <ele>1592</ele>
        <time>2013-03-24T09:10:03Z</time>
      </trkpt>
      <trkpt lat="42.93113" lon="0.17674">
        <ele>1592</ele>
        <time>2013-03-24T09:10:05Z</time>
      </trkpt>
      <trkpt lat="42.93114" lon="0.17671">
        <ele>1593</ele>
        <time>2013-03-24T09:10:07Z</time>
      </trkpt>
      <trkpt lat="42.93115" lon="0.17669">
        <ele>1593</ele>
        <time>2013-03-24T09:10:09Z</time>
      </trkpt>
      <trkpt lat="42.93116" lon="0.17666">
        <ele>1594</ele>
        <time>2013-03-24T09:10:11Z</time>
      </trkpt>
      <trkpt lat="42.93117" lon="0.17664">
        <ele>1594</ele>
        <time>2013-03-24T09:10:12Z</time>
      </trkpt>
      <trkpt lat="42.93119" lon="0.17661">
        <ele>1594</ele>
        <time>2013-03-24T09:10:16Z</time>
      </trkpt>
      <trkpt lat="42.93119" lon="0.17659">
        <ele>1594</ele>
        <time>2013-03-24T09:10:17Z</time>
      </trkpt>
      <trkpt lat="42.9312" lon="0.17657">
        <ele>1594</ele>
        <time>2013-03-24T09:10:19Z</time>
      </trkpt>
      <trkpt lat="42.93121" lon="0.17655">
        <ele>1594</ele>
        <time>2013-03-24T09:10:20Z</time>
      </trkpt>
      <trkpt lat="42.93122" lon="0.17653">
        <ele>1594</ele>
        <time>2013-03-24T09:10:22Z</time>
      </trkpt>
      <trkpt lat="42.93124" lon="0.1765">
        <ele>1594</ele>
        <time>2013-03-24T09:10:23Z</time>
      </trkpt>
      <trkpt lat="42.93124" lon="0.17649">
        <ele>1594</ele>
        <time>2013-03-24T09:10:24Z</time>
      </trkpt>
      <trkpt lat="42.93125" lon="0.17646">
        <ele>1594</ele>
        <time>2013-03-24T09:10:27Z</time>
      </trkpt>
      <trkpt lat="42.93126" lon="0.17644">
        <ele>1594</ele>
        <time>2013-03-24T09:10:29Z</time>
      </trkpt>
      <trkpt lat="42.93127" lon="0.17642">
        <ele>1594</ele>
        <time>2013-03-24T09:10:31Z</time>
      </trkpt>
      <trkpt lat="42.93127" lon="0.1764">
        <ele>1595</ele>
        <time>2013-03-24T09:10:33Z</time>
      </trkpt>
      <trkpt lat="42.93129" lon="0.17638">
        <ele>1595</ele>
        <time>2013-03-24T09:10:34Z</time>
      </trkpt>
      <trkpt lat="42.93129" lon="0.17636">
        <ele>1596</ele>
        <time>2013-03-24T09:10:36Z</time>
      </trkpt>
      <trkpt lat="42.93129" lon="0.17634">
        <ele>1597</ele>
        <time>2013-03-24T09:10:42Z</time>
      </trkpt>
      <trkpt lat="42.9313" lon="0.17631">
        <ele>1597</ele>
        <time>2013-03-24T09:10:44Z</time>
      </trkpt>
      <trkpt lat="42.93131" lon="0.17628">
        <ele>1597</ele>
        <time>2013-03-24T09:10:46Z</time>
      </trkpt>
      <trkpt lat="42.93132" lon="0.17627">
        <ele>1597</ele>
        <time>2013-03-24T09:10:47Z</time>
      </trkpt>
      <trkpt lat="42.93133" lon="0.17625">
        <ele>1597</ele>
        <time>2013-03-24T09:10:49Z</time>
      </trkpt>
      <trkpt lat="42.93133" lon="0.17623">
        <ele>1597</ele>
        <time>2013-03-24T09:10:50Z</time>
      </trkpt>
      <trkpt lat="42.93134" lon="0.17622">
        <ele>1597</ele>
        <time>2013-03-24T09:10:51Z</time>
      </trkpt>
      <trkpt lat="42.93135" lon="0.17619">
        <ele>1598</ele>
        <time>2013-03-24T09:10:53Z</time>
      </trkpt>
      <trkpt lat="42.93135" lon="0.17617">
        <ele>1598</ele>
        <time>2013-03-24T09:10:54Z</time>
      </trkpt>
      <trkpt lat="42.93136" lon="0.17616">
        <ele>1598</ele>
        <time>2013-03-24T09:10:55Z</time>
      </trkpt>
      <trkpt lat="42.93137" lon="0.17614">
        <ele>1598</ele>
        <time>2013-03-24T09:10:57Z</time>
      </trkpt>
      <trkpt lat="42.93137" lon="0.17612">
        <ele>1598</ele>
        <time>2013-03-24T09:10:58Z</time>
      </trkpt>
      <trkpt lat="42.93139" lon="0.17609">
        <ele>1598</ele>
        <time>2013-03-24T09:11:00Z</time>
      </trkpt>
      <trkpt lat="42.93139" lon="0.17608">
        <ele>1598</ele>
        <time>2013-03-24T09:11:01Z</time>
      </trkpt>
      <trkpt lat="42.9314" lon="0.17606">
        <ele>1598</ele>
        <time>2013-03-24T09:11:02Z</time>
      </trkpt>
      <trkpt lat="42.93141" lon="0.17604">
        <ele>1598</ele>
        <time>2013-03-24T09:11:04Z</time>
      </trkpt>
      <trkpt lat="42.93142" lon="0.17602">
        <ele>1598</ele>
        <time>2013-03-24T09:11:05Z</time>
      </trkpt>
      <trkpt lat="42.93143" lon="0.176">
        <ele>1598</ele>
        <time>2013-03-24T09:11:07Z</time>
      </trkpt>
      <trkpt lat="42.93144" lon="0.17599">
        <ele>1598</ele>
        <time>2013-03-24T09:11:08Z</time>
      </trkpt>
      <trkpt lat="42.93145" lon="0.17597">
        <ele>1598</ele>
        <time>2013-03-24T09:11:09Z</time>
      </trkpt>
      <trkpt lat="42.93145" lon="0.17595">
        <ele>1598</ele>
        <time>2013-03-24T09:11:11Z</time>
      </trkpt>
      <trkpt lat="42.93146" lon="0.17592">
        <ele>1598</ele>
        <time>2013-03-24T09:11:13Z</time>
      </trkpt>
      <trkpt lat="42.93147" lon="0.17591">
        <ele>1598</ele>
        <time>2013-03-24T09:11:18Z</time>
      </trkpt>
      <trkpt lat="42.93149" lon="0.1759">
        <ele>1598</ele>
        <time>2013-03-24T09:11:20Z</time>
      </trkpt>
      <trkpt lat="42.93151" lon="0.17589">
        <ele>1599</ele>
        <time>2013-03-24T09:11:22Z</time>
      </trkpt>
      <trkpt lat="42.93153" lon="0.17588">
        <ele>1599</ele>
        <time>2013-03-24T09:11:24Z</time>
      </trkpt>
      <trkpt lat="42.93154" lon="0.17588">
        <ele>1599</ele>
        <time>2013-03-24T09:11:26Z</time>
      </trkpt>
      <trkpt lat="42.93156" lon="0.17587">
        <ele>1599</ele>
        <time>2013-03-24T09:11:28Z</time>
      </trkpt>
      <trkpt lat="42.93157" lon="0.17586">
        <ele>1600</ele>
        <time>2013-03-24T09:11:30Z</time>
      </trkpt>
      <trkpt lat="42.93159" lon="0.17585">
        <ele>1600</ele>
        <time>2013-03-24T09:11:32Z</time>
      </trkpt>
      <trkpt lat="42.9316" lon="0.17585">
        <ele>1600</ele>
        <time>2013-03-24T09:11:34Z</time>
      </trkpt>
      <trkpt lat="42.93161" lon="0.17584">
        <ele>1601</ele>
        <time>2013-03-24T09:11:36Z</time>
      </trkpt>
      <trkpt lat="42.93163" lon="0.17583">
        <ele>1601</ele>
        <time>2013-03-24T09:11:38Z</time>
      </trkpt>
      <trkpt lat="42.93164" lon="0.17582">
        <ele>1602</ele>
        <time>2013-03-24T09:11:41Z</time>
      </trkpt>
      <trkpt lat="42.93165" lon="0.17582">
        <ele>1603</ele>
        <time>2013-03-24T09:11:43Z</time>
      </trkpt>
      <trkpt lat="42.93166" lon="0.17581">
        <ele>1603</ele>
        <time>2013-03-24T09:11:45Z</time>
      </trkpt>
      <trkpt lat="42.93167" lon="0.17581">
        <ele>1604</ele>
        <time>2013-03-24T09:11:47Z</time>
      </trkpt>
      <trkpt lat="42.93169" lon="0.1758">
        <ele>1604</ele>
        <time>2013-03-24T09:11:49Z</time>
      </trkpt>
      <trkpt lat="42.93171" lon="0.17579">
        <ele>1605</ele>
        <time>2013-03-24T09:11:52Z</time>
      </trkpt>
      <trkpt lat="42.93172" lon="0.17578">
        <ele>1606</ele>
        <time>2013-03-24T09:11:54Z</time>
      </trkpt>
      <trkpt lat="42.93174" lon="0.17577">
        <ele>1606</ele>
        <time>2013-03-24T09:11:56Z</time>
      </trkpt>
      <trkpt lat="42.93175" lon="0.17576">
        <ele>1606</ele>
        <time>2013-03-24T09:11:58Z</time>
      </trkpt>
      <trkpt lat="42.93177" lon="0.17576">
        <ele>1606</ele>
        <time>2013-03-24T09:12:00Z</time>
      </trkpt>
      <trkpt lat="42.93179" lon="0.17575">
        <ele>1607</ele>
        <time>2013-03-24T09:12:02Z</time>
      </trkpt>
      <trkpt lat="42.9318" lon="0.17574">
        <ele>1607</ele>
        <time>2013-03-24T09:12:04Z</time>
      </trkpt>
      <trkpt lat="42.93182" lon="0.17574">
        <ele>1607</ele>
        <time>2013-03-24T09:12:06Z</time>
      </trkpt>
      <trkpt lat="42.93184" lon="0.17574">
        <ele>1607</ele>
        <time>2013-03-24T09:12:08Z</time>
      </trkpt>
      <trkpt lat="42.93186" lon="0.17574">
        <ele>1607</ele>
        <time>2013-03-24T09:12:10Z</time>
      </trkpt>
      <trkpt lat="42.93187" lon="0.17574">
        <ele>1607</ele>
        <time>2013-03-24T09:12:12Z</time>
      </trkpt>
      <trkpt lat="42.93189" lon="0.17573">
        <ele>1607</ele>
        <time>2013-03-24T09:12:13Z</time>
      </trkpt>
      <trkpt lat="42.9319" lon="0.17572">
        <ele>1608</ele>
        <time>2013-03-24T09:12:15Z</time>
      </trkpt>
      <trkpt lat="42.93192" lon="0.17571">
        <ele>1608</ele>
        <time>2013-03-24T09:12:17Z</time>
      </trkpt>
      <trkpt lat="42.93193" lon="0.1757">
        <ele>1608</ele>
        <time>2013-03-24T09:12:18Z</time>
      </trkpt>
      <trkpt lat="42.93195" lon="0.1757">
        <ele>1608</ele>
        <time>2013-03-24T09:12:19Z</time>
      </trkpt>
      <trkpt lat="42.93196" lon="0.1757">
        <ele>1608</ele>
        <time>2013-03-24T09:12:21Z</time>
      </trkpt>
      <trkpt lat="42.93198" lon="0.17569">
        <ele>1608</ele>
        <time>2013-03-24T09:12:23Z</time>
      </trkpt>
      <trkpt lat="42.932" lon="0.17568">
        <ele>1608</ele>
        <time>2013-03-24T09:12:25Z</time>
      </trkpt>
      <trkpt lat="42.93201" lon="0.17567">
        <ele>1608</ele>
        <time>2013-03-24T09:12:27Z</time>
      </trkpt>
      <trkpt lat="42.93201" lon="0.17566">
        <ele>1609</ele>
        <time>2013-03-24T09:12:43Z</time>
      </trkpt>
      <trkpt lat="42.932" lon="0.17564">
        <ele>1611</ele>
        <time>2013-03-24T09:12:59Z</time>
      </trkpt>
      <trkpt lat="42.93201" lon="0.17562">
        <ele>1611</ele>
        <time>2013-03-24T09:13:08Z</time>
      </trkpt>
      <trkpt lat="42.93202" lon="0.1756">
        <ele>1611</ele>
        <time>2013-03-24T09:13:10Z</time>
      </trkpt>
      <trkpt lat="42.93203" lon="0.17559">
        <ele>1611</ele>
        <time>2013-03-24T09:13:11Z</time>
      </trkpt>
      <trkpt lat="42.93203" lon="0.17557">
        <ele>1611</ele>
        <time>2013-03-24T09:13:12Z</time>
      </trkpt>
      <trkpt lat="42.93204" lon="0.17555">
        <ele>1611</ele>
        <time>2013-03-24T09:13:14Z</time>
      </trkpt>
      <trkpt lat="42.93204" lon="0.17552">
        <ele>1611</ele>
        <time>2013-03-24T09:13:16Z</time>
      </trkpt>
      <trkpt lat="42.93205" lon="0.1755">
        <ele>1611</ele>
        <time>2013-03-24T09:13:18Z</time>
      </trkpt>
      <trkpt lat="42.93206" lon="0.17549">
        <ele>1611</ele>
        <time>2013-03-24T09:13:19Z</time>
      </trkpt>
      <trkpt lat="42.93206" lon="0.17547">
        <ele>1611</ele>
        <time>2013-03-24T09:13:21Z</time>
      </trkpt>
      <trkpt lat="42.93207" lon="0.17545">
        <ele>1611</ele>
        <time>2013-03-24T09:13:22Z</time>
      </trkpt>
      <trkpt lat="42.93208" lon="0.17543">
        <ele>1611</ele>
        <time>2013-03-24T09:13:24Z</time>
      </trkpt>
      <trkpt lat="42.93209" lon="0.17541">
        <ele>1611</ele>
        <time>2013-03-24T09:13:26Z</time>
      </trkpt>
      <trkpt lat="42.9321" lon="0.1754">
        <ele>1611</ele>
        <time>2013-03-24T09:13:28Z</time>
      </trkpt>
      <trkpt lat="42.93211" lon="0.17538">
        <ele>1611</ele>
        <time>2013-03-24T09:13:30Z</time>
      </trkpt>
      <trkpt lat="42.93211" lon="0.17536">
        <ele>1611</ele>
        <time>2013-03-24T09:13:32Z</time>
      </trkpt>
      <trkpt lat="42.93212" lon="0.17534">
        <ele>1611</ele>
        <time>2013-03-24T09:13:34Z</time>
      </trkpt>
      <trkpt lat="42.93213" lon="0.17532">
        <ele>1611</ele>
        <time>2013-03-24T09:13:37Z</time>
      </trkpt>
      <trkpt lat="42.93214" lon="0.1753">
        <ele>1611</ele>
        <time>2013-03-24T09:13:39Z</time>
      </trkpt>
      <trkpt lat="42.93215" lon="0.17528">
        <ele>1611</ele>
        <time>2013-03-24T09:13:41Z</time>
      </trkpt>
      <trkpt lat="42.93216" lon="0.17525">
        <ele>1611</ele>
        <time>2013-03-24T09:13:43Z</time>
      </trkpt>
      <trkpt lat="42.93217" lon="0.17523">
        <ele>1611</ele>
        <time>2013-03-24T09:13:45Z</time>
      </trkpt>
      <trkpt lat="42.93217" lon="0.17521">
        <ele>1611</ele>
        <time>2013-03-24T09:13:47Z</time>
      </trkpt>
      <trkpt lat="42.93218" lon="0.17518">
        <ele>1611</ele>
        <time>2013-03-24T09:13:49Z</time>
      </trkpt>
      <trkpt lat="42.93219" lon="0.17515">
        <ele>1611</ele>
        <time>2013-03-24T09:13:51Z</time>
      </trkpt>
      <trkpt lat="42.93219" lon="0.17513">
        <ele>1611</ele>
        <time>2013-03-24T09:13:53Z</time>
      </trkpt>
      <trkpt lat="42.9322" lon="0.17511">
        <ele>1611</ele>
        <time>2013-03-24T09:13:54Z</time>
      </trkpt>
      <trkpt lat="42.9322" lon="0.1751">
        <ele>1611</ele>
        <time>2013-03-24T09:13:55Z</time>
      </trkpt>
      <trkpt lat="42.9322" lon="0.17507">
        <ele>1611</ele>
        <time>2013-03-24T09:13:57Z</time>
      </trkpt>
      <trkpt lat="42.9322" lon="0.17506">
        <ele>1611</ele>
        <time>2013-03-24T09:13:58Z</time>
      </trkpt>
      <trkpt lat="42.9322" lon="0.17504">
        <ele>1611</ele>
        <time>2013-03-24T09:13:59Z</time>
      </trkpt>
      <trkpt lat="42.93221" lon="0.17503">
        <ele>1611</ele>
        <time>2013-03-24T09:14:00Z</time>
      </trkpt>
      <trkpt lat="42.93221" lon="0.175">
        <ele>1611</ele>
        <time>2013-03-24T09:14:02Z</time>
      </trkpt>
      <trkpt lat="42.93221" lon="0.17499">
        <ele>1611</ele>
        <time>2013-03-24T09:14:03Z</time>
      </trkpt>
      <trkpt lat="42.93221" lon="0.17496">
        <ele>1611</ele>
        <time>2013-03-24T09:14:05Z</time>
      </trkpt>
      <trkpt lat="42.93221" lon="0.17494">
        <ele>1611</ele>
        <time>2013-03-24T09:14:06Z</time>
      </trkpt>
      <trkpt lat="42.93221" lon="0.17493">
        <ele>1611</ele>
        <time>2013-03-24T09:14:07Z</time>
      </trkpt>
      <trkpt lat="42.9322" lon="0.1749">
        <ele>1611</ele>
        <time>2013-03-24T09:14:09Z</time>
      </trkpt>
      <trkpt lat="42.9322" lon="0.17488">
        <ele>1611</ele>
        <time>2013-03-24T09:14:11Z</time>
      </trkpt>
      <trkpt lat="42.93221" lon="0.17486">
        <ele>1611</ele>
        <time>2013-03-24T09:14:13Z</time>
      </trkpt>
      <trkpt lat="42.93221" lon="0.17484">
        <ele>1611</ele>
        <time>2013-03-24T09:14:15Z</time>
      </trkpt>
      <trkpt lat="42.93221" lon="0.17481">
        <ele>1611</ele>
        <time>2013-03-24T09:14:17Z</time>
      </trkpt>
      <trkpt lat="42.93221" lon="0.17479">
        <ele>1611</ele>
        <time>2013-03-24T09:14:19Z</time>
      </trkpt>
      <trkpt lat="42.93221" lon="0.17476">
        <ele>1611</ele>
        <time>2013-03-24T09:14:21Z</time>
      </trkpt>
      <trkpt lat="42.93221" lon="0.17474">
        <ele>1611</ele>
        <time>2013-03-24T09:14:23Z</time>
      </trkpt>
      <trkpt lat="42.93221" lon="0.17472">
        <ele>1611</ele>
        <time>2013-03-24T09:14:25Z</time>
      </trkpt>
      <trkpt lat="42.93222" lon="0.1747">
        <ele>1611</ele>
        <time>2013-03-24T09:14:27Z</time>
      </trkpt>
      <trkpt lat="42.93222" lon="0.17468">
        <ele>1612</ele>
        <time>2013-03-24T09:14:29Z</time>
      </trkpt>
      <trkpt lat="42.93222" lon="0.17466">
        <ele>1612</ele>
        <time>2013-03-24T09:14:31Z</time>
      </trkpt>
      <trkpt lat="42.93223" lon="0.17464">
        <ele>1612</ele>
        <time>2013-03-24T09:14:33Z</time>
      </trkpt>
      <trkpt lat="42.93223" lon="0.17461">
        <ele>1613</ele>
        <time>2013-03-24T09:14:35Z</time>
      </trkpt>
      <trkpt lat="42.93224" lon="0.17459">
        <ele>1613</ele>
        <time>2013-03-24T09:14:37Z</time>
      </trkpt>
      <trkpt lat="42.93224" lon="0.17458">
        <ele>1613</ele>
        <time>2013-03-24T09:14:39Z</time>
      </trkpt>
      <trkpt lat="42.93224" lon="0.17455">
        <ele>1613</ele>
        <time>2013-03-24T09:14:50Z</time>
      </trkpt>
      <trkpt lat="42.93225" lon="0.17453">
        <ele>1613</ele>
        <time>2013-03-24T09:14:52Z</time>
      </trkpt>
      <trkpt lat="42.93225" lon="0.17451">
        <ele>1613</ele>
        <time>2013-03-24T09:14:54Z</time>
      </trkpt>
      <trkpt lat="42.93225" lon="0.17449">
        <ele>1613</ele>
        <time>2013-03-24T09:14:56Z</time>
      </trkpt>
      <trkpt lat="42.93226" lon="0.17447">
        <ele>1613</ele>
        <time>2013-03-24T09:14:58Z</time>
      </trkpt>
      <trkpt lat="42.93227" lon="0.17444">
        <ele>1613</ele>
        <time>2013-03-24T09:15:00Z</time>
      </trkpt>
      <trkpt lat="42.93227" lon="0.17442">
        <ele>1614</ele>
        <time>2013-03-24T09:15:02Z</time>
      </trkpt>
      <trkpt lat="42.93227" lon="0.1744">
        <ele>1614</ele>
        <time>2013-03-24T09:15:04Z</time>
      </trkpt>
      <trkpt lat="42.93228" lon="0.17437">
        <ele>1614</ele>
        <time>2013-03-24T09:15:06Z</time>
      </trkpt>
      <trkpt lat="42.93229" lon="0.17435">
        <ele>1614</ele>
        <time>2013-03-24T09:15:08Z</time>
      </trkpt>
      <trkpt lat="42.93229" lon="0.17433">
        <ele>1614</ele>
        <time>2013-03-24T09:15:10Z</time>
      </trkpt>
      <trkpt lat="42.93229" lon="0.17431">
        <ele>1614</ele>
        <time>2013-03-24T09:15:12Z</time>
      </trkpt>
      <trkpt lat="42.9323" lon="0.17428">
        <ele>1614</ele>
        <time>2013-03-24T09:15:14Z</time>
      </trkpt>
      <trkpt lat="42.9323" lon="0.17426">
        <ele>1615</ele>
        <time>2013-03-24T09:15:16Z</time>
      </trkpt>
      <trkpt lat="42.9323" lon="0.17423">
        <ele>1615</ele>
        <time>2013-03-24T09:15:18Z</time>
      </trkpt>
      <trkpt lat="42.93231" lon="0.17421">
        <ele>1615</ele>
        <time>2013-03-24T09:15:20Z</time>
      </trkpt>
      <trkpt lat="42.93231" lon="0.17419">
        <ele>1616</ele>
        <time>2013-03-24T09:15:22Z</time>
      </trkpt>
      <trkpt lat="42.93232" lon="0.17417">
        <ele>1616</ele>
        <time>2013-03-24T09:15:24Z</time>
      </trkpt>
      <trkpt lat="42.93232" lon="0.17414">
        <ele>1616</ele>
        <time>2013-03-24T09:15:26Z</time>
      </trkpt>
      <trkpt lat="42.93233" lon="0.17412">
        <ele>1616</ele>
        <time>2013-03-24T09:15:28Z</time>
      </trkpt>
      <trkpt lat="42.93233" lon="0.1741">
        <ele>1616</ele>
        <time>2013-03-24T09:15:30Z</time>
      </trkpt>
      <trkpt lat="42.93233" lon="0.17408">
        <ele>1616</ele>
        <time>2013-03-24T09:15:32Z</time>
      </trkpt>
      <trkpt lat="42.93234" lon="0.17406">
        <ele>1616</ele>
        <time>2013-03-24T09:15:34Z</time>
      </trkpt>
      <trkpt lat="42.93235" lon="0.17403">
        <ele>1616</ele>
        <time>2013-03-24T09:15:36Z</time>
      </trkpt>
      <trkpt lat="42.93235" lon="0.17402">
        <ele>1617</ele>
        <time>2013-03-24T09:15:38Z</time>
      </trkpt>
      <trkpt lat="42.93236" lon="0.17399">
        <ele>1617</ele>
        <time>2013-03-24T09:15:40Z</time>
      </trkpt>
      <trkpt lat="42.93237" lon="0.17397">
        <ele>1617</ele>
        <time>2013-03-24T09:15:42Z</time>
      </trkpt>
      <trkpt lat="42.93237" lon="0.17395">
        <ele>1617</ele>
        <time>2013-03-24T09:15:44Z</time>
      </trkpt>
      <trkpt lat="42.93238" lon="0.17393">
        <ele>1617</ele>
        <time>2013-03-24T09:15:46Z</time>
      </trkpt>
      <trkpt lat="42.93238" lon="0.17391">
        <ele>1617</ele>
        <time>2013-03-24T09:15:48Z</time>
      </trkpt>
      <trkpt lat="42.93238" lon="0.17389">
        <ele>1617</ele>
        <time>2013-03-24T09:15:49Z</time>
      </trkpt>
      <trkpt lat="42.93238" lon="0.17387">
        <ele>1617</ele>
        <time>2013-03-24T09:15:51Z</time>
      </trkpt>
      <trkpt lat="42.93238" lon="0.17384">
        <ele>1617</ele>
        <time>2013-03-24T09:15:53Z</time>
      </trkpt>
      <trkpt lat="42.93237" lon="0.17383">
        <ele>1617</ele>
        <time>2013-03-24T09:15:57Z</time>
      </trkpt>
      <trkpt lat="42.93236" lon="0.17381">
        <ele>1617</ele>
        <time>2013-03-24T09:16:00Z</time>
      </trkpt>
      <trkpt lat="42.93235" lon="0.17379">
        <ele>1617</ele>
        <time>2013-03-24T09:16:02Z</time>
      </trkpt>
      <trkpt lat="42.93235" lon="0.17377">
        <ele>1617</ele>
        <time>2013-03-24T09:16:04Z</time>
      </trkpt>
      <trkpt lat="42.93235" lon="0.17375">
        <ele>1617</ele>
        <time>2013-03-24T09:16:06Z</time>
      </trkpt>
      <trkpt lat="42.93237" lon="0.17373">
        <ele>1617</ele>
        <time>2013-03-24T09:16:08Z</time>
      </trkpt>
      <trkpt lat="42.93238" lon="0.17371">
        <ele>1617</ele>
        <time>2013-03-24T09:16:10Z</time>
      </trkpt>
      <trkpt lat="42.93239" lon="0.17369">
        <ele>1617</ele>
        <time>2013-03-24T09:16:12Z</time>
      </trkpt>
      <trkpt lat="42.9324" lon="0.17367">
        <ele>1617</ele>
        <time>2013-03-24T09:16:14Z</time>
      </trkpt>
      <trkpt lat="42.93242" lon="0.17365">
        <ele>1617</ele>
        <time>2013-03-24T09:16:16Z</time>
      </trkpt>
      <trkpt lat="42.93243" lon="0.17363">
        <ele>1617</ele>
        <time>2013-03-24T09:16:18Z</time>
      </trkpt>
      <trkpt lat="42.93244" lon="0.1736">
        <ele>1617</ele>
        <time>2013-03-24T09:16:20Z</time>
      </trkpt>
      <trkpt lat="42.93245" lon="0.17359">
        <ele>1617</ele>
        <time>2013-03-24T09:16:22Z</time>
      </trkpt>
      <trkpt lat="42.93247" lon="0.17357">
        <ele>1617</ele>
        <time>2013-03-24T09:16:24Z</time>
      </trkpt>
      <trkpt lat="42.93248" lon="0.17355">
        <ele>1617</ele>
        <time>2013-03-24T09:16:26Z</time>
      </trkpt>
      <trkpt lat="42.93249" lon="0.17353">
        <ele>1617</ele>
        <time>2013-03-24T09:16:28Z</time>
      </trkpt>
      <trkpt lat="42.9325" lon="0.1735">
        <ele>1617</ele>
        <time>2013-03-24T09:16:30Z</time>
      </trkpt>
      <trkpt lat="42.93251" lon="0.17348">
        <ele>1617</ele>
        <time>2013-03-24T09:16:32Z</time>
      </trkpt>
      <trkpt lat="42.93252" lon="0.17347">
        <ele>1617</ele>
        <time>2013-03-24T09:16:33Z</time>
      </trkpt>
      <trkpt lat="42.93253" lon="0.17345">
        <ele>1617</ele>
        <time>2013-03-24T09:16:35Z</time>
      </trkpt>
      <trkpt lat="42.93254" lon="0.17342">
        <ele>1617</ele>
        <time>2013-03-24T09:16:37Z</time>
      </trkpt>
      <trkpt lat="42.93256" lon="0.1734">
        <ele>1617</ele>
        <time>2013-03-24T09:16:39Z</time>
      </trkpt>
      <trkpt lat="42.93256" lon="0.17337">
        <ele>1617</ele>
        <time>2013-03-24T09:16:41Z</time>
      </trkpt>
      <trkpt lat="42.93257" lon="0.17335">
        <ele>1617</ele>
        <time>2013-03-24T09:16:43Z</time>
      </trkpt>
      <trkpt lat="42.93258" lon="0.17332">
        <ele>1617</ele>
        <time>2013-03-24T09:16:45Z</time>
      </trkpt>
      <trkpt lat="42.93259" lon="0.1733">
        <ele>1617</ele>
        <time>2013-03-24T09:16:47Z</time>
      </trkpt>
      <trkpt lat="42.93259" lon="0.17328">
        <ele>1617</ele>
        <time>2013-03-24T09:16:49Z</time>
      </trkpt>
      <trkpt lat="42.9326" lon="0.17326">
        <ele>1617</ele>
        <time>2013-03-24T09:16:51Z</time>
      </trkpt>
      <trkpt lat="42.93261" lon="0.17324">
        <ele>1617</ele>
        <time>2013-03-24T09:16:53Z</time>
      </trkpt>
      <trkpt lat="42.93261" lon="0.17322">
        <ele>1617</ele>
        <time>2013-03-24T09:16:55Z</time>
      </trkpt>
      <trkpt lat="42.93261" lon="0.1732">
        <ele>1617</ele>
        <time>2013-03-24T09:16:57Z</time>
      </trkpt>
      <trkpt lat="42.93262" lon="0.17318">
        <ele>1617</ele>
        <time>2013-03-24T09:16:59Z</time>
      </trkpt>
      <trkpt lat="42.93262" lon="0.17315">
        <ele>1617</ele>
        <time>2013-03-24T09:17:01Z</time>
      </trkpt>
      <trkpt lat="42.93263" lon="0.17313">
        <ele>1617</ele>
        <time>2013-03-24T09:17:03Z</time>
      </trkpt>
      <trkpt lat="42.93263" lon="0.17311">
        <ele>1617</ele>
        <time>2013-03-24T09:17:05Z</time>
      </trkpt>
      <trkpt lat="42.93264" lon="0.17308">
        <ele>1617</ele>
        <time>2013-03-24T09:17:07Z</time>
      </trkpt>
      <trkpt lat="42.93264" lon="0.17306">
        <ele>1617</ele>
        <time>2013-03-24T09:17:09Z</time>
      </trkpt>
      <trkpt lat="42.93265" lon="0.17303">
        <ele>1617</ele>
        <time>2013-03-24T09:17:11Z</time>
      </trkpt>
      <trkpt lat="42.93266" lon="0.17301">
        <ele>1617</ele>
        <time>2013-03-24T09:17:13Z</time>
      </trkpt>
      <trkpt lat="42.93267" lon="0.17299">
        <ele>1617</ele>
        <time>2013-03-24T09:17:15Z</time>
      </trkpt>
      <trkpt lat="42.93267" lon="0.17296">
        <ele>1617</ele>
        <time>2013-03-24T09:17:17Z</time>
      </trkpt>
      <trkpt lat="42.93267" lon="0.17295">
        <ele>1617</ele>
        <time>2013-03-24T09:17:18Z</time>
      </trkpt>
      <trkpt lat="42.93268" lon="0.17292">
        <ele>1617</ele>
        <time>2013-03-24T09:17:20Z</time>
      </trkpt>
      <trkpt lat="42.93269" lon="0.1729">
        <ele>1617</ele>
        <time>2013-03-24T09:17:22Z</time>
      </trkpt>
      <trkpt lat="42.9327" lon="0.17288">
        <ele>1617</ele>
        <time>2013-03-24T09:17:24Z</time>
      </trkpt>
      <trkpt lat="42.9327" lon="0.17286">
        <ele>1617</ele>
        <time>2013-03-24T09:17:25Z</time>
      </trkpt>
      <trkpt lat="42.93271" lon="0.17283">
        <ele>1617</ele>
        <time>2013-03-24T09:17:27Z</time>
      </trkpt>
      <trkpt lat="42.93272" lon="0.1728">
        <ele>1617</ele>
        <time>2013-03-24T09:17:29Z</time>
      </trkpt>
      <trkpt lat="42.93272" lon="0.17279">
        <ele>1617</ele>
        <time>2013-03-24T09:17:30Z</time>
      </trkpt>
      <trkpt lat="42.93272" lon="0.17278">
        <ele>1617</ele>
        <time>2013-03-24T09:17:31Z</time>
      </trkpt>
      <trkpt lat="42.93273" lon="0.17275">
        <ele>1617</ele>
        <time>2013-03-24T09:17:33Z</time>
      </trkpt>
      <trkpt lat="42.93274" lon="0.17273">
        <ele>1617</ele>
        <time>2013-03-24T09:17:35Z</time>
      </trkpt>
      <trkpt lat="42.93275" lon="0.1727">
        <ele>1617</ele>
        <time>2013-03-24T09:17:37Z</time>
      </trkpt>
      <trkpt lat="42.93276" lon="0.17268">
        <ele>1617</ele>
        <time>2013-03-24T09:17:39Z</time>
      </trkpt>
      <trkpt lat="42.93277" lon="0.17266">
        <ele>1617</ele>
        <time>2013-03-24T09:17:41Z</time>
      </trkpt>
      <trkpt lat="42.93278" lon="0.17264">
        <ele>1617</ele>
        <time>2013-03-24T09:17:43Z</time>
      </trkpt>
      <trkpt lat="42.93279" lon="0.17261">
        <ele>1617</ele>
        <time>2013-03-24T09:17:45Z</time>
      </trkpt>
      <trkpt lat="42.9328" lon="0.17259">
        <ele>1618</ele>
        <time>2013-03-24T09:17:47Z</time>
      </trkpt>
      <trkpt lat="42.93281" lon="0.17257">
        <ele>1618</ele>
        <time>2013-03-24T09:17:49Z</time>
      </trkpt>
      <trkpt lat="42.93282" lon="0.17255">
        <ele>1618</ele>
        <time>2013-03-24T09:17:51Z</time>
      </trkpt>
      <trkpt lat="42.93282" lon="0.17252">
        <ele>1618</ele>
        <time>2013-03-24T09:17:53Z</time>
      </trkpt>
      <trkpt lat="42.93283" lon="0.1725">
        <ele>1618</ele>
        <time>2013-03-24T09:17:55Z</time>
      </trkpt>
      <trkpt lat="42.93284" lon="0.17247">
        <ele>1618</ele>
        <time>2013-03-24T09:17:57Z</time>
      </trkpt>
      <trkpt lat="42.93284" lon="0.17245">
        <ele>1618</ele>
        <time>2013-03-24T09:17:59Z</time>
      </trkpt>
      <trkpt lat="42.93284" lon="0.17243">
        <ele>1619</ele>
        <time>2013-03-24T09:18:01Z</time>
      </trkpt>
      <trkpt lat="42.93285" lon="0.17241">
        <ele>1619</ele>
        <time>2013-03-24T09:18:03Z</time>
      </trkpt>
      <trkpt lat="42.93285" lon="0.17239">
        <ele>1619</ele>
        <time>2013-03-24T09:18:05Z</time>
      </trkpt>
      <trkpt lat="42.93285" lon="0.17237">
        <ele>1619</ele>
        <time>2013-03-24T09:18:07Z</time>
      </trkpt>
      <trkpt lat="42.93285" lon="0.17235">
        <ele>1619</ele>
        <time>2013-03-24T09:18:09Z</time>
      </trkpt>
      <trkpt lat="42.93285" lon="0.17233">
        <ele>1619</ele>
        <time>2013-03-24T09:18:11Z</time>
      </trkpt>
      <trkpt lat="42.93285" lon="0.17231">
        <ele>1620</ele>
        <time>2013-03-24T09:18:12Z</time>
      </trkpt>
      <trkpt lat="42.93285" lon="0.17229">
        <ele>1620</ele>
        <time>2013-03-24T09:18:14Z</time>
      </trkpt>
      <trkpt lat="42.93285" lon="0.17226">
        <ele>1620</ele>
        <time>2013-03-24T09:18:16Z</time>
      </trkpt>
      <trkpt lat="42.93285" lon="0.17224">
        <ele>1621</ele>
        <time>2013-03-24T09:18:18Z</time>
      </trkpt>
      <trkpt lat="42.93285" lon="0.17222">
        <ele>1621</ele>
        <time>2013-03-24T09:18:20Z</time>
      </trkpt>
      <trkpt lat="42.93285" lon="0.17219">
        <ele>1621</ele>
        <time>2013-03-24T09:18:22Z</time>
      </trkpt>
      <trkpt lat="42.93284" lon="0.17217">
        <ele>1621</ele>
        <time>2013-03-24T09:18:24Z</time>
      </trkpt>
      <trkpt lat="42.93285" lon="0.17216">
        <ele>1621</ele>
        <time>2013-03-24T09:18:26Z</time>
      </trkpt>
      <trkpt lat="42.93285" lon="0.17214">
        <ele>1622</ele>
        <time>2013-03-24T09:18:28Z</time>
      </trkpt>
      <trkpt lat="42.93286" lon="0.17212">
        <ele>1622</ele>
        <time>2013-03-24T09:18:30Z</time>
      </trkpt>
      <trkpt lat="42.93286" lon="0.17211">
        <ele>1622</ele>
        <time>2013-03-24T09:18:32Z</time>
      </trkpt>
      <trkpt lat="42.93287" lon="0.17209">
        <ele>1622</ele>
        <time>2013-03-24T09:18:34Z</time>
      </trkpt>
      <trkpt lat="42.93287" lon="0.17208">
        <ele>1623</ele>
        <time>2013-03-24T09:18:36Z</time>
      </trkpt>
      <trkpt lat="42.93287" lon="0.17206">
        <ele>1624</ele>
        <time>2013-03-24T09:18:43Z</time>
      </trkpt>
      <trkpt lat="42.93288" lon="0.17204">
        <ele>1624</ele>
        <time>2013-03-24T09:18:56Z</time>
      </trkpt>
      <trkpt lat="42.93288" lon="0.17202">
        <ele>1624</ele>
        <time>2013-03-24T09:18:58Z</time>
      </trkpt>
      <trkpt lat="42.93288" lon="0.17201">
        <ele>1625</ele>
        <time>2013-03-24T09:19:14Z</time>
      </trkpt>
      <trkpt lat="42.93289" lon="0.17199">
        <ele>1625</ele>
        <time>2013-03-24T09:19:16Z</time>
      </trkpt>
      <trkpt lat="42.93289" lon="0.17197">
        <ele>1625</ele>
        <time>2013-03-24T09:19:18Z</time>
      </trkpt>
      <trkpt lat="42.9329" lon="0.17195">
        <ele>1626</ele>
        <time>2013-03-24T09:19:20Z</time>
      </trkpt>
      <trkpt lat="42.9329" lon="0.17193">
        <ele>1626</ele>
        <time>2013-03-24T09:19:22Z</time>
      </trkpt>
      <trkpt lat="42.9329" lon="0.1719">
        <ele>1627</ele>
        <time>2013-03-24T09:19:24Z</time>
      </trkpt>
      <trkpt lat="42.9329" lon="0.17188">
        <ele>1628</ele>
        <time>2013-03-24T09:19:26Z</time>
      </trkpt>
      <trkpt lat="42.9329" lon="0.17186">
        <ele>1628</ele>
        <time>2013-03-24T09:19:28Z</time>
      </trkpt>
      <trkpt lat="42.9329" lon="0.17184">
        <ele>1628</ele>
        <time>2013-03-24T09:19:30Z</time>
      </trkpt>
      <trkpt lat="42.9329" lon="0.17182">
        <ele>1629</ele>
        <time>2013-03-24T09:19:32Z</time>
      </trkpt>
      <trkpt lat="42.93289" lon="0.17179">
        <ele>1629</ele>
        <time>2013-03-24T09:19:34Z</time>
      </trkpt>
      <trkpt lat="42.93289" lon="0.17177">
        <ele>1629</ele>
        <time>2013-03-24T09:19:36Z</time>
      </trkpt>
      <trkpt lat="42.93289" lon="0.17176">
        <ele>1629</ele>
        <time>2013-03-24T09:19:37Z</time>
      </trkpt>
      <trkpt lat="42.9329" lon="0.17174">
        <ele>1629</ele>
        <time>2013-03-24T09:19:39Z</time>
      </trkpt>
      <trkpt lat="42.9329" lon="0.17172">
        <ele>1630</ele>
        <time>2013-03-24T09:19:41Z</time>
      </trkpt>
      <trkpt lat="42.9329" lon="0.17169">
        <ele>1630</ele>
        <time>2013-03-24T09:19:43Z</time>
      </trkpt>
      <trkpt lat="42.93291" lon="0.17167">
        <ele>1630</ele>
        <time>2013-03-24T09:19:45Z</time>
      </trkpt>
      <trkpt lat="42.93291" lon="0.17165">
        <ele>1630</ele>
        <time>2013-03-24T09:19:47Z</time>
      </trkpt>
      <trkpt lat="42.93291" lon="0.17163">
        <ele>1630</ele>
        <time>2013-03-24T09:19:49Z</time>
      </trkpt>
      <trkpt lat="42.93292" lon="0.1716">
        <ele>1630</ele>
        <time>2013-03-24T09:19:51Z</time>
      </trkpt>
      <trkpt lat="42.93292" lon="0.17158">
        <ele>1630</ele>
        <time>2013-03-24T09:19:53Z</time>
      </trkpt>
      <trkpt lat="42.93292" lon="0.17156">
        <ele>1630</ele>
        <time>2013-03-24T09:19:55Z</time>
      </trkpt>
      <trkpt lat="42.93293" lon="0.17154">
        <ele>1631</ele>
        <time>2013-03-24T09:19:57Z</time>
      </trkpt>
      <trkpt lat="42.93293" lon="0.17151">
        <ele>1631</ele>
        <time>2013-03-24T09:19:59Z</time>
      </trkpt>
      <trkpt lat="42.93294" lon="0.1715">
        <ele>1631</ele>
        <time>2013-03-24T09:20:01Z</time>
      </trkpt>
      <trkpt lat="42.93295" lon="0.17148">
        <ele>1631</ele>
        <time>2013-03-24T09:20:03Z</time>
      </trkpt>
      <trkpt lat="42.93295" lon="0.17146">
        <ele>1632</ele>
        <time>2013-03-24T09:20:05Z</time>
      </trkpt>
      <trkpt lat="42.93295" lon="0.17144">
        <ele>1632</ele>
        <time>2013-03-24T09:20:07Z</time>
      </trkpt>
      <trkpt lat="42.93295" lon="0.17141">
        <ele>1632</ele>
        <time>2013-03-24T09:20:09Z</time>
      </trkpt>
      <trkpt lat="42.93296" lon="0.17139">
        <ele>1633</ele>
        <time>2013-03-24T09:20:11Z</time>
      </trkpt>
      <trkpt lat="42.93296" lon="0.17137">
        <ele>1633</ele>
        <time>2013-03-24T09:20:13Z</time>
      </trkpt>
      <trkpt lat="42.93296" lon="0.17135">
        <ele>1633</ele>
        <time>2013-03-24T09:20:14Z</time>
      </trkpt>
      <trkpt lat="42.93297" lon="0.17133">
        <ele>1633</ele>
        <time>2013-03-24T09:20:16Z</time>
      </trkpt>
      <trkpt lat="42.93297" lon="0.17131">
        <ele>1633</ele>
        <time>2013-03-24T09:20:18Z</time>
      </trkpt>
      <trkpt lat="42.93297" lon="0.1713">
        <ele>1633</ele>
        <time>2013-03-24T09:20:20Z</time>
      </trkpt>
      <trkpt lat="42.93298" lon="0.17128">
        <ele>1633</ele>
        <time>2013-03-24T09:20:25Z</time>
      </trkpt>
      <trkpt lat="42.93298" lon="0.17126">
        <ele>1633</ele>
        <time>2013-03-24T09:20:27Z</time>
      </trkpt>
      <trkpt lat="42.93298" lon="0.17123">
        <ele>1633</ele>
        <time>2013-03-24T09:20:29Z</time>
      </trkpt>
      <trkpt lat="42.93298" lon="0.17121">
        <ele>1634</ele>
        <time>2013-03-24T09:20:31Z</time>
      </trkpt>
      <trkpt lat="42.93298" lon="0.17119">
        <ele>1634</ele>
        <time>2013-03-24T09:20:33Z</time>
      </trkpt>
      <trkpt lat="42.93298" lon="0.17117">
        <ele>1635</ele>
        <time>2013-03-24T09:20:35Z</time>
      </trkpt>
      <trkpt lat="42.93298" lon="0.17114">
        <ele>1635</ele>
        <time>2013-03-24T09:20:37Z</time>
      </trkpt>
      <trkpt lat="42.93298" lon="0.17111">
        <ele>1635</ele>
        <time>2013-03-24T09:20:39Z</time>
      </trkpt>
      <trkpt lat="42.93298" lon="0.1711">
        <ele>1635</ele>
        <time>2013-03-24T09:20:40Z</time>
      </trkpt>
      <trkpt lat="42.93298" lon="0.17108">
        <ele>1635</ele>
        <time>2013-03-24T09:20:42Z</time>
      </trkpt>
      <trkpt lat="42.93298" lon="0.17105">
        <ele>1636</ele>
        <time>2013-03-24T09:20:44Z</time>
      </trkpt>
      <trkpt lat="42.93298" lon="0.17103">
        <ele>1636</ele>
        <time>2013-03-24T09:20:46Z</time>
      </trkpt>
      <trkpt lat="42.93298" lon="0.171">
        <ele>1636</ele>
        <time>2013-03-24T09:20:48Z</time>
      </trkpt>
      <trkpt lat="42.93298" lon="0.17098">
        <ele>1636</ele>
        <time>2013-03-24T09:20:50Z</time>
      </trkpt>
      <trkpt lat="42.93298" lon="0.17096">
        <ele>1636</ele>
        <time>2013-03-24T09:20:52Z</time>
      </trkpt>
      <trkpt lat="42.93298" lon="0.17094">
        <ele>1636</ele>
        <time>2013-03-24T09:20:54Z</time>
      </trkpt>
      <trkpt lat="42.93298" lon="0.17092">
        <ele>1637</ele>
        <time>2013-03-24T09:20:56Z</time>
      </trkpt>
      <trkpt lat="42.93298" lon="0.1709">
        <ele>1637</ele>
        <time>2013-03-24T09:20:58Z</time>
      </trkpt>
      <trkpt lat="42.93298" lon="0.17088">
        <ele>1638</ele>
        <time>2013-03-24T09:21:00Z</time>
      </trkpt>
      <trkpt lat="42.93298" lon="0.17086">
        <ele>1639</ele>
        <time>2013-03-24T09:21:03Z</time>
      </trkpt>
      <trkpt lat="42.93298" lon="0.17084">
        <ele>1639</ele>
        <time>2013-03-24T09:21:05Z</time>
      </trkpt>
      <trkpt lat="42.93298" lon="0.17082">
        <ele>1639</ele>
        <time>2013-03-24T09:21:07Z</time>
      </trkpt>
      <trkpt lat="42.93298" lon="0.17081">
        <ele>1640</ele>
        <time>2013-03-24T09:21:09Z</time>
      </trkpt>
      <trkpt lat="42.93298" lon="0.17079">
        <ele>1640</ele>
        <time>2013-03-24T09:21:11Z</time>
      </trkpt>
      <trkpt lat="42.93298" lon="0.17077">
        <ele>1640</ele>
        <time>2013-03-24T09:21:14Z</time>
      </trkpt>
      <trkpt lat="42.93298" lon="0.17075">
        <ele>1641</ele>
        <time>2013-03-24T09:21:17Z</time>
      </trkpt>
      <trkpt lat="42.93297" lon="0.17077">
        <ele>1641</ele>
        <time>2013-03-24T09:21:35Z</time>
      </trkpt>
      <trkpt lat="42.93296" lon="0.17076">
        <ele>1641</ele>
        <time>2013-03-24T09:21:56Z</time>
      </trkpt>
      <trkpt lat="42.93296" lon="0.17074">
        <ele>1641</ele>
        <time>2013-03-24T09:22:05Z</time>
      </trkpt>
      <trkpt lat="42.93296" lon="0.17072">
        <ele>1641</ele>
        <time>2013-03-24T09:22:07Z</time>
      </trkpt>
      <trkpt lat="42.93296" lon="0.1707">
        <ele>1642</ele>
        <time>2013-03-24T09:22:15Z</time>
      </trkpt>
      <trkpt lat="42.93296" lon="0.17068">
        <ele>1642</ele>
        <time>2013-03-24T09:22:17Z</time>
      </trkpt>
      <trkpt lat="42.93296" lon="0.17066">
        <ele>1643</ele>
        <time>2013-03-24T09:22:19Z</time>
      </trkpt>
      <trkpt lat="42.93296" lon="0.17064">
        <ele>1643</ele>
        <time>2013-03-24T09:22:21Z</time>
      </trkpt>
      <trkpt lat="42.93297" lon="0.17062">
        <ele>1644</ele>
        <time>2013-03-24T09:22:23Z</time>
      </trkpt>
      <trkpt lat="42.93297" lon="0.1706">
        <ele>1644</ele>
        <time>2013-03-24T09:22:24Z</time>
      </trkpt>
      <trkpt lat="42.93297" lon="0.17059">
        <ele>1645</ele>
        <time>2013-03-24T09:22:25Z</time>
      </trkpt>
      <trkpt lat="42.93297" lon="0.17056">
        <ele>1645</ele>
        <time>2013-03-24T09:22:27Z</time>
      </trkpt>
      <trkpt lat="42.93297" lon="0.17054">
        <ele>1646</ele>
        <time>2013-03-24T09:22:28Z</time>
      </trkpt>
      <trkpt lat="42.93297" lon="0.17052">
        <ele>1647</ele>
        <time>2013-03-24T09:22:30Z</time>
      </trkpt>
      <trkpt lat="42.93297" lon="0.1705">
        <ele>1647</ele>
        <time>2013-03-24T09:22:32Z</time>
      </trkpt>
      <trkpt lat="42.93297" lon="0.17048">
        <ele>1647</ele>
        <time>2013-03-24T09:22:33Z</time>
      </trkpt>
      <trkpt lat="42.93297" lon="0.17047">
        <ele>1648</ele>
        <time>2013-03-24T09:22:34Z</time>
      </trkpt>
      <trkpt lat="42.93297" lon="0.17044">
        <ele>1648</ele>
        <time>2013-03-24T09:22:36Z</time>
      </trkpt>
      <trkpt lat="42.93298" lon="0.17042">
        <ele>1649</ele>
        <time>2013-03-24T09:22:38Z</time>
      </trkpt>
      <trkpt lat="42.93298" lon="0.17039">
        <ele>1649</ele>
        <time>2013-03-24T09:22:40Z</time>
      </trkpt>
      <trkpt lat="42.93298" lon="0.17037">
        <ele>1649</ele>
        <time>2013-03-24T09:22:42Z</time>
      </trkpt>
      <trkpt lat="42.93298" lon="0.17035">
        <ele>1650</ele>
        <time>2013-03-24T09:22:44Z</time>
      </trkpt>
      <trkpt lat="42.93298" lon="0.17033">
        <ele>1650</ele>
        <time>2013-03-24T09:22:46Z</time>
      </trkpt>
      <trkpt lat="42.93299" lon="0.17031">
        <ele>1650</ele>
        <time>2013-03-24T09:22:47Z</time>
      </trkpt>
      <trkpt lat="42.93299" lon="0.17029">
        <ele>1650</ele>
        <time>2013-03-24T09:22:49Z</time>
      </trkpt>
      <trkpt lat="42.93299" lon="0.17027">
        <ele>1650</ele>
        <time>2013-03-24T09:22:51Z</time>
      </trkpt>
      <trkpt lat="42.93299" lon="0.17025">
        <ele>1650</ele>
        <time>2013-03-24T09:22:53Z</time>
      </trkpt>
      <trkpt lat="42.933" lon="0.17023">
        <ele>1650</ele>
        <time>2013-03-24T09:22:55Z</time>
      </trkpt>
      <trkpt lat="42.933" lon="0.1702">
        <ele>1651</ele>
        <time>2013-03-24T09:22:57Z</time>
      </trkpt>
      <trkpt lat="42.933" lon="0.17018">
        <ele>1651</ele>
        <time>2013-03-24T09:22:59Z</time>
      </trkpt>
      <trkpt lat="42.933" lon="0.17016">
        <ele>1651</ele>
        <time>2013-03-24T09:23:01Z</time>
      </trkpt>
      <trkpt lat="42.933" lon="0.17014">
        <ele>1651</ele>
        <time>2013-03-24T09:23:03Z</time>
      </trkpt>
      <trkpt lat="42.933" lon="0.17012">
        <ele>1651</ele>
        <time>2013-03-24T09:23:05Z</time>
      </trkpt>
      <trkpt lat="42.933" lon="0.1701">
        <ele>1652</ele>
        <time>2013-03-24T09:23:07Z</time>
      </trkpt>
      <trkpt lat="42.933" lon="0.17008">
        <ele>1652</ele>
        <time>2013-03-24T09:23:09Z</time>
      </trkpt>
      <trkpt lat="42.93301" lon="0.17005">
        <ele>1652</ele>
        <time>2013-03-24T09:23:11Z</time>
      </trkpt>
      <trkpt lat="42.93301" lon="0.17003">
        <ele>1652</ele>
        <time>2013-03-24T09:23:13Z</time>
      </trkpt>
      <trkpt lat="42.93301" lon="0.17001">
        <ele>1652</ele>
        <time>2013-03-24T09:23:15Z</time>
      </trkpt>
      <trkpt lat="42.93301" lon="0.16999">
        <ele>1652</ele>
        <time>2013-03-24T09:23:17Z</time>
      </trkpt>
      <trkpt lat="42.93302" lon="0.16997">
        <ele>1653</ele>
        <time>2013-03-24T09:23:19Z</time>
      </trkpt>
      <trkpt lat="42.93303" lon="0.16996">
        <ele>1653</ele>
        <time>2013-03-24T09:23:21Z</time>
      </trkpt>
      <trkpt lat="42.93303" lon="0.16994">
        <ele>1654</ele>
        <time>2013-03-24T09:23:23Z</time>
      </trkpt>
      <trkpt lat="42.93302" lon="0.16994">
        <ele>1654</ele>
        <time>2013-03-24T09:23:44Z</time>
      </trkpt>
      <trkpt lat="42.93302" lon="0.16992">
        <ele>1654</ele>
        <time>2013-03-24T09:24:11Z</time>
      </trkpt>
      <trkpt lat="42.93302" lon="0.16991">
        <ele>1654</ele>
        <time>2013-03-24T09:24:14Z</time>
      </trkpt>
      <trkpt lat="42.93303" lon="0.16988">
        <ele>1654</ele>
        <time>2013-03-24T09:24:16Z</time>
      </trkpt>
      <trkpt lat="42.93303" lon="0.16986">
        <ele>1654</ele>
        <time>2013-03-24T09:24:18Z</time>
      </trkpt>
      <trkpt lat="42.93303" lon="0.16985">
        <ele>1654</ele>
        <time>2013-03-24T09:24:21Z</time>
      </trkpt>
      <trkpt lat="42.93303" lon="0.16983">
        <ele>1654</ele>
        <time>2013-03-24T09:24:23Z</time>
      </trkpt>
      <trkpt lat="42.93304" lon="0.16981">
        <ele>1654</ele>
        <time>2013-03-24T09:24:25Z</time>
      </trkpt>
      <trkpt lat="42.93304" lon="0.16978">
        <ele>1654</ele>
        <time>2013-03-24T09:24:27Z</time>
      </trkpt>
      <trkpt lat="42.93304" lon="0.16976">
        <ele>1654</ele>
        <time>2013-03-24T09:24:29Z</time>
      </trkpt>
      <trkpt lat="42.93304" lon="0.16973">
        <ele>1655</ele>
        <time>2013-03-24T09:24:31Z</time>
      </trkpt>
      <trkpt lat="42.93305" lon="0.16972">
        <ele>1655</ele>
        <time>2013-03-24T09:24:32Z</time>
      </trkpt>
      <trkpt lat="42.93305" lon="0.16971">
        <ele>1655</ele>
        <time>2013-03-24T09:24:33Z</time>
      </trkpt>
      <trkpt lat="42.93306" lon="0.16968">
        <ele>1655</ele>
        <time>2013-03-24T09:24:35Z</time>
      </trkpt>
      <trkpt lat="42.93306" lon="0.16966">
        <ele>1655</ele>
        <time>2013-03-24T09:24:37Z</time>
      </trkpt>
      <trkpt lat="42.93306" lon="0.16963">
        <ele>1655</ele>
        <time>2013-03-24T09:24:39Z</time>
      </trkpt>
      <trkpt lat="42.93307" lon="0.16961">
        <ele>1656</ele>
        <time>2013-03-24T09:24:41Z</time>
      </trkpt>
      <trkpt lat="42.93307" lon="0.16958">
        <ele>1656</ele>
        <time>2013-03-24T09:24:43Z</time>
      </trkpt>
      <trkpt lat="42.93307" lon="0.16957">
        <ele>1656</ele>
        <time>2013-03-24T09:24:44Z</time>
      </trkpt>
      <trkpt lat="42.93307" lon="0.16955">
        <ele>1657</ele>
        <time>2013-03-24T09:24:46Z</time>
      </trkpt>
      <trkpt lat="42.93307" lon="0.16953">
        <ele>1657</ele>
        <time>2013-03-24T09:24:47Z</time>
      </trkpt>
      <trkpt lat="42.93307" lon="0.16951">
        <ele>1657</ele>
        <time>2013-03-24T09:24:49Z</time>
      </trkpt>
      <trkpt lat="42.93307" lon="0.16949">
        <ele>1657</ele>
        <time>2013-03-24T09:24:50Z</time>
      </trkpt>
      <trkpt lat="42.93307" lon="0.16947">
        <ele>1658</ele>
        <time>2013-03-24T09:24:52Z</time>
      </trkpt>
      <trkpt lat="42.93307" lon="0.16944">
        <ele>1658</ele>
        <time>2013-03-24T09:24:54Z</time>
      </trkpt>
      <trkpt lat="42.93307" lon="0.16942">
        <ele>1658</ele>
        <time>2013-03-24T09:24:56Z</time>
      </trkpt>
      <trkpt lat="42.93306" lon="0.1694">
        <ele>1659</ele>
        <time>2013-03-24T09:24:58Z</time>
      </trkpt>
      <trkpt lat="42.93306" lon="0.16938">
        <ele>1659</ele>
        <time>2013-03-24T09:25:00Z</time>
      </trkpt>
      <trkpt lat="42.93306" lon="0.16936">
        <ele>1659</ele>
        <time>2013-03-24T09:25:02Z</time>
      </trkpt>
      <trkpt lat="42.93306" lon="0.16933">
        <ele>1659</ele>
        <time>2013-03-24T09:25:04Z</time>
      </trkpt>
      <trkpt lat="42.93305" lon="0.16931">
        <ele>1660</ele>
        <time>2013-03-24T09:25:06Z</time>
      </trkpt>
      <trkpt lat="42.93305" lon="0.16929">
        <ele>1660</ele>
        <time>2013-03-24T09:25:08Z</time>
      </trkpt>
      <trkpt lat="42.93305" lon="0.16927">
        <ele>1660</ele>
        <time>2013-03-24T09:25:34Z</time>
      </trkpt>
      <trkpt lat="42.93305" lon="0.16926">
        <ele>1660</ele>
        <time>2013-03-24T09:25:35Z</time>
      </trkpt>
      <trkpt lat="42.93305" lon="0.16924">
        <ele>1660</ele>
        <time>2013-03-24T09:25:36Z</time>
      </trkpt>
      <trkpt lat="42.93305" lon="0.16922">
        <ele>1660</ele>
        <time>2013-03-24T09:25:38Z</time>
      </trkpt>
      <trkpt lat="42.93305" lon="0.1692">
        <ele>1661</ele>
        <time>2013-03-24T09:25:39Z</time>
      </trkpt>
      <trkpt lat="42.93305" lon="0.16919">
        <ele>1661</ele>
        <time>2013-03-24T09:25:40Z</time>
      </trkpt>
      <trkpt lat="42.93305" lon="0.16916">
        <ele>1661</ele>
        <time>2013-03-24T09:25:42Z</time>
      </trkpt>
      <trkpt lat="42.93305" lon="0.16914">
        <ele>1661</ele>
        <time>2013-03-24T09:25:44Z</time>
      </trkpt>
      <trkpt lat="42.93305" lon="0.16912">
        <ele>1661</ele>
        <time>2013-03-24T09:25:46Z</time>
      </trkpt>
      <trkpt lat="42.93305" lon="0.16909">
        <ele>1661</ele>
        <time>2013-03-24T09:25:48Z</time>
      </trkpt>
      <trkpt lat="42.93305" lon="0.16907">
        <ele>1661</ele>
        <time>2013-03-24T09:25:49Z</time>
      </trkpt>
      <trkpt lat="42.93305" lon="0.16906">
        <ele>1662</ele>
        <time>2013-03-24T09:25:50Z</time>
      </trkpt>
      <trkpt lat="42.93305" lon="0.16904">
        <ele>1662</ele>
        <time>2013-03-24T09:25:51Z</time>
      </trkpt>
      <trkpt lat="42.93305" lon="0.16902">
        <ele>1662</ele>
        <time>2013-03-24T09:25:53Z</time>
      </trkpt>
      <trkpt lat="42.93305" lon="0.16899">
        <ele>1663</ele>
        <time>2013-03-24T09:25:55Z</time>
      </trkpt>
      <trkpt lat="42.93305" lon="0.16898">
        <ele>1663</ele>
        <time>2013-03-24T09:25:56Z</time>
      </trkpt>
      <trkpt lat="42.93306" lon="0.16895">
        <ele>1664</ele>
        <time>2013-03-24T09:25:58Z</time>
      </trkpt>
      <trkpt lat="42.93306" lon="0.16893">
        <ele>1664</ele>
        <time>2013-03-24T09:26:00Z</time>
      </trkpt>
      <trkpt lat="42.93307" lon="0.1689">
        <ele>1665</ele>
        <time>2013-03-24T09:26:02Z</time>
      </trkpt>
      <trkpt lat="42.93308" lon="0.16888">
        <ele>1665</ele>
        <time>2013-03-24T09:26:04Z</time>
      </trkpt>
      <trkpt lat="42.93309" lon="0.16886">
        <ele>1665</ele>
        <time>2013-03-24T09:26:06Z</time>
      </trkpt>
      <trkpt lat="42.93309" lon="0.16884">
        <ele>1666</ele>
        <time>2013-03-24T09:26:08Z</time>
      </trkpt>
      <trkpt lat="42.9331" lon="0.16882">
        <ele>1666</ele>
        <time>2013-03-24T09:26:10Z</time>
      </trkpt>
      <trkpt lat="42.93311" lon="0.1688">
        <ele>1667</ele>
        <time>2013-03-24T09:26:12Z</time>
      </trkpt>
      <trkpt lat="42.93312" lon="0.16878">
        <ele>1667</ele>
        <time>2013-03-24T09:26:14Z</time>
      </trkpt>
      <trkpt lat="42.93312" lon="0.16876">
        <ele>1668</ele>
        <time>2013-03-24T09:26:16Z</time>
      </trkpt>
      <trkpt lat="42.93313" lon="0.16874">
        <ele>1668</ele>
        <time>2013-03-24T09:26:18Z</time>
      </trkpt>
      <trkpt lat="42.93314" lon="0.16872">
        <ele>1668</ele>
        <time>2013-03-24T09:26:20Z</time>
      </trkpt>
      <trkpt lat="42.93315" lon="0.1687">
        <ele>1669</ele>
        <time>2013-03-24T09:26:22Z</time>
      </trkpt>
      <trkpt lat="42.93316" lon="0.16868">
        <ele>1669</ele>
        <time>2013-03-24T09:26:24Z</time>
      </trkpt>
      <trkpt lat="42.93317" lon="0.16866">
        <ele>1669</ele>
        <time>2013-03-24T09:26:26Z</time>
      </trkpt>
      <trkpt lat="42.93317" lon="0.16864">
        <ele>1670</ele>
        <time>2013-03-24T09:26:28Z</time>
      </trkpt>
      <trkpt lat="42.93318" lon="0.16862">
        <ele>1670</ele>
        <time>2013-03-24T09:26:30Z</time>
      </trkpt>
      <trkpt lat="42.93319" lon="0.1686">
        <ele>1671</ele>
        <time>2013-03-24T09:26:51Z</time>
      </trkpt>
      <trkpt lat="42.93319" lon="0.16858">
        <ele>1671</ele>
        <time>2013-03-24T09:26:52Z</time>
      </trkpt>
      <trkpt lat="42.9332" lon="0.16856">
        <ele>1671</ele>
        <time>2013-03-24T09:26:54Z</time>
      </trkpt>
      <trkpt lat="42.9332" lon="0.16854">
        <ele>1671</ele>
        <time>2013-03-24T09:26:55Z</time>
      </trkpt>
      <trkpt lat="42.93321" lon="0.16852">
        <ele>1671</ele>
        <time>2013-03-24T09:26:57Z</time>
      </trkpt>
      <trkpt lat="42.93322" lon="0.16849">
        <ele>1671</ele>
        <time>2013-03-24T09:26:59Z</time>
      </trkpt>
      <trkpt lat="42.93323" lon="0.16847">
        <ele>1671</ele>
        <time>2013-03-24T09:27:01Z</time>
      </trkpt>
      <trkpt lat="42.93323" lon="0.16845">
        <ele>1671</ele>
        <time>2013-03-24T09:27:03Z</time>
      </trkpt>
      <trkpt lat="42.93324" lon="0.16842">
        <ele>1671</ele>
        <time>2013-03-24T09:27:05Z</time>
      </trkpt>
      <trkpt lat="42.93325" lon="0.1684">
        <ele>1671</ele>
        <time>2013-03-24T09:27:07Z</time>
      </trkpt>
      <trkpt lat="42.93326" lon="0.16837">
        <ele>1671</ele>
        <time>2013-03-24T09:27:09Z</time>
      </trkpt>
      <trkpt lat="42.93327" lon="0.16835">
        <ele>1671</ele>
        <time>2013-03-24T09:27:11Z</time>
      </trkpt>
      <trkpt lat="42.93327" lon="0.16833">
        <ele>1671</ele>
        <time>2013-03-24T09:27:13Z</time>
      </trkpt>
      <trkpt lat="42.93328" lon="0.16831">
        <ele>1671</ele>
        <time>2013-03-24T09:27:14Z</time>
      </trkpt>
      <trkpt lat="42.93329" lon="0.16829">
        <ele>1671</ele>
        <time>2013-03-24T09:27:16Z</time>
      </trkpt>
      <trkpt lat="42.9333" lon="0.16827">
        <ele>1671</ele>
        <time>2013-03-24T09:27:18Z</time>
      </trkpt>
      <trkpt lat="42.93331" lon="0.16825">
        <ele>1671</ele>
        <time>2013-03-24T09:27:20Z</time>
      </trkpt>
      <trkpt lat="42.93332" lon="0.16822">
        <ele>1671</ele>
        <time>2013-03-24T09:27:23Z</time>
      </trkpt>
      <trkpt lat="42.93333" lon="0.1682">
        <ele>1671</ele>
        <time>2013-03-24T09:27:25Z</time>
      </trkpt>
      <trkpt lat="42.93334" lon="0.16817">
        <ele>1671</ele>
        <time>2013-03-24T09:27:27Z</time>
      </trkpt>
      <trkpt lat="42.93334" lon="0.16816">
        <ele>1671</ele>
        <time>2013-03-24T09:27:28Z</time>
      </trkpt>
      <trkpt lat="42.93335" lon="0.16814">
        <ele>1671</ele>
        <time>2013-03-24T09:27:29Z</time>
      </trkpt>
      <trkpt lat="42.93337" lon="0.16812">
        <ele>1671</ele>
        <time>2013-03-24T09:27:31Z</time>
      </trkpt>
      <trkpt lat="42.93337" lon="0.16811">
        <ele>1671</ele>
        <time>2013-03-24T09:27:32Z</time>
      </trkpt>
      <trkpt lat="42.93338" lon="0.16808">
        <ele>1671</ele>
        <time>2013-03-24T09:27:34Z</time>
      </trkpt>
      <trkpt lat="42.93339" lon="0.16806">
        <ele>1671</ele>
        <time>2013-03-24T09:27:36Z</time>
      </trkpt>
      <trkpt lat="42.9334" lon="0.16804">
        <ele>1671</ele>
        <time>2013-03-24T09:27:37Z</time>
      </trkpt>
      <trkpt lat="42.93341" lon="0.16802">
        <ele>1671</ele>
        <time>2013-03-24T09:27:39Z</time>
      </trkpt>
      <trkpt lat="42.93342" lon="0.168">
        <ele>1671</ele>
        <time>2013-03-24T09:27:41Z</time>
      </trkpt>
      <trkpt lat="42.93343" lon="0.16797">
        <ele>1671</ele>
        <time>2013-03-24T09:27:43Z</time>
      </trkpt>
      <trkpt lat="42.93344" lon="0.16794">
        <ele>1671</ele>
        <time>2013-03-24T09:27:45Z</time>
      </trkpt>
      <trkpt lat="42.93345" lon="0.16792">
        <ele>1671</ele>
        <time>2013-03-24T09:27:47Z</time>
      </trkpt>
      <trkpt lat="42.93345" lon="0.1679">
        <ele>1671</ele>
        <time>2013-03-24T09:27:48Z</time>
      </trkpt>
      <trkpt lat="42.93346" lon="0.16788">
        <ele>1671</ele>
        <time>2013-03-24T09:27:50Z</time>
      </trkpt>
      <trkpt lat="42.93347" lon="0.16785">
        <ele>1671</ele>
        <time>2013-03-24T09:27:52Z</time>
      </trkpt>
      <trkpt lat="42.93347" lon="0.16784">
        <ele>1671</ele>
        <time>2013-03-24T09:27:53Z</time>
      </trkpt>
      <trkpt lat="42.93348" lon="0.16781">
        <ele>1671</ele>
        <time>2013-03-24T09:27:55Z</time>
      </trkpt>
      <trkpt lat="42.93349" lon="0.16779">
        <ele>1671</ele>
        <time>2013-03-24T09:27:57Z</time>
      </trkpt>
      <trkpt lat="42.93349" lon="0.16776">
        <ele>1671</ele>
        <time>2013-03-24T09:27:59Z</time>
      </trkpt>
      <trkpt lat="42.9335" lon="0.16774">
        <ele>1671</ele>
        <time>2013-03-24T09:28:01Z</time>
      </trkpt>
      <trkpt lat="42.9335" lon="0.16771">
        <ele>1671</ele>
        <time>2013-03-24T09:28:03Z</time>
      </trkpt>
      <trkpt lat="42.93351" lon="0.16769">
        <ele>1671</ele>
        <time>2013-03-24T09:28:05Z</time>
      </trkpt>
      <trkpt lat="42.93352" lon="0.16767">
        <ele>1672</ele>
        <time>2013-03-24T09:28:07Z</time>
      </trkpt>
      <trkpt lat="42.93352" lon="0.16765">
        <ele>1672</ele>
        <time>2013-03-24T09:28:09Z</time>
      </trkpt>
      <trkpt lat="42.93353" lon="0.16762">
        <ele>1672</ele>
        <time>2013-03-24T09:28:11Z</time>
      </trkpt>
      <trkpt lat="42.93354" lon="0.1676">
        <ele>1672</ele>
        <time>2013-03-24T09:28:13Z</time>
      </trkpt>
      <trkpt lat="42.93355" lon="0.16758">
        <ele>1673</ele>
        <time>2013-03-24T09:28:15Z</time>
      </trkpt>
      <trkpt lat="42.93355" lon="0.16756">
        <ele>1673</ele>
        <time>2013-03-24T09:28:16Z</time>
      </trkpt>
      <trkpt lat="42.93355" lon="0.16755">
        <ele>1673</ele>
        <time>2013-03-24T09:28:17Z</time>
      </trkpt>
      <trkpt lat="42.93356" lon="0.16752">
        <ele>1673</ele>
        <time>2013-03-24T09:28:19Z</time>
      </trkpt>
      <trkpt lat="42.93357" lon="0.1675">
        <ele>1673</ele>
        <time>2013-03-24T09:28:21Z</time>
      </trkpt>
      <trkpt lat="42.93357" lon="0.16748">
        <ele>1673</ele>
        <time>2013-03-24T09:28:23Z</time>
      </trkpt>
      <trkpt lat="42.93358" lon="0.16746">
        <ele>1673</ele>
        <time>2013-03-24T09:28:25Z</time>
      </trkpt>
      <trkpt lat="42.93359" lon="0.16744">
        <ele>1673</ele>
        <time>2013-03-24T09:28:27Z</time>
      </trkpt>
      <trkpt lat="42.9336" lon="0.16741">
        <ele>1673</ele>
        <time>2013-03-24T09:28:29Z</time>
      </trkpt>
      <trkpt lat="42.93361" lon="0.16739">
        <ele>1673</ele>
        <time>2013-03-24T09:28:31Z</time>
      </trkpt>
      <trkpt lat="42.93361" lon="0.16736">
        <ele>1673</ele>
        <time>2013-03-24T09:28:33Z</time>
      </trkpt>
      <trkpt lat="42.93362" lon="0.16734">
        <ele>1673</ele>
        <time>2013-03-24T09:28:35Z</time>
      </trkpt>
      <trkpt lat="42.93362" lon="0.16732">
        <ele>1673</ele>
        <time>2013-03-24T09:28:37Z</time>
      </trkpt>
      <trkpt lat="42.93364" lon="0.16729">
        <ele>1673</ele>
        <time>2013-03-24T09:28:39Z</time>
      </trkpt>
      <trkpt lat="42.93364" lon="0.16727">
        <ele>1673</ele>
        <time>2013-03-24T09:28:41Z</time>
      </trkpt>
      <trkpt lat="42.93365" lon="0.16725">
        <ele>1673</ele>
        <time>2013-03-24T09:28:43Z</time>
      </trkpt>
      <trkpt lat="42.93365" lon="0.16723">
        <ele>1673</ele>
        <time>2013-03-24T09:28:44Z</time>
      </trkpt>
      <trkpt lat="42.93366" lon="0.16721">
        <ele>1673</ele>
        <time>2013-03-24T09:28:46Z</time>
      </trkpt>
      <trkpt lat="42.93367" lon="0.16719">
        <ele>1673</ele>
        <time>2013-03-24T09:28:48Z</time>
      </trkpt>
      <trkpt lat="42.93367" lon="0.16717">
        <ele>1673</ele>
        <time>2013-03-24T09:28:49Z</time>
      </trkpt>
      <trkpt lat="42.93367" lon="0.16715">
        <ele>1673</ele>
        <time>2013-03-24T09:28:51Z</time>
      </trkpt>
      <trkpt lat="42.93367" lon="0.16714">
        <ele>1673</ele>
        <time>2013-03-24T09:28:52Z</time>
      </trkpt>
      <trkpt lat="42.93367" lon="0.16712">
        <ele>1673</ele>
        <time>2013-03-24T09:28:54Z</time>
      </trkpt>
      <trkpt lat="42.93369" lon="0.1671">
        <ele>1673</ele>
        <time>2013-03-24T09:28:56Z</time>
      </trkpt>
      <trkpt lat="42.93369" lon="0.16708">
        <ele>1673</ele>
        <time>2013-03-24T09:28:58Z</time>
      </trkpt>
      <trkpt lat="42.9337" lon="0.16705">
        <ele>1673</ele>
        <time>2013-03-24T09:29:00Z</time>
      </trkpt>
      <trkpt lat="42.9337" lon="0.16703">
        <ele>1674</ele>
        <time>2013-03-24T09:29:02Z</time>
      </trkpt>
      <trkpt lat="42.93371" lon="0.16701">
        <ele>1674</ele>
        <time>2013-03-24T09:29:04Z</time>
      </trkpt>
      <trkpt lat="42.93372" lon="0.16699">
        <ele>1674</ele>
        <time>2013-03-24T09:29:06Z</time>
      </trkpt>
      <trkpt lat="42.93373" lon="0.16697">
        <ele>1674</ele>
        <time>2013-03-24T09:29:08Z</time>
      </trkpt>
      <trkpt lat="42.93374" lon="0.16695">
        <ele>1675</ele>
        <time>2013-03-24T09:29:10Z</time>
      </trkpt>
      <trkpt lat="42.93375" lon="0.16693">
        <ele>1675</ele>
        <time>2013-03-24T09:29:12Z</time>
      </trkpt>
      <trkpt lat="42.93375" lon="0.16691">
        <ele>1675</ele>
        <time>2013-03-24T09:29:14Z</time>
      </trkpt>
      <trkpt lat="42.93376" lon="0.1669">
        <ele>1676</ele>
        <time>2013-03-24T09:29:16Z</time>
      </trkpt>
      <trkpt lat="42.93377" lon="0.16688">
        <ele>1676</ele>
        <time>2013-03-24T09:29:18Z</time>
      </trkpt>
      <trkpt lat="42.93378" lon="0.16687">
        <ele>1676</ele>
        <time>2013-03-24T09:29:20Z</time>
      </trkpt>
      <trkpt lat="42.93379" lon="0.16685">
        <ele>1677</ele>
        <time>2013-03-24T09:29:22Z</time>
      </trkpt>
      <trkpt lat="42.9338" lon="0.16684">
        <ele>1677</ele>
        <time>2013-03-24T09:29:24Z</time>
      </trkpt>
      <trkpt lat="42.93381" lon="0.16682">
        <ele>1678</ele>
        <time>2013-03-24T09:29:26Z</time>
      </trkpt>
      <trkpt lat="42.93382" lon="0.1668">
        <ele>1678</ele>
        <time>2013-03-24T09:29:28Z</time>
      </trkpt>
      <trkpt lat="42.93383" lon="0.16678">
        <ele>1678</ele>
        <time>2013-03-24T09:29:30Z</time>
      </trkpt>
      <trkpt lat="42.93383" lon="0.16677">
        <ele>1679</ele>
        <time>2013-03-24T09:29:32Z</time>
      </trkpt>
      <trkpt lat="42.93383" lon="0.16675">
        <ele>1679</ele>
        <time>2013-03-24T09:29:35Z</time>
      </trkpt>
      <trkpt lat="42.93384" lon="0.16673">
        <ele>1680</ele>
        <time>2013-03-24T09:29:38Z</time>
      </trkpt>
      <trkpt lat="42.93386" lon="0.16672">
        <ele>1681</ele>
        <time>2013-03-24T09:29:41Z</time>
      </trkpt>
      <trkpt lat="42.93387" lon="0.16671">
        <ele>1682</ele>
        <time>2013-03-24T09:29:43Z</time>
      </trkpt>
      <trkpt lat="42.93388" lon="0.1667">
        <ele>1682</ele>
        <time>2013-03-24T09:29:45Z</time>
      </trkpt>
      <trkpt lat="42.93389" lon="0.16668">
        <ele>1683</ele>
        <time>2013-03-24T09:29:47Z</time>
      </trkpt>
      <trkpt lat="42.9339" lon="0.16666">
        <ele>1683</ele>
        <time>2013-03-24T09:29:49Z</time>
      </trkpt>
      <trkpt lat="42.93391" lon="0.16664">
        <ele>1683</ele>
        <time>2013-03-24T09:29:51Z</time>
      </trkpt>
      <trkpt lat="42.93391" lon="0.16662">
        <ele>1683</ele>
        <time>2013-03-24T09:29:53Z</time>
      </trkpt>
      <trkpt lat="42.93393" lon="0.1666">
        <ele>1683</ele>
        <time>2013-03-24T09:29:55Z</time>
      </trkpt>
      <trkpt lat="42.93393" lon="0.16658">
        <ele>1684</ele>
        <time>2013-03-24T09:29:57Z</time>
      </trkpt>
      <trkpt lat="42.93394" lon="0.16656">
        <ele>1684</ele>
        <time>2013-03-24T09:29:59Z</time>
      </trkpt>
      <trkpt lat="42.93396" lon="0.16654">
        <ele>1684</ele>
        <time>2013-03-24T09:30:01Z</time>
      </trkpt>
      <trkpt lat="42.93397" lon="0.16653">
        <ele>1685</ele>
        <time>2013-03-24T09:30:12Z</time>
      </trkpt>
      <trkpt lat="42.93398" lon="0.16651">
        <ele>1685</ele>
        <time>2013-03-24T09:30:15Z</time>
      </trkpt>
      <trkpt lat="42.93399" lon="0.16649">
        <ele>1685</ele>
        <time>2013-03-24T09:30:17Z</time>
      </trkpt>
      <trkpt lat="42.934" lon="0.16648">
        <ele>1685</ele>
        <time>2013-03-24T09:30:19Z</time>
      </trkpt>
      <trkpt lat="42.93401" lon="0.16646">
        <ele>1686</ele>
        <time>2013-03-24T09:30:21Z</time>
      </trkpt>
      <trkpt lat="42.93401" lon="0.16643">
        <ele>1686</ele>
        <time>2013-03-24T09:30:23Z</time>
      </trkpt>
      <trkpt lat="42.93402" lon="0.16642">
        <ele>1686</ele>
        <time>2013-03-24T09:30:25Z</time>
      </trkpt>
      <trkpt lat="42.93403" lon="0.1664">
        <ele>1686</ele>
        <time>2013-03-24T09:30:27Z</time>
      </trkpt>
      <trkpt lat="42.93404" lon="0.16638">
        <ele>1687</ele>
        <time>2013-03-24T09:30:29Z</time>
      </trkpt>
      <trkpt lat="42.93405" lon="0.16636">
        <ele>1687</ele>
        <time>2013-03-24T09:30:31Z</time>
      </trkpt>
      <trkpt lat="42.93406" lon="0.16634">
        <ele>1687</ele>
        <time>2013-03-24T09:30:33Z</time>
      </trkpt>
      <trkpt lat="42.93407" lon="0.16632">
        <ele>1688</ele>
        <time>2013-03-24T09:30:35Z</time>
      </trkpt>
      <trkpt lat="42.93408" lon="0.16629">
        <ele>1688</ele>
        <time>2013-03-24T09:30:37Z</time>
      </trkpt>
      <trkpt lat="42.93409" lon="0.16627">
        <ele>1688</ele>
        <time>2013-03-24T09:30:39Z</time>
      </trkpt>
      <trkpt lat="42.9341" lon="0.16625">
        <ele>1688</ele>
        <time>2013-03-24T09:30:41Z</time>
      </trkpt>
      <trkpt lat="42.93411" lon="0.16623">
        <ele>1688</ele>
        <time>2013-03-24T09:30:43Z</time>
      </trkpt>
      <trkpt lat="42.93412" lon="0.16621">
        <ele>1688</ele>
        <time>2013-03-24T09:30:45Z</time>
      </trkpt>
      <trkpt lat="42.93413" lon="0.16619">
        <ele>1688</ele>
        <time>2013-03-24T09:30:47Z</time>
      </trkpt>
      <trkpt lat="42.93413" lon="0.16617">
        <ele>1688</ele>
        <time>2013-03-24T09:30:48Z</time>
      </trkpt>
      <trkpt lat="42.93415" lon="0.16615">
        <ele>1688</ele>
        <time>2013-03-24T09:30:50Z</time>
      </trkpt>
      <trkpt lat="42.93416" lon="0.16613">
        <ele>1688</ele>
        <time>2013-03-24T09:30:52Z</time>
      </trkpt>
      <trkpt lat="42.93417" lon="0.16612">
        <ele>1688</ele>
        <time>2013-03-24T09:30:54Z</time>
      </trkpt>
      <trkpt lat="42.93418" lon="0.16611">
        <ele>1688</ele>
        <time>2013-03-24T09:30:56Z</time>
      </trkpt>
      <trkpt lat="42.9342" lon="0.1661">
        <ele>1689</ele>
        <time>2013-03-24T09:30:58Z</time>
      </trkpt>
      <trkpt lat="42.93421" lon="0.16608">
        <ele>1689</ele>
        <time>2013-03-24T09:31:01Z</time>
      </trkpt>
      <trkpt lat="42.93422" lon="0.16607">
        <ele>1689</ele>
        <time>2013-03-24T09:31:03Z</time>
      </trkpt>
      <trkpt lat="42.93423" lon="0.16605">
        <ele>1689</ele>
        <time>2013-03-24T09:31:05Z</time>
      </trkpt>
      <trkpt lat="42.93425" lon="0.16603">
        <ele>1689</ele>
        <time>2013-03-24T09:31:08Z</time>
      </trkpt>
      <trkpt lat="42.93426" lon="0.16602">
        <ele>1689</ele>
        <time>2013-03-24T09:31:10Z</time>
      </trkpt>
      <trkpt lat="42.93427" lon="0.16602">
        <ele>1690</ele>
        <time>2013-03-24T09:31:15Z</time>
      </trkpt>
      <trkpt lat="42.93429" lon="0.166">
        <ele>1690</ele>
        <time>2013-03-24T09:31:18Z</time>
      </trkpt>
      <trkpt lat="42.9343" lon="0.16599">
        <ele>1690</ele>
        <time>2013-03-24T09:31:20Z</time>
      </trkpt>
      <trkpt lat="42.93432" lon="0.16598">
        <ele>1690</ele>
        <time>2013-03-24T09:31:23Z</time>
      </trkpt>
      <trkpt lat="42.93433" lon="0.16597">
        <ele>1691</ele>
        <time>2013-03-24T09:31:26Z</time>
      </trkpt>
      <trkpt lat="42.93435" lon="0.16595">
        <ele>1692</ele>
        <time>2013-03-24T09:31:29Z</time>
      </trkpt>
      <trkpt lat="42.93436" lon="0.16594">
        <ele>1692</ele>
        <time>2013-03-24T09:31:32Z</time>
      </trkpt>
      <trkpt lat="42.93437" lon="0.16593">
        <ele>1693</ele>
        <time>2013-03-24T09:31:35Z</time>
      </trkpt>
      <trkpt lat="42.93438" lon="0.16593">
        <ele>1693</ele>
        <time>2013-03-24T09:31:37Z</time>
      </trkpt>
      <trkpt lat="42.93439" lon="0.16591">
        <ele>1694</ele>
        <time>2013-03-24T09:31:40Z</time>
      </trkpt>
      <trkpt lat="42.9344" lon="0.16589">
        <ele>1695</ele>
        <time>2013-03-24T09:31:43Z</time>
      </trkpt>
      <trkpt lat="42.93442" lon="0.16587">
        <ele>1695</ele>
        <time>2013-03-24T09:31:46Z</time>
      </trkpt>
      <trkpt lat="42.93443" lon="0.16585">
        <ele>1696</ele>
        <time>2013-03-24T09:31:49Z</time>
      </trkpt>
      <trkpt lat="42.93444" lon="0.16583">
        <ele>1697</ele>
        <time>2013-03-24T09:32:12Z</time>
      </trkpt>
      <trkpt lat="42.93446" lon="0.16582">
        <ele>1697</ele>
        <time>2013-03-24T09:32:15Z</time>
      </trkpt>
      <trkpt lat="42.93447" lon="0.1658">
        <ele>1698</ele>
        <time>2013-03-24T09:32:18Z</time>
      </trkpt>
      <trkpt lat="42.93448" lon="0.16578">
        <ele>1698</ele>
        <time>2013-03-24T09:32:21Z</time>
      </trkpt>
      <trkpt lat="42.9345" lon="0.16577">
        <ele>1698</ele>
        <time>2013-03-24T09:32:23Z</time>
      </trkpt>
      <trkpt lat="42.93451" lon="0.16576">
        <ele>1699</ele>
        <time>2013-03-24T09:32:25Z</time>
      </trkpt>
      <trkpt lat="42.93452" lon="0.16575">
        <ele>1699</ele>
        <time>2013-03-24T09:32:27Z</time>
      </trkpt>
      <trkpt lat="42.93453" lon="0.16574">
        <ele>1699</ele>
        <time>2013-03-24T09:32:29Z</time>
      </trkpt>
      <trkpt lat="42.93455" lon="0.16572">
        <ele>1700</ele>
        <time>2013-03-24T09:32:32Z</time>
      </trkpt>
      <trkpt lat="42.93456" lon="0.1657">
        <ele>1701</ele>
        <time>2013-03-24T09:32:35Z</time>
      </trkpt>
      <trkpt lat="42.93457" lon="0.16568">
        <ele>1701</ele>
        <time>2013-03-24T09:32:37Z</time>
      </trkpt>
      <trkpt lat="42.93459" lon="0.16567">
        <ele>1702</ele>
        <time>2013-03-24T09:32:39Z</time>
      </trkpt>
      <trkpt lat="42.9346" lon="0.16566">
        <ele>1702</ele>
        <time>2013-03-24T09:32:41Z</time>
      </trkpt>
      <trkpt lat="42.93461" lon="0.16564">
        <ele>1703</ele>
        <time>2013-03-24T09:32:43Z</time>
      </trkpt>
      <trkpt lat="42.93462" lon="0.16562">
        <ele>1703</ele>
        <time>2013-03-24T09:32:45Z</time>
      </trkpt>
      <trkpt lat="42.93463" lon="0.16562">
        <ele>1704</ele>
        <time>2013-03-24T09:32:47Z</time>
      </trkpt>
      <trkpt lat="42.93465" lon="0.1656">
        <ele>1705</ele>
        <time>2013-03-24T09:33:06Z</time>
      </trkpt>
      <trkpt lat="42.93466" lon="0.16559">
        <ele>1705</ele>
        <time>2013-03-24T09:33:08Z</time>
      </trkpt>
      <trkpt lat="42.93467" lon="0.16557">
        <ele>1706</ele>
        <time>2013-03-24T09:33:11Z</time>
      </trkpt>
      <trkpt lat="42.93469" lon="0.16557">
        <ele>1706</ele>
        <time>2013-03-24T09:33:13Z</time>
      </trkpt>
      <trkpt lat="42.9347" lon="0.16556">
        <ele>1707</ele>
        <time>2013-03-24T09:33:15Z</time>
      </trkpt>
      <trkpt lat="42.93471" lon="0.16555">
        <ele>1707</ele>
        <time>2013-03-24T09:33:17Z</time>
      </trkpt>
      <trkpt lat="42.93473" lon="0.16554">
        <ele>1707</ele>
        <time>2013-03-24T09:33:19Z</time>
      </trkpt>
      <trkpt lat="42.93474" lon="0.16553">
        <ele>1708</ele>
        <time>2013-03-24T09:33:21Z</time>
      </trkpt>
      <trkpt lat="42.93475" lon="0.16551">
        <ele>1708</ele>
        <time>2013-03-24T09:33:23Z</time>
      </trkpt>
      <trkpt lat="42.93477" lon="0.1655">
        <ele>1708</ele>
        <time>2013-03-24T09:33:25Z</time>
      </trkpt>
      <trkpt lat="42.93478" lon="0.16548">
        <ele>1708</ele>
        <time>2013-03-24T09:33:27Z</time>
      </trkpt>
      <trkpt lat="42.93479" lon="0.16547">
        <ele>1708</ele>
        <time>2013-03-24T09:33:29Z</time>
      </trkpt>
      <trkpt lat="42.9348" lon="0.16545">
        <ele>1708</ele>
        <time>2013-03-24T09:33:31Z</time>
      </trkpt>
      <trkpt lat="42.93482" lon="0.16544">
        <ele>1709</ele>
        <time>2013-03-24T09:33:34Z</time>
      </trkpt>
      <trkpt lat="42.93483" lon="0.16542">
        <ele>1709</ele>
        <time>2013-03-24T09:33:36Z</time>
      </trkpt>
      <trkpt lat="42.93485" lon="0.1654">
        <ele>1709</ele>
        <time>2013-03-24T09:33:39Z</time>
      </trkpt>
      <trkpt lat="42.93486" lon="0.16539">
        <ele>1710</ele>
        <time>2013-03-24T09:33:41Z</time>
      </trkpt>
      <trkpt lat="42.93488" lon="0.16537">
        <ele>1710</ele>
        <time>2013-03-24T09:33:44Z</time>
      </trkpt>
      <trkpt lat="42.93489" lon="0.16536">
        <ele>1710</ele>
        <time>2013-03-24T09:33:46Z</time>
      </trkpt>
      <trkpt lat="42.93491" lon="0.16536">
        <ele>1710</ele>
        <time>2013-03-24T09:33:48Z</time>
      </trkpt>
      <trkpt lat="42.93492" lon="0.16534">
        <ele>1711</ele>
        <time>2013-03-24T09:33:52Z</time>
      </trkpt>
      <trkpt lat="42.93494" lon="0.16532">
        <ele>1711</ele>
        <time>2013-03-24T09:33:54Z</time>
      </trkpt>
      <trkpt lat="42.93495" lon="0.16531">
        <ele>1711</ele>
        <time>2013-03-24T09:33:56Z</time>
      </trkpt>
      <trkpt lat="42.93496" lon="0.1653">
        <ele>1711</ele>
        <time>2013-03-24T09:33:58Z</time>
      </trkpt>
      <trkpt lat="42.93498" lon="0.16529">
        <ele>1712</ele>
        <time>2013-03-24T09:34:03Z</time>
      </trkpt>
      <trkpt lat="42.93499" lon="0.16529">
        <ele>1713</ele>
        <time>2013-03-24T09:34:16Z</time>
      </trkpt>
      <trkpt lat="42.935" lon="0.16527">
        <ele>1713</ele>
        <time>2013-03-24T09:34:18Z</time>
      </trkpt>
      <trkpt lat="42.93502" lon="0.16525">
        <ele>1713</ele>
        <time>2013-03-24T09:34:20Z</time>
      </trkpt>
      <trkpt lat="42.93503" lon="0.16523">
        <ele>1713</ele>
        <time>2013-03-24T09:34:22Z</time>
      </trkpt>
      <trkpt lat="42.93504" lon="0.16522">
        <ele>1713</ele>
        <time>2013-03-24T09:34:24Z</time>
      </trkpt>
      <trkpt lat="42.93505" lon="0.1652">
        <ele>1713</ele>
        <time>2013-03-24T09:34:26Z</time>
      </trkpt>
      <trkpt lat="42.93507" lon="0.16519">
        <ele>1713</ele>
        <time>2013-03-24T09:34:28Z</time>
      </trkpt>
      <trkpt lat="42.93509" lon="0.16517">
        <ele>1713</ele>
        <time>2013-03-24T09:34:30Z</time>
      </trkpt>
      <trkpt lat="42.9351" lon="0.16516">
        <ele>1713</ele>
        <time>2013-03-24T09:34:32Z</time>
      </trkpt>
      <trkpt lat="42.93511" lon="0.16514">
        <ele>1713</ele>
        <time>2013-03-24T09:34:34Z</time>
      </trkpt>
      <trkpt lat="42.93512" lon="0.16513">
        <ele>1714</ele>
        <time>2013-03-24T09:34:36Z</time>
      </trkpt>
      <trkpt lat="42.93514" lon="0.16511">
        <ele>1714</ele>
        <time>2013-03-24T09:34:38Z</time>
      </trkpt>
      <trkpt lat="42.93515" lon="0.16509">
        <ele>1714</ele>
        <time>2013-03-24T09:34:40Z</time>
      </trkpt>
      <trkpt lat="42.93517" lon="0.16507">
        <ele>1715</ele>
        <time>2013-03-24T09:34:42Z</time>
      </trkpt>
      <trkpt lat="42.93518" lon="0.16506">
        <ele>1715</ele>
        <time>2013-03-24T09:34:44Z</time>
      </trkpt>
      <trkpt lat="42.9352" lon="0.16504">
        <ele>1716</ele>
        <time>2013-03-24T09:34:46Z</time>
      </trkpt>
      <trkpt lat="42.93521" lon="0.16503">
        <ele>1716</ele>
        <time>2013-03-24T09:34:48Z</time>
      </trkpt>
      <trkpt lat="42.93522" lon="0.16501">
        <ele>1717</ele>
        <time>2013-03-24T09:34:50Z</time>
      </trkpt>
      <trkpt lat="42.93523" lon="0.16499">
        <ele>1717</ele>
        <time>2013-03-24T09:34:52Z</time>
      </trkpt>
      <trkpt lat="42.93525" lon="0.16498">
        <ele>1718</ele>
        <time>2013-03-24T09:34:55Z</time>
      </trkpt>
      <trkpt lat="42.93526" lon="0.16496">
        <ele>1718</ele>
        <time>2013-03-24T09:34:57Z</time>
      </trkpt>
      <trkpt lat="42.93527" lon="0.16495">
        <ele>1718</ele>
        <time>2013-03-24T09:34:59Z</time>
      </trkpt>
      <trkpt lat="42.93528" lon="0.16493">
        <ele>1719</ele>
        <time>2013-03-24T09:35:01Z</time>
      </trkpt>
      <trkpt lat="42.93529" lon="0.16491">
        <ele>1719</ele>
        <time>2013-03-24T09:35:03Z</time>
      </trkpt>
      <trkpt lat="42.93531" lon="0.1649">
        <ele>1719</ele>
        <time>2013-03-24T09:35:05Z</time>
      </trkpt>
      <trkpt lat="42.93532" lon="0.16488">
        <ele>1719</ele>
        <time>2013-03-24T09:35:07Z</time>
      </trkpt>
      <trkpt lat="42.93533" lon="0.16487">
        <ele>1719</ele>
        <time>2013-03-24T09:35:09Z</time>
      </trkpt>
      <trkpt lat="42.93533" lon="0.16485">
        <ele>1719</ele>
        <time>2013-03-24T09:35:11Z</time>
      </trkpt>
      <trkpt lat="42.93535" lon="0.16484">
        <ele>1719</ele>
        <time>2013-03-24T09:35:13Z</time>
      </trkpt>
      <trkpt lat="42.93536" lon="0.16482">
        <ele>1719</ele>
        <time>2013-03-24T09:35:15Z</time>
      </trkpt>
      <trkpt lat="42.93538" lon="0.1648">
        <ele>1719</ele>
        <time>2013-03-24T09:35:18Z</time>
      </trkpt>
      <trkpt lat="42.93539" lon="0.16479">
        <ele>1719</ele>
        <time>2013-03-24T09:35:20Z</time>
      </trkpt>
      <trkpt lat="42.9354" lon="0.16477">
        <ele>1719</ele>
        <time>2013-03-24T09:35:23Z</time>
      </trkpt>
      <trkpt lat="42.93541" lon="0.16476">
        <ele>1719</ele>
        <time>2013-03-24T09:35:25Z</time>
      </trkpt>
      <trkpt lat="42.93543" lon="0.16474">
        <ele>1720</ele>
        <time>2013-03-24T09:35:28Z</time>
      </trkpt>
      <trkpt lat="42.93544" lon="0.16472">
        <ele>1720</ele>
        <time>2013-03-24T09:35:30Z</time>
      </trkpt>
      <trkpt lat="42.93545" lon="0.1647">
        <ele>1721</ele>
        <time>2013-03-24T09:35:32Z</time>
      </trkpt>
      <trkpt lat="42.93546" lon="0.16468">
        <ele>1721</ele>
        <time>2013-03-24T09:35:34Z</time>
      </trkpt>
      <trkpt lat="42.93547" lon="0.16466">
        <ele>1721</ele>
        <time>2013-03-24T09:35:36Z</time>
      </trkpt>
      <trkpt lat="42.93548" lon="0.16465">
        <ele>1721</ele>
        <time>2013-03-24T09:35:38Z</time>
      </trkpt>
      <trkpt lat="42.93549" lon="0.16463">
        <ele>1722</ele>
        <time>2013-03-24T09:35:40Z</time>
      </trkpt>
      <trkpt lat="42.9355" lon="0.16461">
        <ele>1722</ele>
        <time>2013-03-24T09:35:42Z</time>
      </trkpt>
      <trkpt lat="42.93552" lon="0.16459">
        <ele>1722</ele>
        <time>2013-03-24T09:35:44Z</time>
      </trkpt>
      <trkpt lat="42.93553" lon="0.16458">
        <ele>1722</ele>
        <time>2013-03-24T09:35:46Z</time>
      </trkpt>
      <trkpt lat="42.93554" lon="0.16456">
        <ele>1722</ele>
        <time>2013-03-24T09:35:48Z</time>
      </trkpt>
      <trkpt lat="42.93555" lon="0.16454">
        <ele>1722</ele>
        <time>2013-03-24T09:35:50Z</time>
      </trkpt>
      <trkpt lat="42.93557" lon="0.16452">
        <ele>1722</ele>
        <time>2013-03-24T09:35:52Z</time>
      </trkpt>
      <trkpt lat="42.93558" lon="0.1645">
        <ele>1722</ele>
        <time>2013-03-24T09:35:54Z</time>
      </trkpt>
      <trkpt lat="42.93559" lon="0.16448">
        <ele>1722</ele>
        <time>2013-03-24T09:35:56Z</time>
      </trkpt>
      <trkpt lat="42.9356" lon="0.16446">
        <ele>1723</ele>
        <time>2013-03-24T09:35:58Z</time>
      </trkpt>
      <trkpt lat="42.9356" lon="0.16444">
        <ele>1723</ele>
        <time>2013-03-24T09:36:00Z</time>
      </trkpt>
      <trkpt lat="42.93561" lon="0.16442">
        <ele>1723</ele>
        <time>2013-03-24T09:36:02Z</time>
      </trkpt>
      <trkpt lat="42.93562" lon="0.1644">
        <ele>1723</ele>
        <time>2013-03-24T09:36:04Z</time>
      </trkpt>
      <trkpt lat="42.93563" lon="0.16438">
        <ele>1723</ele>
        <time>2013-03-24T09:36:06Z</time>
      </trkpt>
      <trkpt lat="42.93563" lon="0.16436">
        <ele>1723</ele>
        <time>2013-03-24T09:36:08Z</time>
      </trkpt>
      <trkpt lat="42.93564" lon="0.16434">
        <ele>1723</ele>
        <time>2013-03-24T09:36:10Z</time>
      </trkpt>
      <trkpt lat="42.93565" lon="0.16432">
        <ele>1723</ele>
        <time>2013-03-24T09:36:12Z</time>
      </trkpt>
      <trkpt lat="42.93565" lon="0.1643">
        <ele>1723</ele>
        <time>2013-03-24T09:36:14Z</time>
      </trkpt>
      <trkpt lat="42.93566" lon="0.16428">
        <ele>1723</ele>
        <time>2013-03-24T09:36:16Z</time>
      </trkpt>
      <trkpt lat="42.93567" lon="0.16426">
        <ele>1723</ele>
        <time>2013-03-24T09:36:18Z</time>
      </trkpt>
      <trkpt lat="42.93568" lon="0.16424">
        <ele>1723</ele>
        <time>2013-03-24T09:36:20Z</time>
      </trkpt>
      <trkpt lat="42.93568" lon="0.16422">
        <ele>1724</ele>
        <time>2013-03-24T09:36:22Z</time>
      </trkpt>
      <trkpt lat="42.93569" lon="0.1642">
        <ele>1724</ele>
        <time>2013-03-24T09:36:24Z</time>
      </trkpt>
      <trkpt lat="42.9357" lon="0.16418">
        <ele>1724</ele>
        <time>2013-03-24T09:36:26Z</time>
      </trkpt>
      <trkpt lat="42.9357" lon="0.16416">
        <ele>1724</ele>
        <time>2013-03-24T09:36:28Z</time>
      </trkpt>
      <trkpt lat="42.93571" lon="0.16413">
        <ele>1724</ele>
        <time>2013-03-24T09:36:30Z</time>
      </trkpt>
      <trkpt lat="42.93571" lon="0.16411">
        <ele>1725</ele>
        <time>2013-03-24T09:36:32Z</time>
      </trkpt>
      <trkpt lat="42.93572" lon="0.16409">
        <ele>1725</ele>
        <time>2013-03-24T09:36:34Z</time>
      </trkpt>
      <trkpt lat="42.93573" lon="0.16407">
        <ele>1725</ele>
        <time>2013-03-24T09:36:36Z</time>
      </trkpt>
      <trkpt lat="42.93574" lon="0.16405">
        <ele>1726</ele>
        <time>2013-03-24T09:36:38Z</time>
      </trkpt>
      <trkpt lat="42.93575" lon="0.16403">
        <ele>1726</ele>
        <time>2013-03-24T09:36:40Z</time>
      </trkpt>
      <trkpt lat="42.93575" lon="0.16401">
        <ele>1727</ele>
        <time>2013-03-24T09:36:42Z</time>
      </trkpt>
      <trkpt lat="42.93576" lon="0.16399">
        <ele>1728</ele>
        <time>2013-03-24T09:36:44Z</time>
      </trkpt>
      <trkpt lat="42.93576" lon="0.16397">
        <ele>1729</ele>
        <time>2013-03-24T09:36:56Z</time>
      </trkpt>
      <trkpt lat="42.93577" lon="0.16395">
        <ele>1729</ele>
        <time>2013-03-24T09:36:58Z</time>
      </trkpt>
      <trkpt lat="42.93578" lon="0.16393">
        <ele>1729</ele>
        <time>2013-03-24T09:37:00Z</time>
      </trkpt>
      <trkpt lat="42.93578" lon="0.1639">
        <ele>1729</ele>
        <time>2013-03-24T09:37:02Z</time>
      </trkpt>
      <trkpt lat="42.93578" lon="0.16388">
        <ele>1729</ele>
        <time>2013-03-24T09:37:04Z</time>
      </trkpt>
      <trkpt lat="42.93579" lon="0.16386">
        <ele>1729</ele>
        <time>2013-03-24T09:37:06Z</time>
      </trkpt>
      <trkpt lat="42.93579" lon="0.16384">
        <ele>1730</ele>
        <time>2013-03-24T09:37:08Z</time>
      </trkpt>
      <trkpt lat="42.9358" lon="0.16382">
        <ele>1730</ele>
        <time>2013-03-24T09:37:09Z</time>
      </trkpt>
      <trkpt lat="42.93581" lon="0.1638">
        <ele>1731</ele>
        <time>2013-03-24T09:37:11Z</time>
      </trkpt>
      <trkpt lat="42.93581" lon="0.16378">
        <ele>1731</ele>
        <time>2013-03-24T09:37:12Z</time>
      </trkpt>
      <trkpt lat="42.93582" lon="0.16376">
        <ele>1731</ele>
        <time>2013-03-24T09:37:14Z</time>
      </trkpt>
      <trkpt lat="42.93582" lon="0.16375">
        <ele>1731</ele>
        <time>2013-03-24T09:37:15Z</time>
      </trkpt>
      <trkpt lat="42.93583" lon="0.16373">
        <ele>1731</ele>
        <time>2013-03-24T09:37:17Z</time>
      </trkpt>
      <trkpt lat="42.93584" lon="0.16371">
        <ele>1732</ele>
        <time>2013-03-24T09:37:19Z</time>
      </trkpt>
      <trkpt lat="42.93586" lon="0.16369">
        <ele>1732</ele>
        <time>2013-03-24T09:37:21Z</time>
      </trkpt>
      <trkpt lat="42.93587" lon="0.16367">
        <ele>1733</ele>
        <time>2013-03-24T09:37:23Z</time>
      </trkpt>
      <trkpt lat="42.93587" lon="0.16365">
        <ele>1733</ele>
        <time>2013-03-24T09:37:24Z</time>
      </trkpt>
      <trkpt lat="42.93587" lon="0.16363">
        <ele>1733</ele>
        <time>2013-03-24T09:37:26Z</time>
      </trkpt>
      <trkpt lat="42.93588" lon="0.16362">
        <ele>1734</ele>
        <time>2013-03-24T09:37:27Z</time>
      </trkpt>
      <trkpt lat="42.93589" lon="0.1636">
        <ele>1734</ele>
        <time>2013-03-24T09:37:29Z</time>
      </trkpt>
      <trkpt lat="42.9359" lon="0.16358">
        <ele>1734</ele>
        <time>2013-03-24T09:37:31Z</time>
      </trkpt>
      <trkpt lat="42.93591" lon="0.16356">
        <ele>1735</ele>
        <time>2013-03-24T09:37:33Z</time>
      </trkpt>
      <trkpt lat="42.93591" lon="0.16354">
        <ele>1735</ele>
        <time>2013-03-24T09:37:35Z</time>
      </trkpt>
      <trkpt lat="42.93592" lon="0.16353">
        <ele>1735</ele>
        <time>2013-03-24T09:37:37Z</time>
      </trkpt>
      <trkpt lat="42.93593" lon="0.16351">
        <ele>1735</ele>
        <time>2013-03-24T09:37:39Z</time>
      </trkpt>
      <trkpt lat="42.93594" lon="0.1635">
        <ele>1736</ele>
        <time>2013-03-24T09:37:41Z</time>
      </trkpt>
      <trkpt lat="42.93596" lon="0.1635">
        <ele>1737</ele>
        <time>2013-03-24T09:37:53Z</time>
      </trkpt>
      <trkpt lat="42.93597" lon="0.16348">
        <ele>1737</ele>
        <time>2013-03-24T09:37:55Z</time>
      </trkpt>
      <trkpt lat="42.93599" lon="0.16348">
        <ele>1737</ele>
        <time>2013-03-24T09:37:57Z</time>
      </trkpt>
      <trkpt lat="42.93601" lon="0.16346">
        <ele>1737</ele>
        <time>2013-03-24T09:37:59Z</time>
      </trkpt>
      <trkpt lat="42.93603" lon="0.16346">
        <ele>1737</ele>
        <time>2013-03-24T09:38:01Z</time>
      </trkpt>
      <trkpt lat="42.93605" lon="0.16345">
        <ele>1737</ele>
        <time>2013-03-24T09:38:03Z</time>
      </trkpt>
      <trkpt lat="42.93606" lon="0.16344">
        <ele>1737</ele>
        <time>2013-03-24T09:38:05Z</time>
      </trkpt>
      <trkpt lat="42.93608" lon="0.16343">
        <ele>1738</ele>
        <time>2013-03-24T09:38:07Z</time>
      </trkpt>
      <trkpt lat="42.9361" lon="0.16342">
        <ele>1738</ele>
        <time>2013-03-24T09:38:09Z</time>
      </trkpt>
      <trkpt lat="42.93612" lon="0.16341">
        <ele>1739</ele>
        <time>2013-03-24T09:38:11Z</time>
      </trkpt>
      <trkpt lat="42.93613" lon="0.1634">
        <ele>1740</ele>
        <time>2013-03-24T09:38:13Z</time>
      </trkpt>
      <trkpt lat="42.93615" lon="0.16339">
        <ele>1741</ele>
        <time>2013-03-24T09:38:15Z</time>
      </trkpt>
      <trkpt lat="42.93617" lon="0.16339">
        <ele>1741</ele>
        <time>2013-03-24T09:38:17Z</time>
      </trkpt>
      <trkpt lat="42.93618" lon="0.16338">
        <ele>1742</ele>
        <time>2013-03-24T09:38:19Z</time>
      </trkpt>
      <trkpt lat="42.9362" lon="0.16338">
        <ele>1742</ele>
        <time>2013-03-24T09:38:21Z</time>
      </trkpt>
      <trkpt lat="42.93621" lon="0.16337">
        <ele>1742</ele>
        <time>2013-03-24T09:38:23Z</time>
      </trkpt>
      <trkpt lat="42.93623" lon="0.16336">
        <ele>1743</ele>
        <time>2013-03-24T09:38:25Z</time>
      </trkpt>
      <trkpt lat="42.93625" lon="0.16335">
        <ele>1743</ele>
        <time>2013-03-24T09:38:27Z</time>
      </trkpt>
      <trkpt lat="42.93627" lon="0.16335">
        <ele>1744</ele>
        <time>2013-03-24T09:38:29Z</time>
      </trkpt>
      <trkpt lat="42.93628" lon="0.16335">
        <ele>1744</ele>
        <time>2013-03-24T09:38:30Z</time>
      </trkpt>
      <trkpt lat="42.9363" lon="0.16334">
        <ele>1744</ele>
        <time>2013-03-24T09:38:32Z</time>
      </trkpt>
      <trkpt lat="42.93631" lon="0.16334">
        <ele>1744</ele>
        <time>2013-03-24T09:38:33Z</time>
      </trkpt>
      <trkpt lat="42.93632" lon="0.16333">
        <ele>1744</ele>
        <time>2013-03-24T09:38:47Z</time>
      </trkpt>
      <trkpt lat="42.93634" lon="0.16332">
        <ele>1744</ele>
        <time>2013-03-24T09:38:49Z</time>
      </trkpt>
      <trkpt lat="42.93636" lon="0.16331">
        <ele>1744</ele>
        <time>2013-03-24T09:38:51Z</time>
      </trkpt>
      <trkpt lat="42.93638" lon="0.1633">
        <ele>1744</ele>
        <time>2013-03-24T09:38:52Z</time>
      </trkpt>
      <trkpt lat="42.93639" lon="0.1633">
        <ele>1744</ele>
        <time>2013-03-24T09:38:53Z</time>
      </trkpt>
      <trkpt lat="42.93641" lon="0.16328">
        <ele>1744</ele>
        <time>2013-03-24T09:38:55Z</time>
      </trkpt>
      <trkpt lat="42.93643" lon="0.16326">
        <ele>1744</ele>
        <time>2013-03-24T09:38:57Z</time>
      </trkpt>
      <trkpt lat="42.93645" lon="0.16325">
        <ele>1744</ele>
        <time>2013-03-24T09:38:59Z</time>
      </trkpt>
      <trkpt lat="42.93647" lon="0.16323">
        <ele>1745</ele>
        <time>2013-03-24T09:39:01Z</time>
      </trkpt>
      <trkpt lat="42.93649" lon="0.16322">
        <ele>1745</ele>
        <time>2013-03-24T09:39:03Z</time>
      </trkpt>
      <trkpt lat="42.9365" lon="0.16321">
        <ele>1745</ele>
        <time>2013-03-24T09:39:05Z</time>
      </trkpt>
      <trkpt lat="42.93652" lon="0.16319">
        <ele>1745</ele>
        <time>2013-03-24T09:39:07Z</time>
      </trkpt>
      <trkpt lat="42.93655" lon="0.16318">
        <ele>1745</ele>
        <time>2013-03-24T09:39:09Z</time>
      </trkpt>
      <trkpt lat="42.93657" lon="0.16318">
        <ele>1745</ele>
        <time>2013-03-24T09:39:11Z</time>
      </trkpt>
      <trkpt lat="42.93658" lon="0.16316">
        <ele>1745</ele>
        <time>2013-03-24T09:39:13Z</time>
      </trkpt>
      <trkpt lat="42.9366" lon="0.16315">
        <ele>1745</ele>
        <time>2013-03-24T09:39:15Z</time>
      </trkpt>
      <trkpt lat="42.93661" lon="0.16314">
        <ele>1745</ele>
        <time>2013-03-24T09:39:16Z</time>
      </trkpt>
      <trkpt lat="42.93663" lon="0.16314">
        <ele>1746</ele>
        <time>2013-03-24T09:39:17Z</time>
      </trkpt>
      <trkpt lat="42.93664" lon="0.16312">
        <ele>1746</ele>
        <time>2013-03-24T09:39:19Z</time>
      </trkpt>
      <trkpt lat="42.93665" lon="0.1631">
        <ele>1746</ele>
        <time>2013-03-24T09:39:21Z</time>
      </trkpt>
      <trkpt lat="42.93667" lon="0.16309">
        <ele>1746</ele>
        <time>2013-03-24T09:39:23Z</time>
      </trkpt>
      <trkpt lat="42.93669" lon="0.16308">
        <ele>1746</ele>
        <time>2013-03-24T09:39:24Z</time>
      </trkpt>
      <trkpt lat="42.9367" lon="0.16307">
        <ele>1746</ele>
        <time>2013-03-24T09:39:26Z</time>
      </trkpt>
      <trkpt lat="42.93671" lon="0.16305">
        <ele>1746</ele>
        <time>2013-03-24T09:39:28Z</time>
      </trkpt>
      <trkpt lat="42.93673" lon="0.16304">
        <ele>1746</ele>
        <time>2013-03-24T09:39:30Z</time>
      </trkpt>
      <trkpt lat="42.93674" lon="0.16302">
        <ele>1746</ele>
        <time>2013-03-24T09:39:33Z</time>
      </trkpt>
      <trkpt lat="42.93676" lon="0.163">
        <ele>1746</ele>
        <time>2013-03-24T09:39:35Z</time>
      </trkpt>
      <trkpt lat="42.93677" lon="0.16299">
        <ele>1746</ele>
        <time>2013-03-24T09:39:37Z</time>
      </trkpt>
      <trkpt lat="42.93679" lon="0.16298">
        <ele>1747</ele>
        <time>2013-03-24T09:39:39Z</time>
      </trkpt>
      <trkpt lat="42.9368" lon="0.16298">
        <ele>1747</ele>
        <time>2013-03-24T09:40:10Z</time>
      </trkpt>
      <trkpt lat="42.93681" lon="0.16298">
        <ele>1746</ele>
        <time>2013-03-24T09:40:37Z</time>
      </trkpt>
      <trkpt lat="42.93682" lon="0.16298">
        <ele>1746</ele>
        <time>2013-03-24T09:40:45Z</time>
      </trkpt>
      <trkpt lat="42.93681" lon="0.16298">
        <ele>1746</ele>
        <time>2013-03-24T09:41:00Z</time>
      </trkpt>
      <trkpt lat="42.9368" lon="0.16297">
        <ele>1746</ele>
        <time>2013-03-24T09:41:16Z</time>
      </trkpt>
      <trkpt lat="42.93681" lon="0.16298">
        <ele>1747</ele>
        <time>2013-03-24T09:41:43Z</time>
      </trkpt>
      <trkpt lat="42.93682" lon="0.163">
        <ele>1747</ele>
        <time>2013-03-24T09:43:20Z</time>
      </trkpt>
      <trkpt lat="42.93681" lon="0.16299">
        <ele>1747</ele>
        <time>2013-03-24T09:43:48Z</time>
      </trkpt>
      <trkpt lat="42.9368" lon="0.163">
        <ele>1751</ele>
        <time>2013-03-24T09:44:07Z</time>
      </trkpt>
      <trkpt lat="42.93681" lon="0.16298">
        <ele>1752</ele>
        <time>2013-03-24T09:44:16Z</time>
      </trkpt>
      <trkpt lat="42.9368" lon="0.163">
        <ele>1752</ele>
        <time>2013-03-24T09:44:25Z</time>
      </trkpt>
      <trkpt lat="42.93681" lon="0.16298">
        <ele>1752</ele>
        <time>2013-03-24T09:44:53Z</time>
      </trkpt>
      <trkpt lat="42.93681" lon="0.163">
        <ele>1752</ele>
        <time>2013-03-24T09:45:09Z</time>
      </trkpt>
      <trkpt lat="42.93683" lon="0.163">
        <ele>1752</ele>
        <time>2013-03-24T09:45:30Z</time>
      </trkpt>
      <trkpt lat="42.93681" lon="0.16302">
        <ele>1751</ele>
        <time>2013-03-24T09:45:56Z</time>
      </trkpt>
      <trkpt lat="42.93682" lon="0.16304">
        <ele>1751</ele>
        <time>2013-03-24T09:46:04Z</time>
      </trkpt>
      <trkpt lat="42.93681" lon="0.16305">
        <ele>1751</ele>
        <time>2013-03-24T09:46:18Z</time>
      </trkpt>
      <trkpt lat="42.93681" lon="0.16303">
        <ele>1751</ele>
        <time>2013-03-24T09:46:31Z</time>
      </trkpt>
      <trkpt lat="42.93681" lon="0.16304">
        <ele>1750</ele>
        <time>2013-03-24T09:46:54Z</time>
      </trkpt>
      <trkpt lat="42.9368" lon="0.16305">
        <ele>1751</ele>
        <time>2013-03-24T09:46:59Z</time>
      </trkpt>
      <trkpt lat="42.9368" lon="0.16307">
        <ele>1756</ele>
        <time>2013-03-24T09:47:08Z</time>
      </trkpt>
      <trkpt lat="42.93679" lon="0.16309">
        <ele>1759</ele>
        <time>2013-03-24T09:47:11Z</time>
      </trkpt>
      <trkpt lat="42.93677" lon="0.16309">
        <ele>1762</ele>
        <time>2013-03-24T09:47:14Z</time>
      </trkpt>
      <trkpt lat="42.93676" lon="0.1631">
        <ele>1765</ele>
        <time>2013-03-24T09:47:17Z</time>
      </trkpt>
      <trkpt lat="42.93675" lon="0.1631">
        <ele>1769</ele>
        <time>2013-03-24T09:47:21Z</time>
      </trkpt>
      <trkpt lat="42.93674" lon="0.16311">
        <ele>1776</ele>
        <time>2013-03-24T09:47:28Z</time>
      </trkpt>
      <trkpt lat="42.93674" lon="0.16313">
        <ele>1779</ele>
        <time>2013-03-24T09:47:31Z</time>
      </trkpt>
      <trkpt lat="42.93673" lon="0.16314">
        <ele>1782</ele>
        <time>2013-03-24T09:47:34Z</time>
      </trkpt>
      <trkpt lat="42.93672" lon="0.16316">
        <ele>1784</ele>
        <time>2013-03-24T09:47:36Z</time>
      </trkpt>
      <trkpt lat="42.93671" lon="0.16317">
        <ele>1786</ele>
        <time>2013-03-24T09:47:38Z</time>
      </trkpt>
      <trkpt lat="42.93671" lon="0.16319">
        <ele>1789</ele>
        <time>2013-03-24T09:47:41Z</time>
      </trkpt>
      <trkpt lat="42.93671" lon="0.16321">
        <ele>1790</ele>
        <time>2013-03-24T09:47:44Z</time>
      </trkpt>
      <trkpt lat="42.9367" lon="0.16323">
        <ele>1790</ele>
        <time>2013-03-24T09:47:47Z</time>
      </trkpt>
      <trkpt lat="42.93671" lon="0.16321">
        <ele>1785</ele>
        <time>2013-03-24T09:47:56Z</time>
      </trkpt>
      <trkpt lat="42.9367" lon="0.16319">
        <ele>1785</ele>
        <time>2013-03-24T09:47:59Z</time>
      </trkpt>
      <trkpt lat="42.9367" lon="0.16318">
        <ele>1784</ele>
        <time>2013-03-24T09:48:01Z</time>
      </trkpt>
      <trkpt lat="42.9367" lon="0.16316">
        <ele>1783</ele>
        <time>2013-03-24T09:48:03Z</time>
      </trkpt>
      <trkpt lat="42.93671" lon="0.16315">
        <ele>1782</ele>
        <time>2013-03-24T09:48:05Z</time>
      </trkpt>
      <trkpt lat="42.93673" lon="0.16314">
        <ele>1779</ele>
        <time>2013-03-24T09:48:08Z</time>
      </trkpt>
      <trkpt lat="42.93674" lon="0.16312">
        <ele>1777</ele>
        <time>2013-03-24T09:48:11Z</time>
      </trkpt>
      <trkpt lat="42.93675" lon="0.16312">
        <ele>1774</ele>
        <time>2013-03-24T09:48:15Z</time>
      </trkpt>
      <trkpt lat="42.93676" lon="0.16312">
        <ele>1770</ele>
        <time>2013-03-24T09:48:19Z</time>
      </trkpt>
      <trkpt lat="42.93678" lon="0.16312">
        <ele>1765</ele>
        <time>2013-03-24T09:48:24Z</time>
      </trkpt>
      <trkpt lat="42.93679" lon="0.16313">
        <ele>1760</ele>
        <time>2013-03-24T09:48:30Z</time>
      </trkpt>
      <trkpt lat="42.93679" lon="0.16314">
        <ele>1758</ele>
        <time>2013-03-24T09:48:35Z</time>
      </trkpt>
      <trkpt lat="42.93679" lon="0.16313">
        <ele>1756</ele>
        <time>2013-03-24T09:48:43Z</time>
      </trkpt>
      <trkpt lat="42.93679" lon="0.16311">
        <ele>1755</ele>
        <time>2013-03-24T09:48:46Z</time>
      </trkpt>
      <trkpt lat="42.93679" lon="0.16309">
        <ele>1753</ele>
        <time>2013-03-24T09:48:49Z</time>
      </trkpt>
      <trkpt lat="42.93678" lon="0.16309">
        <ele>1752</ele>
        <time>2013-03-24T09:48:55Z</time>
      </trkpt>
      <trkpt lat="42.93679" lon="0.16308">
        <ele>1752</ele>
        <time>2013-03-24T09:49:00Z</time>
      </trkpt>
      <trkpt lat="42.9368" lon="0.16308">
        <ele>1752</ele>
        <time>2013-03-24T09:49:02Z</time>
      </trkpt>
      <trkpt lat="42.93681" lon="0.16306">
        <ele>1750</ele>
        <time>2013-03-24T09:49:05Z</time>
      </trkpt>
      <trkpt lat="42.9368" lon="0.16306">
        <ele>1749</ele>
        <time>2013-03-24T09:49:10Z</time>
      </trkpt>
      <trkpt lat="42.93679" lon="0.16307">
        <ele>1749</ele>
        <time>2013-03-24T09:49:18Z</time>
      </trkpt>
      <trkpt lat="42.93679" lon="0.16306">
        <ele>1749</ele>
        <time>2013-03-24T09:49:24Z</time>
      </trkpt>
      <trkpt lat="42.93679" lon="0.16304">
        <ele>1749</ele>
        <time>2013-03-24T09:49:27Z</time>
      </trkpt>
      <trkpt lat="42.93679" lon="0.16302">
        <ele>1749</ele>
        <time>2013-03-24T09:49:35Z</time>
      </trkpt>
      <trkpt lat="42.93681" lon="0.16301">
        <ele>1748</ele>
        <time>2013-03-24T09:49:42Z</time>
      </trkpt>
      <trkpt lat="42.93682" lon="0.16299">
        <ele>1746</ele>
        <time>2013-03-24T09:49:47Z</time>
      </trkpt>
      <trkpt lat="42.93681" lon="0.16301">
        <ele>1744</ele>
        <time>2013-03-24T09:49:52Z</time>
      </trkpt>
      <trkpt lat="42.9368" lon="0.16302">
        <ele>1744</ele>
        <time>2013-03-24T09:49:57Z</time>
      </trkpt>
      <trkpt lat="42.93681" lon="0.16301">
        <ele>1747</ele>
        <time>2013-03-24T09:50:26Z</time>
      </trkpt>
      <trkpt lat="42.93681" lon="0.16303">
        <ele>1746</ele>
        <time>2013-03-24T09:50:35Z</time>
      </trkpt>
      <trkpt lat="42.9368" lon="0.16303">
        <ele>1745</ele>
        <time>2013-03-24T09:50:55Z</time>
      </trkpt>
      <trkpt lat="42.93679" lon="0.16303">
        <ele>1745</ele>
        <time>2013-03-24T09:51:01Z</time>
      </trkpt>
      <trkpt lat="42.93678" lon="0.16304">
        <ele>1746</ele>
        <time>2013-03-24T09:51:07Z</time>
      </trkpt>
      <trkpt lat="42.93676" lon="0.16306">
        <ele>1749</ele>
        <time>2013-03-24T09:51:11Z</time>
      </trkpt>
      <trkpt lat="42.93675" lon="0.16307">
        <ele>1751</ele>
        <time>2013-03-24T09:51:13Z</time>
      </trkpt>
      <trkpt lat="42.93674" lon="0.16308">
        <ele>1756</ele>
        <time>2013-03-24T09:51:18Z</time>
      </trkpt>
      <trkpt lat="42.93675" lon="0.16307">
        <ele>1759</ele>
        <time>2013-03-24T09:51:22Z</time>
      </trkpt>
      <trkpt lat="42.93676" lon="0.16306">
        <ele>1757</ele>
        <time>2013-03-24T09:51:27Z</time>
      </trkpt>
      <trkpt lat="42.93676" lon="0.16308">
        <ele>1756</ele>
        <time>2013-03-24T09:51:31Z</time>
      </trkpt>
      <trkpt lat="42.93675" lon="0.1631">
        <ele>1756</ele>
        <time>2013-03-24T09:51:33Z</time>
      </trkpt>
      <trkpt lat="42.93674" lon="0.16312">
        <ele>1756</ele>
        <time>2013-03-24T09:51:35Z</time>
      </trkpt>
      <trkpt lat="42.93673" lon="0.16314">
        <ele>1758</ele>
        <time>2013-03-24T09:51:39Z</time>
      </trkpt>
      <trkpt lat="42.93673" lon="0.16315">
        <ele>1760</ele>
        <time>2013-03-24T09:51:41Z</time>
      </trkpt>
      <trkpt lat="42.93671" lon="0.16317">
        <ele>1762</ele>
        <time>2013-03-24T09:51:44Z</time>
      </trkpt>
      <trkpt lat="42.93673" lon="0.16315">
        <ele>1767</ele>
        <time>2013-03-24T09:51:52Z</time>
      </trkpt>
      <trkpt lat="42.93674" lon="0.16315">
        <ele>1767</ele>
        <time>2013-03-24T09:51:57Z</time>
      </trkpt>
      <trkpt lat="42.93676" lon="0.16313">
        <ele>1765</ele>
        <time>2013-03-24T09:52:00Z</time>
      </trkpt>
      <trkpt lat="42.93677" lon="0.16312">
        <ele>1762</ele>
        <time>2013-03-24T09:52:03Z</time>
      </trkpt>
      <trkpt lat="42.93678" lon="0.1631">
        <ele>1757</ele>
        <time>2013-03-24T09:52:08Z</time>
      </trkpt>
      <trkpt lat="42.93679" lon="0.16309">
        <ele>1748</ele>
        <time>2013-03-24T09:52:19Z</time>
      </trkpt>
      <trkpt lat="42.9368" lon="0.16307">
        <ele>1745</ele>
        <time>2013-03-24T09:52:23Z</time>
      </trkpt>
      <trkpt lat="42.93681" lon="0.16306">
        <ele>1743</ele>
        <time>2013-03-24T09:52:36Z</time>
      </trkpt>
      <trkpt lat="42.93682" lon="0.16307">
        <ele>1743</ele>
        <time>2013-03-24T09:52:40Z</time>
      </trkpt>
      <trkpt lat="42.93684" lon="0.16308">
        <ele>1743</ele>
        <time>2013-03-24T09:52:41Z</time>
      </trkpt>
      <trkpt lat="42.93686" lon="0.16308">
        <ele>1743</ele>
        <time>2013-03-24T09:52:43Z</time>
      </trkpt>
      <trkpt lat="42.93685" lon="0.16306">
        <ele>1743</ele>
        <time>2013-03-24T09:52:46Z</time>
      </trkpt>
      <trkpt lat="42.93684" lon="0.16308">
        <ele>1743</ele>
        <time>2013-03-24T09:52:48Z</time>
      </trkpt>
      <trkpt lat="42.93682" lon="0.16308">
        <ele>1741</ele>
        <time>2013-03-24T09:52:58Z</time>
      </trkpt>
      <trkpt lat="42.93682" lon="0.16303">
        <ele>1741</ele>
        <time>2013-03-24T09:52:59Z</time>
      </trkpt>
      <trkpt lat="42.93684" lon="0.16302">
        <ele>1740</ele>
        <time>2013-03-24T09:53:00Z</time>
      </trkpt>
      <trkpt lat="42.93685" lon="0.163">
        <ele>1739</ele>
        <time>2013-03-24T09:53:02Z</time>
      </trkpt>
      <trkpt lat="42.93686" lon="0.16302">
        <ele>1738</ele>
        <time>2013-03-24T09:53:04Z</time>
      </trkpt>
      <trkpt lat="42.93687" lon="0.163">
        <ele>1737</ele>
        <time>2013-03-24T09:53:05Z</time>
      </trkpt>
      <trkpt lat="42.93685" lon="0.163">
        <ele>1737</ele>
        <time>2013-03-24T09:53:07Z</time>
      </trkpt>
      <trkpt lat="42.93684" lon="0.163">
        <ele>1737</ele>
        <time>2013-03-24T09:53:08Z</time>
      </trkpt>
      <trkpt lat="42.93683" lon="0.163">
        <ele>1737</ele>
        <time>2013-03-24T09:53:09Z</time>
      </trkpt>
      <trkpt lat="42.93681" lon="0.163">
        <ele>1737</ele>
        <time>2013-03-24T09:53:10Z</time>
      </trkpt>
      <trkpt lat="42.9368" lon="0.163">
        <ele>1737</ele>
        <time>2013-03-24T09:53:11Z</time>
      </trkpt>
      <trkpt lat="42.93679" lon="0.163">
        <ele>1739</ele>
        <time>2013-03-24T09:53:13Z</time>
      </trkpt>
      <trkpt lat="42.93677" lon="0.16301">
        <ele>1741</ele>
        <time>2013-03-24T09:53:15Z</time>
      </trkpt>
      <trkpt lat="42.93679" lon="0.16299">
        <ele>1746</ele>
        <time>2013-03-24T09:53:21Z</time>
      </trkpt>
      <trkpt lat="42.9368" lon="0.16299">
        <ele>1749</ele>
        <time>2013-03-24T09:54:17Z</time>
      </trkpt>
      <trkpt lat="42.93681" lon="0.16299">
        <ele>1749</ele>
        <time>2013-03-24T09:54:29Z</time>
      </trkpt>
      <trkpt lat="42.9368" lon="0.16299">
        <ele>1750</ele>
        <time>2013-03-24T09:55:26Z</time>
      </trkpt>
      <trkpt lat="42.93679" lon="0.163">
        <ele>1753</ele>
        <time>2013-03-24T09:55:35Z</time>
      </trkpt>
      <trkpt lat="42.93679" lon="0.16298">
        <ele>1756</ele>
        <time>2013-03-24T09:56:09Z</time>
      </trkpt>
      <trkpt lat="42.93681" lon="0.16297">
        <ele>1756</ele>
        <time>2013-03-24T09:56:11Z</time>
      </trkpt>
      <trkpt lat="42.93682" lon="0.16295">
        <ele>1756</ele>
        <time>2013-03-24T09:56:13Z</time>
      </trkpt>
      <trkpt lat="42.93683" lon="0.16294">
        <ele>1756</ele>
        <time>2013-03-24T09:56:15Z</time>
      </trkpt>
      <trkpt lat="42.93685" lon="0.16293">
        <ele>1756</ele>
        <time>2013-03-24T09:56:17Z</time>
      </trkpt>
      <trkpt lat="42.93687" lon="0.16293">
        <ele>1756</ele>
        <time>2013-03-24T09:56:19Z</time>
      </trkpt>
      <trkpt lat="42.93688" lon="0.16293">
        <ele>1756</ele>
        <time>2013-03-24T09:56:21Z</time>
      </trkpt>
      <trkpt lat="42.9369" lon="0.16292">
        <ele>1756</ele>
        <time>2013-03-24T09:56:23Z</time>
      </trkpt>
      <trkpt lat="42.93692" lon="0.16292">
        <ele>1756</ele>
        <time>2013-03-24T09:56:25Z</time>
      </trkpt>
      <trkpt lat="42.93693" lon="0.16291">
        <ele>1756</ele>
        <time>2013-03-24T09:56:27Z</time>
      </trkpt>
      <trkpt lat="42.93694" lon="0.16291">
        <ele>1756</ele>
        <time>2013-03-24T09:56:28Z</time>
      </trkpt>
      <trkpt lat="42.93697" lon="0.16291">
        <ele>1756</ele>
        <time>2013-03-24T09:56:30Z</time>
      </trkpt>
      <trkpt lat="42.93698" lon="0.16291">
        <ele>1756</ele>
        <time>2013-03-24T09:56:31Z</time>
      </trkpt>
      <trkpt lat="42.937" lon="0.1629">
        <ele>1756</ele>
        <time>2013-03-24T09:56:33Z</time>
      </trkpt>
      <trkpt lat="42.93701" lon="0.1629">
        <ele>1756</ele>
        <time>2013-03-24T09:56:34Z</time>
      </trkpt>
      <trkpt lat="42.93703" lon="0.16289">
        <ele>1756</ele>
        <time>2013-03-24T09:56:36Z</time>
      </trkpt>
      <trkpt lat="42.93704" lon="0.16289">
        <ele>1756</ele>
        <time>2013-03-24T09:56:38Z</time>
      </trkpt>
      <trkpt lat="42.93705" lon="0.16289">
        <ele>1756</ele>
        <time>2013-03-24T09:56:40Z</time>
      </trkpt>
      <trkpt lat="42.93707" lon="0.16288">
        <ele>1756</ele>
        <time>2013-03-24T09:56:42Z</time>
      </trkpt>
      <trkpt lat="42.93708" lon="0.16288">
        <ele>1756</ele>
        <time>2013-03-24T09:56:44Z</time>
      </trkpt>
      <trkpt lat="42.9371" lon="0.16287">
        <ele>1756</ele>
        <time>2013-03-24T09:56:46Z</time>
      </trkpt>
      <trkpt lat="42.93711" lon="0.16286">
        <ele>1756</ele>
        <time>2013-03-24T09:56:49Z</time>
      </trkpt>
      <trkpt lat="42.93712" lon="0.16286">
        <ele>1756</ele>
        <time>2013-03-24T09:56:51Z</time>
      </trkpt>
      <trkpt lat="42.93714" lon="0.16285">
        <ele>1756</ele>
        <time>2013-03-24T09:56:53Z</time>
      </trkpt>
      <trkpt lat="42.93715" lon="0.16284">
        <ele>1757</ele>
        <time>2013-03-24T09:56:56Z</time>
      </trkpt>
      <trkpt lat="42.93716" lon="0.16283">
        <ele>1757</ele>
        <time>2013-03-24T09:56:58Z</time>
      </trkpt>
      <trkpt lat="42.93718" lon="0.16282">
        <ele>1758</ele>
        <time>2013-03-24T09:57:01Z</time>
      </trkpt>
      <trkpt lat="42.93719" lon="0.16281">
        <ele>1759</ele>
        <time>2013-03-24T09:57:03Z</time>
      </trkpt>
      <trkpt lat="42.93721" lon="0.1628">
        <ele>1760</ele>
        <time>2013-03-24T09:57:05Z</time>
      </trkpt>
      <trkpt lat="42.93723" lon="0.1628">
        <ele>1760</ele>
        <time>2013-03-24T09:57:07Z</time>
      </trkpt>
      <trkpt lat="42.93721" lon="0.16279">
        <ele>1762</ele>
        <time>2013-03-24T09:57:39Z</time>
      </trkpt>
      <trkpt lat="42.93723" lon="0.16278">
        <ele>1763</ele>
        <time>2013-03-24T09:58:06Z</time>
      </trkpt>
      <trkpt lat="42.93724" lon="0.16277">
        <ele>1763</ele>
        <time>2013-03-24T09:58:08Z</time>
      </trkpt>
      <trkpt lat="42.93725" lon="0.16276">
        <ele>1763</ele>
        <time>2013-03-24T09:58:10Z</time>
      </trkpt>
      <trkpt lat="42.93727" lon="0.16275">
        <ele>1763</ele>
        <time>2013-03-24T09:58:13Z</time>
      </trkpt>
      <trkpt lat="42.93728" lon="0.16274">
        <ele>1763</ele>
        <time>2013-03-24T09:58:15Z</time>
      </trkpt>
      <trkpt lat="42.9373" lon="0.16274">
        <ele>1763</ele>
        <time>2013-03-24T09:58:17Z</time>
      </trkpt>
      <trkpt lat="42.93732" lon="0.16273">
        <ele>1763</ele>
        <time>2013-03-24T09:58:19Z</time>
      </trkpt>
      <trkpt lat="42.93733" lon="0.16272">
        <ele>1764</ele>
        <time>2013-03-24T09:58:21Z</time>
      </trkpt>
      <trkpt lat="42.93734" lon="0.16271">
        <ele>1764</ele>
        <time>2013-03-24T09:58:22Z</time>
      </trkpt>
      <trkpt lat="42.93736" lon="0.16271">
        <ele>1765</ele>
        <time>2013-03-24T09:58:24Z</time>
      </trkpt>
      <trkpt lat="42.93737" lon="0.16271">
        <ele>1765</ele>
        <time>2013-03-24T09:58:26Z</time>
      </trkpt>
      <trkpt lat="42.93739" lon="0.1627">
        <ele>1765</ele>
        <time>2013-03-24T09:58:28Z</time>
      </trkpt>
      <trkpt lat="42.9374" lon="0.16269">
        <ele>1766</ele>
        <time>2013-03-24T09:58:30Z</time>
      </trkpt>
      <trkpt lat="42.93742" lon="0.16268">
        <ele>1766</ele>
        <time>2013-03-24T09:58:32Z</time>
      </trkpt>
      <trkpt lat="42.93743" lon="0.16267">
        <ele>1767</ele>
        <time>2013-03-24T09:58:34Z</time>
      </trkpt>
      <trkpt lat="42.93745" lon="0.16266">
        <ele>1767</ele>
        <time>2013-03-24T09:58:37Z</time>
      </trkpt>
      <trkpt lat="42.93746" lon="0.16265">
        <ele>1767</ele>
        <time>2013-03-24T09:58:39Z</time>
      </trkpt>
      <trkpt lat="42.93748" lon="0.16265">
        <ele>1768</ele>
        <time>2013-03-24T09:58:41Z</time>
      </trkpt>
      <trkpt lat="42.9375" lon="0.16264">
        <ele>1768</ele>
        <time>2013-03-24T09:58:43Z</time>
      </trkpt>
      <trkpt lat="42.93752" lon="0.16263">
        <ele>1768</ele>
        <time>2013-03-24T09:58:45Z</time>
      </trkpt>
      <trkpt lat="42.93753" lon="0.16263">
        <ele>1769</ele>
        <time>2013-03-24T09:58:47Z</time>
      </trkpt>
      <trkpt lat="42.93755" lon="0.16262">
        <ele>1769</ele>
        <time>2013-03-24T09:58:49Z</time>
      </trkpt>
      <trkpt lat="42.93756" lon="0.16262">
        <ele>1769</ele>
        <time>2013-03-24T09:58:51Z</time>
      </trkpt>
      <trkpt lat="42.93757" lon="0.16262">
        <ele>1769</ele>
        <time>2013-03-24T09:58:53Z</time>
      </trkpt>
      <trkpt lat="42.93759" lon="0.16261">
        <ele>1769</ele>
        <time>2013-03-24T09:58:55Z</time>
      </trkpt>
      <trkpt lat="42.93761" lon="0.1626">
        <ele>1769</ele>
        <time>2013-03-24T09:58:57Z</time>
      </trkpt>
      <trkpt lat="42.93762" lon="0.1626">
        <ele>1769</ele>
        <time>2013-03-24T09:58:59Z</time>
      </trkpt>
      <trkpt lat="42.93764" lon="0.16258">
        <ele>1772</ele>
        <time>2013-03-24T09:59:18Z</time>
      </trkpt>
      <trkpt lat="42.93765" lon="0.16258">
        <ele>1772</ele>
        <time>2013-03-24T09:59:20Z</time>
      </trkpt>
      <trkpt lat="42.93766" lon="0.16257">
        <ele>1772</ele>
        <time>2013-03-24T09:59:22Z</time>
      </trkpt>
      <trkpt lat="42.93768" lon="0.16257">
        <ele>1772</ele>
        <time>2013-03-24T09:59:24Z</time>
      </trkpt>
      <trkpt lat="42.93769" lon="0.16257">
        <ele>1772</ele>
        <time>2013-03-24T09:59:26Z</time>
      </trkpt>
      <trkpt lat="42.93771" lon="0.16257">
        <ele>1773</ele>
        <time>2013-03-24T09:59:28Z</time>
      </trkpt>
      <trkpt lat="42.93773" lon="0.16256">
        <ele>1773</ele>
        <time>2013-03-24T09:59:30Z</time>
      </trkpt>
      <trkpt lat="42.93774" lon="0.16256">
        <ele>1773</ele>
        <time>2013-03-24T09:59:32Z</time>
      </trkpt>
      <trkpt lat="42.93775" lon="0.16257">
        <ele>1774</ele>
        <time>2013-03-24T09:59:34Z</time>
      </trkpt>
      <trkpt lat="42.93776" lon="0.16256">
        <ele>1774</ele>
        <time>2013-03-24T09:59:36Z</time>
      </trkpt>
      <trkpt lat="42.93778" lon="0.16256">
        <ele>1774</ele>
        <time>2013-03-24T09:59:38Z</time>
      </trkpt>
      <trkpt lat="42.93779" lon="0.16255">
        <ele>1775</ele>
        <time>2013-03-24T09:59:40Z</time>
      </trkpt>
      <trkpt lat="42.93781" lon="0.16255">
        <ele>1775</ele>
        <time>2013-03-24T09:59:42Z</time>
      </trkpt>
      <trkpt lat="42.93782" lon="0.16254">
        <ele>1776</ele>
        <time>2013-03-24T09:59:44Z</time>
      </trkpt>
      <trkpt lat="42.93784" lon="0.16254">
        <ele>1776</ele>
        <time>2013-03-24T09:59:46Z</time>
      </trkpt>
      <trkpt lat="42.93786" lon="0.16254">
        <ele>1776</ele>
        <time>2013-03-24T09:59:48Z</time>
      </trkpt>
      <trkpt lat="42.93787" lon="0.16254">
        <ele>1776</ele>
        <time>2013-03-24T09:59:50Z</time>
      </trkpt>
      <trkpt lat="42.93788" lon="0.16254">
        <ele>1777</ele>
        <time>2013-03-24T09:59:53Z</time>
      </trkpt>
      <trkpt lat="42.9379" lon="0.16253">
        <ele>1777</ele>
        <time>2013-03-24T10:00:29Z</time>
      </trkpt>
      <trkpt lat="42.93791" lon="0.16252">
        <ele>1777</ele>
        <time>2013-03-24T10:00:31Z</time>
      </trkpt>
      <trkpt lat="42.93793" lon="0.16252">
        <ele>1777</ele>
        <time>2013-03-24T10:00:33Z</time>
      </trkpt>
      <trkpt lat="42.93795" lon="0.16252">
        <ele>1777</ele>
        <time>2013-03-24T10:00:35Z</time>
      </trkpt>
      <trkpt lat="42.93796" lon="0.16251">
        <ele>1777</ele>
        <time>2013-03-24T10:00:37Z</time>
      </trkpt>
      <trkpt lat="42.93798" lon="0.16251">
        <ele>1777</ele>
        <time>2013-03-24T10:00:39Z</time>
      </trkpt>
      <trkpt lat="42.93799" lon="0.16251">
        <ele>1777</ele>
        <time>2013-03-24T10:00:41Z</time>
      </trkpt>
      <trkpt lat="42.93801" lon="0.1625">
        <ele>1777</ele>
        <time>2013-03-24T10:00:43Z</time>
      </trkpt>
      <trkpt lat="42.93802" lon="0.1625">
        <ele>1778</ele>
        <time>2013-03-24T10:00:45Z</time>
      </trkpt>
      <trkpt lat="42.93804" lon="0.16249">
        <ele>1778</ele>
        <time>2013-03-24T10:00:47Z</time>
      </trkpt>
      <trkpt lat="42.93805" lon="0.16249">
        <ele>1779</ele>
        <time>2013-03-24T10:00:49Z</time>
      </trkpt>
      <trkpt lat="42.93807" lon="0.16248">
        <ele>1779</ele>
        <time>2013-03-24T10:00:51Z</time>
      </trkpt>
      <trkpt lat="42.93808" lon="0.16248">
        <ele>1780</ele>
        <time>2013-03-24T10:00:53Z</time>
      </trkpt>
      <trkpt lat="42.9381" lon="0.16248">
        <ele>1780</ele>
        <time>2013-03-24T10:00:55Z</time>
      </trkpt>
      <trkpt lat="42.93812" lon="0.16248">
        <ele>1781</ele>
        <time>2013-03-24T10:00:57Z</time>
      </trkpt>
      <trkpt lat="42.93813" lon="0.16247">
        <ele>1781</ele>
        <time>2013-03-24T10:00:59Z</time>
      </trkpt>
      <trkpt lat="42.93815" lon="0.16246">
        <ele>1781</ele>
        <time>2013-03-24T10:01:01Z</time>
      </trkpt>
      <trkpt lat="42.93816" lon="0.16246">
        <ele>1782</ele>
        <time>2013-03-24T10:01:03Z</time>
      </trkpt>
      <trkpt lat="42.93817" lon="0.16245">
        <ele>1782</ele>
        <time>2013-03-24T10:01:05Z</time>
      </trkpt>
      <trkpt lat="42.93819" lon="0.16245">
        <ele>1782</ele>
        <time>2013-03-24T10:01:07Z</time>
      </trkpt>
      <trkpt lat="42.9382" lon="0.16244">
        <ele>1783</ele>
        <time>2013-03-24T10:01:09Z</time>
      </trkpt>
      <trkpt lat="42.93822" lon="0.16243">
        <ele>1783</ele>
        <time>2013-03-24T10:01:11Z</time>
      </trkpt>
      <trkpt lat="42.93823" lon="0.16243">
        <ele>1783</ele>
        <time>2013-03-24T10:01:13Z</time>
      </trkpt>
      <trkpt lat="42.93824" lon="0.16242">
        <ele>1784</ele>
        <time>2013-03-24T10:01:15Z</time>
      </trkpt>
      <trkpt lat="42.93823" lon="0.16242">
        <ele>1789</ele>
        <time>2013-03-24T10:01:29Z</time>
      </trkpt>
      <trkpt lat="42.93824" lon="0.16241">
        <ele>1792</ele>
        <time>2013-03-24T10:01:39Z</time>
      </trkpt>
      <trkpt lat="42.93826" lon="0.16241">
        <ele>1794</ele>
        <time>2013-03-24T10:01:42Z</time>
      </trkpt>
      <trkpt lat="42.93827" lon="0.16241">
        <ele>1795</ele>
        <time>2013-03-24T10:01:44Z</time>
      </trkpt>
      <trkpt lat="42.93829" lon="0.16241">
        <ele>1796</ele>
        <time>2013-03-24T10:01:46Z</time>
      </trkpt>
      <trkpt lat="42.93831" lon="0.16241">
        <ele>1798</ele>
        <time>2013-03-24T10:01:49Z</time>
      </trkpt>
      <trkpt lat="42.93832" lon="0.1624">
        <ele>1799</ele>
        <time>2013-03-24T10:01:52Z</time>
      </trkpt>
      <trkpt lat="42.93833" lon="0.1624">
        <ele>1800</ele>
        <time>2013-03-24T10:01:54Z</time>
      </trkpt>
      <trkpt lat="42.93835" lon="0.1624">
        <ele>1800</ele>
        <time>2013-03-24T10:01:56Z</time>
      </trkpt>
      <trkpt lat="42.93836" lon="0.1624">
        <ele>1801</ele>
        <time>2013-03-24T10:01:57Z</time>
      </trkpt>
      <trkpt lat="42.93837" lon="0.1624">
        <ele>1801</ele>
        <time>2013-03-24T10:01:59Z</time>
      </trkpt>
      <trkpt lat="42.93839" lon="0.16239">
        <ele>1802</ele>
        <time>2013-03-24T10:02:01Z</time>
      </trkpt>
      <trkpt lat="42.9384" lon="0.16238">
        <ele>1803</ele>
        <time>2013-03-24T10:02:03Z</time>
      </trkpt>
      <trkpt lat="42.93842" lon="0.16238">
        <ele>1803</ele>
        <time>2013-03-24T10:02:05Z</time>
      </trkpt>
      <trkpt lat="42.93843" lon="0.16238">
        <ele>1803</ele>
        <time>2013-03-24T10:02:07Z</time>
      </trkpt>
      <trkpt lat="42.93845" lon="0.16237">
        <ele>1803</ele>
        <time>2013-03-24T10:02:09Z</time>
      </trkpt>
      <trkpt lat="42.93846" lon="0.16237">
        <ele>1803</ele>
        <time>2013-03-24T10:02:11Z</time>
      </trkpt>
      <trkpt lat="42.93848" lon="0.16236">
        <ele>1803</ele>
        <time>2013-03-24T10:02:13Z</time>
      </trkpt>
      <trkpt lat="42.9385" lon="0.16235">
        <ele>1803</ele>
        <time>2013-03-24T10:02:15Z</time>
      </trkpt>
      <trkpt lat="42.93851" lon="0.16234">
        <ele>1803</ele>
        <time>2013-03-24T10:02:17Z</time>
      </trkpt>
      <trkpt lat="42.93853" lon="0.16233">
        <ele>1803</ele>
        <time>2013-03-24T10:02:19Z</time>
      </trkpt>
      <trkpt lat="42.93854" lon="0.16233">
        <ele>1803</ele>
        <time>2013-03-24T10:02:20Z</time>
      </trkpt>
      <trkpt lat="42.93856" lon="0.16232">
        <ele>1803</ele>
        <time>2013-03-24T10:02:22Z</time>
      </trkpt>
      <trkpt lat="42.93857" lon="0.16231">
        <ele>1803</ele>
        <time>2013-03-24T10:02:24Z</time>
      </trkpt>
      <trkpt lat="42.93858" lon="0.1623">
        <ele>1803</ele>
        <time>2013-03-24T10:02:26Z</time>
      </trkpt>
      <trkpt lat="42.9386" lon="0.16229">
        <ele>1803</ele>
        <time>2013-03-24T10:02:28Z</time>
      </trkpt>
      <trkpt lat="42.93861" lon="0.16229">
        <ele>1803</ele>
        <time>2013-03-24T10:02:29Z</time>
      </trkpt>
      <trkpt lat="42.93862" lon="0.16229">
        <ele>1801</ele>
        <time>2013-03-24T10:03:24Z</time>
      </trkpt>
      <trkpt lat="42.93864" lon="0.16229">
        <ele>1800</ele>
        <time>2013-03-24T10:04:09Z</time>
      </trkpt>
      <trkpt lat="42.93866" lon="0.16228">
        <ele>1800</ele>
        <time>2013-03-24T10:04:11Z</time>
      </trkpt>
      <trkpt lat="42.93867" lon="0.16228">
        <ele>1800</ele>
        <time>2013-03-24T10:04:12Z</time>
      </trkpt>
      <trkpt lat="42.93869" lon="0.16228">
        <ele>1800</ele>
        <time>2013-03-24T10:04:14Z</time>
      </trkpt>
      <trkpt lat="42.9387" lon="0.16227">
        <ele>1800</ele>
        <time>2013-03-24T10:04:16Z</time>
      </trkpt>
      <trkpt lat="42.93872" lon="0.16227">
        <ele>1800</ele>
        <time>2013-03-24T10:04:18Z</time>
      </trkpt>
      <trkpt lat="42.93874" lon="0.16225">
        <ele>1800</ele>
        <time>2013-03-24T10:04:21Z</time>
      </trkpt>
      <trkpt lat="42.93876" lon="0.16224">
        <ele>1800</ele>
        <time>2013-03-24T10:04:23Z</time>
      </trkpt>
      <trkpt lat="42.93877" lon="0.16224">
        <ele>1800</ele>
        <time>2013-03-24T10:04:25Z</time>
      </trkpt>
      <trkpt lat="42.93879" lon="0.16222">
        <ele>1800</ele>
        <time>2013-03-24T10:04:28Z</time>
      </trkpt>
      <trkpt lat="42.9388" lon="0.16221">
        <ele>1800</ele>
        <time>2013-03-24T10:04:31Z</time>
      </trkpt>
      <trkpt lat="42.93881" lon="0.1622">
        <ele>1800</ele>
        <time>2013-03-24T10:04:33Z</time>
      </trkpt>
      <trkpt lat="42.93883" lon="0.1622">
        <ele>1800</ele>
        <time>2013-03-24T10:04:35Z</time>
      </trkpt>
      <trkpt lat="42.93884" lon="0.16219">
        <ele>1800</ele>
        <time>2013-03-24T10:04:37Z</time>
      </trkpt>
      <trkpt lat="42.93886" lon="0.16218">
        <ele>1800</ele>
        <time>2013-03-24T10:04:40Z</time>
      </trkpt>
      <trkpt lat="42.93887" lon="0.16218">
        <ele>1801</ele>
        <time>2013-03-24T10:04:42Z</time>
      </trkpt>
      <trkpt lat="42.93888" lon="0.16217">
        <ele>1802</ele>
        <time>2013-03-24T10:04:44Z</time>
      </trkpt>
      <trkpt lat="42.9389" lon="0.16217">
        <ele>1804</ele>
        <time>2013-03-24T10:04:46Z</time>
      </trkpt>
      <trkpt lat="42.93891" lon="0.16216">
        <ele>1805</ele>
        <time>2013-03-24T10:04:48Z</time>
      </trkpt>
      <trkpt lat="42.93892" lon="0.16215">
        <ele>1807</ele>
        <time>2013-03-24T10:04:51Z</time>
      </trkpt>
      <trkpt lat="42.93893" lon="0.16215">
        <ele>1808</ele>
        <time>2013-03-24T10:04:53Z</time>
      </trkpt>
      <trkpt lat="42.93895" lon="0.16215">
        <ele>1809</ele>
        <time>2013-03-24T10:04:55Z</time>
      </trkpt>
      <trkpt lat="42.93896" lon="0.16214">
        <ele>1810</ele>
        <time>2013-03-24T10:04:57Z</time>
      </trkpt>
      <trkpt lat="42.93898" lon="0.16214">
        <ele>1811</ele>
        <time>2013-03-24T10:04:59Z</time>
      </trkpt>
      <trkpt lat="42.93899" lon="0.16213">
        <ele>1812</ele>
        <time>2013-03-24T10:05:01Z</time>
      </trkpt>
      <trkpt lat="42.939" lon="0.16212">
        <ele>1813</ele>
        <time>2013-03-24T10:05:03Z</time>
      </trkpt>
      <trkpt lat="42.93901" lon="0.16212">
        <ele>1817</ele>
        <time>2013-03-24T10:05:24Z</time>
      </trkpt>
      <trkpt lat="42.93903" lon="0.16211">
        <ele>1817</ele>
        <time>2013-03-24T10:05:26Z</time>
      </trkpt>
      <trkpt lat="42.93904" lon="0.1621">
        <ele>1817</ele>
        <time>2013-03-24T10:05:28Z</time>
      </trkpt>
      <trkpt lat="42.93905" lon="0.1621">
        <ele>1817</ele>
        <time>2013-03-24T10:05:30Z</time>
      </trkpt>
      <trkpt lat="42.93907" lon="0.16209">
        <ele>1818</ele>
        <time>2013-03-24T10:05:32Z</time>
      </trkpt>
      <trkpt lat="42.93908" lon="0.16209">
        <ele>1818</ele>
        <time>2013-03-24T10:05:33Z</time>
      </trkpt>
      <trkpt lat="42.93909" lon="0.16208">
        <ele>1818</ele>
        <time>2013-03-24T10:05:34Z</time>
      </trkpt>
      <trkpt lat="42.93911" lon="0.16208">
        <ele>1818</ele>
        <time>2013-03-24T10:05:36Z</time>
      </trkpt>
      <trkpt lat="42.93913" lon="0.16208">
        <ele>1818</ele>
        <time>2013-03-24T10:05:38Z</time>
      </trkpt>
      <trkpt lat="42.93914" lon="0.16207">
        <ele>1818</ele>
        <time>2013-03-24T10:05:39Z</time>
      </trkpt>
      <trkpt lat="42.93916" lon="0.16207">
        <ele>1819</ele>
        <time>2013-03-24T10:05:41Z</time>
      </trkpt>
      <trkpt lat="42.93919" lon="0.16206">
        <ele>1819</ele>
        <time>2013-03-24T10:05:43Z</time>
      </trkpt>
      <trkpt lat="42.9392" lon="0.16206">
        <ele>1819</ele>
        <time>2013-03-24T10:05:44Z</time>
      </trkpt>
      <trkpt lat="42.93922" lon="0.16205">
        <ele>1819</ele>
        <time>2013-03-24T10:05:46Z</time>
      </trkpt>
      <trkpt lat="42.93923" lon="0.16204">
        <ele>1819</ele>
        <time>2013-03-24T10:05:47Z</time>
      </trkpt>
      <trkpt lat="42.93924" lon="0.16203">
        <ele>1819</ele>
        <time>2013-03-24T10:05:49Z</time>
      </trkpt>
      <trkpt lat="42.93926" lon="0.16201">
        <ele>1819</ele>
        <time>2013-03-24T10:05:52Z</time>
      </trkpt>
      <trkpt lat="42.93927" lon="0.16199">
        <ele>1819</ele>
        <time>2013-03-24T10:05:54Z</time>
      </trkpt>
      <trkpt lat="42.93929" lon="0.16198">
        <ele>1819</ele>
        <time>2013-03-24T10:05:56Z</time>
      </trkpt>
      <trkpt lat="42.9393" lon="0.16196">
        <ele>1819</ele>
        <time>2013-03-24T10:05:58Z</time>
      </trkpt>
      <trkpt lat="42.93932" lon="0.16195">
        <ele>1819</ele>
        <time>2013-03-24T10:06:00Z</time>
      </trkpt>
      <trkpt lat="42.93933" lon="0.16193">
        <ele>1819</ele>
        <time>2013-03-24T10:06:02Z</time>
      </trkpt>
      <trkpt lat="42.93934" lon="0.16192">
        <ele>1819</ele>
        <time>2013-03-24T10:06:04Z</time>
      </trkpt>
      <trkpt lat="42.93936" lon="0.1619">
        <ele>1819</ele>
        <time>2013-03-24T10:06:06Z</time>
      </trkpt>
      <trkpt lat="42.93937" lon="0.16189">
        <ele>1819</ele>
        <time>2013-03-24T10:06:08Z</time>
      </trkpt>
      <trkpt lat="42.93939" lon="0.16189">
        <ele>1819</ele>
        <time>2013-03-24T10:06:10Z</time>
      </trkpt>
      <trkpt lat="42.9394" lon="0.1619">
        <ele>1819</ele>
        <time>2013-03-24T10:06:12Z</time>
      </trkpt>
      <trkpt lat="42.93941" lon="0.16192">
        <ele>1819</ele>
        <time>2013-03-24T10:06:15Z</time>
      </trkpt>
      <trkpt lat="42.93943" lon="0.16193">
        <ele>1819</ele>
        <time>2013-03-24T10:06:17Z</time>
      </trkpt>
      <trkpt lat="42.93944" lon="0.16194">
        <ele>1819</ele>
        <time>2013-03-24T10:06:19Z</time>
      </trkpt>
      <trkpt lat="42.93945" lon="0.16196">
        <ele>1819</ele>
        <time>2013-03-24T10:06:21Z</time>
      </trkpt>
      <trkpt lat="42.93946" lon="0.16196">
        <ele>1819</ele>
        <time>2013-03-24T10:06:23Z</time>
      </trkpt>
      <trkpt lat="42.93948" lon="0.16197">
        <ele>1819</ele>
        <time>2013-03-24T10:06:26Z</time>
      </trkpt>
      <trkpt lat="42.93949" lon="0.16196">
        <ele>1817</ele>
        <time>2013-03-24T10:06:40Z</time>
      </trkpt>
      <trkpt lat="42.93951" lon="0.16197">
        <ele>1816</ele>
        <time>2013-03-24T10:06:43Z</time>
      </trkpt>
      <trkpt lat="42.93952" lon="0.16198">
        <ele>1815</ele>
        <time>2013-03-24T10:06:45Z</time>
      </trkpt>
      <trkpt lat="42.93953" lon="0.16198">
        <ele>1815</ele>
        <time>2013-03-24T10:06:47Z</time>
      </trkpt>
      <trkpt lat="42.93955" lon="0.16199">
        <ele>1815</ele>
        <time>2013-03-24T10:06:49Z</time>
      </trkpt>
      <trkpt lat="42.93956" lon="0.16201">
        <ele>1815</ele>
        <time>2013-03-24T10:06:52Z</time>
      </trkpt>
      <trkpt lat="42.93957" lon="0.16203">
        <ele>1815</ele>
        <time>2013-03-24T10:06:54Z</time>
      </trkpt>
      <trkpt lat="42.93958" lon="0.16205">
        <ele>1815</ele>
        <time>2013-03-24T10:06:56Z</time>
      </trkpt>
      <trkpt lat="42.93959" lon="0.16206">
        <ele>1815</ele>
        <time>2013-03-24T10:06:58Z</time>
      </trkpt>
      <trkpt lat="42.9396" lon="0.16208">
        <ele>1815</ele>
        <time>2013-03-24T10:07:00Z</time>
      </trkpt>
      <trkpt lat="42.93961" lon="0.16207">
        <ele>1815</ele>
        <time>2013-03-24T10:07:02Z</time>
      </trkpt>
      <trkpt lat="42.93962" lon="0.16206">
        <ele>1815</ele>
        <time>2013-03-24T10:07:04Z</time>
      </trkpt>
      <trkpt lat="42.93963" lon="0.16205">
        <ele>1815</ele>
        <time>2013-03-24T10:07:06Z</time>
      </trkpt>
      <trkpt lat="42.93964" lon="0.16203">
        <ele>1815</ele>
        <time>2013-03-24T10:07:08Z</time>
      </trkpt>
      <trkpt lat="42.93966" lon="0.16202">
        <ele>1815</ele>
        <time>2013-03-24T10:07:10Z</time>
      </trkpt>
      <trkpt lat="42.93967" lon="0.16201">
        <ele>1815</ele>
        <time>2013-03-24T10:07:12Z</time>
      </trkpt>
      <trkpt lat="42.93968" lon="0.16199">
        <ele>1815</ele>
        <time>2013-03-24T10:07:14Z</time>
      </trkpt>
      <trkpt lat="42.93969" lon="0.16198">
        <ele>1815</ele>
        <time>2013-03-24T10:07:16Z</time>
      </trkpt>
      <trkpt lat="42.93971" lon="0.16197">
        <ele>1815</ele>
        <time>2013-03-24T10:07:18Z</time>
      </trkpt>
      <trkpt lat="42.93972" lon="0.16195">
        <ele>1816</ele>
        <time>2013-03-24T10:07:21Z</time>
      </trkpt>
      <trkpt lat="42.93973" lon="0.16194">
        <ele>1816</ele>
        <time>2013-03-24T10:07:23Z</time>
      </trkpt>
      <trkpt lat="42.93975" lon="0.16193">
        <ele>1816</ele>
        <time>2013-03-24T10:07:25Z</time>
      </trkpt>
      <trkpt lat="42.93976" lon="0.16192">
        <ele>1817</ele>
        <time>2013-03-24T10:07:27Z</time>
      </trkpt>
      <trkpt lat="42.93977" lon="0.1619">
        <ele>1817</ele>
        <time>2013-03-24T10:07:29Z</time>
      </trkpt>
      <trkpt lat="42.93978" lon="0.16189">
        <ele>1817</ele>
        <time>2013-03-24T10:07:31Z</time>
      </trkpt>
      <trkpt lat="42.93979" lon="0.1619">
        <ele>1818</ele>
        <time>2013-03-24T10:07:34Z</time>
      </trkpt>
      <trkpt lat="42.9398" lon="0.16192">
        <ele>1818</ele>
        <time>2013-03-24T10:07:36Z</time>
      </trkpt>
      <trkpt lat="42.9398" lon="0.16193">
        <ele>1818</ele>
        <time>2013-03-24T10:07:37Z</time>
      </trkpt>
      <trkpt lat="42.9398" lon="0.16195">
        <ele>1818</ele>
        <time>2013-03-24T10:07:39Z</time>
      </trkpt>
      <trkpt lat="42.9398" lon="0.16197">
        <ele>1818</ele>
        <time>2013-03-24T10:07:54Z</time>
      </trkpt>
      <trkpt lat="42.93981" lon="0.16199">
        <ele>1818</ele>
        <time>2013-03-24T10:07:56Z</time>
      </trkpt>
      <trkpt lat="42.93981" lon="0.16201">
        <ele>1818</ele>
        <time>2013-03-24T10:07:58Z</time>
      </trkpt>
      <trkpt lat="42.93981" lon="0.16203">
        <ele>1818</ele>
        <time>2013-03-24T10:08:00Z</time>
      </trkpt>
      <trkpt lat="42.93981" lon="0.16205">
        <ele>1818</ele>
        <time>2013-03-24T10:08:02Z</time>
      </trkpt>
      <trkpt lat="42.93981" lon="0.16207">
        <ele>1818</ele>
        <time>2013-03-24T10:08:03Z</time>
      </trkpt>
      <trkpt lat="42.93981" lon="0.16209">
        <ele>1818</ele>
        <time>2013-03-24T10:08:05Z</time>
      </trkpt>
      <trkpt lat="42.93981" lon="0.1621">
        <ele>1818</ele>
        <time>2013-03-24T10:08:07Z</time>
      </trkpt>
      <trkpt lat="42.93982" lon="0.16212">
        <ele>1819</ele>
        <time>2013-03-24T10:08:09Z</time>
      </trkpt>
      <trkpt lat="42.93982" lon="0.16214">
        <ele>1819</ele>
        <time>2013-03-24T10:08:10Z</time>
      </trkpt>
      <trkpt lat="42.93983" lon="0.16215">
        <ele>1819</ele>
        <time>2013-03-24T10:08:12Z</time>
      </trkpt>
      <trkpt lat="42.93984" lon="0.16214">
        <ele>1820</ele>
        <time>2013-03-24T10:08:14Z</time>
      </trkpt>
      <trkpt lat="42.93985" lon="0.16212">
        <ele>1821</ele>
        <time>2013-03-24T10:08:16Z</time>
      </trkpt>
      <trkpt lat="42.93987" lon="0.1621">
        <ele>1821</ele>
        <time>2013-03-24T10:08:18Z</time>
      </trkpt>
      <trkpt lat="42.93988" lon="0.16209">
        <ele>1822</ele>
        <time>2013-03-24T10:08:20Z</time>
      </trkpt>
      <trkpt lat="42.93989" lon="0.16207">
        <ele>1822</ele>
        <time>2013-03-24T10:08:22Z</time>
      </trkpt>
      <trkpt lat="42.9399" lon="0.16206">
        <ele>1822</ele>
        <time>2013-03-24T10:08:24Z</time>
      </trkpt>
      <trkpt lat="42.93991" lon="0.16204">
        <ele>1822</ele>
        <time>2013-03-24T10:08:26Z</time>
      </trkpt>
      <trkpt lat="42.93992" lon="0.16203">
        <ele>1823</ele>
        <time>2013-03-24T10:08:28Z</time>
      </trkpt>
      <trkpt lat="42.93993" lon="0.16201">
        <ele>1823</ele>
        <time>2013-03-24T10:08:30Z</time>
      </trkpt>
      <trkpt lat="42.93995" lon="0.162">
        <ele>1823</ele>
        <time>2013-03-24T10:08:32Z</time>
      </trkpt>
      <trkpt lat="42.93994" lon="0.16198">
        <ele>1825</ele>
        <time>2013-03-24T10:09:11Z</time>
      </trkpt>
      <trkpt lat="42.93996" lon="0.16197">
        <ele>1825</ele>
        <time>2013-03-24T10:09:22Z</time>
      </trkpt>
      <trkpt lat="42.93997" lon="0.16196">
        <ele>1825</ele>
        <time>2013-03-24T10:09:24Z</time>
      </trkpt>
      <trkpt lat="42.93998" lon="0.16195">
        <ele>1825</ele>
        <time>2013-03-24T10:09:27Z</time>
      </trkpt>
      <trkpt lat="42.93999" lon="0.16194">
        <ele>1825</ele>
        <time>2013-03-24T10:09:30Z</time>
      </trkpt>
      <trkpt lat="42.94001" lon="0.16192">
        <ele>1825</ele>
        <time>2013-03-24T10:09:32Z</time>
      </trkpt>
      <trkpt lat="42.94002" lon="0.16191">
        <ele>1825</ele>
        <time>2013-03-24T10:09:34Z</time>
      </trkpt>
      <trkpt lat="42.94003" lon="0.1619">
        <ele>1825</ele>
        <time>2013-03-24T10:09:36Z</time>
      </trkpt>
      <trkpt lat="42.94005" lon="0.16188">
        <ele>1826</ele>
        <time>2013-03-24T10:09:38Z</time>
      </trkpt>
      <trkpt lat="42.94006" lon="0.16186">
        <ele>1826</ele>
        <time>2013-03-24T10:09:40Z</time>
      </trkpt>
      <trkpt lat="42.94007" lon="0.16185">
        <ele>1826</ele>
        <time>2013-03-24T10:09:42Z</time>
      </trkpt>
      <trkpt lat="42.94009" lon="0.16183">
        <ele>1827</ele>
        <time>2013-03-24T10:09:44Z</time>
      </trkpt>
      <trkpt lat="42.9401" lon="0.16182">
        <ele>1828</ele>
        <time>2013-03-24T10:09:46Z</time>
      </trkpt>
      <trkpt lat="42.94011" lon="0.1618">
        <ele>1829</ele>
        <time>2013-03-24T10:09:49Z</time>
      </trkpt>
      <trkpt lat="42.94012" lon="0.16179">
        <ele>1829</ele>
        <time>2013-03-24T10:09:51Z</time>
      </trkpt>
      <trkpt lat="42.94014" lon="0.16177">
        <ele>1829</ele>
        <time>2013-03-24T10:09:53Z</time>
      </trkpt>
      <trkpt lat="42.94015" lon="0.16175">
        <ele>1830</ele>
        <time>2013-03-24T10:09:55Z</time>
      </trkpt>
      <trkpt lat="42.94016" lon="0.16173">
        <ele>1830</ele>
        <time>2013-03-24T10:09:57Z</time>
      </trkpt>
      <trkpt lat="42.94017" lon="0.16173">
        <ele>1831</ele>
        <time>2013-03-24T10:09:59Z</time>
      </trkpt>
      <trkpt lat="42.94019" lon="0.16173">
        <ele>1831</ele>
        <time>2013-03-24T10:10:01Z</time>
      </trkpt>
      <trkpt lat="42.9402" lon="0.16174">
        <ele>1831</ele>
        <time>2013-03-24T10:10:03Z</time>
      </trkpt>
      <trkpt lat="42.94022" lon="0.16176">
        <ele>1832</ele>
        <time>2013-03-24T10:10:05Z</time>
      </trkpt>
      <trkpt lat="42.94023" lon="0.16178">
        <ele>1832</ele>
        <time>2013-03-24T10:10:07Z</time>
      </trkpt>
      <trkpt lat="42.94024" lon="0.1618">
        <ele>1832</ele>
        <time>2013-03-24T10:10:09Z</time>
      </trkpt>
      <trkpt lat="42.94025" lon="0.16182">
        <ele>1832</ele>
        <time>2013-03-24T10:10:11Z</time>
      </trkpt>
      <trkpt lat="42.94027" lon="0.16184">
        <ele>1832</ele>
        <time>2013-03-24T10:10:13Z</time>
      </trkpt>
      <trkpt lat="42.94028" lon="0.16185">
        <ele>1833</ele>
        <time>2013-03-24T10:10:15Z</time>
      </trkpt>
      <trkpt lat="42.9403" lon="0.16184">
        <ele>1833</ele>
        <time>2013-03-24T10:10:17Z</time>
      </trkpt>
      <trkpt lat="42.94032" lon="0.16183">
        <ele>1833</ele>
        <time>2013-03-24T10:10:19Z</time>
      </trkpt>
      <trkpt lat="42.94033" lon="0.16183">
        <ele>1834</ele>
        <time>2013-03-24T10:10:47Z</time>
      </trkpt>
      <trkpt lat="42.94035" lon="0.16182">
        <ele>1834</ele>
        <time>2013-03-24T10:10:57Z</time>
      </trkpt>
      <trkpt lat="42.94037" lon="0.16183">
        <ele>1834</ele>
        <time>2013-03-24T10:11:00Z</time>
      </trkpt>
      <trkpt lat="42.94039" lon="0.16184">
        <ele>1834</ele>
        <time>2013-03-24T10:11:01Z</time>
      </trkpt>
      <trkpt lat="42.9404" lon="0.16184">
        <ele>1834</ele>
        <time>2013-03-24T10:11:03Z</time>
      </trkpt>
      <trkpt lat="42.94043" lon="0.16185">
        <ele>1834</ele>
        <time>2013-03-24T10:11:06Z</time>
      </trkpt>
      <trkpt lat="42.94045" lon="0.16185">
        <ele>1835</ele>
        <time>2013-03-24T10:11:08Z</time>
      </trkpt>
      <trkpt lat="42.94047" lon="0.16186">
        <ele>1835</ele>
        <time>2013-03-24T10:11:11Z</time>
      </trkpt>
      <trkpt lat="42.94048" lon="0.16186">
        <ele>1835</ele>
        <time>2013-03-24T10:11:12Z</time>
      </trkpt>
      <trkpt lat="42.9405" lon="0.16186">
        <ele>1836</ele>
        <time>2013-03-24T10:11:14Z</time>
      </trkpt>
      <trkpt lat="42.94052" lon="0.16187">
        <ele>1836</ele>
        <time>2013-03-24T10:11:16Z</time>
      </trkpt>
      <trkpt lat="42.94053" lon="0.16188">
        <ele>1837</ele>
        <time>2013-03-24T10:11:18Z</time>
      </trkpt>
      <trkpt lat="42.94055" lon="0.16189">
        <ele>1837</ele>
        <time>2013-03-24T10:11:20Z</time>
      </trkpt>
      <trkpt lat="42.94057" lon="0.16189">
        <ele>1838</ele>
        <time>2013-03-24T10:11:22Z</time>
      </trkpt>
      <trkpt lat="42.94059" lon="0.1619">
        <ele>1838</ele>
        <time>2013-03-24T10:11:24Z</time>
      </trkpt>
      <trkpt lat="42.9406" lon="0.16191">
        <ele>1839</ele>
        <time>2013-03-24T10:11:29Z</time>
      </trkpt>
      <trkpt lat="42.94061" lon="0.16191">
        <ele>1840</ele>
        <time>2013-03-24T10:11:31Z</time>
      </trkpt>
      <trkpt lat="42.94062" lon="0.16191">
        <ele>1840</ele>
        <time>2013-03-24T10:11:32Z</time>
      </trkpt>
      <trkpt lat="42.94064" lon="0.16192">
        <ele>1841</ele>
        <time>2013-03-24T10:11:34Z</time>
      </trkpt>
      <trkpt lat="42.94066" lon="0.16192">
        <ele>1841</ele>
        <time>2013-03-24T10:11:36Z</time>
      </trkpt>
      <trkpt lat="42.94069" lon="0.16193">
        <ele>1841</ele>
        <time>2013-03-24T10:11:38Z</time>
      </trkpt>
      <trkpt lat="42.9407" lon="0.16193">
        <ele>1842</ele>
        <time>2013-03-24T10:11:40Z</time>
      </trkpt>
      <trkpt lat="42.94072" lon="0.16194">
        <ele>1842</ele>
        <time>2013-03-24T10:11:41Z</time>
      </trkpt>
      <trkpt lat="42.94073" lon="0.16195">
        <ele>1843</ele>
        <time>2013-03-24T10:11:43Z</time>
      </trkpt>
      <trkpt lat="42.94075" lon="0.16195">
        <ele>1843</ele>
        <time>2013-03-24T10:11:44Z</time>
      </trkpt>
      <trkpt lat="42.94076" lon="0.16195">
        <ele>1843</ele>
        <time>2013-03-24T10:11:45Z</time>
      </trkpt>
      <trkpt lat="42.94077" lon="0.16195">
        <ele>1844</ele>
        <time>2013-03-24T10:11:46Z</time>
      </trkpt>
      <trkpt lat="42.94079" lon="0.16194">
        <ele>1844</ele>
        <time>2013-03-24T10:11:48Z</time>
      </trkpt>
      <trkpt lat="42.9408" lon="0.16194">
        <ele>1845</ele>
        <time>2013-03-24T10:11:51Z</time>
      </trkpt>
      <trkpt lat="42.94082" lon="0.16194">
        <ele>1846</ele>
        <time>2013-03-24T10:11:53Z</time>
      </trkpt>
      <trkpt lat="42.94084" lon="0.16193">
        <ele>1846</ele>
        <time>2013-03-24T10:11:54Z</time>
      </trkpt>
      <trkpt lat="42.94085" lon="0.16193">
        <ele>1847</ele>
        <time>2013-03-24T10:11:56Z</time>
      </trkpt>
      <trkpt lat="42.94084" lon="0.16193">
        <ele>1849</ele>
        <time>2013-03-24T10:12:05Z</time>
      </trkpt>
      <trkpt lat="42.94086" lon="0.16192">
        <ele>1850</ele>
        <time>2013-03-24T10:12:22Z</time>
      </trkpt>
      <trkpt lat="42.94089" lon="0.16192">
        <ele>1850</ele>
        <time>2013-03-24T10:12:24Z</time>
      </trkpt>
      <trkpt lat="42.9409" lon="0.16193">
        <ele>1850</ele>
        <time>2013-03-24T10:12:25Z</time>
      </trkpt>
      <trkpt lat="42.94091" lon="0.16193">
        <ele>1850</ele>
        <time>2013-03-24T10:12:27Z</time>
      </trkpt>
      <trkpt lat="42.94093" lon="0.16193">
        <ele>1850</ele>
        <time>2013-03-24T10:12:29Z</time>
      </trkpt>
      <trkpt lat="42.94095" lon="0.16193">
        <ele>1850</ele>
        <time>2013-03-24T10:12:31Z</time>
      </trkpt>
      <trkpt lat="42.94096" lon="0.16194">
        <ele>1850</ele>
        <time>2013-03-24T10:12:33Z</time>
      </trkpt>
      <trkpt lat="42.94098" lon="0.16194">
        <ele>1850</ele>
        <time>2013-03-24T10:12:35Z</time>
      </trkpt>
      <trkpt lat="42.94099" lon="0.16194">
        <ele>1850</ele>
        <time>2013-03-24T10:12:36Z</time>
      </trkpt>
      <trkpt lat="42.94101" lon="0.16195">
        <ele>1851</ele>
        <time>2013-03-24T10:12:38Z</time>
      </trkpt>
      <trkpt lat="42.94102" lon="0.16195">
        <ele>1851</ele>
        <time>2013-03-24T10:12:39Z</time>
      </trkpt>
      <trkpt lat="42.94104" lon="0.16195">
        <ele>1851</ele>
        <time>2013-03-24T10:12:41Z</time>
      </trkpt>
      <trkpt lat="42.94105" lon="0.16195">
        <ele>1851</ele>
        <time>2013-03-24T10:12:42Z</time>
      </trkpt>
      <trkpt lat="42.94107" lon="0.16195">
        <ele>1851</ele>
        <time>2013-03-24T10:12:45Z</time>
      </trkpt>
      <trkpt lat="42.94109" lon="0.16195">
        <ele>1852</ele>
        <time>2013-03-24T10:12:46Z</time>
      </trkpt>
      <trkpt lat="42.94111" lon="0.16196">
        <ele>1852</ele>
        <time>2013-03-24T10:12:48Z</time>
      </trkpt>
      <trkpt lat="42.94112" lon="0.16197">
        <ele>1852</ele>
        <time>2013-03-24T10:12:50Z</time>
      </trkpt>
      <trkpt lat="42.94114" lon="0.16197">
        <ele>1852</ele>
        <time>2013-03-24T10:12:51Z</time>
      </trkpt>
      <trkpt lat="42.94115" lon="0.16197">
        <ele>1852</ele>
        <time>2013-03-24T10:12:53Z</time>
      </trkpt>
      <trkpt lat="42.94117" lon="0.16197">
        <ele>1852</ele>
        <time>2013-03-24T10:12:54Z</time>
      </trkpt>
      <trkpt lat="42.94118" lon="0.16197">
        <ele>1852</ele>
        <time>2013-03-24T10:12:55Z</time>
      </trkpt>
      <trkpt lat="42.94119" lon="0.16196">
        <ele>1853</ele>
        <time>2013-03-24T10:13:11Z</time>
      </trkpt>
      <trkpt lat="42.94121" lon="0.16196">
        <ele>1853</ele>
        <time>2013-03-24T10:13:14Z</time>
      </trkpt>
      <trkpt lat="42.94123" lon="0.16196">
        <ele>1853</ele>
        <time>2013-03-24T10:13:16Z</time>
      </trkpt>
      <trkpt lat="42.94125" lon="0.16196">
        <ele>1853</ele>
        <time>2013-03-24T10:13:17Z</time>
      </trkpt>
      <trkpt lat="42.94127" lon="0.16196">
        <ele>1853</ele>
        <time>2013-03-24T10:13:19Z</time>
      </trkpt>
      <trkpt lat="42.94128" lon="0.16197">
        <ele>1853</ele>
        <time>2013-03-24T10:13:22Z</time>
      </trkpt>
      <trkpt lat="42.94129" lon="0.16197">
        <ele>1853</ele>
        <time>2013-03-24T10:13:22Z</time>
      </trkpt>
      <trkpt lat="42.94131" lon="0.16197">
        <ele>1853</ele>
        <time>2013-03-24T10:13:25Z</time>
      </trkpt>
      <trkpt lat="42.94132" lon="0.16196">
        <ele>1853</ele>
        <time>2013-03-24T10:13:26Z</time>
      </trkpt>
      <trkpt lat="42.94134" lon="0.16197">
        <ele>1853</ele>
        <time>2013-03-24T10:13:28Z</time>
      </trkpt>
      <trkpt lat="42.94136" lon="0.16197">
        <ele>1853</ele>
        <time>2013-03-24T10:13:30Z</time>
      </trkpt>
      <trkpt lat="42.94138" lon="0.16197">
        <ele>1853</ele>
        <time>2013-03-24T10:13:32Z</time>
      </trkpt>
      <trkpt lat="42.9414" lon="0.16197">
        <ele>1853</ele>
        <time>2013-03-24T10:13:34Z</time>
      </trkpt>
      <trkpt lat="42.94141" lon="0.16198">
        <ele>1853</ele>
        <time>2013-03-24T10:13:36Z</time>
      </trkpt>
      <trkpt lat="42.94143" lon="0.16198">
        <ele>1857</ele>
        <time>2013-03-24T10:14:05Z</time>
      </trkpt>
      <trkpt lat="42.94144" lon="0.16199">
        <ele>1857</ele>
        <time>2013-03-24T10:14:06Z</time>
      </trkpt>
      <trkpt lat="42.94146" lon="0.16199">
        <ele>1857</ele>
        <time>2013-03-24T10:14:08Z</time>
      </trkpt>
      <trkpt lat="42.94148" lon="0.16201">
        <ele>1858</ele>
        <time>2013-03-24T10:14:11Z</time>
      </trkpt>
      <trkpt lat="42.9415" lon="0.16201">
        <ele>1860</ele>
        <time>2013-03-24T10:14:13Z</time>
      </trkpt>
      <trkpt lat="42.94151" lon="0.16202">
        <ele>1862</ele>
        <time>2013-03-24T10:14:15Z</time>
      </trkpt>
      <trkpt lat="42.94153" lon="0.16203">
        <ele>1863</ele>
        <time>2013-03-24T10:14:17Z</time>
      </trkpt>
      <trkpt lat="42.94152" lon="0.16204">
        <ele>1868</ele>
        <time>2013-03-24T10:14:23Z</time>
      </trkpt>
      <trkpt lat="42.94152" lon="0.16206">
        <ele>1870</ele>
        <time>2013-03-24T10:14:30Z</time>
      </trkpt>
      <trkpt lat="42.94153" lon="0.16206">
        <ele>1871</ele>
        <time>2013-03-24T10:14:53Z</time>
      </trkpt>
      <trkpt lat="42.94154" lon="0.16204">
        <ele>1868</ele>
        <time>2013-03-24T10:16:28Z</time>
      </trkpt>
      <trkpt lat="42.94155" lon="0.16203">
        <ele>1868</ele>
        <time>2013-03-24T10:16:34Z</time>
      </trkpt>
      <trkpt lat="42.94157" lon="0.16203">
        <ele>1867</ele>
        <time>2013-03-24T10:16:36Z</time>
      </trkpt>
      <trkpt lat="42.94158" lon="0.16203">
        <ele>1866</ele>
        <time>2013-03-24T10:16:38Z</time>
      </trkpt>
      <trkpt lat="42.9416" lon="0.16203">
        <ele>1866</ele>
        <time>2013-03-24T10:16:40Z</time>
      </trkpt>
      <trkpt lat="42.94162" lon="0.16204">
        <ele>1866</ele>
        <time>2013-03-24T10:16:42Z</time>
      </trkpt>
      <trkpt lat="42.94164" lon="0.16205">
        <ele>1866</ele>
        <time>2013-03-24T10:16:44Z</time>
      </trkpt>
      <trkpt lat="42.94165" lon="0.16205">
        <ele>1866</ele>
        <time>2013-03-24T10:16:46Z</time>
      </trkpt>
      <trkpt lat="42.94167" lon="0.16205">
        <ele>1866</ele>
        <time>2013-03-24T10:16:48Z</time>
      </trkpt>
      <trkpt lat="42.94168" lon="0.16206">
        <ele>1866</ele>
        <time>2013-03-24T10:16:50Z</time>
      </trkpt>
      <trkpt lat="42.9417" lon="0.16207">
        <ele>1866</ele>
        <time>2013-03-24T10:16:52Z</time>
      </trkpt>
      <trkpt lat="42.94172" lon="0.16207">
        <ele>1866</ele>
        <time>2013-03-24T10:16:54Z</time>
      </trkpt>
      <trkpt lat="42.94173" lon="0.16207">
        <ele>1866</ele>
        <time>2013-03-24T10:16:56Z</time>
      </trkpt>
      <trkpt lat="42.94175" lon="0.16207">
        <ele>1866</ele>
        <time>2013-03-24T10:16:58Z</time>
      </trkpt>
      <trkpt lat="42.94176" lon="0.16207">
        <ele>1866</ele>
        <time>2013-03-24T10:17:00Z</time>
      </trkpt>
      <trkpt lat="42.94178" lon="0.16207">
        <ele>1866</ele>
        <time>2013-03-24T10:17:02Z</time>
      </trkpt>
      <trkpt lat="42.9418" lon="0.16207">
        <ele>1866</ele>
        <time>2013-03-24T10:17:04Z</time>
      </trkpt>
      <trkpt lat="42.94181" lon="0.16208">
        <ele>1866</ele>
        <time>2013-03-24T10:17:06Z</time>
      </trkpt>
      <trkpt lat="42.94183" lon="0.16208">
        <ele>1866</ele>
        <time>2013-03-24T10:17:08Z</time>
      </trkpt>
      <trkpt lat="42.94184" lon="0.16207">
        <ele>1866</ele>
        <time>2013-03-24T10:17:10Z</time>
      </trkpt>
      <trkpt lat="42.94185" lon="0.16207">
        <ele>1866</ele>
        <time>2013-03-24T10:17:12Z</time>
      </trkpt>
      <trkpt lat="42.94187" lon="0.16207">
        <ele>1866</ele>
        <time>2013-03-24T10:17:19Z</time>
      </trkpt>
      <trkpt lat="42.94189" lon="0.16207">
        <ele>1866</ele>
        <time>2013-03-24T10:17:21Z</time>
      </trkpt>
      <trkpt lat="42.9419" lon="0.16207">
        <ele>1867</ele>
        <time>2013-03-24T10:17:23Z</time>
      </trkpt>
      <trkpt lat="42.94191" lon="0.16208">
        <ele>1867</ele>
        <time>2013-03-24T10:17:25Z</time>
      </trkpt>
      <trkpt lat="42.94193" lon="0.16207">
        <ele>1868</ele>
        <time>2013-03-24T10:17:27Z</time>
      </trkpt>
      <trkpt lat="42.94194" lon="0.16207">
        <ele>1869</ele>
        <time>2013-03-24T10:17:29Z</time>
      </trkpt>
      <trkpt lat="42.94196" lon="0.16207">
        <ele>1869</ele>
        <time>2013-03-24T10:17:31Z</time>
      </trkpt>
      <trkpt lat="42.94197" lon="0.16207">
        <ele>1870</ele>
        <time>2013-03-24T10:17:33Z</time>
      </trkpt>
      <trkpt lat="42.94198" lon="0.16207">
        <ele>1870</ele>
        <time>2013-03-24T10:17:35Z</time>
      </trkpt>
      <trkpt lat="42.942" lon="0.16207">
        <ele>1870</ele>
        <time>2013-03-24T10:17:37Z</time>
      </trkpt>
      <trkpt lat="42.94201" lon="0.16207">
        <ele>1871</ele>
        <time>2013-03-24T10:17:39Z</time>
      </trkpt>
      <trkpt lat="42.94202" lon="0.16207">
        <ele>1872</ele>
        <time>2013-03-24T10:17:56Z</time>
      </trkpt>
      <trkpt lat="42.94204" lon="0.16206">
        <ele>1872</ele>
        <time>2013-03-24T10:17:59Z</time>
      </trkpt>
      <trkpt lat="42.94205" lon="0.16206">
        <ele>1872</ele>
        <time>2013-03-24T10:18:01Z</time>
      </trkpt>
      <trkpt lat="42.94207" lon="0.16206">
        <ele>1872</ele>
        <time>2013-03-24T10:18:03Z</time>
      </trkpt>
      <trkpt lat="42.94209" lon="0.16207">
        <ele>1873</ele>
        <time>2013-03-24T10:18:05Z</time>
      </trkpt>
      <trkpt lat="42.9421" lon="0.16207">
        <ele>1873</ele>
        <time>2013-03-24T10:18:07Z</time>
      </trkpt>
      <trkpt lat="42.94211" lon="0.16207">
        <ele>1874</ele>
        <time>2013-03-24T10:18:09Z</time>
      </trkpt>
      <trkpt lat="42.94212" lon="0.16207">
        <ele>1874</ele>
        <time>2013-03-24T10:18:11Z</time>
      </trkpt>
      <trkpt lat="42.94213" lon="0.16207">
        <ele>1874</ele>
        <time>2013-03-24T10:18:13Z</time>
      </trkpt>
      <trkpt lat="42.94215" lon="0.16206">
        <ele>1875</ele>
        <time>2013-03-24T10:18:16Z</time>
      </trkpt>
      <trkpt lat="42.94216" lon="0.16206">
        <ele>1875</ele>
        <time>2013-03-24T10:18:18Z</time>
      </trkpt>
      <trkpt lat="42.94217" lon="0.16208">
        <ele>1876</ele>
        <time>2013-03-24T10:18:21Z</time>
      </trkpt>
      <trkpt lat="42.94218" lon="0.16208">
        <ele>1876</ele>
        <time>2013-03-24T10:18:24Z</time>
      </trkpt>
      <trkpt lat="42.94219" lon="0.16208">
        <ele>1876</ele>
        <time>2013-03-24T10:18:26Z</time>
      </trkpt>
      <trkpt lat="42.9422" lon="0.16207">
        <ele>1876</ele>
        <time>2013-03-24T10:18:28Z</time>
      </trkpt>
      <trkpt lat="42.94222" lon="0.16207">
        <ele>1876</ele>
        <time>2013-03-24T10:18:30Z</time>
      </trkpt>
      <trkpt lat="42.94223" lon="0.16207">
        <ele>1877</ele>
        <time>2013-03-24T10:18:32Z</time>
      </trkpt>
      <trkpt lat="42.94225" lon="0.16206">
        <ele>1878</ele>
        <time>2013-03-24T10:18:47Z</time>
      </trkpt>
      <trkpt lat="42.94226" lon="0.16206">
        <ele>1878</ele>
        <time>2013-03-24T10:18:49Z</time>
      </trkpt>
      <trkpt lat="42.94228" lon="0.16205">
        <ele>1878</ele>
        <time>2013-03-24T10:18:51Z</time>
      </trkpt>
      <trkpt lat="42.94229" lon="0.16205">
        <ele>1878</ele>
        <time>2013-03-24T10:18:53Z</time>
      </trkpt>
      <trkpt lat="42.9423" lon="0.16204">
        <ele>1878</ele>
        <time>2013-03-24T10:18:55Z</time>
      </trkpt>
      <trkpt lat="42.94232" lon="0.16203">
        <ele>1878</ele>
        <time>2013-03-24T10:18:57Z</time>
      </trkpt>
      <trkpt lat="42.94233" lon="0.16202">
        <ele>1879</ele>
        <time>2013-03-24T10:18:59Z</time>
      </trkpt>
      <trkpt lat="42.94234" lon="0.16201">
        <ele>1879</ele>
        <time>2013-03-24T10:19:01Z</time>
      </trkpt>
      <trkpt lat="42.94236" lon="0.162">
        <ele>1879</ele>
        <time>2013-03-24T10:19:03Z</time>
      </trkpt>
      <trkpt lat="42.94237" lon="0.16199">
        <ele>1879</ele>
        <time>2013-03-24T10:19:05Z</time>
      </trkpt>
      <trkpt lat="42.94238" lon="0.16198">
        <ele>1879</ele>
        <time>2013-03-24T10:19:07Z</time>
      </trkpt>
      <trkpt lat="42.9424" lon="0.16197">
        <ele>1879</ele>
        <time>2013-03-24T10:19:09Z</time>
      </trkpt>
      <trkpt lat="42.94241" lon="0.16196">
        <ele>1879</ele>
        <time>2013-03-24T10:19:11Z</time>
      </trkpt>
      <trkpt lat="42.94242" lon="0.16195">
        <ele>1879</ele>
        <time>2013-03-24T10:19:13Z</time>
      </trkpt>
      <trkpt lat="42.94244" lon="0.16195">
        <ele>1880</ele>
        <time>2013-03-24T10:19:15Z</time>
      </trkpt>
      <trkpt lat="42.94245" lon="0.16194">
        <ele>1880</ele>
        <time>2013-03-24T10:19:17Z</time>
      </trkpt>
      <trkpt lat="42.94246" lon="0.16193">
        <ele>1880</ele>
        <time>2013-03-24T10:19:19Z</time>
      </trkpt>
      <trkpt lat="42.94247" lon="0.16191">
        <ele>1881</ele>
        <time>2013-03-24T10:19:21Z</time>
      </trkpt>
      <trkpt lat="42.94249" lon="0.1619">
        <ele>1881</ele>
        <time>2013-03-24T10:19:24Z</time>
      </trkpt>
      <trkpt lat="42.9425" lon="0.16191">
        <ele>1882</ele>
        <time>2013-03-24T10:19:27Z</time>
      </trkpt>
      <trkpt lat="42.9425" lon="0.16193">
        <ele>1883</ele>
        <time>2013-03-24T10:19:29Z</time>
      </trkpt>
      <trkpt lat="42.94251" lon="0.16195">
        <ele>1883</ele>
        <time>2013-03-24T10:19:31Z</time>
      </trkpt>
      <trkpt lat="42.94252" lon="0.16196">
        <ele>1883</ele>
        <time>2013-03-24T10:19:34Z</time>
      </trkpt>
      <trkpt lat="42.94253" lon="0.16198">
        <ele>1883</ele>
        <time>2013-03-24T10:19:36Z</time>
      </trkpt>
      <trkpt lat="42.94253" lon="0.162">
        <ele>1883</ele>
        <time>2013-03-24T10:19:38Z</time>
      </trkpt>
      <trkpt lat="42.94254" lon="0.16202">
        <ele>1884</ele>
        <time>2013-03-24T10:19:40Z</time>
      </trkpt>
      <trkpt lat="42.94255" lon="0.16202">
        <ele>1884</ele>
        <time>2013-03-24T10:19:42Z</time>
      </trkpt>
      <trkpt lat="42.94257" lon="0.162">
        <ele>1884</ele>
        <time>2013-03-24T10:19:44Z</time>
      </trkpt>
      <trkpt lat="42.94258" lon="0.16199">
        <ele>1884</ele>
        <time>2013-03-24T10:19:46Z</time>
      </trkpt>
      <trkpt lat="42.94259" lon="0.16198">
        <ele>1884</ele>
        <time>2013-03-24T10:19:48Z</time>
      </trkpt>
      <trkpt lat="42.9426" lon="0.16196">
        <ele>1885</ele>
        <time>2013-03-24T10:19:50Z</time>
      </trkpt>
      <trkpt lat="42.94262" lon="0.16195">
        <ele>1885</ele>
        <time>2013-03-24T10:19:53Z</time>
      </trkpt>
      <trkpt lat="42.94263" lon="0.16194">
        <ele>1886</ele>
        <time>2013-03-24T10:19:55Z</time>
      </trkpt>
      <trkpt lat="42.94264" lon="0.16194">
        <ele>1887</ele>
        <time>2013-03-24T10:19:59Z</time>
      </trkpt>
      <trkpt lat="42.94265" lon="0.16196">
        <ele>1887</ele>
        <time>2013-03-24T10:20:01Z</time>
      </trkpt>
      <trkpt lat="42.94266" lon="0.16197">
        <ele>1887</ele>
        <time>2013-03-24T10:20:03Z</time>
      </trkpt>
      <trkpt lat="42.94267" lon="0.16199">
        <ele>1888</ele>
        <time>2013-03-24T10:20:18Z</time>
      </trkpt>
      <trkpt lat="42.94268" lon="0.16201">
        <ele>1888</ele>
        <time>2013-03-24T10:20:20Z</time>
      </trkpt>
      <trkpt lat="42.94269" lon="0.16203">
        <ele>1888</ele>
        <time>2013-03-24T10:20:23Z</time>
      </trkpt>
      <trkpt lat="42.9427" lon="0.16204">
        <ele>1888</ele>
        <time>2013-03-24T10:20:25Z</time>
      </trkpt>
      <trkpt lat="42.94272" lon="0.16204">
        <ele>1888</ele>
        <time>2013-03-24T10:20:27Z</time>
      </trkpt>
      <trkpt lat="42.94273" lon="0.16203">
        <ele>1888</ele>
        <time>2013-03-24T10:20:29Z</time>
      </trkpt>
      <trkpt lat="42.94275" lon="0.16202">
        <ele>1888</ele>
        <time>2013-03-24T10:20:31Z</time>
      </trkpt>
      <trkpt lat="42.94276" lon="0.16201">
        <ele>1888</ele>
        <time>2013-03-24T10:20:33Z</time>
      </trkpt>
      <trkpt lat="42.94278" lon="0.16201">
        <ele>1888</ele>
        <time>2013-03-24T10:20:35Z</time>
      </trkpt>
      <trkpt lat="42.94279" lon="0.16202">
        <ele>1888</ele>
        <time>2013-03-24T10:20:37Z</time>
      </trkpt>
      <trkpt lat="42.9428" lon="0.16204">
        <ele>1888</ele>
        <time>2013-03-24T10:20:39Z</time>
      </trkpt>
      <trkpt lat="42.94281" lon="0.16206">
        <ele>1888</ele>
        <time>2013-03-24T10:20:41Z</time>
      </trkpt>
      <trkpt lat="42.94283" lon="0.16206">
        <ele>1888</ele>
        <time>2013-03-24T10:20:43Z</time>
      </trkpt>
      <trkpt lat="42.94285" lon="0.16206">
        <ele>1889</ele>
        <time>2013-03-24T10:20:45Z</time>
      </trkpt>
      <trkpt lat="42.94286" lon="0.16206">
        <ele>1889</ele>
        <time>2013-03-24T10:20:47Z</time>
      </trkpt>
      <trkpt lat="42.94288" lon="0.16206">
        <ele>1890</ele>
        <time>2013-03-24T10:20:49Z</time>
      </trkpt>
      <trkpt lat="42.9429" lon="0.16206">
        <ele>1890</ele>
        <time>2013-03-24T10:20:51Z</time>
      </trkpt>
      <trkpt lat="42.94292" lon="0.16206">
        <ele>1891</ele>
        <time>2013-03-24T10:20:53Z</time>
      </trkpt>
      <trkpt lat="42.94293" lon="0.16208">
        <ele>1891</ele>
        <time>2013-03-24T10:20:55Z</time>
      </trkpt>
      <trkpt lat="42.94294" lon="0.16207">
        <ele>1891</ele>
        <time>2013-03-24T10:21:25Z</time>
      </trkpt>
      <trkpt lat="42.94294" lon="0.16209">
        <ele>1891</ele>
        <time>2013-03-24T10:21:31Z</time>
      </trkpt>
      <trkpt lat="42.94295" lon="0.16211">
        <ele>1891</ele>
        <time>2013-03-24T10:21:33Z</time>
      </trkpt>
      <trkpt lat="42.94294" lon="0.16214">
        <ele>1891</ele>
        <time>2013-03-24T10:21:35Z</time>
      </trkpt>
      <trkpt lat="42.94293" lon="0.16215">
        <ele>1891</ele>
        <time>2013-03-24T10:21:39Z</time>
      </trkpt>
      <trkpt lat="42.94292" lon="0.16217">
        <ele>1892</ele>
        <time>2013-03-24T10:21:59Z</time>
      </trkpt>
      <trkpt lat="42.94291" lon="0.16219">
        <ele>1893</ele>
        <time>2013-03-24T10:22:02Z</time>
      </trkpt>
      <trkpt lat="42.9429" lon="0.16221">
        <ele>1893</ele>
        <time>2013-03-24T10:22:04Z</time>
      </trkpt>
      <trkpt lat="42.94289" lon="0.16223">
        <ele>1894</ele>
        <time>2013-03-24T10:22:08Z</time>
      </trkpt>
      <trkpt lat="42.94289" lon="0.16225">
        <ele>1894</ele>
        <time>2013-03-24T10:22:10Z</time>
      </trkpt>
      <trkpt lat="42.94288" lon="0.16226">
        <ele>1895</ele>
        <time>2013-03-24T10:22:12Z</time>
      </trkpt>
      <trkpt lat="42.94287" lon="0.16228">
        <ele>1895</ele>
        <time>2013-03-24T10:22:14Z</time>
      </trkpt>
      <trkpt lat="42.94286" lon="0.1623">
        <ele>1895</ele>
        <time>2013-03-24T10:22:16Z</time>
      </trkpt>
      <trkpt lat="42.94285" lon="0.16232">
        <ele>1895</ele>
        <time>2013-03-24T10:22:18Z</time>
      </trkpt>
      <trkpt lat="42.94284" lon="0.16234">
        <ele>1896</ele>
        <time>2013-03-24T10:22:19Z</time>
      </trkpt>
      <trkpt lat="42.94284" lon="0.16236">
        <ele>1896</ele>
        <time>2013-03-24T10:22:21Z</time>
      </trkpt>
      <trkpt lat="42.94283" lon="0.16237">
        <ele>1897</ele>
        <time>2013-03-24T10:22:22Z</time>
      </trkpt>
      <trkpt lat="42.94282" lon="0.16239">
        <ele>1897</ele>
        <time>2013-03-24T10:22:24Z</time>
      </trkpt>
      <trkpt lat="42.94281" lon="0.16241">
        <ele>1898</ele>
        <time>2013-03-24T10:22:26Z</time>
      </trkpt>
      <trkpt lat="42.94281" lon="0.16243">
        <ele>1898</ele>
        <time>2013-03-24T10:22:28Z</time>
      </trkpt>
      <trkpt lat="42.94281" lon="0.16245">
        <ele>1899</ele>
        <time>2013-03-24T10:22:30Z</time>
      </trkpt>
      <trkpt lat="42.94283" lon="0.16246">
        <ele>1899</ele>
        <time>2013-03-24T10:22:32Z</time>
      </trkpt>
      <trkpt lat="42.94285" lon="0.16247">
        <ele>1900</ele>
        <time>2013-03-24T10:22:34Z</time>
      </trkpt>
      <trkpt lat="42.94287" lon="0.16248">
        <ele>1900</ele>
        <time>2013-03-24T10:22:36Z</time>
      </trkpt>
      <trkpt lat="42.94289" lon="0.16249">
        <ele>1901</ele>
        <time>2013-03-24T10:22:38Z</time>
      </trkpt>
      <trkpt lat="42.9429" lon="0.1625">
        <ele>1901</ele>
        <time>2013-03-24T10:22:40Z</time>
      </trkpt>
      <trkpt lat="42.94292" lon="0.16251">
        <ele>1902</ele>
        <time>2013-03-24T10:22:42Z</time>
      </trkpt>
      <trkpt lat="42.94294" lon="0.16251">
        <ele>1902</ele>
        <time>2013-03-24T10:22:44Z</time>
      </trkpt>
      <trkpt lat="42.94296" lon="0.16252">
        <ele>1902</ele>
        <time>2013-03-24T10:22:46Z</time>
      </trkpt>
      <trkpt lat="42.94298" lon="0.16253">
        <ele>1902</ele>
        <time>2013-03-24T10:22:48Z</time>
      </trkpt>
      <trkpt lat="42.94299" lon="0.16255">
        <ele>1902</ele>
        <time>2013-03-24T10:22:50Z</time>
      </trkpt>
      <trkpt lat="42.94301" lon="0.16256">
        <ele>1902</ele>
        <time>2013-03-24T10:22:52Z</time>
      </trkpt>
      <trkpt lat="42.94303" lon="0.16257">
        <ele>1902</ele>
        <time>2013-03-24T10:22:54Z</time>
      </trkpt>
      <trkpt lat="42.94304" lon="0.16258">
        <ele>1902</ele>
        <time>2013-03-24T10:22:56Z</time>
      </trkpt>
      <trkpt lat="42.94306" lon="0.16259">
        <ele>1902</ele>
        <time>2013-03-24T10:22:58Z</time>
      </trkpt>
      <trkpt lat="42.94308" lon="0.16261">
        <ele>1903</ele>
        <time>2013-03-24T10:23:00Z</time>
      </trkpt>
      <trkpt lat="42.94309" lon="0.16262">
        <ele>1903</ele>
        <time>2013-03-24T10:23:02Z</time>
      </trkpt>
      <trkpt lat="42.94311" lon="0.16263">
        <ele>1904</ele>
        <time>2013-03-24T10:23:04Z</time>
      </trkpt>
      <trkpt lat="42.94313" lon="0.16264">
        <ele>1904</ele>
        <time>2013-03-24T10:23:06Z</time>
      </trkpt>
      <trkpt lat="42.94315" lon="0.16266">
        <ele>1904</ele>
        <time>2013-03-24T10:23:08Z</time>
      </trkpt>
      <trkpt lat="42.94316" lon="0.16267">
        <ele>1904</ele>
        <time>2013-03-24T10:23:10Z</time>
      </trkpt>
      <trkpt lat="42.94318" lon="0.16269">
        <ele>1904</ele>
        <time>2013-03-24T10:23:12Z</time>
      </trkpt>
      <trkpt lat="42.9432" lon="0.1627">
        <ele>1905</ele>
        <time>2013-03-24T10:23:14Z</time>
      </trkpt>
      <trkpt lat="42.94321" lon="0.1627">
        <ele>1906</ele>
        <time>2013-03-24T10:23:36Z</time>
      </trkpt>
      <trkpt lat="42.94322" lon="0.16272">
        <ele>1906</ele>
        <time>2013-03-24T10:23:38Z</time>
      </trkpt>
      <trkpt lat="42.94323" lon="0.16273">
        <ele>1906</ele>
        <time>2013-03-24T10:23:40Z</time>
      </trkpt>
      <trkpt lat="42.94325" lon="0.16275">
        <ele>1907</ele>
        <time>2013-03-24T10:23:42Z</time>
      </trkpt>
      <trkpt lat="42.94326" lon="0.16276">
        <ele>1907</ele>
        <time>2013-03-24T10:23:44Z</time>
      </trkpt>
      <trkpt lat="42.94328" lon="0.16278">
        <ele>1907</ele>
        <time>2013-03-24T10:23:46Z</time>
      </trkpt>
      <trkpt lat="42.9433" lon="0.16279">
        <ele>1907</ele>
        <time>2013-03-24T10:23:48Z</time>
      </trkpt>
      <trkpt lat="42.94332" lon="0.16281">
        <ele>1908</ele>
        <time>2013-03-24T10:23:50Z</time>
      </trkpt>
      <trkpt lat="42.94334" lon="0.16282">
        <ele>1909</ele>
        <time>2013-03-24T10:23:52Z</time>
      </trkpt>
      <trkpt lat="42.94335" lon="0.16283">
        <ele>1910</ele>
        <time>2013-03-24T10:23:54Z</time>
      </trkpt>
      <trkpt lat="42.94337" lon="0.16285">
        <ele>1910</ele>
        <time>2013-03-24T10:23:56Z</time>
      </trkpt>
      <trkpt lat="42.94338" lon="0.16287">
        <ele>1910</ele>
        <time>2013-03-24T10:23:58Z</time>
      </trkpt>
      <trkpt lat="42.9434" lon="0.16289">
        <ele>1910</ele>
        <time>2013-03-24T10:24:00Z</time>
      </trkpt>
      <trkpt lat="42.94341" lon="0.16291">
        <ele>1910</ele>
        <time>2013-03-24T10:24:02Z</time>
      </trkpt>
      <trkpt lat="42.94343" lon="0.16292">
        <ele>1910</ele>
        <time>2013-03-24T10:24:04Z</time>
      </trkpt>
      <trkpt lat="42.94344" lon="0.16294">
        <ele>1911</ele>
        <time>2013-03-24T10:24:06Z</time>
      </trkpt>
      <trkpt lat="42.94346" lon="0.16296">
        <ele>1911</ele>
        <time>2013-03-24T10:24:08Z</time>
      </trkpt>
      <trkpt lat="42.94347" lon="0.16297">
        <ele>1911</ele>
        <time>2013-03-24T10:24:10Z</time>
      </trkpt>
      <trkpt lat="42.94349" lon="0.16299">
        <ele>1912</ele>
        <time>2013-03-24T10:24:12Z</time>
      </trkpt>
      <trkpt lat="42.9435" lon="0.16301">
        <ele>1913</ele>
        <time>2013-03-24T10:24:14Z</time>
      </trkpt>
      <trkpt lat="42.94352" lon="0.16303">
        <ele>1913</ele>
        <time>2013-03-24T10:24:16Z</time>
      </trkpt>
      <trkpt lat="42.94353" lon="0.16305">
        <ele>1914</ele>
        <time>2013-03-24T10:24:18Z</time>
      </trkpt>
      <trkpt lat="42.94354" lon="0.16307">
        <ele>1914</ele>
        <time>2013-03-24T10:24:20Z</time>
      </trkpt>
      <trkpt lat="42.94355" lon="0.16309">
        <ele>1915</ele>
        <time>2013-03-24T10:24:22Z</time>
      </trkpt>
      <trkpt lat="42.94356" lon="0.16311">
        <ele>1915</ele>
        <time>2013-03-24T10:24:24Z</time>
      </trkpt>
      <trkpt lat="42.94358" lon="0.16313">
        <ele>1915</ele>
        <time>2013-03-24T10:24:26Z</time>
      </trkpt>
      <trkpt lat="42.94358" lon="0.16315">
        <ele>1915</ele>
        <time>2013-03-24T10:24:28Z</time>
      </trkpt>
      <trkpt lat="42.94358" lon="0.16316">
        <ele>1915</ele>
        <time>2013-03-24T10:24:30Z</time>
      </trkpt>
      <trkpt lat="42.94357" lon="0.16318">
        <ele>1915</ele>
        <time>2013-03-24T10:24:32Z</time>
      </trkpt>
      <trkpt lat="42.94355" lon="0.16319">
        <ele>1916</ele>
        <time>2013-03-24T10:24:34Z</time>
      </trkpt>
      <trkpt lat="42.94354" lon="0.16319">
        <ele>1916</ele>
        <time>2013-03-24T10:24:35Z</time>
      </trkpt>
      <trkpt lat="42.94352" lon="0.16319">
        <ele>1917</ele>
        <time>2013-03-24T10:24:37Z</time>
      </trkpt>
      <trkpt lat="42.94351" lon="0.1632">
        <ele>1917</ele>
        <time>2013-03-24T10:24:39Z</time>
      </trkpt>
      <trkpt lat="42.94351" lon="0.16321">
        <ele>1918</ele>
        <time>2013-03-24T10:24:45Z</time>
      </trkpt>
      <trkpt lat="42.94351" lon="0.16323">
        <ele>1919</ele>
        <time>2013-03-24T10:25:16Z</time>
      </trkpt>
      <trkpt lat="42.9435" lon="0.16324">
        <ele>1919</ele>
        <time>2013-03-24T10:25:18Z</time>
      </trkpt>
      <trkpt lat="42.9435" lon="0.16326">
        <ele>1920</ele>
        <time>2013-03-24T10:25:28Z</time>
      </trkpt>
      <trkpt lat="42.94351" lon="0.16328">
        <ele>1921</ele>
        <time>2013-03-24T10:25:30Z</time>
      </trkpt>
      <trkpt lat="42.94351" lon="0.16329">
        <ele>1921</ele>
        <time>2013-03-24T10:25:31Z</time>
      </trkpt>
      <trkpt lat="42.94351" lon="0.16331">
        <ele>1921</ele>
        <time>2013-03-24T10:25:32Z</time>
      </trkpt>
      <trkpt lat="42.94352" lon="0.16333">
        <ele>1922</ele>
        <time>2013-03-24T10:25:34Z</time>
      </trkpt>
      <trkpt lat="42.94352" lon="0.16335">
        <ele>1922</ele>
        <time>2013-03-24T10:25:35Z</time>
      </trkpt>
      <trkpt lat="42.94352" lon="0.16337">
        <ele>1922</ele>
        <time>2013-03-24T10:25:37Z</time>
      </trkpt>
      <trkpt lat="42.94353" lon="0.16339">
        <ele>1922</ele>
        <time>2013-03-24T10:25:38Z</time>
      </trkpt>
      <trkpt lat="42.94353" lon="0.1634">
        <ele>1922</ele>
        <time>2013-03-24T10:25:39Z</time>
      </trkpt>
      <trkpt lat="42.94353" lon="0.16343">
        <ele>1922</ele>
        <time>2013-03-24T10:25:41Z</time>
      </trkpt>
      <trkpt lat="42.94353" lon="0.16344">
        <ele>1922</ele>
        <time>2013-03-24T10:25:42Z</time>
      </trkpt>
      <trkpt lat="42.94353" lon="0.16346">
        <ele>1923</ele>
        <time>2013-03-24T10:25:43Z</time>
      </trkpt>
      <trkpt lat="42.94353" lon="0.16348">
        <ele>1923</ele>
        <time>2013-03-24T10:25:44Z</time>
      </trkpt>
      <trkpt lat="42.94352" lon="0.16351">
        <ele>1923</ele>
        <time>2013-03-24T10:25:46Z</time>
      </trkpt>
      <trkpt lat="42.94352" lon="0.16352">
        <ele>1923</ele>
        <time>2013-03-24T10:25:47Z</time>
      </trkpt>
      <trkpt lat="42.94352" lon="0.16354">
        <ele>1923</ele>
        <time>2013-03-24T10:25:48Z</time>
      </trkpt>
      <trkpt lat="42.94352" lon="0.16356">
        <ele>1923</ele>
        <time>2013-03-24T10:25:50Z</time>
      </trkpt>
      <trkpt lat="42.94352" lon="0.16357">
        <ele>1923</ele>
        <time>2013-03-24T10:25:51Z</time>
      </trkpt>
      <trkpt lat="42.94353" lon="0.1636">
        <ele>1923</ele>
        <time>2013-03-24T10:25:53Z</time>
      </trkpt>
      <trkpt lat="42.94353" lon="0.16361">
        <ele>1923</ele>
        <time>2013-03-24T10:25:54Z</time>
      </trkpt>
      <trkpt lat="42.94353" lon="0.16363">
        <ele>1923</ele>
        <time>2013-03-24T10:25:55Z</time>
      </trkpt>
      <trkpt lat="42.94353" lon="0.16364">
        <ele>1923</ele>
        <time>2013-03-24T10:25:56Z</time>
      </trkpt>
      <trkpt lat="42.94353" lon="0.16367">
        <ele>1923</ele>
        <time>2013-03-24T10:25:58Z</time>
      </trkpt>
      <trkpt lat="42.94353" lon="0.16369">
        <ele>1923</ele>
        <time>2013-03-24T10:26:00Z</time>
      </trkpt>
      <trkpt lat="42.94353" lon="0.16372">
        <ele>1923</ele>
        <time>2013-03-24T10:26:13Z</time>
      </trkpt>
      <trkpt lat="42.94353" lon="0.16374">
        <ele>1923</ele>
        <time>2013-03-24T10:26:15Z</time>
      </trkpt>
      <trkpt lat="42.94354" lon="0.16375">
        <ele>1924</ele>
        <time>2013-03-24T10:26:17Z</time>
      </trkpt>
      <trkpt lat="42.94354" lon="0.16377">
        <ele>1924</ele>
        <time>2013-03-24T10:26:19Z</time>
      </trkpt>
      <trkpt lat="42.94355" lon="0.16379">
        <ele>1924</ele>
        <time>2013-03-24T10:26:20Z</time>
      </trkpt>
      <trkpt lat="42.94355" lon="0.16381">
        <ele>1924</ele>
        <time>2013-03-24T10:26:22Z</time>
      </trkpt>
      <trkpt lat="42.94356" lon="0.16383">
        <ele>1924</ele>
        <time>2013-03-24T10:26:24Z</time>
      </trkpt>
      <trkpt lat="42.94357" lon="0.16385">
        <ele>1924</ele>
        <time>2013-03-24T10:26:26Z</time>
      </trkpt>
      <trkpt lat="42.94358" lon="0.16387">
        <ele>1924</ele>
        <time>2013-03-24T10:26:28Z</time>
      </trkpt>
      <trkpt lat="42.94359" lon="0.16389">
        <ele>1924</ele>
        <time>2013-03-24T10:26:30Z</time>
      </trkpt>
      <trkpt lat="42.94359" lon="0.16391">
        <ele>1924</ele>
        <time>2013-03-24T10:26:31Z</time>
      </trkpt>
      <trkpt lat="42.9436" lon="0.16393">
        <ele>1924</ele>
        <time>2013-03-24T10:26:33Z</time>
      </trkpt>
      <trkpt lat="42.9436" lon="0.16395">
        <ele>1925</ele>
        <time>2013-03-24T10:26:35Z</time>
      </trkpt>
      <trkpt lat="42.9436" lon="0.16397">
        <ele>1925</ele>
        <time>2013-03-24T10:26:37Z</time>
      </trkpt>
      <trkpt lat="42.94361" lon="0.164">
        <ele>1925</ele>
        <time>2013-03-24T10:26:39Z</time>
      </trkpt>
      <trkpt lat="42.94361" lon="0.16402">
        <ele>1925</ele>
        <time>2013-03-24T10:26:41Z</time>
      </trkpt>
      <trkpt lat="42.94362" lon="0.16403">
        <ele>1925</ele>
        <time>2013-03-24T10:26:43Z</time>
      </trkpt>
      <trkpt lat="42.94361" lon="0.16405">
        <ele>1925</ele>
        <time>2013-03-24T10:26:45Z</time>
      </trkpt>
      <trkpt lat="42.9436" lon="0.16406">
        <ele>1926</ele>
        <time>2013-03-24T10:26:47Z</time>
      </trkpt>
      <trkpt lat="42.94358" lon="0.16407">
        <ele>1927</ele>
        <time>2013-03-24T10:26:49Z</time>
      </trkpt>
      <trkpt lat="42.94357" lon="0.16407">
        <ele>1928</ele>
        <time>2013-03-24T10:26:51Z</time>
      </trkpt>
      <trkpt lat="42.94355" lon="0.16407">
        <ele>1928</ele>
        <time>2013-03-24T10:26:53Z</time>
      </trkpt>
      <trkpt lat="42.94353" lon="0.16408">
        <ele>1930</ele>
        <time>2013-03-24T10:26:55Z</time>
      </trkpt>
      <trkpt lat="42.94352" lon="0.16409">
        <ele>1931</ele>
        <time>2013-03-24T10:26:57Z</time>
      </trkpt>
      <trkpt lat="42.9435" lon="0.16409">
        <ele>1932</ele>
        <time>2013-03-24T10:26:59Z</time>
      </trkpt>
      <trkpt lat="42.94348" lon="0.16409">
        <ele>1933</ele>
        <time>2013-03-24T10:27:01Z</time>
      </trkpt>
      <trkpt lat="42.94347" lon="0.1641">
        <ele>1933</ele>
        <time>2013-03-24T10:27:03Z</time>
      </trkpt>
      <trkpt lat="42.94345" lon="0.1641">
        <ele>1934</ele>
        <time>2013-03-24T10:27:04Z</time>
      </trkpt>
      <trkpt lat="42.94344" lon="0.1641">
        <ele>1934</ele>
        <time>2013-03-24T10:27:06Z</time>
      </trkpt>
      <trkpt lat="42.94342" lon="0.16411">
        <ele>1936</ele>
        <time>2013-03-24T10:27:08Z</time>
      </trkpt>
      <trkpt lat="42.94342" lon="0.16413">
        <ele>1938</ele>
        <time>2013-03-24T10:27:13Z</time>
      </trkpt>
      <trkpt lat="42.9434" lon="0.16412">
        <ele>1939</ele>
        <time>2013-03-24T10:27:21Z</time>
      </trkpt>
      <trkpt lat="42.94339" lon="0.16413">
        <ele>1939</ele>
        <time>2013-03-24T10:27:23Z</time>
      </trkpt>
      <trkpt lat="42.94337" lon="0.16415">
        <ele>1939</ele>
        <time>2013-03-24T10:27:25Z</time>
      </trkpt>
      <trkpt lat="42.94335" lon="0.16416">
        <ele>1940</ele>
        <time>2013-03-24T10:27:27Z</time>
      </trkpt>
      <trkpt lat="42.94334" lon="0.16417">
        <ele>1941</ele>
        <time>2013-03-24T10:27:29Z</time>
      </trkpt>
      <trkpt lat="42.94332" lon="0.16418">
        <ele>1942</ele>
        <time>2013-03-24T10:27:31Z</time>
      </trkpt>
      <trkpt lat="42.94331" lon="0.16418">
        <ele>1942</ele>
        <time>2013-03-24T10:27:33Z</time>
      </trkpt>
      <trkpt lat="42.94329" lon="0.16419">
        <ele>1943</ele>
        <time>2013-03-24T10:27:35Z</time>
      </trkpt>
      <trkpt lat="42.94327" lon="0.16419">
        <ele>1943</ele>
        <time>2013-03-24T10:27:37Z</time>
      </trkpt>
      <trkpt lat="42.94326" lon="0.1642">
        <ele>1943</ele>
        <time>2013-03-24T10:27:39Z</time>
      </trkpt>
      <trkpt lat="42.94324" lon="0.1642">
        <ele>1943</ele>
        <time>2013-03-24T10:27:41Z</time>
      </trkpt>
      <trkpt lat="42.94323" lon="0.1642">
        <ele>1943</ele>
        <time>2013-03-24T10:27:42Z</time>
      </trkpt>
      <trkpt lat="42.94321" lon="0.1642">
        <ele>1943</ele>
        <time>2013-03-24T10:27:44Z</time>
      </trkpt>
      <trkpt lat="42.94319" lon="0.16422">
        <ele>1943</ele>
        <time>2013-03-24T10:27:46Z</time>
      </trkpt>
      <trkpt lat="42.94319" lon="0.16424">
        <ele>1943</ele>
        <time>2013-03-24T10:27:47Z</time>
      </trkpt>
      <trkpt lat="42.9432" lon="0.16425">
        <ele>1943</ele>
        <time>2013-03-24T10:27:48Z</time>
      </trkpt>
      <trkpt lat="42.94321" lon="0.16428">
        <ele>1943</ele>
        <time>2013-03-24T10:27:50Z</time>
      </trkpt>
      <trkpt lat="42.94322" lon="0.1643">
        <ele>1943</ele>
        <time>2013-03-24T10:27:52Z</time>
      </trkpt>
      <trkpt lat="42.94323" lon="0.16432">
        <ele>1943</ele>
        <time>2013-03-24T10:27:54Z</time>
      </trkpt>
      <trkpt lat="42.94325" lon="0.16434">
        <ele>1943</ele>
        <time>2013-03-24T10:27:56Z</time>
      </trkpt>
      <trkpt lat="42.94327" lon="0.16435">
        <ele>1943</ele>
        <time>2013-03-24T10:27:58Z</time>
      </trkpt>
      <trkpt lat="42.94328" lon="0.16436">
        <ele>1943</ele>
        <time>2013-03-24T10:27:59Z</time>
      </trkpt>
      <trkpt lat="42.9433" lon="0.16438">
        <ele>1943</ele>
        <time>2013-03-24T10:28:01Z</time>
      </trkpt>
      <trkpt lat="42.94331" lon="0.16439">
        <ele>1943</ele>
        <time>2013-03-24T10:28:03Z</time>
      </trkpt>
      <trkpt lat="42.94332" lon="0.16439">
        <ele>1940</ele>
        <time>2013-03-24T10:28:45Z</time>
      </trkpt>
      <trkpt lat="42.94334" lon="0.16441">
        <ele>1940</ele>
        <time>2013-03-24T10:28:47Z</time>
      </trkpt>
      <trkpt lat="42.94335" lon="0.16443">
        <ele>1940</ele>
        <time>2013-03-24T10:28:49Z</time>
      </trkpt>
      <trkpt lat="42.94336" lon="0.16445">
        <ele>1940</ele>
        <time>2013-03-24T10:28:51Z</time>
      </trkpt>
      <trkpt lat="42.94338" lon="0.16447">
        <ele>1940</ele>
        <time>2013-03-24T10:28:53Z</time>
      </trkpt>
      <trkpt lat="42.9434" lon="0.16449">
        <ele>1940</ele>
        <time>2013-03-24T10:28:55Z</time>
      </trkpt>
      <trkpt lat="42.94341" lon="0.16451">
        <ele>1940</ele>
        <time>2013-03-24T10:28:57Z</time>
      </trkpt>
      <trkpt lat="42.94343" lon="0.16453">
        <ele>1940</ele>
        <time>2013-03-24T10:28:59Z</time>
      </trkpt>
      <trkpt lat="42.94345" lon="0.16454">
        <ele>1940</ele>
        <time>2013-03-24T10:29:01Z</time>
      </trkpt>
      <trkpt lat="42.94347" lon="0.16456">
        <ele>1940</ele>
        <time>2013-03-24T10:29:03Z</time>
      </trkpt>
      <trkpt lat="42.94348" lon="0.16459">
        <ele>1940</ele>
        <time>2013-03-24T10:29:05Z</time>
      </trkpt>
      <trkpt lat="42.9435" lon="0.16461">
        <ele>1940</ele>
        <time>2013-03-24T10:29:07Z</time>
      </trkpt>
      <trkpt lat="42.94351" lon="0.16463">
        <ele>1940</ele>
        <time>2013-03-24T10:29:09Z</time>
      </trkpt>
      <trkpt lat="42.94353" lon="0.16464">
        <ele>1940</ele>
        <time>2013-03-24T10:29:11Z</time>
      </trkpt>
      <trkpt lat="42.94355" lon="0.16466">
        <ele>1940</ele>
        <time>2013-03-24T10:29:13Z</time>
      </trkpt>
      <trkpt lat="42.94357" lon="0.16467">
        <ele>1940</ele>
        <time>2013-03-24T10:29:15Z</time>
      </trkpt>
      <trkpt lat="42.94358" lon="0.16468">
        <ele>1940</ele>
        <time>2013-03-24T10:29:22Z</time>
      </trkpt>
      <trkpt lat="42.94358" lon="0.1647">
        <ele>1940</ele>
        <time>2013-03-24T10:29:29Z</time>
      </trkpt>
      <trkpt lat="42.94357" lon="0.16471">
        <ele>1940</ele>
        <time>2013-03-24T10:29:44Z</time>
      </trkpt>
      <trkpt lat="42.94358" lon="0.16474">
        <ele>1940</ele>
        <time>2013-03-24T10:29:46Z</time>
      </trkpt>
      <trkpt lat="42.94359" lon="0.1648">
        <ele>1940</ele>
        <time>2013-03-24T10:29:47Z</time>
      </trkpt>
      <trkpt lat="42.9436" lon="0.16482">
        <ele>1940</ele>
        <time>2013-03-24T10:29:48Z</time>
      </trkpt>
      <trkpt lat="42.94361" lon="0.16482">
        <ele>1940</ele>
        <time>2013-03-24T10:29:50Z</time>
      </trkpt>
      <trkpt lat="42.94363" lon="0.16481">
        <ele>1940</ele>
        <time>2013-03-24T10:29:52Z</time>
      </trkpt>
      <trkpt lat="42.94364" lon="0.16481">
        <ele>1940</ele>
        <time>2013-03-24T10:29:54Z</time>
      </trkpt>
      <trkpt lat="42.94365" lon="0.1648">
        <ele>1940</ele>
        <time>2013-03-24T10:29:55Z</time>
      </trkpt>
      <trkpt lat="42.94367" lon="0.1648">
        <ele>1940</ele>
        <time>2013-03-24T10:29:56Z</time>
      </trkpt>
      <trkpt lat="42.94368" lon="0.1648">
        <ele>1940</ele>
        <time>2013-03-24T10:29:58Z</time>
      </trkpt>
      <trkpt lat="42.9437" lon="0.1648">
        <ele>1940</ele>
        <time>2013-03-24T10:30:00Z</time>
      </trkpt>
      <trkpt lat="42.94371" lon="0.16481">
        <ele>1940</ele>
        <time>2013-03-24T10:30:02Z</time>
      </trkpt>
      <trkpt lat="42.94371" lon="0.16483">
        <ele>1940</ele>
        <time>2013-03-24T10:30:04Z</time>
      </trkpt>
      <trkpt lat="42.94372" lon="0.16484">
        <ele>1940</ele>
        <time>2013-03-24T10:30:06Z</time>
      </trkpt>
      <trkpt lat="42.94373" lon="0.16487">
        <ele>1940</ele>
        <time>2013-03-24T10:30:08Z</time>
      </trkpt>
      <trkpt lat="42.94374" lon="0.16489">
        <ele>1940</ele>
        <time>2013-03-24T10:30:10Z</time>
      </trkpt>
      <trkpt lat="42.94375" lon="0.16489">
        <ele>1940</ele>
        <time>2013-03-24T10:30:12Z</time>
      </trkpt>
      <trkpt lat="42.94377" lon="0.16489">
        <ele>1940</ele>
        <time>2013-03-24T10:30:14Z</time>
      </trkpt>
      <trkpt lat="42.94379" lon="0.16489">
        <ele>1940</ele>
        <time>2013-03-24T10:30:16Z</time>
      </trkpt>
      <trkpt lat="42.9438" lon="0.16489">
        <ele>1940</ele>
        <time>2013-03-24T10:30:18Z</time>
      </trkpt>
      <trkpt lat="42.94382" lon="0.16489">
        <ele>1940</ele>
        <time>2013-03-24T10:30:20Z</time>
      </trkpt>
      <trkpt lat="42.94383" lon="0.16488">
        <ele>1940</ele>
        <time>2013-03-24T10:30:22Z</time>
      </trkpt>
      <trkpt lat="42.94385" lon="0.16488">
        <ele>1940</ele>
        <time>2013-03-24T10:30:24Z</time>
      </trkpt>
      <trkpt lat="42.94386" lon="0.16488">
        <ele>1940</ele>
        <time>2013-03-24T10:30:26Z</time>
      </trkpt>
      <trkpt lat="42.94388" lon="0.16487">
        <ele>1941</ele>
        <time>2013-03-24T10:30:28Z</time>
      </trkpt>
      <trkpt lat="42.94389" lon="0.16486">
        <ele>1941</ele>
        <time>2013-03-24T10:30:30Z</time>
      </trkpt>
      <trkpt lat="42.9439" lon="0.16485">
        <ele>1942</ele>
        <time>2013-03-24T10:30:32Z</time>
      </trkpt>
      <trkpt lat="42.94392" lon="0.16484">
        <ele>1942</ele>
        <time>2013-03-24T10:30:34Z</time>
      </trkpt>
      <trkpt lat="42.94393" lon="0.16484">
        <ele>1943</ele>
        <time>2013-03-24T10:30:36Z</time>
      </trkpt>
      <trkpt lat="42.94395" lon="0.16483">
        <ele>1943</ele>
        <time>2013-03-24T10:30:38Z</time>
      </trkpt>
      <trkpt lat="42.94396" lon="0.16481">
        <ele>1944</ele>
        <time>2013-03-24T10:30:40Z</time>
      </trkpt>
      <trkpt lat="42.94396" lon="0.1648">
        <ele>1947</ele>
        <time>2013-03-24T10:30:55Z</time>
      </trkpt>
      <trkpt lat="42.94397" lon="0.16479">
        <ele>1947</ele>
        <time>2013-03-24T10:30:57Z</time>
      </trkpt>
      <trkpt lat="42.94399" lon="0.16478">
        <ele>1947</ele>
        <time>2013-03-24T10:30:59Z</time>
      </trkpt>
      <trkpt lat="42.94399" lon="0.1648">
        <ele>1947</ele>
        <time>2013-03-24T10:31:02Z</time>
      </trkpt>
      <trkpt lat="42.94399" lon="0.16482">
        <ele>1947</ele>
        <time>2013-03-24T10:31:04Z</time>
      </trkpt>
      <trkpt lat="42.94398" lon="0.16484">
        <ele>1948</ele>
        <time>2013-03-24T10:31:06Z</time>
      </trkpt>
      <trkpt lat="42.94398" lon="0.16486">
        <ele>1948</ele>
        <time>2013-03-24T10:31:08Z</time>
      </trkpt>
      <trkpt lat="42.94397" lon="0.16488">
        <ele>1948</ele>
        <time>2013-03-24T10:31:10Z</time>
      </trkpt>
      <trkpt lat="42.94397" lon="0.1649">
        <ele>1949</ele>
        <time>2013-03-24T10:31:12Z</time>
      </trkpt>
      <trkpt lat="42.94397" lon="0.16492">
        <ele>1949</ele>
        <time>2013-03-24T10:31:14Z</time>
      </trkpt>
      <trkpt lat="42.94397" lon="0.16495">
        <ele>1950</ele>
        <time>2013-03-24T10:31:16Z</time>
      </trkpt>
      <trkpt lat="42.94397" lon="0.16496">
        <ele>1950</ele>
        <time>2013-03-24T10:31:18Z</time>
      </trkpt>
      <trkpt lat="42.94397" lon="0.16498">
        <ele>1950</ele>
        <time>2013-03-24T10:31:21Z</time>
      </trkpt>
      <trkpt lat="42.94398" lon="0.16496">
        <ele>1950</ele>
        <time>2013-03-24T10:31:23Z</time>
      </trkpt>
      <trkpt lat="42.94399" lon="0.16495">
        <ele>1950</ele>
        <time>2013-03-24T10:31:25Z</time>
      </trkpt>
      <trkpt lat="42.944" lon="0.16493">
        <ele>1951</ele>
        <time>2013-03-24T10:31:27Z</time>
      </trkpt>
      <trkpt lat="42.94401" lon="0.16492">
        <ele>1951</ele>
        <time>2013-03-24T10:31:29Z</time>
      </trkpt>
      <trkpt lat="42.94403" lon="0.1649">
        <ele>1951</ele>
        <time>2013-03-24T10:31:32Z</time>
      </trkpt>
      <trkpt lat="42.94404" lon="0.16489">
        <ele>1952</ele>
        <time>2013-03-24T10:31:34Z</time>
      </trkpt>
      <trkpt lat="42.94405" lon="0.16487">
        <ele>1952</ele>
        <time>2013-03-24T10:31:36Z</time>
      </trkpt>
      <trkpt lat="42.94407" lon="0.16487">
        <ele>1954</ele>
        <time>2013-03-24T10:32:03Z</time>
      </trkpt>
      <trkpt lat="42.94408" lon="0.16486">
        <ele>1955</ele>
        <time>2013-03-24T10:32:14Z</time>
      </trkpt>
      <trkpt lat="42.94409" lon="0.16485">
        <ele>1955</ele>
        <time>2013-03-24T10:32:16Z</time>
      </trkpt>
      <trkpt lat="42.9441" lon="0.16484">
        <ele>1956</ele>
        <time>2013-03-24T10:32:18Z</time>
      </trkpt>
      <trkpt lat="42.94412" lon="0.16483">
        <ele>1956</ele>
        <time>2013-03-24T10:32:20Z</time>
      </trkpt>
      <trkpt lat="42.94413" lon="0.16482">
        <ele>1956</ele>
        <time>2013-03-24T10:32:22Z</time>
      </trkpt>
      <trkpt lat="42.94415" lon="0.16481">
        <ele>1957</ele>
        <time>2013-03-24T10:32:24Z</time>
      </trkpt>
      <trkpt lat="42.94417" lon="0.1648">
        <ele>1957</ele>
        <time>2013-03-24T10:32:26Z</time>
      </trkpt>
      <trkpt lat="42.94418" lon="0.16479">
        <ele>1957</ele>
        <time>2013-03-24T10:32:28Z</time>
      </trkpt>
      <trkpt lat="42.9442" lon="0.16477">
        <ele>1958</ele>
        <time>2013-03-24T10:32:30Z</time>
      </trkpt>
      <trkpt lat="42.94422" lon="0.16477">
        <ele>1958</ele>
        <time>2013-03-24T10:32:32Z</time>
      </trkpt>
      <trkpt lat="42.94423" lon="0.16476">
        <ele>1959</ele>
        <time>2013-03-24T10:32:34Z</time>
      </trkpt>
      <trkpt lat="42.94422" lon="0.16478">
        <ele>1959</ele>
        <time>2013-03-24T10:32:41Z</time>
      </trkpt>
      <trkpt lat="42.94421" lon="0.16479">
        <ele>1959</ele>
        <time>2013-03-24T10:32:43Z</time>
      </trkpt>
      <trkpt lat="42.9442" lon="0.16481">
        <ele>1959</ele>
        <time>2013-03-24T10:32:45Z</time>
      </trkpt>
      <trkpt lat="42.94419" lon="0.16483">
        <ele>1959</ele>
        <time>2013-03-24T10:32:47Z</time>
      </trkpt>
      <trkpt lat="42.94418" lon="0.16486">
        <ele>1959</ele>
        <time>2013-03-24T10:32:49Z</time>
      </trkpt>
      <trkpt lat="42.94418" lon="0.16488">
        <ele>1959</ele>
        <time>2013-03-24T10:32:51Z</time>
      </trkpt>
      <trkpt lat="42.94417" lon="0.1649">
        <ele>1960</ele>
        <time>2013-03-24T10:32:53Z</time>
      </trkpt>
      <trkpt lat="42.94417" lon="0.16491">
        <ele>1960</ele>
        <time>2013-03-24T10:32:54Z</time>
      </trkpt>
      <trkpt lat="42.94416" lon="0.16493">
        <ele>1960</ele>
        <time>2013-03-24T10:32:56Z</time>
      </trkpt>
      <trkpt lat="42.94416" lon="0.16496">
        <ele>1961</ele>
        <time>2013-03-24T10:32:58Z</time>
      </trkpt>
      <trkpt lat="42.94415" lon="0.16498">
        <ele>1961</ele>
        <time>2013-03-24T10:33:00Z</time>
      </trkpt>
      <trkpt lat="42.94415" lon="0.16501">
        <ele>1961</ele>
        <time>2013-03-24T10:33:02Z</time>
      </trkpt>
      <trkpt lat="42.94415" lon="0.16503">
        <ele>1962</ele>
        <time>2013-03-24T10:33:04Z</time>
      </trkpt>
      <trkpt lat="42.94414" lon="0.16505">
        <ele>1962</ele>
        <time>2013-03-24T10:33:07Z</time>
      </trkpt>
      <trkpt lat="42.94416" lon="0.16503">
        <ele>1963</ele>
        <time>2013-03-24T10:33:11Z</time>
      </trkpt>
      <trkpt lat="42.94417" lon="0.16501">
        <ele>1963</ele>
        <time>2013-03-24T10:33:13Z</time>
      </trkpt>
      <trkpt lat="42.94418" lon="0.165">
        <ele>1963</ele>
        <time>2013-03-24T10:33:15Z</time>
      </trkpt>
      <trkpt lat="42.94419" lon="0.16499">
        <ele>1963</ele>
        <time>2013-03-24T10:33:17Z</time>
      </trkpt>
      <trkpt lat="42.94421" lon="0.16498">
        <ele>1963</ele>
        <time>2013-03-24T10:33:19Z</time>
      </trkpt>
      <trkpt lat="42.94422" lon="0.16496">
        <ele>1963</ele>
        <time>2013-03-24T10:33:21Z</time>
      </trkpt>
      <trkpt lat="42.94423" lon="0.16495">
        <ele>1963</ele>
        <time>2013-03-24T10:33:23Z</time>
      </trkpt>
      <trkpt lat="42.94424" lon="0.16494">
        <ele>1963</ele>
        <time>2013-03-24T10:33:25Z</time>
      </trkpt>
      <trkpt lat="42.94426" lon="0.16492">
        <ele>1963</ele>
        <time>2013-03-24T10:33:47Z</time>
      </trkpt>
      <trkpt lat="42.94427" lon="0.16492">
        <ele>1963</ele>
        <time>2013-03-24T10:33:49Z</time>
      </trkpt>
      <trkpt lat="42.94429" lon="0.16491">
        <ele>1963</ele>
        <time>2013-03-24T10:33:51Z</time>
      </trkpt>
      <trkpt lat="42.9443" lon="0.1649">
        <ele>1963</ele>
        <time>2013-03-24T10:33:53Z</time>
      </trkpt>
      <trkpt lat="42.94432" lon="0.1649">
        <ele>1963</ele>
        <time>2013-03-24T10:33:55Z</time>
      </trkpt>
      <trkpt lat="42.94433" lon="0.16489">
        <ele>1964</ele>
        <time>2013-03-24T10:33:57Z</time>
      </trkpt>
      <trkpt lat="42.94434" lon="0.16488">
        <ele>1964</ele>
        <time>2013-03-24T10:33:59Z</time>
      </trkpt>
      <trkpt lat="42.94436" lon="0.16487">
        <ele>1964</ele>
        <time>2013-03-24T10:34:01Z</time>
      </trkpt>
      <trkpt lat="42.94437" lon="0.16486">
        <ele>1964</ele>
        <time>2013-03-24T10:34:03Z</time>
      </trkpt>
      <trkpt lat="42.94439" lon="0.16485">
        <ele>1964</ele>
        <time>2013-03-24T10:34:05Z</time>
      </trkpt>
      <trkpt lat="42.9444" lon="0.16484">
        <ele>1964</ele>
        <time>2013-03-24T10:34:07Z</time>
      </trkpt>
      <trkpt lat="42.94442" lon="0.16483">
        <ele>1964</ele>
        <time>2013-03-24T10:34:09Z</time>
      </trkpt>
      <trkpt lat="42.94444" lon="0.16482">
        <ele>1964</ele>
        <time>2013-03-24T10:34:11Z</time>
      </trkpt>
      <trkpt lat="42.94445" lon="0.16481">
        <ele>1964</ele>
        <time>2013-03-24T10:34:13Z</time>
      </trkpt>
      <trkpt lat="42.94447" lon="0.1648">
        <ele>1964</ele>
        <time>2013-03-24T10:34:15Z</time>
      </trkpt>
      <trkpt lat="42.94448" lon="0.16479">
        <ele>1964</ele>
        <time>2013-03-24T10:34:17Z</time>
      </trkpt>
      <trkpt lat="42.9445" lon="0.16478">
        <ele>1965</ele>
        <time>2013-03-24T10:34:19Z</time>
      </trkpt>
      <trkpt lat="42.94452" lon="0.16477">
        <ele>1965</ele>
        <time>2013-03-24T10:34:21Z</time>
      </trkpt>
      <trkpt lat="42.94454" lon="0.16477">
        <ele>1965</ele>
        <time>2013-03-24T10:34:23Z</time>
      </trkpt>
      <trkpt lat="42.94455" lon="0.16476">
        <ele>1965</ele>
        <time>2013-03-24T10:34:37Z</time>
      </trkpt>
      <trkpt lat="42.94457" lon="0.16475">
        <ele>1965</ele>
        <time>2013-03-24T10:34:39Z</time>
      </trkpt>
      <trkpt lat="42.94459" lon="0.16475">
        <ele>1965</ele>
        <time>2013-03-24T10:34:41Z</time>
      </trkpt>
      <trkpt lat="42.9446" lon="0.16474">
        <ele>1965</ele>
        <time>2013-03-24T10:34:43Z</time>
      </trkpt>
      <trkpt lat="42.94462" lon="0.16473">
        <ele>1966</ele>
        <time>2013-03-24T10:34:45Z</time>
      </trkpt>
      <trkpt lat="42.94463" lon="0.16472">
        <ele>1966</ele>
        <time>2013-03-24T10:34:47Z</time>
      </trkpt>
      <trkpt lat="42.94465" lon="0.16471">
        <ele>1966</ele>
        <time>2013-03-24T10:34:49Z</time>
      </trkpt>
      <trkpt lat="42.94466" lon="0.16469">
        <ele>1966</ele>
        <time>2013-03-24T10:34:51Z</time>
      </trkpt>
      <trkpt lat="42.94468" lon="0.16468">
        <ele>1967</ele>
        <time>2013-03-24T10:34:53Z</time>
      </trkpt>
      <trkpt lat="42.94469" lon="0.16467">
        <ele>1967</ele>
        <time>2013-03-24T10:34:55Z</time>
      </trkpt>
      <trkpt lat="42.94471" lon="0.16466">
        <ele>1967</ele>
        <time>2013-03-24T10:34:57Z</time>
      </trkpt>
      <trkpt lat="42.94472" lon="0.16464">
        <ele>1968</ele>
        <time>2013-03-24T10:34:59Z</time>
      </trkpt>
      <trkpt lat="42.94473" lon="0.16463">
        <ele>1968</ele>
        <time>2013-03-24T10:35:01Z</time>
      </trkpt>
      <trkpt lat="42.94474" lon="0.16462">
        <ele>1969</ele>
        <time>2013-03-24T10:35:03Z</time>
      </trkpt>
      <trkpt lat="42.94475" lon="0.16464">
        <ele>1969</ele>
        <time>2013-03-24T10:35:06Z</time>
      </trkpt>
      <trkpt lat="42.94476" lon="0.16466">
        <ele>1969</ele>
        <time>2013-03-24T10:35:08Z</time>
      </trkpt>
      <trkpt lat="42.94476" lon="0.16468">
        <ele>1969</ele>
        <time>2013-03-24T10:35:09Z</time>
      </trkpt>
      <trkpt lat="42.94476" lon="0.1647">
        <ele>1969</ele>
        <time>2013-03-24T10:35:10Z</time>
      </trkpt>
      <trkpt lat="42.94476" lon="0.16472">
        <ele>1969</ele>
        <time>2013-03-24T10:35:11Z</time>
      </trkpt>
      <trkpt lat="42.94476" lon="0.16474">
        <ele>1969</ele>
        <time>2013-03-24T10:35:13Z</time>
      </trkpt>
      <trkpt lat="42.94476" lon="0.16472">
        <ele>1969</ele>
        <time>2013-03-24T10:35:24Z</time>
      </trkpt>
      <trkpt lat="42.94477" lon="0.1647">
        <ele>1969</ele>
        <time>2013-03-24T10:35:31Z</time>
      </trkpt>
      <trkpt lat="42.94478" lon="0.16472">
        <ele>1969</ele>
        <time>2013-03-24T10:35:38Z</time>
      </trkpt>
      <trkpt lat="42.94478" lon="0.16475">
        <ele>1969</ele>
        <time>2013-03-24T10:35:40Z</time>
      </trkpt>
      <trkpt lat="42.94478" lon="0.16477">
        <ele>1969</ele>
        <time>2013-03-24T10:35:41Z</time>
      </trkpt>
      <trkpt lat="42.94478" lon="0.16479">
        <ele>1970</ele>
        <time>2013-03-24T10:35:43Z</time>
      </trkpt>
      <trkpt lat="42.94478" lon="0.16481">
        <ele>1970</ele>
        <time>2013-03-24T10:35:44Z</time>
      </trkpt>
      <trkpt lat="42.94478" lon="0.16483">
        <ele>1970</ele>
        <time>2013-03-24T10:35:46Z</time>
      </trkpt>
      <trkpt lat="42.94479" lon="0.16485">
        <ele>1971</ele>
        <time>2013-03-24T10:35:48Z</time>
      </trkpt>
      <trkpt lat="42.9448" lon="0.16486">
        <ele>1971</ele>
        <time>2013-03-24T10:35:50Z</time>
      </trkpt>
      <trkpt lat="42.94482" lon="0.16485">
        <ele>1971</ele>
        <time>2013-03-24T10:35:52Z</time>
      </trkpt>
      <trkpt lat="42.94483" lon="0.16484">
        <ele>1971</ele>
        <time>2013-03-24T10:35:54Z</time>
      </trkpt>
      <trkpt lat="42.94484" lon="0.16483">
        <ele>1971</ele>
        <time>2013-03-24T10:35:55Z</time>
      </trkpt>
      <trkpt lat="42.94486" lon="0.16483">
        <ele>1971</ele>
        <time>2013-03-24T10:35:57Z</time>
      </trkpt>
      <trkpt lat="42.94488" lon="0.16482">
        <ele>1972</ele>
        <time>2013-03-24T10:35:59Z</time>
      </trkpt>
      <trkpt lat="42.9449" lon="0.16481">
        <ele>1972</ele>
        <time>2013-03-24T10:36:01Z</time>
      </trkpt>
      <trkpt lat="42.94491" lon="0.1648">
        <ele>1973</ele>
        <time>2013-03-24T10:36:03Z</time>
      </trkpt>
      <trkpt lat="42.94493" lon="0.16479">
        <ele>1973</ele>
        <time>2013-03-24T10:36:05Z</time>
      </trkpt>
      <trkpt lat="42.94495" lon="0.16478">
        <ele>1973</ele>
        <time>2013-03-24T10:36:07Z</time>
      </trkpt>
      <trkpt lat="42.94496" lon="0.16477">
        <ele>1978</ele>
        <time>2013-03-24T10:36:39Z</time>
      </trkpt>
      <trkpt lat="42.94497" lon="0.16476">
        <ele>1978</ele>
        <time>2013-03-24T10:36:41Z</time>
      </trkpt>
      <trkpt lat="42.94499" lon="0.16475">
        <ele>1978</ele>
        <time>2013-03-24T10:36:43Z</time>
      </trkpt>
      <trkpt lat="42.945" lon="0.16474">
        <ele>1978</ele>
        <time>2013-03-24T10:36:45Z</time>
      </trkpt>
      <trkpt lat="42.94502" lon="0.16474">
        <ele>1978</ele>
        <time>2013-03-24T10:36:47Z</time>
      </trkpt>
      <trkpt lat="42.94502" lon="0.16477">
        <ele>1978</ele>
        <time>2013-03-24T10:36:50Z</time>
      </trkpt>
      <trkpt lat="42.94501" lon="0.16479">
        <ele>1978</ele>
        <time>2013-03-24T10:36:52Z</time>
      </trkpt>
      <trkpt lat="42.94501" lon="0.16481">
        <ele>1978</ele>
        <time>2013-03-24T10:36:53Z</time>
      </trkpt>
      <trkpt lat="42.94501" lon="0.16483">
        <ele>1978</ele>
        <time>2013-03-24T10:36:55Z</time>
      </trkpt>
      <trkpt lat="42.94501" lon="0.16485">
        <ele>1978</ele>
        <time>2013-03-24T10:36:56Z</time>
      </trkpt>
      <trkpt lat="42.94501" lon="0.16487">
        <ele>1978</ele>
        <time>2013-03-24T10:36:58Z</time>
      </trkpt>
      <trkpt lat="42.94502" lon="0.16488">
        <ele>1978</ele>
        <time>2013-03-24T10:37:00Z</time>
      </trkpt>
      <trkpt lat="42.94503" lon="0.16488">
        <ele>1979</ele>
        <time>2013-03-24T10:37:02Z</time>
      </trkpt>
      <trkpt lat="42.94505" lon="0.16487">
        <ele>1979</ele>
        <time>2013-03-24T10:37:04Z</time>
      </trkpt>
      <trkpt lat="42.94506" lon="0.16485">
        <ele>1980</ele>
        <time>2013-03-24T10:37:06Z</time>
      </trkpt>
      <trkpt lat="42.94508" lon="0.16484">
        <ele>1980</ele>
        <time>2013-03-24T10:37:08Z</time>
      </trkpt>
      <trkpt lat="42.9451" lon="0.16482">
        <ele>1981</ele>
        <time>2013-03-24T10:37:10Z</time>
      </trkpt>
      <trkpt lat="42.94511" lon="0.16481">
        <ele>1981</ele>
        <time>2013-03-24T10:37:12Z</time>
      </trkpt>
      <trkpt lat="42.94512" lon="0.16481">
        <ele>1981</ele>
        <time>2013-03-24T10:37:13Z</time>
      </trkpt>
      <trkpt lat="42.94513" lon="0.16482">
        <ele>1983</ele>
        <time>2013-03-24T10:37:15Z</time>
      </trkpt>
      <trkpt lat="42.94514" lon="0.16483">
        <ele>1984</ele>
        <time>2013-03-24T10:37:17Z</time>
      </trkpt>
      <trkpt lat="42.94514" lon="0.16485">
        <ele>1986</ele>
        <time>2013-03-24T10:37:41Z</time>
      </trkpt>
      <trkpt lat="42.94513" lon="0.16487">
        <ele>1986</ele>
        <time>2013-03-24T10:37:42Z</time>
      </trkpt>
      <trkpt lat="42.94513" lon="0.16488">
        <ele>1986</ele>
        <time>2013-03-24T10:37:43Z</time>
      </trkpt>
      <trkpt lat="42.94513" lon="0.1649">
        <ele>1986</ele>
        <time>2013-03-24T10:37:45Z</time>
      </trkpt>
      <trkpt lat="42.94513" lon="0.16492">
        <ele>1986</ele>
        <time>2013-03-24T10:37:46Z</time>
      </trkpt>
      <trkpt lat="42.94513" lon="0.16494">
        <ele>1987</ele>
        <time>2013-03-24T10:37:48Z</time>
      </trkpt>
      <trkpt lat="42.94513" lon="0.16496">
        <ele>1987</ele>
        <time>2013-03-24T10:37:50Z</time>
      </trkpt>
      <trkpt lat="42.94512" lon="0.16497">
        <ele>1987</ele>
        <time>2013-03-24T10:37:51Z</time>
      </trkpt>
      <trkpt lat="42.94512" lon="0.16499">
        <ele>1987</ele>
        <time>2013-03-24T10:37:53Z</time>
      </trkpt>
      <trkpt lat="42.94512" lon="0.16501">
        <ele>1988</ele>
        <time>2013-03-24T10:37:55Z</time>
      </trkpt>
      <trkpt lat="42.94514" lon="0.16502">
        <ele>1988</ele>
        <time>2013-03-24T10:37:57Z</time>
      </trkpt>
      <trkpt lat="42.94516" lon="0.16501">
        <ele>1988</ele>
        <time>2013-03-24T10:37:59Z</time>
      </trkpt>
      <trkpt lat="42.94517" lon="0.16501">
        <ele>1989</ele>
        <time>2013-03-24T10:38:01Z</time>
      </trkpt>
      <trkpt lat="42.94519" lon="0.165">
        <ele>1989</ele>
        <time>2013-03-24T10:38:03Z</time>
      </trkpt>
      <trkpt lat="42.94521" lon="0.165">
        <ele>1990</ele>
        <time>2013-03-24T10:38:05Z</time>
      </trkpt>
      <trkpt lat="42.94522" lon="0.165">
        <ele>1990</ele>
        <time>2013-03-24T10:38:07Z</time>
      </trkpt>
      <trkpt lat="42.94523" lon="0.16501">
        <ele>1990</ele>
        <time>2013-03-24T10:38:09Z</time>
      </trkpt>
      <trkpt lat="42.94524" lon="0.16503">
        <ele>1990</ele>
        <time>2013-03-24T10:38:11Z</time>
      </trkpt>
      <trkpt lat="42.94524" lon="0.16504">
        <ele>1990</ele>
        <time>2013-03-24T10:38:12Z</time>
      </trkpt>
      <trkpt lat="42.94524" lon="0.16506">
        <ele>1990</ele>
        <time>2013-03-24T10:38:14Z</time>
      </trkpt>
      <trkpt lat="42.94525" lon="0.16505">
        <ele>1990</ele>
        <time>2013-03-24T10:38:51Z</time>
      </trkpt>
      <trkpt lat="42.94527" lon="0.16505">
        <ele>1990</ele>
        <time>2013-03-24T10:38:53Z</time>
      </trkpt>
      <trkpt lat="42.94528" lon="0.16505">
        <ele>1990</ele>
        <time>2013-03-24T10:38:54Z</time>
      </trkpt>
      <trkpt lat="42.94529" lon="0.16504">
        <ele>1990</ele>
        <time>2013-03-24T10:38:57Z</time>
      </trkpt>
      <trkpt lat="42.94531" lon="0.16505">
        <ele>1990</ele>
        <time>2013-03-24T10:38:59Z</time>
      </trkpt>
      <trkpt lat="42.94532" lon="0.16507">
        <ele>1990</ele>
        <time>2013-03-24T10:39:01Z</time>
      </trkpt>
      <trkpt lat="42.94534" lon="0.16508">
        <ele>1990</ele>
        <time>2013-03-24T10:39:03Z</time>
      </trkpt>
      <trkpt lat="42.94536" lon="0.16509">
        <ele>1990</ele>
        <time>2013-03-24T10:39:05Z</time>
      </trkpt>
      <trkpt lat="42.94537" lon="0.1651">
        <ele>1990</ele>
        <time>2013-03-24T10:39:07Z</time>
      </trkpt>
      <trkpt lat="42.9454" lon="0.1651">
        <ele>1990</ele>
        <time>2013-03-24T10:39:09Z</time>
      </trkpt>
      <trkpt lat="42.94541" lon="0.1651">
        <ele>1990</ele>
        <time>2013-03-24T10:39:11Z</time>
      </trkpt>
      <trkpt lat="42.94542" lon="0.1651">
        <ele>1990</ele>
        <time>2013-03-24T10:39:12Z</time>
      </trkpt>
      <trkpt lat="42.94544" lon="0.1651">
        <ele>1990</ele>
        <time>2013-03-24T10:39:14Z</time>
      </trkpt>
      <trkpt lat="42.94545" lon="0.16511">
        <ele>1990</ele>
        <time>2013-03-24T10:39:15Z</time>
      </trkpt>
      <trkpt lat="42.94548" lon="0.1651">
        <ele>1990</ele>
        <time>2013-03-24T10:39:17Z</time>
      </trkpt>
      <trkpt lat="42.94549" lon="0.16512">
        <ele>1991</ele>
        <time>2013-03-24T10:39:19Z</time>
      </trkpt>
      <trkpt lat="42.94551" lon="0.16513">
        <ele>1992</ele>
        <time>2013-03-24T10:39:21Z</time>
      </trkpt>
      <trkpt lat="42.94553" lon="0.16512">
        <ele>1993</ele>
        <time>2013-03-24T10:39:23Z</time>
      </trkpt>
      <trkpt lat="42.94554" lon="0.16512">
        <ele>1994</ele>
        <time>2013-03-24T10:39:24Z</time>
      </trkpt>
      <trkpt lat="42.94555" lon="0.16512">
        <ele>1995</ele>
        <time>2013-03-24T10:39:26Z</time>
      </trkpt>
      <trkpt lat="42.94556" lon="0.16511">
        <ele>1996</ele>
        <time>2013-03-24T10:39:28Z</time>
      </trkpt>
      <trkpt lat="42.94558" lon="0.16511">
        <ele>1997</ele>
        <time>2013-03-24T10:40:55Z</time>
      </trkpt>
      <trkpt lat="42.94559" lon="0.16511">
        <ele>1997</ele>
        <time>2013-03-24T10:40:56Z</time>
      </trkpt>
      <trkpt lat="42.94561" lon="0.16511">
        <ele>1997</ele>
        <time>2013-03-24T10:40:58Z</time>
      </trkpt>
      <trkpt lat="42.94563" lon="0.16511">
        <ele>1997</ele>
        <time>2013-03-24T10:41:00Z</time>
      </trkpt>
      <trkpt lat="42.94564" lon="0.16512">
        <ele>1997</ele>
        <time>2013-03-24T10:41:02Z</time>
      </trkpt>
      <trkpt lat="42.94566" lon="0.16512">
        <ele>1997</ele>
        <time>2013-03-24T10:41:04Z</time>
      </trkpt>
      <trkpt lat="42.94567" lon="0.16513">
        <ele>1997</ele>
        <time>2013-03-24T10:41:07Z</time>
      </trkpt>
      <trkpt lat="42.94569" lon="0.16512">
        <ele>1997</ele>
        <time>2013-03-24T10:41:09Z</time>
      </trkpt>
      <trkpt lat="42.9457" lon="0.16511">
        <ele>1997</ele>
        <time>2013-03-24T10:41:11Z</time>
      </trkpt>
      <trkpt lat="42.94571" lon="0.16509">
        <ele>1997</ele>
        <time>2013-03-24T10:41:13Z</time>
      </trkpt>
      <trkpt lat="42.94573" lon="0.16508">
        <ele>1997</ele>
        <time>2013-03-24T10:41:15Z</time>
      </trkpt>
      <trkpt lat="42.94574" lon="0.16507">
        <ele>1997</ele>
        <time>2013-03-24T10:41:17Z</time>
      </trkpt>
      <trkpt lat="42.94575" lon="0.16506">
        <ele>1997</ele>
        <time>2013-03-24T10:41:19Z</time>
      </trkpt>
      <trkpt lat="42.94577" lon="0.16507">
        <ele>1997</ele>
        <time>2013-03-24T10:41:21Z</time>
      </trkpt>
      <trkpt lat="42.94577" lon="0.16509">
        <ele>1997</ele>
        <time>2013-03-24T10:41:23Z</time>
      </trkpt>
      <trkpt lat="42.94577" lon="0.1651">
        <ele>1998</ele>
        <time>2013-03-24T10:41:24Z</time>
      </trkpt>
      <trkpt lat="42.94578" lon="0.16512">
        <ele>1998</ele>
        <time>2013-03-24T10:41:26Z</time>
      </trkpt>
      <trkpt lat="42.94579" lon="0.16514">
        <ele>1998</ele>
        <time>2013-03-24T10:41:28Z</time>
      </trkpt>
      <trkpt lat="42.94579" lon="0.16516">
        <ele>1998</ele>
        <time>2013-03-24T10:41:30Z</time>
      </trkpt>
      <trkpt lat="42.94579" lon="0.16517">
        <ele>1998</ele>
        <time>2013-03-24T10:41:31Z</time>
      </trkpt>
      <trkpt lat="42.94579" lon="0.16519">
        <ele>1998</ele>
        <time>2013-03-24T10:41:32Z</time>
      </trkpt>
      <trkpt lat="42.9458" lon="0.1652">
        <ele>1998</ele>
        <time>2013-03-24T10:41:34Z</time>
      </trkpt>
      <trkpt lat="42.94581" lon="0.1652">
        <ele>1998</ele>
        <time>2013-03-24T10:41:36Z</time>
      </trkpt>
      <trkpt lat="42.94583" lon="0.16518">
        <ele>1998</ele>
        <time>2013-03-24T10:41:38Z</time>
      </trkpt>
      <trkpt lat="42.94585" lon="0.16516">
        <ele>1998</ele>
        <time>2013-03-24T10:41:40Z</time>
      </trkpt>
      <trkpt lat="42.94586" lon="0.16516">
        <ele>2001</ele>
        <time>2013-03-24T10:42:08Z</time>
      </trkpt>
      <trkpt lat="42.94587" lon="0.16515">
        <ele>2001</ele>
        <time>2013-03-24T10:42:10Z</time>
      </trkpt>
      <trkpt lat="42.94589" lon="0.16514">
        <ele>2001</ele>
        <time>2013-03-24T10:42:12Z</time>
      </trkpt>
      <trkpt lat="42.94591" lon="0.16512">
        <ele>2001</ele>
        <time>2013-03-24T10:42:14Z</time>
      </trkpt>
      <trkpt lat="42.94592" lon="0.16511">
        <ele>2001</ele>
        <time>2013-03-24T10:42:16Z</time>
      </trkpt>
      <trkpt lat="42.94594" lon="0.16511">
        <ele>2001</ele>
        <time>2013-03-24T10:42:18Z</time>
      </trkpt>
      <trkpt lat="42.94595" lon="0.16509">
        <ele>2002</ele>
        <time>2013-03-24T10:42:20Z</time>
      </trkpt>
      <trkpt lat="42.94597" lon="0.16508">
        <ele>2002</ele>
        <time>2013-03-24T10:42:22Z</time>
      </trkpt>
      <trkpt lat="42.94599" lon="0.16507">
        <ele>2003</ele>
        <time>2013-03-24T10:42:24Z</time>
      </trkpt>
      <trkpt lat="42.946" lon="0.16506">
        <ele>2003</ele>
        <time>2013-03-24T10:42:26Z</time>
      </trkpt>
      <trkpt lat="42.94602" lon="0.16505">
        <ele>2004</ele>
        <time>2013-03-24T10:42:28Z</time>
      </trkpt>
      <trkpt lat="42.94604" lon="0.16504">
        <ele>2004</ele>
        <time>2013-03-24T10:42:30Z</time>
      </trkpt>
      <trkpt lat="42.94605" lon="0.16503">
        <ele>2004</ele>
        <time>2013-03-24T10:42:32Z</time>
      </trkpt>
      <trkpt lat="42.94606" lon="0.16504">
        <ele>2005</ele>
        <time>2013-03-24T10:42:33Z</time>
      </trkpt>
      <trkpt lat="42.94608" lon="0.16505">
        <ele>2005</ele>
        <time>2013-03-24T10:42:35Z</time>
      </trkpt>
      <trkpt lat="42.9461" lon="0.16507">
        <ele>2006</ele>
        <time>2013-03-24T10:42:37Z</time>
      </trkpt>
      <trkpt lat="42.94611" lon="0.16508">
        <ele>2006</ele>
        <time>2013-03-24T10:42:39Z</time>
      </trkpt>
      <trkpt lat="42.94613" lon="0.16509">
        <ele>2006</ele>
        <time>2013-03-24T10:42:41Z</time>
      </trkpt>
      <trkpt lat="42.94614" lon="0.16511">
        <ele>2006</ele>
        <time>2013-03-24T10:42:43Z</time>
      </trkpt>
      <trkpt lat="42.94616" lon="0.16512">
        <ele>2006</ele>
        <time>2013-03-24T10:42:45Z</time>
      </trkpt>
      <trkpt lat="42.94618" lon="0.16513">
        <ele>2006</ele>
        <time>2013-03-24T10:42:47Z</time>
      </trkpt>
      <trkpt lat="42.94619" lon="0.16513">
        <ele>2006</ele>
        <time>2013-03-24T10:42:53Z</time>
      </trkpt>
      <trkpt lat="42.94621" lon="0.16515">
        <ele>2006</ele>
        <time>2013-03-24T10:43:11Z</time>
      </trkpt>
      <trkpt lat="42.94622" lon="0.16516">
        <ele>2006</ele>
        <time>2013-03-24T10:43:13Z</time>
      </trkpt>
      <trkpt lat="42.94624" lon="0.16517">
        <ele>2007</ele>
        <time>2013-03-24T10:43:15Z</time>
      </trkpt>
      <trkpt lat="42.94625" lon="0.16519">
        <ele>2007</ele>
        <time>2013-03-24T10:43:17Z</time>
      </trkpt>
      <trkpt lat="42.94627" lon="0.1652">
        <ele>2007</ele>
        <time>2013-03-24T10:43:19Z</time>
      </trkpt>
      <trkpt lat="42.94629" lon="0.16521">
        <ele>2007</ele>
        <time>2013-03-24T10:43:21Z</time>
      </trkpt>
      <trkpt lat="42.94629" lon="0.16523">
        <ele>2009</ele>
        <time>2013-03-24T10:43:42Z</time>
      </trkpt>
      <trkpt lat="42.9463" lon="0.16522">
        <ele>2009</ele>
        <time>2013-03-24T10:43:49Z</time>
      </trkpt>
      <trkpt lat="42.94632" lon="0.16523">
        <ele>2009</ele>
        <time>2013-03-24T10:43:51Z</time>
      </trkpt>
      <trkpt lat="42.94633" lon="0.16524">
        <ele>2009</ele>
        <time>2013-03-24T10:43:53Z</time>
      </trkpt>
      <trkpt lat="42.94635" lon="0.16525">
        <ele>2010</ele>
        <time>2013-03-24T10:43:55Z</time>
      </trkpt>
      <trkpt lat="42.94637" lon="0.16527">
        <ele>2010</ele>
        <time>2013-03-24T10:43:57Z</time>
      </trkpt>
      <trkpt lat="42.94638" lon="0.16529">
        <ele>2010</ele>
        <time>2013-03-24T10:43:59Z</time>
      </trkpt>
      <trkpt lat="42.9464" lon="0.1653">
        <ele>2011</ele>
        <time>2013-03-24T10:44:01Z</time>
      </trkpt>
      <trkpt lat="42.94641" lon="0.16531">
        <ele>2011</ele>
        <time>2013-03-24T10:44:02Z</time>
      </trkpt>
      <trkpt lat="42.94643" lon="0.16533">
        <ele>2011</ele>
        <time>2013-03-24T10:44:04Z</time>
      </trkpt>
      <trkpt lat="42.94644" lon="0.16534">
        <ele>2011</ele>
        <time>2013-03-24T10:44:05Z</time>
      </trkpt>
      <trkpt lat="42.94645" lon="0.16534">
        <ele>2011</ele>
        <time>2013-03-24T10:44:06Z</time>
      </trkpt>
      <trkpt lat="42.94647" lon="0.16534">
        <ele>2012</ele>
        <time>2013-03-24T10:44:08Z</time>
      </trkpt>
      <trkpt lat="42.94649" lon="0.16535">
        <ele>2012</ele>
        <time>2013-03-24T10:44:10Z</time>
      </trkpt>
      <trkpt lat="42.94651" lon="0.16535">
        <ele>2012</ele>
        <time>2013-03-24T10:44:12Z</time>
      </trkpt>
      <trkpt lat="42.94653" lon="0.16535">
        <ele>2012</ele>
        <time>2013-03-24T10:44:14Z</time>
      </trkpt>
      <trkpt lat="42.94654" lon="0.16535">
        <ele>2012</ele>
        <time>2013-03-24T10:44:15Z</time>
      </trkpt>
      <trkpt lat="42.94656" lon="0.16535">
        <ele>2012</ele>
        <time>2013-03-24T10:44:17Z</time>
      </trkpt>
      <trkpt lat="42.94658" lon="0.16535">
        <ele>2012</ele>
        <time>2013-03-24T10:44:19Z</time>
      </trkpt>
      <trkpt lat="42.94659" lon="0.16535">
        <ele>2013</ele>
        <time>2013-03-24T10:44:21Z</time>
      </trkpt>
      <trkpt lat="42.9466" lon="0.16536">
        <ele>2013</ele>
        <time>2013-03-24T10:44:24Z</time>
      </trkpt>
      <trkpt lat="42.94659" lon="0.16538">
        <ele>2013</ele>
        <time>2013-03-24T10:44:26Z</time>
      </trkpt>
      <trkpt lat="42.94658" lon="0.1654">
        <ele>2014</ele>
        <time>2013-03-24T10:44:28Z</time>
      </trkpt>
      <trkpt lat="42.94657" lon="0.16542">
        <ele>2014</ele>
        <time>2013-03-24T10:44:30Z</time>
      </trkpt>
      <trkpt lat="42.94656" lon="0.16544">
        <ele>2014</ele>
        <time>2013-03-24T10:44:32Z</time>
      </trkpt>
      <trkpt lat="42.94655" lon="0.16545">
        <ele>2015</ele>
        <time>2013-03-24T10:44:34Z</time>
      </trkpt>
      <trkpt lat="42.94653" lon="0.16546">
        <ele>2017</ele>
        <time>2013-03-24T10:45:03Z</time>
      </trkpt>
      <trkpt lat="42.94652" lon="0.16548">
        <ele>2018</ele>
        <time>2013-03-24T10:45:05Z</time>
      </trkpt>
      <trkpt lat="42.94651" lon="0.16549">
        <ele>2018</ele>
        <time>2013-03-24T10:45:07Z</time>
      </trkpt>
      <trkpt lat="42.94649" lon="0.16551">
        <ele>2018</ele>
        <time>2013-03-24T10:45:09Z</time>
      </trkpt>
      <trkpt lat="42.94648" lon="0.16553">
        <ele>2018</ele>
        <time>2013-03-24T10:45:11Z</time>
      </trkpt>
      <trkpt lat="42.94647" lon="0.16554">
        <ele>2019</ele>
        <time>2013-03-24T10:45:13Z</time>
      </trkpt>
      <trkpt lat="42.94648" lon="0.16556">
        <ele>2019</ele>
        <time>2013-03-24T10:45:15Z</time>
      </trkpt>
      <trkpt lat="42.94649" lon="0.16556">
        <ele>2020</ele>
        <time>2013-03-24T10:45:17Z</time>
      </trkpt>
      <trkpt lat="42.94651" lon="0.16556">
        <ele>2020</ele>
        <time>2013-03-24T10:45:19Z</time>
      </trkpt>
      <trkpt lat="42.94653" lon="0.16555">
        <ele>2021</ele>
        <time>2013-03-24T10:45:21Z</time>
      </trkpt>
      <trkpt lat="42.94654" lon="0.16555">
        <ele>2021</ele>
        <time>2013-03-24T10:45:23Z</time>
      </trkpt>
      <trkpt lat="42.94656" lon="0.16555">
        <ele>2021</ele>
        <time>2013-03-24T10:45:25Z</time>
      </trkpt>
      <trkpt lat="42.94658" lon="0.16556">
        <ele>2021</ele>
        <time>2013-03-24T10:45:27Z</time>
      </trkpt>
      <trkpt lat="42.9466" lon="0.16556">
        <ele>2022</ele>
        <time>2013-03-24T10:45:29Z</time>
      </trkpt>
      <trkpt lat="42.94662" lon="0.16555">
        <ele>2022</ele>
        <time>2013-03-24T10:45:31Z</time>
      </trkpt>
      <trkpt lat="42.94664" lon="0.16554">
        <ele>2022</ele>
        <time>2013-03-24T10:45:32Z</time>
      </trkpt>
      <trkpt lat="42.94665" lon="0.16554">
        <ele>2022</ele>
        <time>2013-03-24T10:45:33Z</time>
      </trkpt>
      <trkpt lat="42.94667" lon="0.16554">
        <ele>2022</ele>
        <time>2013-03-24T10:45:35Z</time>
      </trkpt>
      <trkpt lat="42.94669" lon="0.16553">
        <ele>2022</ele>
        <time>2013-03-24T10:45:37Z</time>
      </trkpt>
      <trkpt lat="42.9467" lon="0.16552">
        <ele>2022</ele>
        <time>2013-03-24T10:45:39Z</time>
      </trkpt>
      <trkpt lat="42.94672" lon="0.16551">
        <ele>2022</ele>
        <time>2013-03-24T10:45:41Z</time>
      </trkpt>
      <trkpt lat="42.94674" lon="0.1655">
        <ele>2022</ele>
        <time>2013-03-24T10:45:43Z</time>
      </trkpt>
      <trkpt lat="42.94675" lon="0.16548">
        <ele>2023</ele>
        <time>2013-03-24T10:45:45Z</time>
      </trkpt>
      <trkpt lat="42.94676" lon="0.16546">
        <ele>2023</ele>
        <time>2013-03-24T10:45:48Z</time>
      </trkpt>
      <trkpt lat="42.94677" lon="0.16545">
        <ele>2024</ele>
        <time>2013-03-24T10:46:05Z</time>
      </trkpt>
      <trkpt lat="42.94677" lon="0.16543">
        <ele>2024</ele>
        <time>2013-03-24T10:46:07Z</time>
      </trkpt>
      <trkpt lat="42.94678" lon="0.16542">
        <ele>2025</ele>
        <time>2013-03-24T10:46:09Z</time>
      </trkpt>
      <trkpt lat="42.9468" lon="0.1654">
        <ele>2025</ele>
        <time>2013-03-24T10:46:11Z</time>
      </trkpt>
      <trkpt lat="42.9468" lon="0.16538">
        <ele>2025</ele>
        <time>2013-03-24T10:46:13Z</time>
      </trkpt>
      <trkpt lat="42.94681" lon="0.16536">
        <ele>2025</ele>
        <time>2013-03-24T10:46:15Z</time>
      </trkpt>
      <trkpt lat="42.94682" lon="0.16534">
        <ele>2026</ele>
        <time>2013-03-24T10:46:17Z</time>
      </trkpt>
      <trkpt lat="42.94684" lon="0.16533">
        <ele>2026</ele>
        <time>2013-03-24T10:46:19Z</time>
      </trkpt>
      <trkpt lat="42.94685" lon="0.16531">
        <ele>2026</ele>
        <time>2013-03-24T10:46:21Z</time>
      </trkpt>
      <trkpt lat="42.94686" lon="0.16529">
        <ele>2026</ele>
        <time>2013-03-24T10:46:23Z</time>
      </trkpt>
      <trkpt lat="42.94687" lon="0.16528">
        <ele>2027</ele>
        <time>2013-03-24T10:46:25Z</time>
      </trkpt>
      <trkpt lat="42.94688" lon="0.16526">
        <ele>2027</ele>
        <time>2013-03-24T10:46:27Z</time>
      </trkpt>
      <trkpt lat="42.9469" lon="0.16525">
        <ele>2027</ele>
        <time>2013-03-24T10:46:29Z</time>
      </trkpt>
      <trkpt lat="42.94691" lon="0.16523">
        <ele>2028</ele>
        <time>2013-03-24T10:46:31Z</time>
      </trkpt>
      <trkpt lat="42.94692" lon="0.16522">
        <ele>2028</ele>
        <time>2013-03-24T10:46:33Z</time>
      </trkpt>
      <trkpt lat="42.94693" lon="0.1652">
        <ele>2029</ele>
        <time>2013-03-24T10:46:35Z</time>
      </trkpt>
      <trkpt lat="42.94694" lon="0.16519">
        <ele>2029</ele>
        <time>2013-03-24T10:46:37Z</time>
      </trkpt>
      <trkpt lat="42.94693" lon="0.16519">
        <ele>2029</ele>
        <time>2013-03-24T10:46:45Z</time>
      </trkpt>
      <trkpt lat="42.94694" lon="0.16519">
        <ele>2029</ele>
        <time>2013-03-24T10:46:53Z</time>
      </trkpt>
      <trkpt lat="42.94694" lon="0.16521">
        <ele>2029</ele>
        <time>2013-03-24T10:46:55Z</time>
      </trkpt>
      <trkpt lat="42.94694" lon="0.16522">
        <ele>2029</ele>
        <time>2013-03-24T10:46:56Z</time>
      </trkpt>
      <trkpt lat="42.94694" lon="0.16525">
        <ele>2029</ele>
        <time>2013-03-24T10:46:58Z</time>
      </trkpt>
      <trkpt lat="42.94693" lon="0.16527">
        <ele>2030</ele>
        <time>2013-03-24T10:47:00Z</time>
      </trkpt>
      <trkpt lat="42.94693" lon="0.16529">
        <ele>2030</ele>
        <time>2013-03-24T10:47:02Z</time>
      </trkpt>
      <trkpt lat="42.94693" lon="0.16532">
        <ele>2031</ele>
        <time>2013-03-24T10:47:04Z</time>
      </trkpt>
      <trkpt lat="42.94693" lon="0.16534">
        <ele>2031</ele>
        <time>2013-03-24T10:47:06Z</time>
      </trkpt>
      <trkpt lat="42.94693" lon="0.16535">
        <ele>2031</ele>
        <time>2013-03-24T10:47:07Z</time>
      </trkpt>
      <trkpt lat="42.94694" lon="0.16538">
        <ele>2032</ele>
        <time>2013-03-24T10:47:09Z</time>
      </trkpt>
      <trkpt lat="42.94694" lon="0.1654">
        <ele>2032</ele>
        <time>2013-03-24T10:47:11Z</time>
      </trkpt>
      <trkpt lat="42.94695" lon="0.16542">
        <ele>2032</ele>
        <time>2013-03-24T10:47:19Z</time>
      </trkpt>
      <trkpt lat="42.94697" lon="0.16542">
        <ele>2032</ele>
        <time>2013-03-24T10:47:21Z</time>
      </trkpt>
      <trkpt lat="42.94698" lon="0.1654">
        <ele>2032</ele>
        <time>2013-03-24T10:47:24Z</time>
      </trkpt>
      <trkpt lat="42.947" lon="0.16538">
        <ele>2033</ele>
        <time>2013-03-24T10:47:26Z</time>
      </trkpt>
      <trkpt lat="42.94701" lon="0.16538">
        <ele>2035</ele>
        <time>2013-03-24T10:47:36Z</time>
      </trkpt>
      <trkpt lat="42.94703" lon="0.16536">
        <ele>2036</ele>
        <time>2013-03-24T10:47:44Z</time>
      </trkpt>
      <trkpt lat="42.94704" lon="0.16535">
        <ele>2036</ele>
        <time>2013-03-24T10:47:46Z</time>
      </trkpt>
      <trkpt lat="42.94705" lon="0.16534">
        <ele>2036</ele>
        <time>2013-03-24T10:47:48Z</time>
      </trkpt>
      <trkpt lat="42.94706" lon="0.16532">
        <ele>2037</ele>
        <time>2013-03-24T10:47:51Z</time>
      </trkpt>
      <trkpt lat="42.94708" lon="0.16531">
        <ele>2037</ele>
        <time>2013-03-24T10:47:53Z</time>
      </trkpt>
      <trkpt lat="42.94709" lon="0.16529">
        <ele>2037</ele>
        <time>2013-03-24T10:47:55Z</time>
      </trkpt>
      <trkpt lat="42.9471" lon="0.16528">
        <ele>2037</ele>
        <time>2013-03-24T10:47:57Z</time>
      </trkpt>
      <trkpt lat="42.94712" lon="0.16526">
        <ele>2037</ele>
        <time>2013-03-24T10:47:59Z</time>
      </trkpt>
      <trkpt lat="42.94713" lon="0.16525">
        <ele>2038</ele>
        <time>2013-03-24T10:48:01Z</time>
      </trkpt>
      <trkpt lat="42.94714" lon="0.16523">
        <ele>2038</ele>
        <time>2013-03-24T10:48:03Z</time>
      </trkpt>
      <trkpt lat="42.94715" lon="0.16523">
        <ele>2039</ele>
        <time>2013-03-24T10:48:41Z</time>
      </trkpt>
      <trkpt lat="42.94717" lon="0.16521">
        <ele>2039</ele>
        <time>2013-03-24T10:48:43Z</time>
      </trkpt>
      <trkpt lat="42.94718" lon="0.16519">
        <ele>2039</ele>
        <time>2013-03-24T10:48:45Z</time>
      </trkpt>
      <trkpt lat="42.94719" lon="0.16518">
        <ele>2039</ele>
        <time>2013-03-24T10:48:47Z</time>
      </trkpt>
      <trkpt lat="42.94721" lon="0.16516">
        <ele>2039</ele>
        <time>2013-03-24T10:48:49Z</time>
      </trkpt>
      <trkpt lat="42.94722" lon="0.16514">
        <ele>2039</ele>
        <time>2013-03-24T10:48:51Z</time>
      </trkpt>
      <trkpt lat="42.94724" lon="0.16512">
        <ele>2040</ele>
        <time>2013-03-24T10:48:53Z</time>
      </trkpt>
      <trkpt lat="42.94725" lon="0.1651">
        <ele>2040</ele>
        <time>2013-03-24T10:48:55Z</time>
      </trkpt>
      <trkpt lat="42.94726" lon="0.16509">
        <ele>2040</ele>
        <time>2013-03-24T10:49:08Z</time>
      </trkpt>
      <trkpt lat="42.94728" lon="0.16508">
        <ele>2040</ele>
        <time>2013-03-24T10:49:10Z</time>
      </trkpt>
      <trkpt lat="42.94729" lon="0.16507">
        <ele>2040</ele>
        <time>2013-03-24T10:49:12Z</time>
      </trkpt>
      <trkpt lat="42.94731" lon="0.16506">
        <ele>2040</ele>
        <time>2013-03-24T10:49:14Z</time>
      </trkpt>
      <trkpt lat="42.94732" lon="0.16506">
        <ele>2040</ele>
        <time>2013-03-24T10:49:16Z</time>
      </trkpt>
      <trkpt lat="42.94733" lon="0.16505">
        <ele>2041</ele>
        <time>2013-03-24T10:49:18Z</time>
      </trkpt>
      <trkpt lat="42.94735" lon="0.16505">
        <ele>2041</ele>
        <time>2013-03-24T10:49:20Z</time>
      </trkpt>
      <trkpt lat="42.94736" lon="0.16504">
        <ele>2041</ele>
        <time>2013-03-24T10:49:22Z</time>
      </trkpt>
      <trkpt lat="42.94738" lon="0.16504">
        <ele>2041</ele>
        <time>2013-03-24T10:49:24Z</time>
      </trkpt>
      <trkpt lat="42.9474" lon="0.16504">
        <ele>2041</ele>
        <time>2013-03-24T10:49:26Z</time>
      </trkpt>
      <trkpt lat="42.94741" lon="0.16503">
        <ele>2042</ele>
        <time>2013-03-24T10:49:28Z</time>
      </trkpt>
      <trkpt lat="42.94743" lon="0.16502">
        <ele>2042</ele>
        <time>2013-03-24T10:49:30Z</time>
      </trkpt>
      <trkpt lat="42.94744" lon="0.16501">
        <ele>2043</ele>
        <time>2013-03-24T10:49:32Z</time>
      </trkpt>
      <trkpt lat="42.94746" lon="0.16501">
        <ele>2043</ele>
        <time>2013-03-24T10:49:34Z</time>
      </trkpt>
      <trkpt lat="42.94748" lon="0.165">
        <ele>2043</ele>
        <time>2013-03-24T10:49:36Z</time>
      </trkpt>
      <trkpt lat="42.94749" lon="0.16499">
        <ele>2044</ele>
        <time>2013-03-24T10:49:38Z</time>
      </trkpt>
      <trkpt lat="42.94751" lon="0.16498">
        <ele>2044</ele>
        <time>2013-03-24T10:49:40Z</time>
      </trkpt>
      <trkpt lat="42.94753" lon="0.16498">
        <ele>2044</ele>
        <time>2013-03-24T10:49:42Z</time>
      </trkpt>
      <trkpt lat="42.94754" lon="0.16497">
        <ele>2045</ele>
        <time>2013-03-24T10:49:44Z</time>
      </trkpt>
      <trkpt lat="42.94755" lon="0.16496">
        <ele>2045</ele>
        <time>2013-03-24T10:49:46Z</time>
      </trkpt>
      <trkpt lat="42.94756" lon="0.16495">
        <ele>2046</ele>
        <time>2013-03-24T10:49:48Z</time>
      </trkpt>
      <trkpt lat="42.94758" lon="0.16495">
        <ele>2046</ele>
        <time>2013-03-24T10:49:50Z</time>
      </trkpt>
      <trkpt lat="42.94759" lon="0.16494">
        <ele>2046</ele>
        <time>2013-03-24T10:49:52Z</time>
      </trkpt>
      <trkpt lat="42.94761" lon="0.16493">
        <ele>2047</ele>
        <time>2013-03-24T10:49:54Z</time>
      </trkpt>
      <trkpt lat="42.94762" lon="0.16491">
        <ele>2047</ele>
        <time>2013-03-24T10:49:57Z</time>
      </trkpt>
      <trkpt lat="42.94764" lon="0.16491">
        <ele>2048</ele>
        <time>2013-03-24T10:49:59Z</time>
      </trkpt>
      <trkpt lat="42.94765" lon="0.16489">
        <ele>2049</ele>
        <time>2013-03-24T10:50:10Z</time>
      </trkpt>
      <trkpt lat="42.94766" lon="0.16488">
        <ele>2049</ele>
        <time>2013-03-24T10:50:12Z</time>
      </trkpt>
      <trkpt lat="42.94767" lon="0.16488">
        <ele>2049</ele>
        <time>2013-03-24T10:50:14Z</time>
      </trkpt>
      <trkpt lat="42.94769" lon="0.16487">
        <ele>2049</ele>
        <time>2013-03-24T10:50:16Z</time>
      </trkpt>
      <trkpt lat="42.9477" lon="0.16486">
        <ele>2049</ele>
        <time>2013-03-24T10:50:18Z</time>
      </trkpt>
      <trkpt lat="42.94772" lon="0.16485">
        <ele>2050</ele>
        <time>2013-03-24T10:50:20Z</time>
      </trkpt>
      <trkpt lat="42.94773" lon="0.16484">
        <ele>2050</ele>
        <time>2013-03-24T10:50:22Z</time>
      </trkpt>
      <trkpt lat="42.94774" lon="0.16483">
        <ele>2050</ele>
        <time>2013-03-24T10:50:24Z</time>
      </trkpt>
      <trkpt lat="42.94775" lon="0.16482">
        <ele>2052</ele>
        <time>2013-03-24T10:50:43Z</time>
      </trkpt>
      <trkpt lat="42.94776" lon="0.16481">
        <ele>2052</ele>
        <time>2013-03-24T10:50:45Z</time>
      </trkpt>
      <trkpt lat="42.94777" lon="0.16479">
        <ele>2052</ele>
        <time>2013-03-24T10:50:47Z</time>
      </trkpt>
      <trkpt lat="42.94778" lon="0.16478">
        <ele>2052</ele>
        <time>2013-03-24T10:50:49Z</time>
      </trkpt>
      <trkpt lat="42.9478" lon="0.16477">
        <ele>2052</ele>
        <time>2013-03-24T10:50:51Z</time>
      </trkpt>
      <trkpt lat="42.94781" lon="0.16475">
        <ele>2052</ele>
        <time>2013-03-24T10:50:53Z</time>
      </trkpt>
      <trkpt lat="42.94783" lon="0.16474">
        <ele>2052</ele>
        <time>2013-03-24T10:50:55Z</time>
      </trkpt>
      <trkpt lat="42.94784" lon="0.16472">
        <ele>2053</ele>
        <time>2013-03-24T10:50:57Z</time>
      </trkpt>
      <trkpt lat="42.94785" lon="0.16471">
        <ele>2053</ele>
        <time>2013-03-24T10:50:59Z</time>
      </trkpt>
      <trkpt lat="42.94787" lon="0.16469">
        <ele>2053</ele>
        <time>2013-03-24T10:51:01Z</time>
      </trkpt>
      <trkpt lat="42.94788" lon="0.16467">
        <ele>2053</ele>
        <time>2013-03-24T10:51:03Z</time>
      </trkpt>
      <trkpt lat="42.94789" lon="0.16466">
        <ele>2054</ele>
        <time>2013-03-24T10:51:05Z</time>
      </trkpt>
      <trkpt lat="42.94791" lon="0.16465">
        <ele>2054</ele>
        <time>2013-03-24T10:51:07Z</time>
      </trkpt>
      <trkpt lat="42.94791" lon="0.16466">
        <ele>2054</ele>
        <time>2013-03-24T10:51:10Z</time>
      </trkpt>
      <trkpt lat="42.94791" lon="0.16468">
        <ele>2054</ele>
        <time>2013-03-24T10:51:12Z</time>
      </trkpt>
      <trkpt lat="42.94791" lon="0.1647">
        <ele>2055</ele>
        <time>2013-03-24T10:51:14Z</time>
      </trkpt>
      <trkpt lat="42.94791" lon="0.16472">
        <ele>2055</ele>
        <time>2013-03-24T10:51:16Z</time>
      </trkpt>
      <trkpt lat="42.9479" lon="0.16474">
        <ele>2056</ele>
        <time>2013-03-24T10:51:18Z</time>
      </trkpt>
      <trkpt lat="42.9479" lon="0.16476">
        <ele>2057</ele>
        <time>2013-03-24T10:51:20Z</time>
      </trkpt>
      <trkpt lat="42.9479" lon="0.16478">
        <ele>2057</ele>
        <time>2013-03-24T10:51:22Z</time>
      </trkpt>
      <trkpt lat="42.94789" lon="0.1648">
        <ele>2058</ele>
        <time>2013-03-24T10:51:24Z</time>
      </trkpt>
      <trkpt lat="42.9479" lon="0.16482">
        <ele>2063</ele>
        <time>2013-03-24T10:51:49Z</time>
      </trkpt>
      <trkpt lat="42.94789" lon="0.16484">
        <ele>2064</ele>
        <time>2013-03-24T10:51:51Z</time>
      </trkpt>
      <trkpt lat="42.94789" lon="0.16487">
        <ele>2064</ele>
        <time>2013-03-24T10:51:53Z</time>
      </trkpt>
      <trkpt lat="42.94789" lon="0.16489">
        <ele>2064</ele>
        <time>2013-03-24T10:51:55Z</time>
      </trkpt>
      <trkpt lat="42.94789" lon="0.16491">
        <ele>2064</ele>
        <time>2013-03-24T10:51:57Z</time>
      </trkpt>
      <trkpt lat="42.94789" lon="0.16493">
        <ele>2064</ele>
        <time>2013-03-24T10:51:59Z</time>
      </trkpt>
      <trkpt lat="42.94788" lon="0.16495">
        <ele>2064</ele>
        <time>2013-03-24T10:52:00Z</time>
      </trkpt>
      <trkpt lat="42.94789" lon="0.16497">
        <ele>2064</ele>
        <time>2013-03-24T10:52:02Z</time>
      </trkpt>
      <trkpt lat="42.9479" lon="0.16496">
        <ele>2065</ele>
        <time>2013-03-24T10:52:04Z</time>
      </trkpt>
      <trkpt lat="42.94791" lon="0.16494">
        <ele>2065</ele>
        <time>2013-03-24T10:52:06Z</time>
      </trkpt>
      <trkpt lat="42.94792" lon="0.16492">
        <ele>2066</ele>
        <time>2013-03-24T10:52:08Z</time>
      </trkpt>
      <trkpt lat="42.94793" lon="0.16491">
        <ele>2066</ele>
        <time>2013-03-24T10:52:10Z</time>
      </trkpt>
      <trkpt lat="42.94794" lon="0.1649">
        <ele>2066</ele>
        <time>2013-03-24T10:52:12Z</time>
      </trkpt>
      <trkpt lat="42.94796" lon="0.16488">
        <ele>2066</ele>
        <time>2013-03-24T10:52:15Z</time>
      </trkpt>
      <trkpt lat="42.94797" lon="0.16487">
        <ele>2066</ele>
        <time>2013-03-24T10:52:17Z</time>
      </trkpt>
      <trkpt lat="42.94799" lon="0.16485">
        <ele>2066</ele>
        <time>2013-03-24T10:52:19Z</time>
      </trkpt>
      <trkpt lat="42.948" lon="0.16484">
        <ele>2066</ele>
        <time>2013-03-24T10:52:21Z</time>
      </trkpt>
      <trkpt lat="42.948" lon="0.16483">
        <ele>2067</ele>
        <time>2013-03-24T10:53:00Z</time>
      </trkpt>
      <trkpt lat="42.94802" lon="0.16481">
        <ele>2067</ele>
        <time>2013-03-24T10:53:03Z</time>
      </trkpt>
      <trkpt lat="42.94803" lon="0.16479">
        <ele>2067</ele>
        <time>2013-03-24T10:53:05Z</time>
      </trkpt>
      <trkpt lat="42.94804" lon="0.16477">
        <ele>2067</ele>
        <time>2013-03-24T10:53:07Z</time>
      </trkpt>
      <trkpt lat="42.94806" lon="0.16476">
        <ele>2067</ele>
        <time>2013-03-24T10:53:09Z</time>
      </trkpt>
      <trkpt lat="42.94807" lon="0.16474">
        <ele>2067</ele>
        <time>2013-03-24T10:53:11Z</time>
      </trkpt>
      <trkpt lat="42.94808" lon="0.16473">
        <ele>2067</ele>
        <time>2013-03-24T10:53:13Z</time>
      </trkpt>
      <trkpt lat="42.94809" lon="0.16471">
        <ele>2067</ele>
        <time>2013-03-24T10:53:15Z</time>
      </trkpt>
      <trkpt lat="42.94811" lon="0.16469">
        <ele>2067</ele>
        <time>2013-03-24T10:53:17Z</time>
      </trkpt>
      <trkpt lat="42.94812" lon="0.16467">
        <ele>2067</ele>
        <time>2013-03-24T10:53:19Z</time>
      </trkpt>
      <trkpt lat="42.94814" lon="0.16466">
        <ele>2067</ele>
        <time>2013-03-24T10:53:21Z</time>
      </trkpt>
      <trkpt lat="42.94815" lon="0.16464">
        <ele>2067</ele>
        <time>2013-03-24T10:53:23Z</time>
      </trkpt>
      <trkpt lat="42.94817" lon="0.16462">
        <ele>2067</ele>
        <time>2013-03-24T10:53:25Z</time>
      </trkpt>
      <trkpt lat="42.94818" lon="0.1646">
        <ele>2067</ele>
        <time>2013-03-24T10:53:27Z</time>
      </trkpt>
      <trkpt lat="42.94819" lon="0.16459">
        <ele>2068</ele>
        <time>2013-03-24T10:53:29Z</time>
      </trkpt>
      <trkpt lat="42.94821" lon="0.16457">
        <ele>2068</ele>
        <time>2013-03-24T10:53:31Z</time>
      </trkpt>
      <trkpt lat="42.94822" lon="0.16455">
        <ele>2068</ele>
        <time>2013-03-24T10:53:33Z</time>
      </trkpt>
      <trkpt lat="42.94824" lon="0.16453">
        <ele>2068</ele>
        <time>2013-03-24T10:53:35Z</time>
      </trkpt>
      <trkpt lat="42.94825" lon="0.16452">
        <ele>2068</ele>
        <time>2013-03-24T10:53:37Z</time>
      </trkpt>
      <trkpt lat="42.94827" lon="0.1645">
        <ele>2068</ele>
        <time>2013-03-24T10:53:39Z</time>
      </trkpt>
      <trkpt lat="42.94829" lon="0.16449">
        <ele>2069</ele>
        <time>2013-03-24T10:53:41Z</time>
      </trkpt>
      <trkpt lat="42.9483" lon="0.16447">
        <ele>2069</ele>
        <time>2013-03-24T10:53:43Z</time>
      </trkpt>
      <trkpt lat="42.94832" lon="0.16446">
        <ele>2069</ele>
        <time>2013-03-24T10:53:45Z</time>
      </trkpt>
      <trkpt lat="42.94831" lon="0.16444">
        <ele>2070</ele>
        <time>2013-03-24T10:53:52Z</time>
      </trkpt>
      <trkpt lat="42.94833" lon="0.16445">
        <ele>2071</ele>
        <time>2013-03-24T10:54:14Z</time>
      </trkpt>
      <trkpt lat="42.94833" lon="0.16446">
        <ele>2071</ele>
        <time>2013-03-24T10:54:51Z</time>
      </trkpt>
      <trkpt lat="42.94835" lon="0.16446">
        <ele>2071</ele>
        <time>2013-03-24T10:55:43Z</time>
      </trkpt>
      <trkpt lat="42.94836" lon="0.16445">
        <ele>2071</ele>
        <time>2013-03-24T10:55:45Z</time>
      </trkpt>
      <trkpt lat="42.94838" lon="0.16443">
        <ele>2071</ele>
        <time>2013-03-24T10:55:47Z</time>
      </trkpt>
      <trkpt lat="42.9484" lon="0.16443">
        <ele>2071</ele>
        <time>2013-03-24T10:55:49Z</time>
      </trkpt>
      <trkpt lat="42.94842" lon="0.16441">
        <ele>2071</ele>
        <time>2013-03-24T10:55:51Z</time>
      </trkpt>
      <trkpt lat="42.94843" lon="0.1644">
        <ele>2071</ele>
        <time>2013-03-24T10:55:53Z</time>
      </trkpt>
      <trkpt lat="42.94845" lon="0.16439">
        <ele>2071</ele>
        <time>2013-03-24T10:55:55Z</time>
      </trkpt>
      <trkpt lat="42.94847" lon="0.16437">
        <ele>2071</ele>
        <time>2013-03-24T10:55:57Z</time>
      </trkpt>
      <trkpt lat="42.94849" lon="0.16435">
        <ele>2071</ele>
        <time>2013-03-24T10:55:59Z</time>
      </trkpt>
      <trkpt lat="42.9485" lon="0.16433">
        <ele>2071</ele>
        <time>2013-03-24T10:56:01Z</time>
      </trkpt>
      <trkpt lat="42.94852" lon="0.16432">
        <ele>2071</ele>
        <time>2013-03-24T10:56:03Z</time>
      </trkpt>
      <trkpt lat="42.94853" lon="0.16432">
        <ele>2071</ele>
        <time>2013-03-24T10:56:05Z</time>
      </trkpt>
      <trkpt lat="42.94855" lon="0.16432">
        <ele>2071</ele>
        <time>2013-03-24T10:56:07Z</time>
      </trkpt>
      <trkpt lat="42.94857" lon="0.16433">
        <ele>2071</ele>
        <time>2013-03-24T10:56:47Z</time>
      </trkpt>
      <trkpt lat="42.94858" lon="0.16433">
        <ele>2071</ele>
        <time>2013-03-24T10:56:48Z</time>
      </trkpt>
      <trkpt lat="42.9486" lon="0.16432">
        <ele>2071</ele>
        <time>2013-03-24T10:56:50Z</time>
      </trkpt>
      <trkpt lat="42.94862" lon="0.1643">
        <ele>2071</ele>
        <time>2013-03-24T10:56:52Z</time>
      </trkpt>
      <trkpt lat="42.94863" lon="0.16429">
        <ele>2071</ele>
        <time>2013-03-24T10:56:54Z</time>
      </trkpt>
      <trkpt lat="42.94865" lon="0.16427">
        <ele>2071</ele>
        <time>2013-03-24T10:56:56Z</time>
      </trkpt>
      <trkpt lat="42.94866" lon="0.16425">
        <ele>2071</ele>
        <time>2013-03-24T10:56:58Z</time>
      </trkpt>
      <trkpt lat="42.94867" lon="0.16425">
        <ele>2071</ele>
        <time>2013-03-24T10:57:00Z</time>
      </trkpt>
      <trkpt lat="42.9487" lon="0.16425">
        <ele>2071</ele>
        <time>2013-03-24T10:57:02Z</time>
      </trkpt>
      <trkpt lat="42.94871" lon="0.16427">
        <ele>2071</ele>
        <time>2013-03-24T10:57:04Z</time>
      </trkpt>
      <trkpt lat="42.94873" lon="0.16428">
        <ele>2071</ele>
        <time>2013-03-24T10:57:06Z</time>
      </trkpt>
      <trkpt lat="42.94875" lon="0.16429">
        <ele>2071</ele>
        <time>2013-03-24T10:57:08Z</time>
      </trkpt>
      <trkpt lat="42.94876" lon="0.16429">
        <ele>2071</ele>
        <time>2013-03-24T10:57:10Z</time>
      </trkpt>
      <trkpt lat="42.94878" lon="0.16428">
        <ele>2071</ele>
        <time>2013-03-24T10:57:12Z</time>
      </trkpt>
      <trkpt lat="42.9488" lon="0.16427">
        <ele>2071</ele>
        <time>2013-03-24T10:57:14Z</time>
      </trkpt>
      <trkpt lat="42.94881" lon="0.16426">
        <ele>2071</ele>
        <time>2013-03-24T10:57:15Z</time>
      </trkpt>
      <trkpt lat="42.94882" lon="0.16427">
        <ele>2072</ele>
        <time>2013-03-24T10:57:17Z</time>
      </trkpt>
      <trkpt lat="42.94884" lon="0.16428">
        <ele>2072</ele>
        <time>2013-03-24T10:57:19Z</time>
      </trkpt>
      <trkpt lat="42.94886" lon="0.16429">
        <ele>2072</ele>
        <time>2013-03-24T10:57:21Z</time>
      </trkpt>
      <trkpt lat="42.94887" lon="0.16431">
        <ele>2073</ele>
        <time>2013-03-24T10:57:23Z</time>
      </trkpt>
      <trkpt lat="42.94889" lon="0.16431">
        <ele>2073</ele>
        <time>2013-03-24T10:57:25Z</time>
      </trkpt>
      <trkpt lat="42.94891" lon="0.1643">
        <ele>2074</ele>
        <time>2013-03-24T10:57:27Z</time>
      </trkpt>
      <trkpt lat="42.94893" lon="0.1643">
        <ele>2074</ele>
        <time>2013-03-24T10:58:03Z</time>
      </trkpt>
      <trkpt lat="42.94894" lon="0.16429">
        <ele>2074</ele>
        <time>2013-03-24T10:58:05Z</time>
      </trkpt>
      <trkpt lat="42.94896" lon="0.16429">
        <ele>2075</ele>
        <time>2013-03-24T10:58:07Z</time>
      </trkpt>
      <trkpt lat="42.94897" lon="0.16429">
        <ele>2075</ele>
        <time>2013-03-24T10:58:09Z</time>
      </trkpt>
      <trkpt lat="42.94899" lon="0.1643">
        <ele>2075</ele>
        <time>2013-03-24T10:58:11Z</time>
      </trkpt>
      <trkpt lat="42.949" lon="0.16432">
        <ele>2076</ele>
        <time>2013-03-24T10:58:13Z</time>
      </trkpt>
      <trkpt lat="42.94902" lon="0.16433">
        <ele>2076</ele>
        <time>2013-03-24T10:58:16Z</time>
      </trkpt>
      <trkpt lat="42.94904" lon="0.16434">
        <ele>2077</ele>
        <time>2013-03-24T10:58:18Z</time>
      </trkpt>
      <trkpt lat="42.94905" lon="0.16434">
        <ele>2077</ele>
        <time>2013-03-24T10:58:20Z</time>
      </trkpt>
      <trkpt lat="42.94907" lon="0.16434">
        <ele>2078</ele>
        <time>2013-03-24T10:58:22Z</time>
      </trkpt>
      <trkpt lat="42.94909" lon="0.16434">
        <ele>2078</ele>
        <time>2013-03-24T10:58:23Z</time>
      </trkpt>
      <trkpt lat="42.9491" lon="0.16434">
        <ele>2078</ele>
        <time>2013-03-24T10:58:25Z</time>
      </trkpt>
      <trkpt lat="42.94912" lon="0.16434">
        <ele>2078</ele>
        <time>2013-03-24T10:58:27Z</time>
      </trkpt>
      <trkpt lat="42.94913" lon="0.16434">
        <ele>2078</ele>
        <time>2013-03-24T10:58:29Z</time>
      </trkpt>
      <trkpt lat="42.94914" lon="0.16435">
        <ele>2078</ele>
        <time>2013-03-24T10:58:31Z</time>
      </trkpt>
      <trkpt lat="42.94915" lon="0.16437">
        <ele>2078</ele>
        <time>2013-03-24T10:58:33Z</time>
      </trkpt>
      <trkpt lat="42.94915" lon="0.16439">
        <ele>2078</ele>
        <time>2013-03-24T10:58:35Z</time>
      </trkpt>
      <trkpt lat="42.94915" lon="0.16437">
        <ele>2078</ele>
        <time>2013-03-24T10:58:57Z</time>
      </trkpt>
      <trkpt lat="42.94915" lon="0.16439">
        <ele>2078</ele>
        <time>2013-03-24T10:59:10Z</time>
      </trkpt>
      <trkpt lat="42.94916" lon="0.16441">
        <ele>2078</ele>
        <time>2013-03-24T10:59:12Z</time>
      </trkpt>
      <trkpt lat="42.94918" lon="0.16441">
        <ele>2079</ele>
        <time>2013-03-24T10:59:14Z</time>
      </trkpt>
      <trkpt lat="42.9492" lon="0.16442">
        <ele>2079</ele>
        <time>2013-03-24T10:59:16Z</time>
      </trkpt>
      <trkpt lat="42.9492" lon="0.16443">
        <ele>2080</ele>
        <time>2013-03-24T10:59:18Z</time>
      </trkpt>
      <trkpt lat="42.9492" lon="0.16446">
        <ele>2080</ele>
        <time>2013-03-24T10:59:20Z</time>
      </trkpt>
      <trkpt lat="42.9492" lon="0.16447">
        <ele>2081</ele>
        <time>2013-03-24T10:59:22Z</time>
      </trkpt>
      <trkpt lat="42.94921" lon="0.16448">
        <ele>2082</ele>
        <time>2013-03-24T10:59:24Z</time>
      </trkpt>
      <trkpt lat="42.94923" lon="0.16449">
        <ele>2083</ele>
        <time>2013-03-24T10:59:26Z</time>
      </trkpt>
      <trkpt lat="42.94924" lon="0.16448">
        <ele>2083</ele>
        <time>2013-03-24T10:59:28Z</time>
      </trkpt>
      <trkpt lat="42.94926" lon="0.16448">
        <ele>2084</ele>
        <time>2013-03-24T10:59:30Z</time>
      </trkpt>
      <trkpt lat="42.94927" lon="0.16448">
        <ele>2084</ele>
        <time>2013-03-24T10:59:32Z</time>
      </trkpt>
      <trkpt lat="42.94929" lon="0.16448">
        <ele>2085</ele>
        <time>2013-03-24T10:59:34Z</time>
      </trkpt>
      <trkpt lat="42.94929" lon="0.16447">
        <ele>2087</ele>
        <time>2013-03-24T10:59:59Z</time>
      </trkpt>
      <trkpt lat="42.94931" lon="0.16447">
        <ele>2087</ele>
        <time>2013-03-24T11:00:29Z</time>
      </trkpt>
      <trkpt lat="42.94931" lon="0.16449">
        <ele>2087</ele>
        <time>2013-03-24T11:00:31Z</time>
      </trkpt>
      <trkpt lat="42.94931" lon="0.16451">
        <ele>2087</ele>
        <time>2013-03-24T11:00:33Z</time>
      </trkpt>
      <trkpt lat="42.94931" lon="0.16453">
        <ele>2087</ele>
        <time>2013-03-24T11:00:35Z</time>
      </trkpt>
      <trkpt lat="42.94931" lon="0.16455">
        <ele>2088</ele>
        <time>2013-03-24T11:00:37Z</time>
      </trkpt>
      <trkpt lat="42.94931" lon="0.16457">
        <ele>2092</ele>
        <time>2013-03-24T11:01:48Z</time>
      </trkpt>
      <trkpt lat="42.94932" lon="0.16455">
        <ele>2093</ele>
        <time>2013-03-24T11:02:29Z</time>
      </trkpt>
      <trkpt lat="42.94931" lon="0.16457">
        <ele>2093</ele>
        <time>2013-03-24T11:02:34Z</time>
      </trkpt>
      <trkpt lat="42.94931" lon="0.16455">
        <ele>2093</ele>
        <time>2013-03-24T11:04:03Z</time>
      </trkpt>
      <trkpt lat="42.94931" lon="0.16457">
        <ele>2093</ele>
        <time>2013-03-24T11:04:46Z</time>
      </trkpt>
      <trkpt lat="42.94932" lon="0.16457">
        <ele>2093</ele>
        <time>2013-03-24T11:04:50Z</time>
      </trkpt>
      <trkpt lat="42.94933" lon="0.16457">
        <ele>2093</ele>
        <time>2013-03-24T11:04:52Z</time>
      </trkpt>
      <trkpt lat="42.94935" lon="0.16457">
        <ele>2093</ele>
        <time>2013-03-24T11:04:54Z</time>
      </trkpt>
      <trkpt lat="42.94936" lon="0.16458">
        <ele>2093</ele>
        <time>2013-03-24T11:04:56Z</time>
      </trkpt>
      <trkpt lat="42.94938" lon="0.16458">
        <ele>2093</ele>
        <time>2013-03-24T11:04:58Z</time>
      </trkpt>
      <trkpt lat="42.94939" lon="0.16458">
        <ele>2093</ele>
        <time>2013-03-24T11:05:00Z</time>
      </trkpt>
      <trkpt lat="42.94941" lon="0.16458">
        <ele>2094</ele>
        <time>2013-03-24T11:05:02Z</time>
      </trkpt>
      <trkpt lat="42.94942" lon="0.16458">
        <ele>2094</ele>
        <time>2013-03-24T11:05:04Z</time>
      </trkpt>
      <trkpt lat="42.94943" lon="0.16458">
        <ele>2095</ele>
        <time>2013-03-24T11:05:06Z</time>
      </trkpt>
      <trkpt lat="42.94944" lon="0.16458">
        <ele>2095</ele>
        <time>2013-03-24T11:05:08Z</time>
      </trkpt>
      <trkpt lat="42.94945" lon="0.1646">
        <ele>2095</ele>
        <time>2013-03-24T11:05:10Z</time>
      </trkpt>
      <trkpt lat="42.94946" lon="0.16461">
        <ele>2096</ele>
        <time>2013-03-24T11:05:12Z</time>
      </trkpt>
      <trkpt lat="42.94946" lon="0.16463">
        <ele>2096</ele>
        <time>2013-03-24T11:05:14Z</time>
      </trkpt>
      <trkpt lat="42.94947" lon="0.16465">
        <ele>2096</ele>
        <time>2013-03-24T11:05:16Z</time>
      </trkpt>
      <trkpt lat="42.94948" lon="0.16466">
        <ele>2097</ele>
        <time>2013-03-24T11:05:19Z</time>
      </trkpt>
      <trkpt lat="42.94949" lon="0.16468">
        <ele>2098</ele>
        <time>2013-03-24T11:05:22Z</time>
      </trkpt>
      <trkpt lat="42.9495" lon="0.1647">
        <ele>2099</ele>
        <time>2013-03-24T11:05:25Z</time>
      </trkpt>
      <trkpt lat="42.94952" lon="0.1647">
        <ele>2099</ele>
        <time>2013-03-24T11:05:27Z</time>
      </trkpt>
      <trkpt lat="42.94953" lon="0.1647">
        <ele>2099</ele>
        <time>2013-03-24T11:05:29Z</time>
      </trkpt>
      <trkpt lat="42.94955" lon="0.1647">
        <ele>2099</ele>
        <time>2013-03-24T11:05:31Z</time>
      </trkpt>
      <trkpt lat="42.94956" lon="0.16471">
        <ele>2099</ele>
        <time>2013-03-24T11:05:33Z</time>
      </trkpt>
      <trkpt lat="42.94958" lon="0.16471">
        <ele>2099</ele>
        <time>2013-03-24T11:05:35Z</time>
      </trkpt>
      <trkpt lat="42.94959" lon="0.16471">
        <ele>2099</ele>
        <time>2013-03-24T11:05:37Z</time>
      </trkpt>
      <trkpt lat="42.9496" lon="0.1647">
        <ele>2100</ele>
        <time>2013-03-24T11:05:55Z</time>
      </trkpt>
      <trkpt lat="42.94962" lon="0.1647">
        <ele>2100</ele>
        <time>2013-03-24T11:05:57Z</time>
      </trkpt>
      <trkpt lat="42.94963" lon="0.1647">
        <ele>2100</ele>
        <time>2013-03-24T11:05:59Z</time>
      </trkpt>
      <trkpt lat="42.94965" lon="0.1647">
        <ele>2101</ele>
        <time>2013-03-24T11:06:01Z</time>
      </trkpt>
      <trkpt lat="42.94966" lon="0.16471">
        <ele>2101</ele>
        <time>2013-03-24T11:06:03Z</time>
      </trkpt>
      <trkpt lat="42.94968" lon="0.16471">
        <ele>2101</ele>
        <time>2013-03-24T11:06:05Z</time>
      </trkpt>
      <trkpt lat="42.94969" lon="0.16471">
        <ele>2101</ele>
        <time>2013-03-24T11:06:07Z</time>
      </trkpt>
      <trkpt lat="42.9497" lon="0.16471">
        <ele>2102</ele>
        <time>2013-03-24T11:06:09Z</time>
      </trkpt>
      <trkpt lat="42.94972" lon="0.16471">
        <ele>2102</ele>
        <time>2013-03-24T11:06:11Z</time>
      </trkpt>
      <trkpt lat="42.94973" lon="0.16471">
        <ele>2102</ele>
        <time>2013-03-24T11:06:13Z</time>
      </trkpt>
      <trkpt lat="42.94975" lon="0.1647">
        <ele>2102</ele>
        <time>2013-03-24T11:06:15Z</time>
      </trkpt>
      <trkpt lat="42.94976" lon="0.16469">
        <ele>2103</ele>
        <time>2013-03-24T11:06:17Z</time>
      </trkpt>
      <trkpt lat="42.94978" lon="0.16468">
        <ele>2103</ele>
        <time>2013-03-24T11:06:19Z</time>
      </trkpt>
      <trkpt lat="42.94979" lon="0.16467">
        <ele>2103</ele>
        <time>2013-03-24T11:06:21Z</time>
      </trkpt>
      <trkpt lat="42.9498" lon="0.16466">
        <ele>2104</ele>
        <time>2013-03-24T11:06:23Z</time>
      </trkpt>
      <trkpt lat="42.94981" lon="0.16465">
        <ele>2104</ele>
        <time>2013-03-24T11:06:25Z</time>
      </trkpt>
      <trkpt lat="42.94983" lon="0.16463">
        <ele>2105</ele>
        <time>2013-03-24T11:06:28Z</time>
      </trkpt>
      <trkpt lat="42.94984" lon="0.16463">
        <ele>2105</ele>
        <time>2013-03-24T11:06:30Z</time>
      </trkpt>
      <trkpt lat="42.94986" lon="0.16462">
        <ele>2106</ele>
        <time>2013-03-24T11:06:33Z</time>
      </trkpt>
      <trkpt lat="42.94987" lon="0.16462">
        <ele>2107</ele>
        <time>2013-03-24T11:06:40Z</time>
      </trkpt>
      <trkpt lat="42.94987" lon="0.16463">
        <ele>2107</ele>
        <time>2013-03-24T11:06:49Z</time>
      </trkpt>
      <trkpt lat="42.94989" lon="0.16463">
        <ele>2107</ele>
        <time>2013-03-24T11:06:59Z</time>
      </trkpt>
      <trkpt lat="42.9499" lon="0.16463">
        <ele>2107</ele>
        <time>2013-03-24T11:07:01Z</time>
      </trkpt>
      <trkpt lat="42.94992" lon="0.16464">
        <ele>2107</ele>
        <time>2013-03-24T11:07:03Z</time>
      </trkpt>
      <trkpt lat="42.94993" lon="0.16464">
        <ele>2107</ele>
        <time>2013-03-24T11:07:05Z</time>
      </trkpt>
      <trkpt lat="42.94994" lon="0.16465">
        <ele>2107</ele>
        <time>2013-03-24T11:07:07Z</time>
      </trkpt>
      <trkpt lat="42.94995" lon="0.16464">
        <ele>2107</ele>
        <time>2013-03-24T11:07:09Z</time>
      </trkpt>
      <trkpt lat="42.94995" lon="0.16462">
        <ele>2107</ele>
        <time>2013-03-24T11:07:11Z</time>
      </trkpt>
      <trkpt lat="42.94995" lon="0.16459">
        <ele>2107</ele>
        <time>2013-03-24T11:07:13Z</time>
      </trkpt>
      <trkpt lat="42.94995" lon="0.16457">
        <ele>2107</ele>
        <time>2013-03-24T11:07:15Z</time>
      </trkpt>
      <trkpt lat="42.94994" lon="0.16454">
        <ele>2108</ele>
        <time>2013-03-24T11:07:17Z</time>
      </trkpt>
      <trkpt lat="42.94994" lon="0.16453">
        <ele>2108</ele>
        <time>2013-03-24T11:07:18Z</time>
      </trkpt>
      <trkpt lat="42.94994" lon="0.16451">
        <ele>2109</ele>
        <time>2013-03-24T11:07:20Z</time>
      </trkpt>
      <trkpt lat="42.94995" lon="0.16451">
        <ele>2110</ele>
        <time>2013-03-24T11:07:23Z</time>
      </trkpt>
      <trkpt lat="42.94997" lon="0.16453">
        <ele>2110</ele>
        <time>2013-03-24T11:07:25Z</time>
      </trkpt>
      <trkpt lat="42.94998" lon="0.16454">
        <ele>2111</ele>
        <time>2013-03-24T11:07:27Z</time>
      </trkpt>
      <trkpt lat="42.95" lon="0.16454">
        <ele>2111</ele>
        <time>2013-03-24T11:07:29Z</time>
      </trkpt>
      <trkpt lat="42.95001" lon="0.16455">
        <ele>2111</ele>
        <time>2013-03-24T11:07:31Z</time>
      </trkpt>
      <trkpt lat="42.95003" lon="0.16455">
        <ele>2111</ele>
        <time>2013-03-24T11:07:43Z</time>
      </trkpt>
      <trkpt lat="42.95005" lon="0.16456">
        <ele>2111</ele>
        <time>2013-03-24T11:07:46Z</time>
      </trkpt>
      <trkpt lat="42.95006" lon="0.16458">
        <ele>2112</ele>
        <time>2013-03-24T11:07:48Z</time>
      </trkpt>
      <trkpt lat="42.95007" lon="0.16459">
        <ele>2112</ele>
        <time>2013-03-24T11:07:50Z</time>
      </trkpt>
      <trkpt lat="42.95008" lon="0.1646">
        <ele>2113</ele>
        <time>2013-03-24T11:07:52Z</time>
      </trkpt>
      <trkpt lat="42.95009" lon="0.16458">
        <ele>2113</ele>
        <time>2013-03-24T11:07:55Z</time>
      </trkpt>
      <trkpt lat="42.95009" lon="0.16456">
        <ele>2114</ele>
        <time>2013-03-24T11:07:57Z</time>
      </trkpt>
      <trkpt lat="42.9501" lon="0.16455">
        <ele>2116</ele>
        <time>2013-03-24T11:08:04Z</time>
      </trkpt>
      <trkpt lat="42.95011" lon="0.16455">
        <ele>2116</ele>
        <time>2013-03-24T11:08:24Z</time>
      </trkpt>
      <trkpt lat="42.95012" lon="0.16457">
        <ele>2116</ele>
        <time>2013-03-24T11:08:26Z</time>
      </trkpt>
      <trkpt lat="42.95013" lon="0.16459">
        <ele>2116</ele>
        <time>2013-03-24T11:08:27Z</time>
      </trkpt>
      <trkpt lat="42.95013" lon="0.16461">
        <ele>2116</ele>
        <time>2013-03-24T11:08:29Z</time>
      </trkpt>
      <trkpt lat="42.95014" lon="0.16462">
        <ele>2116</ele>
        <time>2013-03-24T11:08:31Z</time>
      </trkpt>
      <trkpt lat="42.95015" lon="0.16461">
        <ele>2116</ele>
        <time>2013-03-24T11:08:34Z</time>
      </trkpt>
      <trkpt lat="42.95016" lon="0.16458">
        <ele>2117</ele>
        <time>2013-03-24T11:08:36Z</time>
      </trkpt>
      <trkpt lat="42.95017" lon="0.16456">
        <ele>2117</ele>
        <time>2013-03-24T11:08:38Z</time>
      </trkpt>
      <trkpt lat="42.95017" lon="0.16454">
        <ele>2117</ele>
        <time>2013-03-24T11:08:40Z</time>
      </trkpt>
      <trkpt lat="42.95017" lon="0.16452">
        <ele>2118</ele>
        <time>2013-03-24T11:08:42Z</time>
      </trkpt>
      <trkpt lat="42.95018" lon="0.16453">
        <ele>2119</ele>
        <time>2013-03-24T11:08:47Z</time>
      </trkpt>
      <trkpt lat="42.9502" lon="0.16455">
        <ele>2120</ele>
        <time>2013-03-24T11:08:49Z</time>
      </trkpt>
      <trkpt lat="42.9502" lon="0.16456">
        <ele>2121</ele>
        <time>2013-03-24T11:08:51Z</time>
      </trkpt>
      <trkpt lat="42.95021" lon="0.16457">
        <ele>2121</ele>
        <time>2013-03-24T11:09:28Z</time>
      </trkpt>
      <trkpt lat="42.95023" lon="0.16458">
        <ele>2121</ele>
        <time>2013-03-24T11:09:30Z</time>
      </trkpt>
      <trkpt lat="42.95024" lon="0.16457">
        <ele>2121</ele>
        <time>2013-03-24T11:09:33Z</time>
      </trkpt>
      <trkpt lat="42.95024" lon="0.16456">
        <ele>2121</ele>
        <time>2013-03-24T11:09:35Z</time>
      </trkpt>
      <trkpt lat="42.95025" lon="0.16454">
        <ele>2121</ele>
        <time>2013-03-24T11:09:37Z</time>
      </trkpt>
      <trkpt lat="42.95025" lon="0.16451">
        <ele>2121</ele>
        <time>2013-03-24T11:09:39Z</time>
      </trkpt>
      <trkpt lat="42.95025" lon="0.16449">
        <ele>2122</ele>
        <time>2013-03-24T11:09:41Z</time>
      </trkpt>
      <trkpt lat="42.95025" lon="0.16447">
        <ele>2122</ele>
        <time>2013-03-24T11:09:43Z</time>
      </trkpt>
      <trkpt lat="42.95025" lon="0.16445">
        <ele>2123</ele>
        <time>2013-03-24T11:09:45Z</time>
      </trkpt>
      <trkpt lat="42.95025" lon="0.16442">
        <ele>2123</ele>
        <time>2013-03-24T11:09:47Z</time>
      </trkpt>
      <trkpt lat="42.95025" lon="0.1644">
        <ele>2123</ele>
        <time>2013-03-24T11:09:49Z</time>
      </trkpt>
      <trkpt lat="42.95024" lon="0.16438">
        <ele>2124</ele>
        <time>2013-03-24T11:09:51Z</time>
      </trkpt>
      <trkpt lat="42.95024" lon="0.16435">
        <ele>2124</ele>
        <time>2013-03-24T11:09:53Z</time>
      </trkpt>
      <trkpt lat="42.95023" lon="0.16433">
        <ele>2125</ele>
        <time>2013-03-24T11:09:55Z</time>
      </trkpt>
      <trkpt lat="42.95023" lon="0.16431">
        <ele>2126</ele>
        <time>2013-03-24T11:09:57Z</time>
      </trkpt>
      <trkpt lat="42.95022" lon="0.16429">
        <ele>2126</ele>
        <time>2013-03-24T11:09:59Z</time>
      </trkpt>
      <trkpt lat="42.95021" lon="0.16427">
        <ele>2127</ele>
        <time>2013-03-24T11:10:01Z</time>
      </trkpt>
      <trkpt lat="42.95022" lon="0.16428">
        <ele>2128</ele>
        <time>2013-03-24T11:10:17Z</time>
      </trkpt>
      <trkpt lat="42.95021" lon="0.16429">
        <ele>2128</ele>
        <time>2013-03-24T11:10:23Z</time>
      </trkpt>
      <trkpt lat="42.95022" lon="0.16429">
        <ele>2128</ele>
        <time>2013-03-24T11:10:28Z</time>
      </trkpt>
      <trkpt lat="42.95023" lon="0.16429">
        <ele>2128</ele>
        <time>2013-03-24T11:10:30Z</time>
      </trkpt>
      <trkpt lat="42.95024" lon="0.16429">
        <ele>2128</ele>
        <time>2013-03-24T11:10:32Z</time>
      </trkpt>
      <trkpt lat="42.95026" lon="0.16428">
        <ele>2130</ele>
        <time>2013-03-24T11:10:34Z</time>
      </trkpt>
      <trkpt lat="42.95027" lon="0.16428">
        <ele>2132</ele>
        <time>2013-03-24T11:10:37Z</time>
      </trkpt>
      <trkpt lat="42.95028" lon="0.16429">
        <ele>2134</ele>
        <time>2013-03-24T11:10:42Z</time>
      </trkpt>
      <trkpt lat="42.95027" lon="0.16429">
        <ele>2135</ele>
        <time>2013-03-24T11:10:45Z</time>
      </trkpt>
      <trkpt lat="42.95026" lon="0.1643">
        <ele>2135</ele>
        <time>2013-03-24T11:10:49Z</time>
      </trkpt>
      <trkpt lat="42.95024" lon="0.16431">
        <ele>2135</ele>
        <time>2013-03-24T11:10:53Z</time>
      </trkpt>
      <trkpt lat="42.95023" lon="0.16431">
        <ele>2132</ele>
        <time>2013-03-24T11:10:57Z</time>
      </trkpt>
      <trkpt lat="42.95024" lon="0.16432">
        <ele>2130</ele>
        <time>2013-03-24T11:11:02Z</time>
      </trkpt>
      <trkpt lat="42.95026" lon="0.16433">
        <ele>2130</ele>
        <time>2013-03-24T11:11:04Z</time>
      </trkpt>
      <trkpt lat="42.95027" lon="0.16434">
        <ele>2129</ele>
        <time>2013-03-24T11:11:06Z</time>
      </trkpt>
      <trkpt lat="42.95029" lon="0.16435">
        <ele>2129</ele>
        <time>2013-03-24T11:11:08Z</time>
      </trkpt>
      <trkpt lat="42.9503" lon="0.16436">
        <ele>2129</ele>
        <time>2013-03-24T11:11:10Z</time>
      </trkpt>
      <trkpt lat="42.95031" lon="0.16437">
        <ele>2129</ele>
        <time>2013-03-24T11:11:12Z</time>
      </trkpt>
      <trkpt lat="42.95032" lon="0.16438">
        <ele>2129</ele>
        <time>2013-03-24T11:11:14Z</time>
      </trkpt>
      <trkpt lat="42.95034" lon="0.16439">
        <ele>2129</ele>
        <time>2013-03-24T11:11:16Z</time>
      </trkpt>
      <trkpt lat="42.95035" lon="0.16441">
        <ele>2129</ele>
        <time>2013-03-24T11:11:18Z</time>
      </trkpt>
      <trkpt lat="42.95036" lon="0.16443">
        <ele>2129</ele>
        <time>2013-03-24T11:11:20Z</time>
      </trkpt>
      <trkpt lat="42.95037" lon="0.16445">
        <ele>2129</ele>
        <time>2013-03-24T11:11:22Z</time>
      </trkpt>
      <trkpt lat="42.95037" lon="0.16443">
        <ele>2129</ele>
        <time>2013-03-24T11:11:30Z</time>
      </trkpt>
      <trkpt lat="42.95037" lon="0.16441">
        <ele>2129</ele>
        <time>2013-03-24T11:11:32Z</time>
      </trkpt>
      <trkpt lat="42.95036" lon="0.16438">
        <ele>2129</ele>
        <time>2013-03-24T11:11:34Z</time>
      </trkpt>
      <trkpt lat="42.95036" lon="0.16436">
        <ele>2129</ele>
        <time>2013-03-24T11:11:35Z</time>
      </trkpt>
      <trkpt lat="42.95036" lon="0.16433">
        <ele>2129</ele>
        <time>2013-03-24T11:11:37Z</time>
      </trkpt>
      <trkpt lat="42.95035" lon="0.16432">
        <ele>2129</ele>
        <time>2013-03-24T11:11:38Z</time>
      </trkpt>
      <trkpt lat="42.95035" lon="0.1643">
        <ele>2129</ele>
        <time>2013-03-24T11:11:40Z</time>
      </trkpt>
      <trkpt lat="42.95034" lon="0.16427">
        <ele>2129</ele>
        <time>2013-03-24T11:11:42Z</time>
      </trkpt>
      <trkpt lat="42.95033" lon="0.16426">
        <ele>2129</ele>
        <time>2013-03-24T11:11:54Z</time>
      </trkpt>
      <trkpt lat="42.95033" lon="0.16424">
        <ele>2129</ele>
        <time>2013-03-24T11:11:56Z</time>
      </trkpt>
      <trkpt lat="42.95032" lon="0.16422">
        <ele>2129</ele>
        <time>2013-03-24T11:11:58Z</time>
      </trkpt>
      <trkpt lat="42.95031" lon="0.1642">
        <ele>2129</ele>
        <time>2013-03-24T11:12:00Z</time>
      </trkpt>
      <trkpt lat="42.9503" lon="0.16418">
        <ele>2129</ele>
        <time>2013-03-24T11:12:02Z</time>
      </trkpt>
      <trkpt lat="42.95029" lon="0.16416">
        <ele>2130</ele>
        <time>2013-03-24T11:12:04Z</time>
      </trkpt>
      <trkpt lat="42.95029" lon="0.16414">
        <ele>2130</ele>
        <time>2013-03-24T11:12:06Z</time>
      </trkpt>
      <trkpt lat="42.95029" lon="0.16412">
        <ele>2131</ele>
        <time>2013-03-24T11:12:08Z</time>
      </trkpt>
      <trkpt lat="42.95029" lon="0.1641">
        <ele>2131</ele>
        <time>2013-03-24T11:12:10Z</time>
      </trkpt>
      <trkpt lat="42.95029" lon="0.16408">
        <ele>2132</ele>
        <time>2013-03-24T11:12:12Z</time>
      </trkpt>
      <trkpt lat="42.95029" lon="0.16406">
        <ele>2133</ele>
        <time>2013-03-24T11:12:14Z</time>
      </trkpt>
      <trkpt lat="42.9503" lon="0.16404">
        <ele>2134</ele>
        <time>2013-03-24T11:12:38Z</time>
      </trkpt>
      <trkpt lat="42.9503" lon="0.16402">
        <ele>2134</ele>
        <time>2013-03-24T11:12:40Z</time>
      </trkpt>
      <trkpt lat="42.95031" lon="0.164">
        <ele>2134</ele>
        <time>2013-03-24T11:12:42Z</time>
      </trkpt>
      <trkpt lat="42.95031" lon="0.16398">
        <ele>2134</ele>
        <time>2013-03-24T11:12:44Z</time>
      </trkpt>
      <trkpt lat="42.95032" lon="0.16396">
        <ele>2134</ele>
        <time>2013-03-24T11:12:46Z</time>
      </trkpt>
      <trkpt lat="42.95033" lon="0.16394">
        <ele>2135</ele>
        <time>2013-03-24T11:12:48Z</time>
      </trkpt>
      <trkpt lat="42.95033" lon="0.16392">
        <ele>2135</ele>
        <time>2013-03-24T11:12:50Z</time>
      </trkpt>
      <trkpt lat="42.95034" lon="0.1639">
        <ele>2136</ele>
        <time>2013-03-24T11:12:52Z</time>
      </trkpt>
      <trkpt lat="42.95035" lon="0.16392">
        <ele>2137</ele>
        <time>2013-03-24T11:13:01Z</time>
      </trkpt>
      <trkpt lat="42.95036" lon="0.16394">
        <ele>2137</ele>
        <time>2013-03-24T11:13:03Z</time>
      </trkpt>
      <trkpt lat="42.95036" lon="0.16396">
        <ele>2137</ele>
        <time>2013-03-24T11:13:05Z</time>
      </trkpt>
      <trkpt lat="42.95037" lon="0.16398">
        <ele>2138</ele>
        <time>2013-03-24T11:13:07Z</time>
      </trkpt>
      <trkpt lat="42.95037" lon="0.164">
        <ele>2138</ele>
        <time>2013-03-24T11:13:09Z</time>
      </trkpt>
      <trkpt lat="42.95037" lon="0.16402">
        <ele>2138</ele>
        <time>2013-03-24T11:13:10Z</time>
      </trkpt>
      <trkpt lat="42.95038" lon="0.16404">
        <ele>2138</ele>
        <time>2013-03-24T11:13:11Z</time>
      </trkpt>
      <trkpt lat="42.95038" lon="0.16406">
        <ele>2138</ele>
        <time>2013-03-24T11:13:13Z</time>
      </trkpt>
      <trkpt lat="42.95039" lon="0.16408">
        <ele>2138</ele>
        <time>2013-03-24T11:13:15Z</time>
      </trkpt>
      <trkpt lat="42.9504" lon="0.1641">
        <ele>2138</ele>
        <time>2013-03-24T11:13:17Z</time>
      </trkpt>
      <trkpt lat="42.95042" lon="0.1641">
        <ele>2139</ele>
        <time>2013-03-24T11:13:37Z</time>
      </trkpt>
      <trkpt lat="42.95043" lon="0.16411">
        <ele>2140</ele>
        <time>2013-03-24T11:13:39Z</time>
      </trkpt>
      <trkpt lat="42.95044" lon="0.16413">
        <ele>2140</ele>
        <time>2013-03-24T11:13:41Z</time>
      </trkpt>
      <trkpt lat="42.95045" lon="0.16414">
        <ele>2141</ele>
        <time>2013-03-24T11:13:43Z</time>
      </trkpt>
      <trkpt lat="42.95046" lon="0.16413">
        <ele>2142</ele>
        <time>2013-03-24T11:13:50Z</time>
      </trkpt>
      <trkpt lat="42.95045" lon="0.1641">
        <ele>2142</ele>
        <time>2013-03-24T11:13:52Z</time>
      </trkpt>
      <trkpt lat="42.95045" lon="0.16408">
        <ele>2142</ele>
        <time>2013-03-24T11:13:54Z</time>
      </trkpt>
      <trkpt lat="42.95045" lon="0.16406">
        <ele>2142</ele>
        <time>2013-03-24T11:13:56Z</time>
      </trkpt>
      <trkpt lat="42.95045" lon="0.16404">
        <ele>2142</ele>
        <time>2013-03-24T11:13:58Z</time>
      </trkpt>
      <trkpt lat="42.95045" lon="0.16401">
        <ele>2142</ele>
        <time>2013-03-24T11:14:00Z</time>
      </trkpt>
      <trkpt lat="42.95046" lon="0.16399">
        <ele>2143</ele>
        <time>2013-03-24T11:14:02Z</time>
      </trkpt>
      <trkpt lat="42.95046" lon="0.16397">
        <ele>2143</ele>
        <time>2013-03-24T11:14:04Z</time>
      </trkpt>
      <trkpt lat="42.95047" lon="0.16394">
        <ele>2143</ele>
        <time>2013-03-24T11:14:06Z</time>
      </trkpt>
      <trkpt lat="42.95047" lon="0.16392">
        <ele>2143</ele>
        <time>2013-03-24T11:14:08Z</time>
      </trkpt>
      <trkpt lat="42.95047" lon="0.1639">
        <ele>2144</ele>
        <time>2013-03-24T11:14:09Z</time>
      </trkpt>
      <trkpt lat="42.95048" lon="0.16388">
        <ele>2144</ele>
        <time>2013-03-24T11:14:11Z</time>
      </trkpt>
      <trkpt lat="42.95048" lon="0.16386">
        <ele>2145</ele>
        <time>2013-03-24T11:14:14Z</time>
      </trkpt>
      <trkpt lat="42.95049" lon="0.16384">
        <ele>2145</ele>
        <time>2013-03-24T11:14:38Z</time>
      </trkpt>
      <trkpt lat="42.9505" lon="0.16382">
        <ele>2145</ele>
        <time>2013-03-24T11:14:40Z</time>
      </trkpt>
      <trkpt lat="42.95051" lon="0.1638">
        <ele>2145</ele>
        <time>2013-03-24T11:14:42Z</time>
      </trkpt>
      <trkpt lat="42.95052" lon="0.16378">
        <ele>2145</ele>
        <time>2013-03-24T11:14:44Z</time>
      </trkpt>
      <trkpt lat="42.95052" lon="0.16376">
        <ele>2145</ele>
        <time>2013-03-24T11:14:46Z</time>
      </trkpt>
      <trkpt lat="42.95053" lon="0.16375">
        <ele>2146</ele>
        <time>2013-03-24T11:14:48Z</time>
      </trkpt>
      <trkpt lat="42.95054" lon="0.16373">
        <ele>2146</ele>
        <time>2013-03-24T11:14:50Z</time>
      </trkpt>
      <trkpt lat="42.95055" lon="0.16371">
        <ele>2147</ele>
        <time>2013-03-24T11:14:52Z</time>
      </trkpt>
      <trkpt lat="42.95056" lon="0.16369">
        <ele>2147</ele>
        <time>2013-03-24T11:14:54Z</time>
      </trkpt>
      <trkpt lat="42.95057" lon="0.16367">
        <ele>2148</ele>
        <time>2013-03-24T11:14:56Z</time>
      </trkpt>
      <trkpt lat="42.95058" lon="0.16365">
        <ele>2148</ele>
        <time>2013-03-24T11:14:58Z</time>
      </trkpt>
      <trkpt lat="42.95059" lon="0.16363">
        <ele>2150</ele>
        <time>2013-03-24T11:15:23Z</time>
      </trkpt>
      <trkpt lat="42.95061" lon="0.16361">
        <ele>2150</ele>
        <time>2013-03-24T11:15:26Z</time>
      </trkpt>
      <trkpt lat="42.95062" lon="0.16359">
        <ele>2150</ele>
        <time>2013-03-24T11:15:28Z</time>
      </trkpt>
      <trkpt lat="42.95063" lon="0.16357">
        <ele>2150</ele>
        <time>2013-03-24T11:15:30Z</time>
      </trkpt>
      <trkpt lat="42.95064" lon="0.16356">
        <ele>2151</ele>
        <time>2013-03-24T11:15:32Z</time>
      </trkpt>
      <trkpt lat="42.95066" lon="0.16354">
        <ele>2151</ele>
        <time>2013-03-24T11:15:34Z</time>
      </trkpt>
      <trkpt lat="42.95067" lon="0.16353">
        <ele>2151</ele>
        <time>2013-03-24T11:15:36Z</time>
      </trkpt>
      <trkpt lat="42.95068" lon="0.16352">
        <ele>2152</ele>
        <time>2013-03-24T11:15:38Z</time>
      </trkpt>
      <trkpt lat="42.95069" lon="0.16351">
        <ele>2152</ele>
        <time>2013-03-24T11:15:40Z</time>
      </trkpt>
      <trkpt lat="42.95071" lon="0.1635">
        <ele>2153</ele>
        <time>2013-03-24T11:15:42Z</time>
      </trkpt>
      <trkpt lat="42.95071" lon="0.16352">
        <ele>2153</ele>
        <time>2013-03-24T11:15:50Z</time>
      </trkpt>
      <trkpt lat="42.95071" lon="0.16354">
        <ele>2153</ele>
        <time>2013-03-24T11:15:52Z</time>
      </trkpt>
      <trkpt lat="42.95071" lon="0.16356">
        <ele>2153</ele>
        <time>2013-03-24T11:15:54Z</time>
      </trkpt>
      <trkpt lat="42.95071" lon="0.16358">
        <ele>2153</ele>
        <time>2013-03-24T11:15:56Z</time>
      </trkpt>
      <trkpt lat="42.95071" lon="0.16361">
        <ele>2153</ele>
        <time>2013-03-24T11:15:58Z</time>
      </trkpt>
      <trkpt lat="42.95071" lon="0.16363">
        <ele>2154</ele>
        <time>2013-03-24T11:16:00Z</time>
      </trkpt>
      <trkpt lat="42.95071" lon="0.16364">
        <ele>2154</ele>
        <time>2013-03-24T11:16:02Z</time>
      </trkpt>
      <trkpt lat="42.95071" lon="0.16366">
        <ele>2154</ele>
        <time>2013-03-24T11:16:04Z</time>
      </trkpt>
      <trkpt lat="42.95072" lon="0.16368">
        <ele>2155</ele>
        <time>2013-03-24T11:16:06Z</time>
      </trkpt>
      <trkpt lat="42.95072" lon="0.1637">
        <ele>2155</ele>
        <time>2013-03-24T11:16:08Z</time>
      </trkpt>
      <trkpt lat="42.95073" lon="0.16371">
        <ele>2155</ele>
        <time>2013-03-24T11:16:10Z</time>
      </trkpt>
      <trkpt lat="42.95073" lon="0.1637">
        <ele>2157</ele>
        <time>2013-03-24T11:16:52Z</time>
      </trkpt>
      <trkpt lat="42.95073" lon="0.16372">
        <ele>2157</ele>
        <time>2013-03-24T11:16:57Z</time>
      </trkpt>
      <trkpt lat="42.95074" lon="0.16374">
        <ele>2157</ele>
        <time>2013-03-24T11:16:59Z</time>
      </trkpt>
      <trkpt lat="42.95074" lon="0.16376">
        <ele>2157</ele>
        <time>2013-03-24T11:17:01Z</time>
      </trkpt>
      <trkpt lat="42.95074" lon="0.16378">
        <ele>2157</ele>
        <time>2013-03-24T11:17:03Z</time>
      </trkpt>
      <trkpt lat="42.95075" lon="0.1638">
        <ele>2157</ele>
        <time>2013-03-24T11:17:05Z</time>
      </trkpt>
      <trkpt lat="42.95075" lon="0.16382">
        <ele>2157</ele>
        <time>2013-03-24T11:17:06Z</time>
      </trkpt>
      <trkpt lat="42.95076" lon="0.16384">
        <ele>2157</ele>
        <time>2013-03-24T11:17:08Z</time>
      </trkpt>
      <trkpt lat="42.95076" lon="0.16386">
        <ele>2157</ele>
        <time>2013-03-24T11:17:10Z</time>
      </trkpt>
      <trkpt lat="42.95076" lon="0.16388">
        <ele>2157</ele>
        <time>2013-03-24T11:17:11Z</time>
      </trkpt>
      <trkpt lat="42.95077" lon="0.1639">
        <ele>2157</ele>
        <time>2013-03-24T11:17:13Z</time>
      </trkpt>
      <trkpt lat="42.95078" lon="0.16392">
        <ele>2157</ele>
        <time>2013-03-24T11:17:15Z</time>
      </trkpt>
      <trkpt lat="42.95079" lon="0.16394">
        <ele>2157</ele>
        <time>2013-03-24T11:17:17Z</time>
      </trkpt>
      <trkpt lat="42.9508" lon="0.16392">
        <ele>2157</ele>
        <time>2013-03-24T11:17:19Z</time>
      </trkpt>
      <trkpt lat="42.9508" lon="0.1639">
        <ele>2158</ele>
        <time>2013-03-24T11:17:21Z</time>
      </trkpt>
      <trkpt lat="42.95081" lon="0.16388">
        <ele>2159</ele>
        <time>2013-03-24T11:17:23Z</time>
      </trkpt>
      <trkpt lat="42.95082" lon="0.16386">
        <ele>2159</ele>
        <time>2013-03-24T11:17:25Z</time>
      </trkpt>
      <trkpt lat="42.95082" lon="0.16384">
        <ele>2160</ele>
        <time>2013-03-24T11:17:27Z</time>
      </trkpt>
      <trkpt lat="42.95083" lon="0.16382">
        <ele>2160</ele>
        <time>2013-03-24T11:17:29Z</time>
      </trkpt>
      <trkpt lat="42.95084" lon="0.1638">
        <ele>2161</ele>
        <time>2013-03-24T11:17:31Z</time>
      </trkpt>
      <trkpt lat="42.95084" lon="0.16378">
        <ele>2161</ele>
        <time>2013-03-24T11:17:33Z</time>
      </trkpt>
      <trkpt lat="42.95085" lon="0.16376">
        <ele>2162</ele>
        <time>2013-03-24T11:17:35Z</time>
      </trkpt>
      <trkpt lat="42.95086" lon="0.16373">
        <ele>2162</ele>
        <time>2013-03-24T11:17:37Z</time>
      </trkpt>
      <trkpt lat="42.95087" lon="0.16371">
        <ele>2163</ele>
        <time>2013-03-24T11:17:39Z</time>
      </trkpt>
      <trkpt lat="42.95088" lon="0.16369">
        <ele>2163</ele>
        <time>2013-03-24T11:17:41Z</time>
      </trkpt>
      <trkpt lat="42.95089" lon="0.16367">
        <ele>2163</ele>
        <time>2013-03-24T11:17:43Z</time>
      </trkpt>
      <trkpt lat="42.9509" lon="0.16366">
        <ele>2164</ele>
        <time>2013-03-24T11:18:09Z</time>
      </trkpt>
      <trkpt lat="42.95091" lon="0.16364">
        <ele>2164</ele>
        <time>2013-03-24T11:18:11Z</time>
      </trkpt>
      <trkpt lat="42.95092" lon="0.16362">
        <ele>2164</ele>
        <time>2013-03-24T11:18:13Z</time>
      </trkpt>
      <trkpt lat="42.95093" lon="0.1636">
        <ele>2165</ele>
        <time>2013-03-24T11:18:15Z</time>
      </trkpt>
      <trkpt lat="42.95094" lon="0.16358">
        <ele>2165</ele>
        <time>2013-03-24T11:18:17Z</time>
      </trkpt>
      <trkpt lat="42.95095" lon="0.16356">
        <ele>2165</ele>
        <time>2013-03-24T11:18:19Z</time>
      </trkpt>
      <trkpt lat="42.95095" lon="0.16353">
        <ele>2166</ele>
        <time>2013-03-24T11:18:21Z</time>
      </trkpt>
      <trkpt lat="42.95097" lon="0.16352">
        <ele>2166</ele>
        <time>2013-03-24T11:18:23Z</time>
      </trkpt>
      <trkpt lat="42.95097" lon="0.1635">
        <ele>2166</ele>
        <time>2013-03-24T11:18:25Z</time>
      </trkpt>
      <trkpt lat="42.95098" lon="0.16348">
        <ele>2167</ele>
        <time>2013-03-24T11:18:27Z</time>
      </trkpt>
      <trkpt lat="42.95099" lon="0.16346">
        <ele>2167</ele>
        <time>2013-03-24T11:18:29Z</time>
      </trkpt>
      <trkpt lat="42.951" lon="0.16344">
        <ele>2167</ele>
        <time>2013-03-24T11:18:31Z</time>
      </trkpt>
      <trkpt lat="42.95101" lon="0.16342">
        <ele>2168</ele>
        <time>2013-03-24T11:18:33Z</time>
      </trkpt>
      <trkpt lat="42.95101" lon="0.16343">
        <ele>2168</ele>
        <time>2013-03-24T11:18:39Z</time>
      </trkpt>
      <trkpt lat="42.95101" lon="0.16345">
        <ele>2168</ele>
        <time>2013-03-24T11:18:41Z</time>
      </trkpt>
      <trkpt lat="42.95101" lon="0.16348">
        <ele>2168</ele>
        <time>2013-03-24T11:18:43Z</time>
      </trkpt>
      <trkpt lat="42.95101" lon="0.1635">
        <ele>2168</ele>
        <time>2013-03-24T11:18:45Z</time>
      </trkpt>
      <trkpt lat="42.95101" lon="0.16353">
        <ele>2169</ele>
        <time>2013-03-24T11:18:47Z</time>
      </trkpt>
      <trkpt lat="42.951" lon="0.16355">
        <ele>2169</ele>
        <time>2013-03-24T11:18:49Z</time>
      </trkpt>
      <trkpt lat="42.951" lon="0.16357">
        <ele>2169</ele>
        <time>2013-03-24T11:18:51Z</time>
      </trkpt>
      <trkpt lat="42.951" lon="0.1636">
        <ele>2169</ele>
        <time>2013-03-24T11:18:53Z</time>
      </trkpt>
      <trkpt lat="42.951" lon="0.16361">
        <ele>2169</ele>
        <time>2013-03-24T11:18:56Z</time>
      </trkpt>
      <trkpt lat="42.95099" lon="0.16362">
        <ele>2169</ele>
        <time>2013-03-24T11:19:16Z</time>
      </trkpt>
      <trkpt lat="42.951" lon="0.16364">
        <ele>2169</ele>
        <time>2013-03-24T11:19:19Z</time>
      </trkpt>
      <trkpt lat="42.951" lon="0.16366">
        <ele>2169</ele>
        <time>2013-03-24T11:19:21Z</time>
      </trkpt>
      <trkpt lat="42.95101" lon="0.16368">
        <ele>2169</ele>
        <time>2013-03-24T11:19:23Z</time>
      </trkpt>
      <trkpt lat="42.95101" lon="0.1637">
        <ele>2169</ele>
        <time>2013-03-24T11:19:25Z</time>
      </trkpt>
      <trkpt lat="42.95102" lon="0.16373">
        <ele>2169</ele>
        <time>2013-03-24T11:19:27Z</time>
      </trkpt>
      <trkpt lat="42.95102" lon="0.16375">
        <ele>2170</ele>
        <time>2013-03-24T11:19:29Z</time>
      </trkpt>
      <trkpt lat="42.95102" lon="0.16377">
        <ele>2170</ele>
        <time>2013-03-24T11:19:31Z</time>
      </trkpt>
      <trkpt lat="42.95103" lon="0.1638">
        <ele>2171</ele>
        <time>2013-03-24T11:19:33Z</time>
      </trkpt>
      <trkpt lat="42.95103" lon="0.16381">
        <ele>2171</ele>
        <time>2013-03-24T11:19:35Z</time>
      </trkpt>
      <trkpt lat="42.95105" lon="0.16383">
        <ele>2172</ele>
        <time>2013-03-24T11:19:37Z</time>
      </trkpt>
      <trkpt lat="42.95106" lon="0.1638">
        <ele>2172</ele>
        <time>2013-03-24T11:19:40Z</time>
      </trkpt>
      <trkpt lat="42.95107" lon="0.16379">
        <ele>2173</ele>
        <time>2013-03-24T11:19:42Z</time>
      </trkpt>
      <trkpt lat="42.95108" lon="0.16377">
        <ele>2173</ele>
        <time>2013-03-24T11:19:44Z</time>
      </trkpt>
      <trkpt lat="42.95108" lon="0.16375">
        <ele>2173</ele>
        <time>2013-03-24T11:19:46Z</time>
      </trkpt>
      <trkpt lat="42.95109" lon="0.16373">
        <ele>2174</ele>
        <time>2013-03-24T11:19:48Z</time>
      </trkpt>
      <trkpt lat="42.9511" lon="0.16371">
        <ele>2175</ele>
        <time>2013-03-24T11:20:40Z</time>
      </trkpt>
      <trkpt lat="42.95111" lon="0.16369">
        <ele>2175</ele>
        <time>2013-03-24T11:20:42Z</time>
      </trkpt>
      <trkpt lat="42.95112" lon="0.16367">
        <ele>2175</ele>
        <time>2013-03-24T11:20:44Z</time>
      </trkpt>
      <trkpt lat="42.95113" lon="0.16365">
        <ele>2176</ele>
        <time>2013-03-24T11:20:46Z</time>
      </trkpt>
      <trkpt lat="42.95114" lon="0.16363">
        <ele>2176</ele>
        <time>2013-03-24T11:20:48Z</time>
      </trkpt>
      <trkpt lat="42.95115" lon="0.16361">
        <ele>2176</ele>
        <time>2013-03-24T11:20:50Z</time>
      </trkpt>
      <trkpt lat="42.95116" lon="0.16359">
        <ele>2177</ele>
        <time>2013-03-24T11:20:52Z</time>
      </trkpt>
      <trkpt lat="42.95117" lon="0.16357">
        <ele>2177</ele>
        <time>2013-03-24T11:20:54Z</time>
      </trkpt>
      <trkpt lat="42.95118" lon="0.16354">
        <ele>2177</ele>
        <time>2013-03-24T11:20:56Z</time>
      </trkpt>
      <trkpt lat="42.95119" lon="0.16352">
        <ele>2178</ele>
        <time>2013-03-24T11:20:58Z</time>
      </trkpt>
      <trkpt lat="42.9512" lon="0.16351">
        <ele>2178</ele>
        <time>2013-03-24T11:21:00Z</time>
      </trkpt>
      <trkpt lat="42.95121" lon="0.16352">
        <ele>2179</ele>
        <time>2013-03-24T11:21:09Z</time>
      </trkpt>
      <trkpt lat="42.95121" lon="0.16354">
        <ele>2179</ele>
        <time>2013-03-24T11:21:11Z</time>
      </trkpt>
      <trkpt lat="42.95121" lon="0.16356">
        <ele>2179</ele>
        <time>2013-03-24T11:21:13Z</time>
      </trkpt>
      <trkpt lat="42.95121" lon="0.16359">
        <ele>2179</ele>
        <time>2013-03-24T11:21:15Z</time>
      </trkpt>
      <trkpt lat="42.95121" lon="0.16361">
        <ele>2180</ele>
        <time>2013-03-24T11:21:17Z</time>
      </trkpt>
      <trkpt lat="42.95121" lon="0.16364">
        <ele>2180</ele>
        <time>2013-03-24T11:21:19Z</time>
      </trkpt>
      <trkpt lat="42.95121" lon="0.16365">
        <ele>2180</ele>
        <time>2013-03-24T11:21:20Z</time>
      </trkpt>
      <trkpt lat="42.95121" lon="0.16367">
        <ele>2180</ele>
        <time>2013-03-24T11:21:21Z</time>
      </trkpt>
      <trkpt lat="42.95121" lon="0.16369">
        <ele>2180</ele>
        <time>2013-03-24T11:21:23Z</time>
      </trkpt>
      <trkpt lat="42.95121" lon="0.16371">
        <ele>2180</ele>
        <time>2013-03-24T11:21:25Z</time>
      </trkpt>
      <trkpt lat="42.95123" lon="0.16373">
        <ele>2180</ele>
        <time>2013-03-24T11:21:41Z</time>
      </trkpt>
      <trkpt lat="42.95123" lon="0.16375">
        <ele>2180</ele>
        <time>2013-03-24T11:21:43Z</time>
      </trkpt>
      <trkpt lat="42.95123" lon="0.16376">
        <ele>2180</ele>
        <time>2013-03-24T11:21:45Z</time>
      </trkpt>
      <trkpt lat="42.95124" lon="0.16379">
        <ele>2180</ele>
        <time>2013-03-24T11:21:50Z</time>
      </trkpt>
      <trkpt lat="42.95125" lon="0.16381">
        <ele>2180</ele>
        <time>2013-03-24T11:21:52Z</time>
      </trkpt>
      <trkpt lat="42.95126" lon="0.16384">
        <ele>2180</ele>
        <time>2013-03-24T11:21:54Z</time>
      </trkpt>
      <trkpt lat="42.95126" lon="0.16385">
        <ele>2181</ele>
        <time>2013-03-24T11:21:56Z</time>
      </trkpt>
      <trkpt lat="42.95127" lon="0.16387">
        <ele>2181</ele>
        <time>2013-03-24T11:21:57Z</time>
      </trkpt>
      <trkpt lat="42.95127" lon="0.16388">
        <ele>2181</ele>
        <time>2013-03-24T11:21:58Z</time>
      </trkpt>
      <trkpt lat="42.95128" lon="0.16391">
        <ele>2181</ele>
        <time>2013-03-24T11:22:00Z</time>
      </trkpt>
      <trkpt lat="42.95129" lon="0.16393">
        <ele>2181</ele>
        <time>2013-03-24T11:22:02Z</time>
      </trkpt>
      <trkpt lat="42.9513" lon="0.16395">
        <ele>2182</ele>
        <time>2013-03-24T11:22:04Z</time>
      </trkpt>
      <trkpt lat="42.95131" lon="0.16396">
        <ele>2183</ele>
        <time>2013-03-24T11:22:16Z</time>
      </trkpt>
      <trkpt lat="42.95132" lon="0.16398">
        <ele>2183</ele>
        <time>2013-03-24T11:22:18Z</time>
      </trkpt>
      <trkpt lat="42.95134" lon="0.164">
        <ele>2183</ele>
        <time>2013-03-24T11:22:20Z</time>
      </trkpt>
      <trkpt lat="42.95134" lon="0.16401">
        <ele>2184</ele>
        <time>2013-03-24T11:22:21Z</time>
      </trkpt>
      <trkpt lat="42.95136" lon="0.16404">
        <ele>2184</ele>
        <time>2013-03-24T11:22:23Z</time>
      </trkpt>
      <trkpt lat="42.95137" lon="0.16406">
        <ele>2184</ele>
        <time>2013-03-24T11:22:24Z</time>
      </trkpt>
      <trkpt lat="42.95138" lon="0.16408">
        <ele>2184</ele>
        <time>2013-03-24T11:22:26Z</time>
      </trkpt>
      <trkpt lat="42.95139" lon="0.16409">
        <ele>2184</ele>
        <time>2013-03-24T11:22:27Z</time>
      </trkpt>
      <trkpt lat="42.95139" lon="0.16411">
        <ele>2184</ele>
        <time>2013-03-24T11:22:29Z</time>
      </trkpt>
      <trkpt lat="42.9514" lon="0.16413">
        <ele>2184</ele>
        <time>2013-03-24T11:22:31Z</time>
      </trkpt>
      <trkpt lat="42.95141" lon="0.16415">
        <ele>2184</ele>
        <time>2013-03-24T11:22:34Z</time>
      </trkpt>
      <trkpt lat="42.95139" lon="0.16414">
        <ele>2184</ele>
        <time>2013-03-24T11:23:13Z</time>
      </trkpt>
      <trkpt lat="42.95138" lon="0.16413">
        <ele>2184</ele>
        <time>2013-03-24T11:24:20Z</time>
      </trkpt>
      <trkpt lat="42.95139" lon="0.16411">
        <ele>2184</ele>
        <time>2013-03-24T11:24:53Z</time>
      </trkpt>
      <trkpt lat="42.95138" lon="0.16413">
        <ele>2184</ele>
        <time>2013-03-24T11:25:22Z</time>
      </trkpt>
      <trkpt lat="42.95136" lon="0.16413">
        <ele>2184</ele>
        <time>2013-03-24T11:25:29Z</time>
      </trkpt>
      <trkpt lat="42.95134" lon="0.16413">
        <ele>2184</ele>
        <time>2013-03-24T11:25:31Z</time>
      </trkpt>
      <trkpt lat="42.95133" lon="0.16415">
        <ele>2184</ele>
        <time>2013-03-24T11:25:33Z</time>
      </trkpt>
      <trkpt lat="42.95132" lon="0.16418">
        <ele>2184</ele>
        <time>2013-03-24T11:25:35Z</time>
      </trkpt>
      <trkpt lat="42.95131" lon="0.1642">
        <ele>2184</ele>
        <time>2013-03-24T11:25:37Z</time>
      </trkpt>
      <trkpt lat="42.9513" lon="0.16422">
        <ele>2184</ele>
        <time>2013-03-24T11:25:39Z</time>
      </trkpt>
      <trkpt lat="42.9513" lon="0.16424">
        <ele>2184</ele>
        <time>2013-03-24T11:25:41Z</time>
      </trkpt>
      <trkpt lat="42.9513" lon="0.16426">
        <ele>2184</ele>
        <time>2013-03-24T11:25:43Z</time>
      </trkpt>
      <trkpt lat="42.95129" lon="0.16428">
        <ele>2184</ele>
        <time>2013-03-24T11:25:45Z</time>
      </trkpt>
      <trkpt lat="42.95129" lon="0.1643">
        <ele>2184</ele>
        <time>2013-03-24T11:25:47Z</time>
      </trkpt>
      <trkpt lat="42.95129" lon="0.16432">
        <ele>2184</ele>
        <time>2013-03-24T11:25:49Z</time>
      </trkpt>
      <trkpt lat="42.95128" lon="0.16434">
        <ele>2184</ele>
        <time>2013-03-24T11:25:51Z</time>
      </trkpt>
      <trkpt lat="42.95127" lon="0.16436">
        <ele>2184</ele>
        <time>2013-03-24T11:25:53Z</time>
      </trkpt>
      <trkpt lat="42.95126" lon="0.16438">
        <ele>2184</ele>
        <time>2013-03-24T11:25:55Z</time>
      </trkpt>
      <trkpt lat="42.95126" lon="0.1644">
        <ele>2184</ele>
        <time>2013-03-24T11:25:57Z</time>
      </trkpt>
      <trkpt lat="42.95125" lon="0.16442">
        <ele>2184</ele>
        <time>2013-03-24T11:25:59Z</time>
      </trkpt>
      <trkpt lat="42.95125" lon="0.16444">
        <ele>2184</ele>
        <time>2013-03-24T11:26:01Z</time>
      </trkpt>
      <trkpt lat="42.95125" lon="0.16447">
        <ele>2184</ele>
        <time>2013-03-24T11:26:03Z</time>
      </trkpt>
      <trkpt lat="42.95124" lon="0.16448">
        <ele>2184</ele>
        <time>2013-03-24T11:26:06Z</time>
      </trkpt>
      <trkpt lat="42.95124" lon="0.1645">
        <ele>2184</ele>
        <time>2013-03-24T11:26:08Z</time>
      </trkpt>
      <trkpt lat="42.95123" lon="0.16452">
        <ele>2184</ele>
        <time>2013-03-24T11:26:11Z</time>
      </trkpt>
      <trkpt lat="42.95123" lon="0.16454">
        <ele>2184</ele>
        <time>2013-03-24T11:26:14Z</time>
      </trkpt>
      <trkpt lat="42.95124" lon="0.16454">
        <ele>2184</ele>
        <time>2013-03-24T11:26:17Z</time>
      </trkpt>
      <trkpt lat="42.95123" lon="0.16456">
        <ele>2184</ele>
        <time>2013-03-24T11:26:21Z</time>
      </trkpt>
      <trkpt lat="42.95124" lon="0.16457">
        <ele>2184</ele>
        <time>2013-03-24T11:26:26Z</time>
      </trkpt>
      <trkpt lat="42.95123" lon="0.16459">
        <ele>2184</ele>
        <time>2013-03-24T11:26:28Z</time>
      </trkpt>
      <trkpt lat="42.95123" lon="0.1646">
        <ele>2184</ele>
        <time>2013-03-24T11:26:31Z</time>
      </trkpt>
      <trkpt lat="42.95123" lon="0.16462">
        <ele>2185</ele>
        <time>2013-03-24T11:26:35Z</time>
      </trkpt>
      <trkpt lat="42.95123" lon="0.16463">
        <ele>2185</ele>
        <time>2013-03-24T11:26:41Z</time>
      </trkpt>
      <trkpt lat="42.95124" lon="0.16463">
        <ele>2186</ele>
        <time>2013-03-24T11:26:48Z</time>
      </trkpt>
      <trkpt lat="42.95126" lon="0.16461">
        <ele>2186</ele>
        <time>2013-03-24T11:26:51Z</time>
      </trkpt>
      <trkpt lat="42.95127" lon="0.16461">
        <ele>2187</ele>
        <time>2013-03-24T11:27:00Z</time>
      </trkpt>
      <trkpt lat="42.95126" lon="0.16463">
        <ele>2189</ele>
        <time>2013-03-24T11:27:22Z</time>
      </trkpt>
      <trkpt lat="42.95126" lon="0.16464">
        <ele>2189</ele>
        <time>2013-03-24T11:27:27Z</time>
      </trkpt>
      <trkpt lat="42.95127" lon="0.16466">
        <ele>2190</ele>
        <time>2013-03-24T11:27:42Z</time>
      </trkpt>
      <trkpt lat="42.95128" lon="0.16467">
        <ele>2191</ele>
        <time>2013-03-24T11:27:59Z</time>
      </trkpt>
      <trkpt lat="42.95129" lon="0.16467">
        <ele>2192</ele>
        <time>2013-03-24T11:28:07Z</time>
      </trkpt>
      <trkpt lat="42.9513" lon="0.16468">
        <ele>2193</ele>
        <time>2013-03-24T11:28:12Z</time>
      </trkpt>
      <trkpt lat="42.95131" lon="0.1647">
        <ele>2194</ele>
        <time>2013-03-24T11:28:17Z</time>
      </trkpt>
      <trkpt lat="42.95132" lon="0.1647">
        <ele>2195</ele>
        <time>2013-03-24T11:28:21Z</time>
      </trkpt>
      <trkpt lat="42.95133" lon="0.16472">
        <ele>2196</ele>
        <time>2013-03-24T11:28:24Z</time>
      </trkpt>
      <trkpt lat="42.95133" lon="0.16473">
        <ele>2197</ele>
        <time>2013-03-24T11:28:27Z</time>
      </trkpt>
      <trkpt lat="42.95134" lon="0.16475">
        <ele>2198</ele>
        <time>2013-03-24T11:28:33Z</time>
      </trkpt>
      <trkpt lat="42.95133" lon="0.16477">
        <ele>2198</ele>
        <time>2013-03-24T11:28:38Z</time>
      </trkpt>
      <trkpt lat="42.95133" lon="0.16478">
        <ele>2199</ele>
        <time>2013-03-24T11:28:40Z</time>
      </trkpt>
      <trkpt lat="42.95133" lon="0.1648">
        <ele>2199</ele>
        <time>2013-03-24T11:28:42Z</time>
      </trkpt>
      <trkpt lat="42.95132" lon="0.16482">
        <ele>2200</ele>
        <time>2013-03-24T11:29:05Z</time>
      </trkpt>
      <trkpt lat="42.95132" lon="0.16483">
        <ele>2200</ele>
        <time>2013-03-24T11:29:08Z</time>
      </trkpt>
      <trkpt lat="42.95132" lon="0.16485">
        <ele>2200</ele>
        <time>2013-03-24T11:29:12Z</time>
      </trkpt>
      <trkpt lat="42.95132" lon="0.16487">
        <ele>2200</ele>
        <time>2013-03-24T11:29:14Z</time>
      </trkpt>
      <trkpt lat="42.95132" lon="0.16488">
        <ele>2200</ele>
        <time>2013-03-24T11:29:16Z</time>
      </trkpt>
      <trkpt lat="42.95132" lon="0.1649">
        <ele>2201</ele>
        <time>2013-03-24T11:29:20Z</time>
      </trkpt>
      <trkpt lat="42.95131" lon="0.16491">
        <ele>2201</ele>
        <time>2013-03-24T11:29:23Z</time>
      </trkpt>
      <trkpt lat="42.95131" lon="0.16493">
        <ele>2201</ele>
        <time>2013-03-24T11:29:25Z</time>
      </trkpt>
      <trkpt lat="42.95131" lon="0.16495">
        <ele>2202</ele>
        <time>2013-03-24T11:29:29Z</time>
      </trkpt>
      <trkpt lat="42.95132" lon="0.16495">
        <ele>2203</ele>
        <time>2013-03-24T11:30:00Z</time>
      </trkpt>
      <trkpt lat="42.95131" lon="0.16496">
        <ele>2204</ele>
        <time>2013-03-24T11:31:41Z</time>
      </trkpt>
      <trkpt lat="42.95129" lon="0.16495">
        <ele>2205</ele>
        <time>2013-03-24T11:34:18Z</time>
      </trkpt>
      <trkpt lat="42.95129" lon="0.16497">
        <ele>2206</ele>
        <time>2013-03-24T11:34:38Z</time>
      </trkpt>
      <trkpt lat="42.95129" lon="0.16495">
        <ele>2206</ele>
        <time>2013-03-24T11:35:44Z</time>
      </trkpt>
      <trkpt lat="42.95128" lon="0.16496">
        <ele>2206</ele>
        <time>2013-03-24T11:37:00Z</time>
      </trkpt>
      <trkpt lat="42.95129" lon="0.16498">
        <ele>2206</ele>
        <time>2013-03-24T11:38:51Z</time>
      </trkpt>
      <trkpt lat="42.95131" lon="0.16497">
        <ele>2206</ele>
        <time>2013-03-24T11:40:12Z</time>
      </trkpt>
      <trkpt lat="42.9513" lon="0.16496">
        <ele>2206</ele>
        <time>2013-03-24T11:40:43Z</time>
      </trkpt>
      <trkpt lat="42.95129" lon="0.16494">
        <ele>2206</ele>
        <time>2013-03-24T11:41:09Z</time>
      </trkpt>
      <trkpt lat="42.9513" lon="0.16496">
        <ele>2206</ele>
        <time>2013-03-24T11:41:29Z</time>
      </trkpt>
      <trkpt lat="42.95131" lon="0.16496">
        <ele>2206</ele>
        <time>2013-03-24T11:41:44Z</time>
      </trkpt>
      <trkpt lat="42.95132" lon="0.16495">
        <ele>2206</ele>
        <time>2013-03-24T11:42:35Z</time>
      </trkpt>
      <trkpt lat="42.95131" lon="0.16494">
        <ele>2206</ele>
        <time>2013-03-24T11:43:22Z</time>
      </trkpt>
      <trkpt lat="42.95132" lon="0.16494">
        <ele>2206</ele>
        <time>2013-03-24T11:44:05Z</time>
      </trkpt>
      <trkpt lat="42.95133" lon="0.16496">
        <ele>2206</ele>
        <time>2013-03-24T11:44:09Z</time>
      </trkpt>
      <trkpt lat="42.95134" lon="0.16496">
        <ele>2206</ele>
        <time>2013-03-24T11:44:15Z</time>
      </trkpt>
      <trkpt lat="42.95133" lon="0.16497">
        <ele>2205</ele>
        <time>2013-03-24T11:44:30Z</time>
      </trkpt>
      <trkpt lat="42.95132" lon="0.16496">
        <ele>2204</ele>
        <time>2013-03-24T11:44:58Z</time>
      </trkpt>
      <trkpt lat="42.95133" lon="0.16495">
        <ele>2204</ele>
        <time>2013-03-24T11:45:15Z</time>
      </trkpt>
      <trkpt lat="42.95134" lon="0.16495">
        <ele>2204</ele>
        <time>2013-03-24T11:45:21Z</time>
      </trkpt>
      <trkpt lat="42.95133" lon="0.16495">
        <ele>2204</ele>
        <time>2013-03-24T11:45:30Z</time>
      </trkpt>
      <trkpt lat="42.95134" lon="0.16495">
        <ele>2204</ele>
        <time>2013-03-24T11:45:36Z</time>
      </trkpt>
      <trkpt lat="42.95134" lon="0.16493">
        <ele>2204</ele>
        <time>2013-03-24T11:45:43Z</time>
      </trkpt>
      <trkpt lat="42.95133" lon="0.16495">
        <ele>2204</ele>
        <time>2013-03-24T11:46:01Z</time>
      </trkpt>
      <trkpt lat="42.95132" lon="0.16496">
        <ele>2204</ele>
        <time>2013-03-24T11:46:25Z</time>
      </trkpt>
      <trkpt lat="42.95131" lon="0.16497">
        <ele>2204</ele>
        <time>2013-03-24T11:46:34Z</time>
      </trkpt>
      <trkpt lat="42.9513" lon="0.16495">
        <ele>2204</ele>
        <time>2013-03-24T11:47:10Z</time>
      </trkpt>
      <trkpt lat="42.9513" lon="0.16497">
        <ele>2206</ele>
        <time>2013-03-24T11:48:06Z</time>
      </trkpt>
      <trkpt lat="42.95134" lon="0.1649">
        <ele>2199</ele>
        <time>2013-03-24T11:48:53Z</time>
      </trkpt>
      <trkpt lat="42.95134" lon="0.16492">
        <ele>2198</ele>
        <time>2013-03-24T11:48:55Z</time>
      </trkpt>
    </trkseg>
  </trk>
</gpx>